<?xml version="1.0" encoding="UTF-8" standalone="no" ?>
<gpx xmlns="http://www.topografix.com/GPX/1/1" xmlns:xsi="http://www.w3.org/2001/XMLSchema-instance" xsi:schemaLocation="http://www.topografix.com/GPX/1/1 http://www.topografix.com/GPX/1/1/gpx.xsd" version="1.1" creator="VisuGPX - https://www.visugpx.com">
  <metadata>
    <name>Kayak Golfe du Morbihan - tour de Méaban</name>
    <desc><![CDATA[Départ de la plage de Berchis et sortie du Golfe jusqu'à l'île de Méaban et aux buissons de Méaban, plateau rocheux. Pause sur l'ilot de Grégan et passage près d'Er Lannic. 20 km, 3 heures à la pagaie, bel exercice d'endurance dans un environnement unique.]]></desc>
  </metadata>
  <trk>
    <name><![CDATA[Kayak Golfe du Morbihan - tour de Méaban_1]]></name>
    <trkseg>
      <trkpt lat="47.58267" lon="-2.90549">
        <ele>6.1</ele>
        <time>2018-05-12T06:12:30Z</time>
      </trkpt>
      <trkpt lat="47.58267" lon="-2.90549">
        <ele>43</ele>
        <time>2018-05-12T06:12:35Z</time>
      </trkpt>
      <trkpt lat="47.58262" lon="-2.90551">
        <ele>53</ele>
        <time>2018-05-12T06:20:31Z</time>
      </trkpt>
      <trkpt lat="47.58258" lon="-2.90558">
        <ele>55</ele>
        <time>2018-05-12T06:20:35Z</time>
      </trkpt>
      <trkpt lat="47.58253" lon="-2.90563">
        <ele>54</ele>
        <time>2018-05-12T06:20:39Z</time>
      </trkpt>
      <trkpt lat="47.58249" lon="-2.90567">
        <ele>52</ele>
        <time>2018-05-12T06:20:43Z</time>
      </trkpt>
      <trkpt lat="47.58246" lon="-2.90571">
        <ele>54</ele>
        <time>2018-05-12T06:20:46Z</time>
      </trkpt>
      <trkpt lat="47.58244" lon="-2.90579">
        <ele>50</ele>
        <time>2018-05-12T06:20:52Z</time>
      </trkpt>
      <trkpt lat="47.58243" lon="-2.90582">
        <ele>48</ele>
        <time>2018-05-12T06:20:55Z</time>
      </trkpt>
      <trkpt lat="47.58241" lon="-2.90591">
        <ele>46</ele>
        <time>2018-05-12T06:21:02Z</time>
      </trkpt>
      <trkpt lat="47.5824" lon="-2.90596">
        <ele>46</ele>
        <time>2018-05-12T06:21:05Z</time>
      </trkpt>
      <trkpt lat="47.5824" lon="-2.906">
        <ele>46</ele>
        <time>2018-05-12T06:21:08Z</time>
      </trkpt>
      <trkpt lat="47.58236" lon="-2.90608">
        <ele>47</ele>
        <time>2018-05-12T06:21:14Z</time>
      </trkpt>
      <trkpt lat="47.58235" lon="-2.90612">
        <ele>48</ele>
        <time>2018-05-12T06:21:16Z</time>
      </trkpt>
      <trkpt lat="47.58232" lon="-2.90614">
        <ele>50</ele>
        <time>2018-05-12T06:21:24Z</time>
      </trkpt>
      <trkpt lat="47.58231" lon="-2.90621">
        <ele>62</ele>
        <time>2018-05-12T06:25:24Z</time>
      </trkpt>
      <trkpt lat="47.58233" lon="-2.90628">
        <ele>61</ele>
        <time>2018-05-12T06:25:36Z</time>
      </trkpt>
      <trkpt lat="47.58237" lon="-2.90632">
        <ele>56</ele>
        <time>2018-05-12T06:25:42Z</time>
      </trkpt>
      <trkpt lat="47.58238" lon="-2.90641">
        <ele>49</ele>
        <time>2018-05-12T06:25:49Z</time>
      </trkpt>
      <trkpt lat="47.58235" lon="-2.90647">
        <ele>49</ele>
        <time>2018-05-12T06:25:54Z</time>
      </trkpt>
      <trkpt lat="47.58231" lon="-2.90652">
        <ele>49</ele>
        <time>2018-05-12T06:25:58Z</time>
      </trkpt>
      <trkpt lat="47.58226" lon="-2.90656">
        <ele>50</ele>
        <time>2018-05-12T06:26:04Z</time>
      </trkpt>
      <trkpt lat="47.58221" lon="-2.90655">
        <ele>51</ele>
        <time>2018-05-12T06:26:11Z</time>
      </trkpt>
      <trkpt lat="47.58218" lon="-2.90654">
        <ele>51</ele>
        <time>2018-05-12T06:26:17Z</time>
      </trkpt>
      <trkpt lat="47.58215" lon="-2.90657">
        <ele>45</ele>
        <time>2018-05-12T06:26:24Z</time>
      </trkpt>
      <trkpt lat="47.58209" lon="-2.9066">
        <ele>49</ele>
        <time>2018-05-12T06:26:29Z</time>
      </trkpt>
      <trkpt lat="47.58207" lon="-2.90662">
        <ele>48</ele>
        <time>2018-05-12T06:26:32Z</time>
      </trkpt>
      <trkpt lat="47.58203" lon="-2.9066">
        <ele>50</ele>
        <time>2018-05-12T06:26:49Z</time>
      </trkpt>
      <trkpt lat="47.58198" lon="-2.90662">
        <ele>46</ele>
        <time>2018-05-12T06:27:04Z</time>
      </trkpt>
      <trkpt lat="47.58195" lon="-2.90663">
        <ele>46</ele>
        <time>2018-05-12T06:27:10Z</time>
      </trkpt>
      <trkpt lat="47.58191" lon="-2.90666">
        <ele>43</ele>
        <time>2018-05-12T06:27:16Z</time>
      </trkpt>
      <trkpt lat="47.58185" lon="-2.90669">
        <ele>42</ele>
        <time>2018-05-12T06:27:21Z</time>
      </trkpt>
      <trkpt lat="47.5818" lon="-2.90673">
        <ele>43</ele>
        <time>2018-05-12T06:27:26Z</time>
      </trkpt>
      <trkpt lat="47.58175" lon="-2.90674">
        <ele>45</ele>
        <time>2018-05-12T06:27:32Z</time>
      </trkpt>
      <trkpt lat="47.58172" lon="-2.90674">
        <ele>46</ele>
        <time>2018-05-12T06:27:35Z</time>
      </trkpt>
      <trkpt lat="47.58167" lon="-2.90674">
        <ele>46</ele>
        <time>2018-05-12T06:27:38Z</time>
      </trkpt>
      <trkpt lat="47.58163" lon="-2.90677">
        <ele>45</ele>
        <time>2018-05-12T06:27:43Z</time>
      </trkpt>
      <trkpt lat="47.58157" lon="-2.90674">
        <ele>45</ele>
        <time>2018-05-12T06:27:46Z</time>
      </trkpt>
      <trkpt lat="47.58152" lon="-2.9067">
        <ele>44</ele>
        <time>2018-05-12T06:27:53Z</time>
      </trkpt>
      <trkpt lat="47.58147" lon="-2.90666">
        <ele>44</ele>
        <time>2018-05-12T06:27:56Z</time>
      </trkpt>
      <trkpt lat="47.58145" lon="-2.90665">
        <ele>45</ele>
        <time>2018-05-12T06:27:58Z</time>
      </trkpt>
      <trkpt lat="47.5814" lon="-2.90661">
        <ele>45</ele>
        <time>2018-05-12T06:28:00Z</time>
      </trkpt>
      <trkpt lat="47.58134" lon="-2.90656">
        <ele>42</ele>
        <time>2018-05-12T06:28:04Z</time>
      </trkpt>
      <trkpt lat="47.58129" lon="-2.90653">
        <ele>44</ele>
        <time>2018-05-12T06:28:07Z</time>
      </trkpt>
      <trkpt lat="47.58127" lon="-2.90651">
        <ele>47</ele>
        <time>2018-05-12T06:28:09Z</time>
      </trkpt>
      <trkpt lat="47.58122" lon="-2.90652">
        <ele>50</ele>
        <time>2018-05-12T06:28:12Z</time>
      </trkpt>
      <trkpt lat="47.58117" lon="-2.90654">
        <ele>50</ele>
        <time>2018-05-12T06:28:16Z</time>
      </trkpt>
      <trkpt lat="47.58111" lon="-2.90657">
        <ele>47</ele>
        <time>2018-05-12T06:28:19Z</time>
      </trkpt>
      <trkpt lat="47.58107" lon="-2.90662">
        <ele>47</ele>
        <time>2018-05-12T06:28:21Z</time>
      </trkpt>
      <trkpt lat="47.58102" lon="-2.90664">
        <ele>44</ele>
        <time>2018-05-12T06:28:25Z</time>
      </trkpt>
      <trkpt lat="47.58098" lon="-2.90669">
        <ele>45</ele>
        <time>2018-05-12T06:28:27Z</time>
      </trkpt>
      <trkpt lat="47.58094" lon="-2.90673">
        <ele>48</ele>
        <time>2018-05-12T06:28:29Z</time>
      </trkpt>
      <trkpt lat="47.58092" lon="-2.90681">
        <ele>50</ele>
        <time>2018-05-12T06:28:34Z</time>
      </trkpt>
      <trkpt lat="47.58088" lon="-2.90687">
        <ele>49</ele>
        <time>2018-05-12T06:28:37Z</time>
      </trkpt>
      <trkpt lat="47.58084" lon="-2.90692">
        <ele>52</ele>
        <time>2018-05-12T06:28:40Z</time>
      </trkpt>
      <trkpt lat="47.5808" lon="-2.90696">
        <ele>53</ele>
        <time>2018-05-12T06:28:42Z</time>
      </trkpt>
      <trkpt lat="47.58077" lon="-2.90701">
        <ele>53</ele>
        <time>2018-05-12T06:28:47Z</time>
      </trkpt>
      <trkpt lat="47.58075" lon="-2.90706">
        <ele>52</ele>
        <time>2018-05-12T06:28:50Z</time>
      </trkpt>
      <trkpt lat="47.5807" lon="-2.9071">
        <ele>50</ele>
        <time>2018-05-12T06:28:53Z</time>
      </trkpt>
      <trkpt lat="47.58065" lon="-2.90717">
        <ele>50</ele>
        <time>2018-05-12T06:28:59Z</time>
      </trkpt>
      <trkpt lat="47.58062" lon="-2.9072">
        <ele>52</ele>
        <time>2018-05-12T06:29:01Z</time>
      </trkpt>
      <trkpt lat="47.58057" lon="-2.90722">
        <ele>54</ele>
        <time>2018-05-12T06:29:05Z</time>
      </trkpt>
      <trkpt lat="47.58053" lon="-2.90728">
        <ele>55</ele>
        <time>2018-05-12T06:29:09Z</time>
      </trkpt>
      <trkpt lat="47.58052" lon="-2.90735">
        <ele>55</ele>
        <time>2018-05-12T06:29:13Z</time>
      </trkpt>
      <trkpt lat="47.58046" lon="-2.90739">
        <ele>54</ele>
        <time>2018-05-12T06:29:18Z</time>
      </trkpt>
      <trkpt lat="47.58042" lon="-2.9074">
        <ele>52</ele>
        <time>2018-05-12T06:29:21Z</time>
      </trkpt>
      <trkpt lat="47.58037" lon="-2.90744">
        <ele>54</ele>
        <time>2018-05-12T06:29:25Z</time>
      </trkpt>
      <trkpt lat="47.58035" lon="-2.90745">
        <ele>56</ele>
        <time>2018-05-12T06:29:27Z</time>
      </trkpt>
      <trkpt lat="47.58032" lon="-2.90748">
        <ele>55</ele>
        <time>2018-05-12T06:29:30Z</time>
      </trkpt>
      <trkpt lat="47.58027" lon="-2.90751">
        <ele>55</ele>
        <time>2018-05-12T06:29:34Z</time>
      </trkpt>
      <trkpt lat="47.58024" lon="-2.90755">
        <ele>57</ele>
        <time>2018-05-12T06:29:39Z</time>
      </trkpt>
      <trkpt lat="47.58016" lon="-2.90753">
        <ele>59</ele>
        <time>2018-05-12T06:29:43Z</time>
      </trkpt>
      <trkpt lat="47.58011" lon="-2.90756">
        <ele>63</ele>
        <time>2018-05-12T06:29:48Z</time>
      </trkpt>
      <trkpt lat="47.58009" lon="-2.90758">
        <ele>61</ele>
        <time>2018-05-12T06:29:51Z</time>
      </trkpt>
      <trkpt lat="47.58003" lon="-2.90759">
        <ele>58</ele>
        <time>2018-05-12T06:29:54Z</time>
      </trkpt>
      <trkpt lat="47.57999" lon="-2.90758">
        <ele>58</ele>
        <time>2018-05-12T06:29:57Z</time>
      </trkpt>
      <trkpt lat="47.57992" lon="-2.90754">
        <ele>57</ele>
        <time>2018-05-12T06:30:00Z</time>
      </trkpt>
      <trkpt lat="47.57987" lon="-2.90751">
        <ele>56</ele>
        <time>2018-05-12T06:30:03Z</time>
      </trkpt>
      <trkpt lat="47.57979" lon="-2.90748">
        <ele>60</ele>
        <time>2018-05-12T06:30:07Z</time>
      </trkpt>
      <trkpt lat="47.57973" lon="-2.90749">
        <ele>63</ele>
        <time>2018-05-12T06:30:12Z</time>
      </trkpt>
      <trkpt lat="47.57967" lon="-2.90746">
        <ele>61</ele>
        <time>2018-05-12T06:30:15Z</time>
      </trkpt>
      <trkpt lat="47.57963" lon="-2.9074">
        <ele>61</ele>
        <time>2018-05-12T06:30:17Z</time>
      </trkpt>
      <trkpt lat="47.57961" lon="-2.90738">
        <ele>63</ele>
        <time>2018-05-12T06:30:19Z</time>
      </trkpt>
      <trkpt lat="47.57957" lon="-2.90734">
        <ele>62</ele>
        <time>2018-05-12T06:30:22Z</time>
      </trkpt>
      <trkpt lat="47.57952" lon="-2.9073">
        <ele>62</ele>
        <time>2018-05-12T06:30:25Z</time>
      </trkpt>
      <trkpt lat="47.57946" lon="-2.90727">
        <ele>58</ele>
        <time>2018-05-12T06:30:29Z</time>
      </trkpt>
      <trkpt lat="47.57942" lon="-2.90724">
        <ele>58</ele>
        <time>2018-05-12T06:30:32Z</time>
      </trkpt>
      <trkpt lat="47.57935" lon="-2.90727">
        <ele>60</ele>
        <time>2018-05-12T06:30:38Z</time>
      </trkpt>
      <trkpt lat="47.57927" lon="-2.9072">
        <ele>61</ele>
        <time>2018-05-12T06:30:41Z</time>
      </trkpt>
      <trkpt lat="47.57923" lon="-2.90715">
        <ele>60</ele>
        <time>2018-05-12T06:30:43Z</time>
      </trkpt>
      <trkpt lat="47.57921" lon="-2.90712">
        <ele>58</ele>
        <time>2018-05-12T06:30:45Z</time>
      </trkpt>
      <trkpt lat="47.57916" lon="-2.90707">
        <ele>61</ele>
        <time>2018-05-12T06:30:48Z</time>
      </trkpt>
      <trkpt lat="47.57911" lon="-2.90708">
        <ele>59</ele>
        <time>2018-05-12T06:30:55Z</time>
      </trkpt>
      <trkpt lat="47.57906" lon="-2.90705">
        <ele>57</ele>
        <time>2018-05-12T06:30:58Z</time>
      </trkpt>
      <trkpt lat="47.57902" lon="-2.90702">
        <ele>56</ele>
        <time>2018-05-12T06:31:00Z</time>
      </trkpt>
      <trkpt lat="47.57898" lon="-2.90698">
        <ele>55</ele>
        <time>2018-05-12T06:31:03Z</time>
      </trkpt>
      <trkpt lat="47.57894" lon="-2.90694">
        <ele>55</ele>
        <time>2018-05-12T06:31:06Z</time>
      </trkpt>
      <trkpt lat="47.57891" lon="-2.90691">
        <ele>56</ele>
        <time>2018-05-12T06:31:08Z</time>
      </trkpt>
      <trkpt lat="47.57885" lon="-2.90687">
        <ele>54</ele>
        <time>2018-05-12T06:31:13Z</time>
      </trkpt>
      <trkpt lat="47.57881" lon="-2.90683">
        <ele>52</ele>
        <time>2018-05-12T06:31:16Z</time>
      </trkpt>
      <trkpt lat="47.57876" lon="-2.90682">
        <ele>54</ele>
        <time>2018-05-12T06:31:23Z</time>
      </trkpt>
      <trkpt lat="47.5787" lon="-2.90681">
        <ele>58</ele>
        <time>2018-05-12T06:31:30Z</time>
      </trkpt>
      <trkpt lat="47.57865" lon="-2.90674">
        <ele>55</ele>
        <time>2018-05-12T06:31:34Z</time>
      </trkpt>
      <trkpt lat="47.57859" lon="-2.90673">
        <ele>52</ele>
        <time>2018-05-12T06:31:39Z</time>
      </trkpt>
      <trkpt lat="47.57855" lon="-2.90671">
        <ele>54</ele>
        <time>2018-05-12T06:31:43Z</time>
      </trkpt>
      <trkpt lat="47.5785" lon="-2.90669">
        <ele>54</ele>
        <time>2018-05-12T06:31:45Z</time>
      </trkpt>
      <trkpt lat="47.57846" lon="-2.90664">
        <ele>54</ele>
        <time>2018-05-12T06:31:47Z</time>
      </trkpt>
      <trkpt lat="47.5784" lon="-2.90663">
        <ele>53</ele>
        <time>2018-05-12T06:31:53Z</time>
      </trkpt>
      <trkpt lat="47.57833" lon="-2.90659">
        <ele>57</ele>
        <time>2018-05-12T06:31:58Z</time>
      </trkpt>
      <trkpt lat="47.57831" lon="-2.90658">
        <ele>59</ele>
        <time>2018-05-12T06:32:01Z</time>
      </trkpt>
      <trkpt lat="47.57825" lon="-2.90656">
        <ele>58</ele>
        <time>2018-05-12T06:32:07Z</time>
      </trkpt>
      <trkpt lat="47.57818" lon="-2.90655">
        <ele>61</ele>
        <time>2018-05-12T06:32:13Z</time>
      </trkpt>
      <trkpt lat="47.57811" lon="-2.90647">
        <ele>58</ele>
        <time>2018-05-12T06:32:17Z</time>
      </trkpt>
      <trkpt lat="47.57808" lon="-2.90643">
        <ele>57</ele>
        <time>2018-05-12T06:32:20Z</time>
      </trkpt>
      <trkpt lat="47.57806" lon="-2.9064">
        <ele>56</ele>
        <time>2018-05-12T06:32:21Z</time>
      </trkpt>
      <trkpt lat="47.578" lon="-2.9064">
        <ele>54</ele>
        <time>2018-05-12T06:32:25Z</time>
      </trkpt>
      <trkpt lat="47.57793" lon="-2.90637">
        <ele>54</ele>
        <time>2018-05-12T06:32:29Z</time>
      </trkpt>
      <trkpt lat="47.57788" lon="-2.90637">
        <ele>53</ele>
        <time>2018-05-12T06:32:33Z</time>
      </trkpt>
      <trkpt lat="47.57785" lon="-2.90638">
        <ele>52</ele>
        <time>2018-05-12T06:32:36Z</time>
      </trkpt>
      <trkpt lat="47.5778" lon="-2.90635">
        <ele>54</ele>
        <time>2018-05-12T06:32:39Z</time>
      </trkpt>
      <trkpt lat="47.57776" lon="-2.90631">
        <ele>55</ele>
        <time>2018-05-12T06:32:41Z</time>
      </trkpt>
      <trkpt lat="47.57771" lon="-2.90629">
        <ele>58</ele>
        <time>2018-05-12T06:32:47Z</time>
      </trkpt>
      <trkpt lat="47.57767" lon="-2.90627">
        <ele>56</ele>
        <time>2018-05-12T06:32:51Z</time>
      </trkpt>
      <trkpt lat="47.57761" lon="-2.90623">
        <ele>58</ele>
        <time>2018-05-12T06:32:55Z</time>
      </trkpt>
      <trkpt lat="47.57755" lon="-2.90619">
        <ele>54</ele>
        <time>2018-05-12T06:32:59Z</time>
      </trkpt>
      <trkpt lat="47.57751" lon="-2.90614">
        <ele>53</ele>
        <time>2018-05-12T06:33:01Z</time>
      </trkpt>
      <trkpt lat="47.57746" lon="-2.9061">
        <ele>54</ele>
        <time>2018-05-12T06:33:04Z</time>
      </trkpt>
      <trkpt lat="47.57741" lon="-2.90609">
        <ele>55</ele>
        <time>2018-05-12T06:33:08Z</time>
      </trkpt>
      <trkpt lat="47.57736" lon="-2.90604">
        <ele>56</ele>
        <time>2018-05-12T06:33:11Z</time>
      </trkpt>
      <trkpt lat="47.57733" lon="-2.90601">
        <ele>55</ele>
        <time>2018-05-12T06:33:13Z</time>
      </trkpt>
      <trkpt lat="47.57727" lon="-2.90598">
        <ele>53</ele>
        <time>2018-05-12T06:33:17Z</time>
      </trkpt>
      <trkpt lat="47.57723" lon="-2.90597">
        <ele>55</ele>
        <time>2018-05-12T06:33:20Z</time>
      </trkpt>
      <trkpt lat="47.5772" lon="-2.90592">
        <ele>56</ele>
        <time>2018-05-12T06:33:23Z</time>
      </trkpt>
      <trkpt lat="47.57715" lon="-2.90588">
        <ele>57</ele>
        <time>2018-05-12T06:33:26Z</time>
      </trkpt>
      <trkpt lat="47.57711" lon="-2.90584">
        <ele>57</ele>
        <time>2018-05-12T06:33:29Z</time>
      </trkpt>
      <trkpt lat="47.57706" lon="-2.90585">
        <ele>55</ele>
        <time>2018-05-12T06:33:32Z</time>
      </trkpt>
      <trkpt lat="47.57703" lon="-2.9058">
        <ele>55</ele>
        <time>2018-05-12T06:33:33Z</time>
      </trkpt>
      <trkpt lat="47.57699" lon="-2.90574">
        <ele>54</ele>
        <time>2018-05-12T06:33:35Z</time>
      </trkpt>
      <trkpt lat="47.57694" lon="-2.90569">
        <ele>58</ele>
        <time>2018-05-12T06:33:40Z</time>
      </trkpt>
      <trkpt lat="47.57691" lon="-2.90567">
        <ele>57</ele>
        <time>2018-05-12T06:33:42Z</time>
      </trkpt>
      <trkpt lat="47.57685" lon="-2.90564">
        <ele>57</ele>
        <time>2018-05-12T06:33:47Z</time>
      </trkpt>
      <trkpt lat="47.57679" lon="-2.90559">
        <ele>56</ele>
        <time>2018-05-12T06:33:51Z</time>
      </trkpt>
      <trkpt lat="47.57673" lon="-2.90555">
        <ele>56</ele>
        <time>2018-05-12T06:33:56Z</time>
      </trkpt>
      <trkpt lat="47.57671" lon="-2.90554">
        <ele>57</ele>
        <time>2018-05-12T06:33:57Z</time>
      </trkpt>
      <trkpt lat="47.57666" lon="-2.90552">
        <ele>58</ele>
        <time>2018-05-12T06:34:01Z</time>
      </trkpt>
      <trkpt lat="47.57663" lon="-2.90551">
        <ele>57</ele>
        <time>2018-05-12T06:34:03Z</time>
      </trkpt>
      <trkpt lat="47.57657" lon="-2.90548">
        <ele>56</ele>
        <time>2018-05-12T06:34:06Z</time>
      </trkpt>
      <trkpt lat="47.57654" lon="-2.90546">
        <ele>56</ele>
        <time>2018-05-12T06:34:08Z</time>
      </trkpt>
      <trkpt lat="47.57649" lon="-2.90546">
        <ele>59</ele>
        <time>2018-05-12T06:34:11Z</time>
      </trkpt>
      <trkpt lat="47.57645" lon="-2.90545">
        <ele>57</ele>
        <time>2018-05-12T06:34:14Z</time>
      </trkpt>
      <trkpt lat="47.57638" lon="-2.90538">
        <ele>55</ele>
        <time>2018-05-12T06:34:17Z</time>
      </trkpt>
      <trkpt lat="47.5763" lon="-2.90536">
        <ele>55</ele>
        <time>2018-05-12T06:34:22Z</time>
      </trkpt>
      <trkpt lat="47.57624" lon="-2.90534">
        <ele>56</ele>
        <time>2018-05-12T06:34:25Z</time>
      </trkpt>
      <trkpt lat="47.5762" lon="-2.90533">
        <ele>56</ele>
        <time>2018-05-12T06:34:27Z</time>
      </trkpt>
      <trkpt lat="47.57614" lon="-2.90533">
        <ele>56</ele>
        <time>2018-05-12T06:34:31Z</time>
      </trkpt>
      <trkpt lat="47.57609" lon="-2.90532">
        <ele>53</ele>
        <time>2018-05-12T06:34:35Z</time>
      </trkpt>
      <trkpt lat="47.57602" lon="-2.90531">
        <ele>53</ele>
        <time>2018-05-12T06:34:39Z</time>
      </trkpt>
      <trkpt lat="47.57596" lon="-2.90532">
        <ele>52</ele>
        <time>2018-05-12T06:34:43Z</time>
      </trkpt>
      <trkpt lat="47.57591" lon="-2.90532">
        <ele>52</ele>
        <time>2018-05-12T06:34:47Z</time>
      </trkpt>
      <trkpt lat="47.57587" lon="-2.90534">
        <ele>51</ele>
        <time>2018-05-12T06:34:50Z</time>
      </trkpt>
      <trkpt lat="47.57582" lon="-2.90535">
        <ele>51</ele>
        <time>2018-05-12T06:34:53Z</time>
      </trkpt>
      <trkpt lat="47.57576" lon="-2.90534">
        <ele>50</ele>
        <time>2018-05-12T06:34:57Z</time>
      </trkpt>
      <trkpt lat="47.57574" lon="-2.90534">
        <ele>51</ele>
        <time>2018-05-12T06:34:59Z</time>
      </trkpt>
      <trkpt lat="47.57569" lon="-2.90533">
        <ele>50</ele>
        <time>2018-05-12T06:35:02Z</time>
      </trkpt>
      <trkpt lat="47.57564" lon="-2.90533">
        <ele>49</ele>
        <time>2018-05-12T06:35:05Z</time>
      </trkpt>
      <trkpt lat="47.5756" lon="-2.90532">
        <ele>49</ele>
        <time>2018-05-12T06:35:07Z</time>
      </trkpt>
      <trkpt lat="47.57557" lon="-2.90532">
        <ele>51</ele>
        <time>2018-05-12T06:35:09Z</time>
      </trkpt>
      <trkpt lat="47.57552" lon="-2.90531">
        <ele>51</ele>
        <time>2018-05-12T06:35:12Z</time>
      </trkpt>
      <trkpt lat="47.57547" lon="-2.9053">
        <ele>49</ele>
        <time>2018-05-12T06:35:15Z</time>
      </trkpt>
      <trkpt lat="47.57544" lon="-2.90529">
        <ele>50</ele>
        <time>2018-05-12T06:35:17Z</time>
      </trkpt>
      <trkpt lat="47.57541" lon="-2.90528">
        <ele>50</ele>
        <time>2018-05-12T06:35:19Z</time>
      </trkpt>
      <trkpt lat="47.57536" lon="-2.90526">
        <ele>48</ele>
        <time>2018-05-12T06:35:22Z</time>
      </trkpt>
      <trkpt lat="47.57531" lon="-2.90525">
        <ele>47</ele>
        <time>2018-05-12T06:35:25Z</time>
      </trkpt>
      <trkpt lat="47.57528" lon="-2.90524">
        <ele>46</ele>
        <time>2018-05-12T06:35:27Z</time>
      </trkpt>
      <trkpt lat="47.57525" lon="-2.90524">
        <ele>45</ele>
        <time>2018-05-12T06:35:29Z</time>
      </trkpt>
      <trkpt lat="47.5752" lon="-2.90524">
        <ele>45</ele>
        <time>2018-05-12T06:35:32Z</time>
      </trkpt>
      <trkpt lat="47.57515" lon="-2.90522">
        <ele>45</ele>
        <time>2018-05-12T06:35:35Z</time>
      </trkpt>
      <trkpt lat="47.57512" lon="-2.90521">
        <ele>45</ele>
        <time>2018-05-12T06:35:37Z</time>
      </trkpt>
      <trkpt lat="47.57507" lon="-2.90521">
        <ele>45</ele>
        <time>2018-05-12T06:35:40Z</time>
      </trkpt>
      <trkpt lat="47.57504" lon="-2.90521">
        <ele>45</ele>
        <time>2018-05-12T06:35:42Z</time>
      </trkpt>
      <trkpt lat="47.57503" lon="-2.90523">
        <ele>47</ele>
        <time>2018-05-12T06:35:50Z</time>
      </trkpt>
      <trkpt lat="47.57498" lon="-2.90523">
        <ele>47</ele>
        <time>2018-05-12T06:36:26Z</time>
      </trkpt>
      <trkpt lat="47.57492" lon="-2.90526">
        <ele>49</ele>
        <time>2018-05-12T06:36:31Z</time>
      </trkpt>
      <trkpt lat="47.57488" lon="-2.90528">
        <ele>53</ele>
        <time>2018-05-12T06:36:34Z</time>
      </trkpt>
      <trkpt lat="47.57483" lon="-2.90527">
        <ele>54</ele>
        <time>2018-05-12T06:36:38Z</time>
      </trkpt>
      <trkpt lat="47.57478" lon="-2.90527">
        <ele>54</ele>
        <time>2018-05-12T06:36:41Z</time>
      </trkpt>
      <trkpt lat="47.57473" lon="-2.90524">
        <ele>54</ele>
        <time>2018-05-12T06:36:45Z</time>
      </trkpt>
      <trkpt lat="47.57467" lon="-2.90522">
        <ele>54</ele>
        <time>2018-05-12T06:36:49Z</time>
      </trkpt>
      <trkpt lat="47.57463" lon="-2.9052">
        <ele>53</ele>
        <time>2018-05-12T06:36:52Z</time>
      </trkpt>
      <trkpt lat="47.57457" lon="-2.9052">
        <ele>53</ele>
        <time>2018-05-12T06:36:56Z</time>
      </trkpt>
      <trkpt lat="47.57452" lon="-2.90517">
        <ele>53</ele>
        <time>2018-05-12T06:37:00Z</time>
      </trkpt>
      <trkpt lat="47.57447" lon="-2.90515">
        <ele>53</ele>
        <time>2018-05-12T06:37:03Z</time>
      </trkpt>
      <trkpt lat="47.57445" lon="-2.90513">
        <ele>53</ele>
        <time>2018-05-12T06:37:05Z</time>
      </trkpt>
      <trkpt lat="47.57439" lon="-2.90513">
        <ele>54</ele>
        <time>2018-05-12T06:37:10Z</time>
      </trkpt>
      <trkpt lat="47.57435" lon="-2.90509">
        <ele>53</ele>
        <time>2018-05-12T06:37:12Z</time>
      </trkpt>
      <trkpt lat="47.57429" lon="-2.90509">
        <ele>53</ele>
        <time>2018-05-12T06:37:16Z</time>
      </trkpt>
      <trkpt lat="47.57425" lon="-2.90511">
        <ele>54</ele>
        <time>2018-05-12T06:37:19Z</time>
      </trkpt>
      <trkpt lat="47.57421" lon="-2.90513">
        <ele>54</ele>
        <time>2018-05-12T06:37:21Z</time>
      </trkpt>
      <trkpt lat="47.57417" lon="-2.90513">
        <ele>53</ele>
        <time>2018-05-12T06:37:24Z</time>
      </trkpt>
      <trkpt lat="47.57412" lon="-2.90511">
        <ele>53</ele>
        <time>2018-05-12T06:37:27Z</time>
      </trkpt>
      <trkpt lat="47.57409" lon="-2.9051">
        <ele>54</ele>
        <time>2018-05-12T06:37:29Z</time>
      </trkpt>
      <trkpt lat="47.57405" lon="-2.90505">
        <ele>54</ele>
        <time>2018-05-12T06:37:34Z</time>
      </trkpt>
      <trkpt lat="47.57401" lon="-2.90498">
        <ele>57</ele>
        <time>2018-05-12T06:37:43Z</time>
      </trkpt>
      <trkpt lat="47.57398" lon="-2.9049">
        <ele>57</ele>
        <time>2018-05-12T06:37:45Z</time>
      </trkpt>
      <trkpt lat="47.57396" lon="-2.90485">
        <ele>58</ele>
        <time>2018-05-12T06:37:47Z</time>
      </trkpt>
      <trkpt lat="47.57398" lon="-2.9049">
        <ele>57</ele>
        <time>2018-05-12T06:37:55Z</time>
      </trkpt>
      <trkpt lat="47.57394" lon="-2.90487">
        <ele>55</ele>
        <time>2018-05-12T06:38:11Z</time>
      </trkpt>
      <trkpt lat="47.57389" lon="-2.9049">
        <ele>57</ele>
        <time>2018-05-12T06:38:18Z</time>
      </trkpt>
      <trkpt lat="47.57384" lon="-2.9049">
        <ele>59</ele>
        <time>2018-05-12T06:38:21Z</time>
      </trkpt>
      <trkpt lat="47.57382" lon="-2.90489">
        <ele>59</ele>
        <time>2018-05-12T06:38:23Z</time>
      </trkpt>
      <trkpt lat="47.57377" lon="-2.90493">
        <ele>61</ele>
        <time>2018-05-12T06:38:26Z</time>
      </trkpt>
      <trkpt lat="47.57372" lon="-2.90495">
        <ele>60</ele>
        <time>2018-05-12T06:38:30Z</time>
      </trkpt>
      <trkpt lat="47.57366" lon="-2.905">
        <ele>61</ele>
        <time>2018-05-12T06:38:33Z</time>
      </trkpt>
      <trkpt lat="47.57361" lon="-2.905">
        <ele>60</ele>
        <time>2018-05-12T06:38:37Z</time>
      </trkpt>
      <trkpt lat="47.57358" lon="-2.90501">
        <ele>58</ele>
        <time>2018-05-12T06:38:39Z</time>
      </trkpt>
      <trkpt lat="47.57355" lon="-2.90501">
        <ele>61</ele>
        <time>2018-05-12T06:38:41Z</time>
      </trkpt>
      <trkpt lat="47.57352" lon="-2.90501">
        <ele>61</ele>
        <time>2018-05-12T06:38:43Z</time>
      </trkpt>
      <trkpt lat="47.57348" lon="-2.90501">
        <ele>62</ele>
        <time>2018-05-12T06:38:46Z</time>
      </trkpt>
      <trkpt lat="47.57343" lon="-2.90499">
        <ele>61</ele>
        <time>2018-05-12T06:38:51Z</time>
      </trkpt>
      <trkpt lat="47.5734" lon="-2.90504">
        <ele>60</ele>
        <time>2018-05-12T06:38:56Z</time>
      </trkpt>
      <trkpt lat="47.57335" lon="-2.90502">
        <ele>59</ele>
        <time>2018-05-12T06:39:00Z</time>
      </trkpt>
      <trkpt lat="47.57333" lon="-2.90501">
        <ele>60</ele>
        <time>2018-05-12T06:39:01Z</time>
      </trkpt>
      <trkpt lat="47.57329" lon="-2.90506">
        <ele>58</ele>
        <time>2018-05-12T06:39:04Z</time>
      </trkpt>
      <trkpt lat="47.57323" lon="-2.90511">
        <ele>59</ele>
        <time>2018-05-12T06:39:08Z</time>
      </trkpt>
      <trkpt lat="47.57319" lon="-2.90505">
        <ele>60</ele>
        <time>2018-05-12T06:39:13Z</time>
      </trkpt>
      <trkpt lat="47.57314" lon="-2.90508">
        <ele>59</ele>
        <time>2018-05-12T06:39:19Z</time>
      </trkpt>
      <trkpt lat="47.57306" lon="-2.90512">
        <ele>60</ele>
        <time>2018-05-12T06:39:23Z</time>
      </trkpt>
      <trkpt lat="47.573" lon="-2.9051">
        <ele>56</ele>
        <time>2018-05-12T06:39:28Z</time>
      </trkpt>
      <trkpt lat="47.57295" lon="-2.90515">
        <ele>58</ele>
        <time>2018-05-12T06:39:31Z</time>
      </trkpt>
      <trkpt lat="47.5729" lon="-2.90518">
        <ele>59</ele>
        <time>2018-05-12T06:39:33Z</time>
      </trkpt>
      <trkpt lat="47.57286" lon="-2.90513">
        <ele>54</ele>
        <time>2018-05-12T06:39:37Z</time>
      </trkpt>
      <trkpt lat="47.57281" lon="-2.90509">
        <ele>52</ele>
        <time>2018-05-12T06:39:41Z</time>
      </trkpt>
      <trkpt lat="47.57275" lon="-2.90511">
        <ele>50</ele>
        <time>2018-05-12T06:39:45Z</time>
      </trkpt>
      <trkpt lat="47.57268" lon="-2.9051">
        <ele>49</ele>
        <time>2018-05-12T06:39:50Z</time>
      </trkpt>
      <trkpt lat="47.57263" lon="-2.9051">
        <ele>49</ele>
        <time>2018-05-12T06:39:54Z</time>
      </trkpt>
      <trkpt lat="47.57258" lon="-2.90513">
        <ele>50</ele>
        <time>2018-05-12T06:39:57Z</time>
      </trkpt>
      <trkpt lat="47.57253" lon="-2.90511">
        <ele>55</ele>
        <time>2018-05-12T06:40:02Z</time>
      </trkpt>
      <trkpt lat="47.57247" lon="-2.9051">
        <ele>55</ele>
        <time>2018-05-12T06:40:05Z</time>
      </trkpt>
      <trkpt lat="47.57243" lon="-2.90509">
        <ele>56</ele>
        <time>2018-05-12T06:40:07Z</time>
      </trkpt>
      <trkpt lat="47.57239" lon="-2.90508">
        <ele>57</ele>
        <time>2018-05-12T06:40:09Z</time>
      </trkpt>
      <trkpt lat="47.57236" lon="-2.90507">
        <ele>56</ele>
        <time>2018-05-12T06:40:11Z</time>
      </trkpt>
      <trkpt lat="47.57233" lon="-2.90506">
        <ele>60</ele>
        <time>2018-05-12T06:40:14Z</time>
      </trkpt>
      <trkpt lat="47.57227" lon="-2.90502">
        <ele>60</ele>
        <time>2018-05-12T06:40:17Z</time>
      </trkpt>
      <trkpt lat="47.5722" lon="-2.90497">
        <ele>55</ele>
        <time>2018-05-12T06:40:21Z</time>
      </trkpt>
      <trkpt lat="47.57217" lon="-2.90495">
        <ele>56</ele>
        <time>2018-05-12T06:40:23Z</time>
      </trkpt>
      <trkpt lat="47.57213" lon="-2.90493">
        <ele>53</ele>
        <time>2018-05-12T06:40:25Z</time>
      </trkpt>
      <trkpt lat="47.57211" lon="-2.90492">
        <ele>54</ele>
        <time>2018-05-12T06:40:26Z</time>
      </trkpt>
      <trkpt lat="47.57206" lon="-2.9049">
        <ele>55</ele>
        <time>2018-05-12T06:40:29Z</time>
      </trkpt>
      <trkpt lat="47.57202" lon="-2.90486">
        <ele>54</ele>
        <time>2018-05-12T06:40:32Z</time>
      </trkpt>
      <trkpt lat="47.57195" lon="-2.90482">
        <ele>53</ele>
        <time>2018-05-12T06:40:38Z</time>
      </trkpt>
      <trkpt lat="47.57191" lon="-2.90478">
        <ele>53</ele>
        <time>2018-05-12T06:40:40Z</time>
      </trkpt>
      <trkpt lat="47.57189" lon="-2.90476">
        <ele>53</ele>
        <time>2018-05-12T06:40:41Z</time>
      </trkpt>
      <trkpt lat="47.57185" lon="-2.90473">
        <ele>54</ele>
        <time>2018-05-12T06:40:43Z</time>
      </trkpt>
      <trkpt lat="47.57182" lon="-2.90467">
        <ele>53</ele>
        <time>2018-05-12T06:40:46Z</time>
      </trkpt>
      <trkpt lat="47.57176" lon="-2.9046">
        <ele>52</ele>
        <time>2018-05-12T06:40:49Z</time>
      </trkpt>
      <trkpt lat="47.57169" lon="-2.90455">
        <ele>51</ele>
        <time>2018-05-12T06:40:53Z</time>
      </trkpt>
      <trkpt lat="47.57165" lon="-2.9045">
        <ele>49</ele>
        <time>2018-05-12T06:40:56Z</time>
      </trkpt>
      <trkpt lat="47.57159" lon="-2.90443">
        <ele>46</ele>
        <time>2018-05-12T06:40:59Z</time>
      </trkpt>
      <trkpt lat="47.57154" lon="-2.90439">
        <ele>50</ele>
        <time>2018-05-12T06:41:02Z</time>
      </trkpt>
      <trkpt lat="47.57149" lon="-2.90434">
        <ele>52</ele>
        <time>2018-05-12T06:41:05Z</time>
      </trkpt>
      <trkpt lat="47.57147" lon="-2.90431">
        <ele>52</ele>
        <time>2018-05-12T06:41:07Z</time>
      </trkpt>
      <trkpt lat="47.57142" lon="-2.90428">
        <ele>51</ele>
        <time>2018-05-12T06:41:10Z</time>
      </trkpt>
      <trkpt lat="47.57138" lon="-2.90423">
        <ele>50</ele>
        <time>2018-05-12T06:41:12Z</time>
      </trkpt>
      <trkpt lat="47.57132" lon="-2.90418">
        <ele>50</ele>
        <time>2018-05-12T06:41:15Z</time>
      </trkpt>
      <trkpt lat="47.57128" lon="-2.90414">
        <ele>48</ele>
        <time>2018-05-12T06:41:18Z</time>
      </trkpt>
      <trkpt lat="47.57122" lon="-2.90408">
        <ele>51</ele>
        <time>2018-05-12T06:41:22Z</time>
      </trkpt>
      <trkpt lat="47.57114" lon="-2.90403">
        <ele>56</ele>
        <time>2018-05-12T06:41:26Z</time>
      </trkpt>
      <trkpt lat="47.57109" lon="-2.90398">
        <ele>56</ele>
        <time>2018-05-12T06:41:28Z</time>
      </trkpt>
      <trkpt lat="47.57104" lon="-2.90395">
        <ele>55</ele>
        <time>2018-05-12T06:41:30Z</time>
      </trkpt>
      <trkpt lat="47.571" lon="-2.90391">
        <ele>56</ele>
        <time>2018-05-12T06:41:32Z</time>
      </trkpt>
      <trkpt lat="47.57095" lon="-2.90388">
        <ele>57</ele>
        <time>2018-05-12T06:41:34Z</time>
      </trkpt>
      <trkpt lat="47.57093" lon="-2.90386">
        <ele>57</ele>
        <time>2018-05-12T06:41:35Z</time>
      </trkpt>
      <trkpt lat="47.57089" lon="-2.90382">
        <ele>57</ele>
        <time>2018-05-12T06:41:37Z</time>
      </trkpt>
      <trkpt lat="47.57086" lon="-2.9038">
        <ele>57</ele>
        <time>2018-05-12T06:41:39Z</time>
      </trkpt>
      <trkpt lat="47.57081" lon="-2.90378">
        <ele>56</ele>
        <time>2018-05-12T06:41:42Z</time>
      </trkpt>
      <trkpt lat="47.57077" lon="-2.90377">
        <ele>57</ele>
        <time>2018-05-12T06:41:44Z</time>
      </trkpt>
      <trkpt lat="47.57072" lon="-2.90378">
        <ele>58</ele>
        <time>2018-05-12T06:41:47Z</time>
      </trkpt>
      <trkpt lat="47.57066" lon="-2.90375">
        <ele>60</ele>
        <time>2018-05-12T06:41:51Z</time>
      </trkpt>
      <trkpt lat="47.5706" lon="-2.90374">
        <ele>59</ele>
        <time>2018-05-12T06:41:55Z</time>
      </trkpt>
      <trkpt lat="47.57055" lon="-2.90375">
        <ele>61</ele>
        <time>2018-05-12T06:41:59Z</time>
      </trkpt>
      <trkpt lat="47.57048" lon="-2.90374">
        <ele>60</ele>
        <time>2018-05-12T06:42:02Z</time>
      </trkpt>
      <trkpt lat="47.57045" lon="-2.90374">
        <ele>52</ele>
        <time>2018-05-12T06:42:07Z</time>
      </trkpt>
      <trkpt lat="47.5704" lon="-2.90375">
        <ele>54</ele>
        <time>2018-05-12T06:42:10Z</time>
      </trkpt>
      <trkpt lat="47.57035" lon="-2.90377">
        <ele>56</ele>
        <time>2018-05-12T06:42:12Z</time>
      </trkpt>
      <trkpt lat="47.57028" lon="-2.90377">
        <ele>55</ele>
        <time>2018-05-12T06:42:16Z</time>
      </trkpt>
      <trkpt lat="47.57026" lon="-2.9037">
        <ele>52</ele>
        <time>2018-05-12T06:42:20Z</time>
      </trkpt>
      <trkpt lat="47.5702" lon="-2.90372">
        <ele>50</ele>
        <time>2018-05-12T06:42:27Z</time>
      </trkpt>
      <trkpt lat="47.57018" lon="-2.90374">
        <ele>50</ele>
        <time>2018-05-12T06:42:35Z</time>
      </trkpt>
      <trkpt lat="47.57013" lon="-2.9037">
        <ele>52</ele>
        <time>2018-05-12T06:43:13Z</time>
      </trkpt>
      <trkpt lat="47.57008" lon="-2.90371">
        <ele>53</ele>
        <time>2018-05-12T06:43:19Z</time>
      </trkpt>
      <trkpt lat="47.57003" lon="-2.90369">
        <ele>52</ele>
        <time>2018-05-12T06:43:28Z</time>
      </trkpt>
      <trkpt lat="47.56998" lon="-2.90369">
        <ele>53</ele>
        <time>2018-05-12T06:43:38Z</time>
      </trkpt>
      <trkpt lat="47.56994" lon="-2.90367">
        <ele>50</ele>
        <time>2018-05-12T06:43:46Z</time>
      </trkpt>
      <trkpt lat="47.56991" lon="-2.90366">
        <ele>48</ele>
        <time>2018-05-12T06:43:49Z</time>
      </trkpt>
      <trkpt lat="47.56986" lon="-2.90362">
        <ele>52</ele>
        <time>2018-05-12T06:43:52Z</time>
      </trkpt>
      <trkpt lat="47.56985" lon="-2.9036">
        <ele>51</ele>
        <time>2018-05-12T06:43:54Z</time>
      </trkpt>
      <trkpt lat="47.56981" lon="-2.90356">
        <ele>51</ele>
        <time>2018-05-12T06:44:00Z</time>
      </trkpt>
      <trkpt lat="47.56976" lon="-2.90353">
        <ele>53</ele>
        <time>2018-05-12T06:44:06Z</time>
      </trkpt>
      <trkpt lat="47.56971" lon="-2.90352">
        <ele>53</ele>
        <time>2018-05-12T06:44:12Z</time>
      </trkpt>
      <trkpt lat="47.56969" lon="-2.90351">
        <ele>53</ele>
        <time>2018-05-12T06:44:14Z</time>
      </trkpt>
      <trkpt lat="47.56963" lon="-2.90348">
        <ele>51</ele>
        <time>2018-05-12T06:44:17Z</time>
      </trkpt>
      <trkpt lat="47.56957" lon="-2.90345">
        <ele>52</ele>
        <time>2018-05-12T06:44:20Z</time>
      </trkpt>
      <trkpt lat="47.56951" lon="-2.90345">
        <ele>51</ele>
        <time>2018-05-12T06:44:23Z</time>
      </trkpt>
      <trkpt lat="47.56946" lon="-2.90347">
        <ele>51</ele>
        <time>2018-05-12T06:44:26Z</time>
      </trkpt>
      <trkpt lat="47.56943" lon="-2.90348">
        <ele>50</ele>
        <time>2018-05-12T06:44:28Z</time>
      </trkpt>
      <trkpt lat="47.56938" lon="-2.9035">
        <ele>52</ele>
        <time>2018-05-12T06:44:31Z</time>
      </trkpt>
      <trkpt lat="47.56933" lon="-2.90354">
        <ele>53</ele>
        <time>2018-05-12T06:44:34Z</time>
      </trkpt>
      <trkpt lat="47.56928" lon="-2.90356">
        <ele>50</ele>
        <time>2018-05-12T06:44:39Z</time>
      </trkpt>
      <trkpt lat="47.56924" lon="-2.90356">
        <ele>50</ele>
        <time>2018-05-12T06:44:41Z</time>
      </trkpt>
      <trkpt lat="47.56921" lon="-2.90357">
        <ele>51</ele>
        <time>2018-05-12T06:44:43Z</time>
      </trkpt>
      <trkpt lat="47.56916" lon="-2.9036">
        <ele>50</ele>
        <time>2018-05-12T06:44:46Z</time>
      </trkpt>
      <trkpt lat="47.56909" lon="-2.90359">
        <ele>49</ele>
        <time>2018-05-12T06:44:49Z</time>
      </trkpt>
      <trkpt lat="47.56903" lon="-2.9036">
        <ele>48</ele>
        <time>2018-05-12T06:44:52Z</time>
      </trkpt>
      <trkpt lat="47.56896" lon="-2.90362">
        <ele>46</ele>
        <time>2018-05-12T06:44:55Z</time>
      </trkpt>
      <trkpt lat="47.56891" lon="-2.90364">
        <ele>45</ele>
        <time>2018-05-12T06:44:57Z</time>
      </trkpt>
      <trkpt lat="47.56889" lon="-2.90365">
        <ele>45</ele>
        <time>2018-05-12T06:44:58Z</time>
      </trkpt>
      <trkpt lat="47.56883" lon="-2.90366">
        <ele>47</ele>
        <time>2018-05-12T06:45:00Z</time>
      </trkpt>
      <trkpt lat="47.56879" lon="-2.90369">
        <ele>46</ele>
        <time>2018-05-12T06:45:02Z</time>
      </trkpt>
      <trkpt lat="47.56874" lon="-2.90372">
        <ele>45</ele>
        <time>2018-05-12T06:45:04Z</time>
      </trkpt>
      <trkpt lat="47.5687" lon="-2.90374">
        <ele>46</ele>
        <time>2018-05-12T06:45:06Z</time>
      </trkpt>
      <trkpt lat="47.56867" lon="-2.90375">
        <ele>46</ele>
        <time>2018-05-12T06:45:07Z</time>
      </trkpt>
      <trkpt lat="47.56863" lon="-2.90376">
        <ele>46</ele>
        <time>2018-05-12T06:45:08Z</time>
      </trkpt>
      <trkpt lat="47.56859" lon="-2.90377">
        <ele>48</ele>
        <time>2018-05-12T06:45:10Z</time>
      </trkpt>
      <trkpt lat="47.56854" lon="-2.9038">
        <ele>50</ele>
        <time>2018-05-12T06:45:12Z</time>
      </trkpt>
      <trkpt lat="47.56849" lon="-2.90383">
        <ele>51</ele>
        <time>2018-05-12T06:45:14Z</time>
      </trkpt>
      <trkpt lat="47.56843" lon="-2.90388">
        <ele>51</ele>
        <time>2018-05-12T06:45:16Z</time>
      </trkpt>
      <trkpt lat="47.56835" lon="-2.90392">
        <ele>52</ele>
        <time>2018-05-12T06:45:19Z</time>
      </trkpt>
      <trkpt lat="47.5683" lon="-2.90395">
        <ele>52</ele>
        <time>2018-05-12T06:45:21Z</time>
      </trkpt>
      <trkpt lat="47.56828" lon="-2.90397">
        <ele>52</ele>
        <time>2018-05-12T06:45:22Z</time>
      </trkpt>
      <trkpt lat="47.56822" lon="-2.904">
        <ele>52</ele>
        <time>2018-05-12T06:45:24Z</time>
      </trkpt>
      <trkpt lat="47.56816" lon="-2.90405">
        <ele>52</ele>
        <time>2018-05-12T06:45:26Z</time>
      </trkpt>
      <trkpt lat="47.5681" lon="-2.90412">
        <ele>52</ele>
        <time>2018-05-12T06:45:28Z</time>
      </trkpt>
      <trkpt lat="47.56807" lon="-2.90415">
        <ele>53</ele>
        <time>2018-05-12T06:45:29Z</time>
      </trkpt>
      <trkpt lat="47.56802" lon="-2.9042">
        <ele>53</ele>
        <time>2018-05-12T06:45:31Z</time>
      </trkpt>
      <trkpt lat="47.56796" lon="-2.90426">
        <ele>53</ele>
        <time>2018-05-12T06:45:33Z</time>
      </trkpt>
      <trkpt lat="47.56788" lon="-2.90435">
        <ele>54</ele>
        <time>2018-05-12T06:45:36Z</time>
      </trkpt>
      <trkpt lat="47.56786" lon="-2.90438">
        <ele>55</ele>
        <time>2018-05-12T06:45:37Z</time>
      </trkpt>
      <trkpt lat="47.5678" lon="-2.90446">
        <ele>54</ele>
        <time>2018-05-12T06:45:39Z</time>
      </trkpt>
      <trkpt lat="47.5677" lon="-2.90454">
        <ele>56</ele>
        <time>2018-05-12T06:45:42Z</time>
      </trkpt>
      <trkpt lat="47.56763" lon="-2.90454">
        <ele>52</ele>
        <time>2018-05-12T06:45:45Z</time>
      </trkpt>
      <trkpt lat="47.56758" lon="-2.90457">
        <ele>52</ele>
        <time>2018-05-12T06:45:47Z</time>
      </trkpt>
      <trkpt lat="47.56755" lon="-2.90458">
        <ele>52</ele>
        <time>2018-05-12T06:45:48Z</time>
      </trkpt>
      <trkpt lat="47.56752" lon="-2.90461">
        <ele>52</ele>
        <time>2018-05-12T06:45:49Z</time>
      </trkpt>
      <trkpt lat="47.56748" lon="-2.90463">
        <ele>52</ele>
        <time>2018-05-12T06:45:50Z</time>
      </trkpt>
      <trkpt lat="47.56744" lon="-2.90467">
        <ele>53</ele>
        <time>2018-05-12T06:45:51Z</time>
      </trkpt>
      <trkpt lat="47.56741" lon="-2.9047">
        <ele>55</ele>
        <time>2018-05-12T06:45:52Z</time>
      </trkpt>
      <trkpt lat="47.56736" lon="-2.90478">
        <ele>56</ele>
        <time>2018-05-12T06:45:54Z</time>
      </trkpt>
      <trkpt lat="47.56733" lon="-2.90482">
        <ele>55</ele>
        <time>2018-05-12T06:45:55Z</time>
      </trkpt>
      <trkpt lat="47.56728" lon="-2.90491">
        <ele>54</ele>
        <time>2018-05-12T06:45:57Z</time>
      </trkpt>
      <trkpt lat="47.56725" lon="-2.90496">
        <ele>54</ele>
        <time>2018-05-12T06:45:58Z</time>
      </trkpt>
      <trkpt lat="47.56723" lon="-2.90501">
        <ele>54</ele>
        <time>2018-05-12T06:45:59Z</time>
      </trkpt>
      <trkpt lat="47.56717" lon="-2.90511">
        <ele>54</ele>
        <time>2018-05-12T06:46:01Z</time>
      </trkpt>
      <trkpt lat="47.56714" lon="-2.90515">
        <ele>53</ele>
        <time>2018-05-12T06:46:02Z</time>
      </trkpt>
      <trkpt lat="47.56711" lon="-2.9052">
        <ele>53</ele>
        <time>2018-05-12T06:46:03Z</time>
      </trkpt>
      <trkpt lat="47.56708" lon="-2.90524">
        <ele>53</ele>
        <time>2018-05-12T06:46:04Z</time>
      </trkpt>
      <trkpt lat="47.56705" lon="-2.90529">
        <ele>53</ele>
        <time>2018-05-12T06:46:05Z</time>
      </trkpt>
      <trkpt lat="47.56701" lon="-2.90534">
        <ele>52</ele>
        <time>2018-05-12T06:46:06Z</time>
      </trkpt>
      <trkpt lat="47.56698" lon="-2.90538">
        <ele>53</ele>
        <time>2018-05-12T06:46:07Z</time>
      </trkpt>
      <trkpt lat="47.56694" lon="-2.90543">
        <ele>53</ele>
        <time>2018-05-12T06:46:08Z</time>
      </trkpt>
      <trkpt lat="47.56691" lon="-2.90548">
        <ele>53</ele>
        <time>2018-05-12T06:46:09Z</time>
      </trkpt>
      <trkpt lat="47.56685" lon="-2.90556">
        <ele>53</ele>
        <time>2018-05-12T06:46:11Z</time>
      </trkpt>
      <trkpt lat="47.56682" lon="-2.90561">
        <ele>53</ele>
        <time>2018-05-12T06:46:12Z</time>
      </trkpt>
      <trkpt lat="47.56679" lon="-2.90565">
        <ele>53</ele>
        <time>2018-05-12T06:46:13Z</time>
      </trkpt>
      <trkpt lat="47.56676" lon="-2.9057">
        <ele>54</ele>
        <time>2018-05-12T06:46:14Z</time>
      </trkpt>
      <trkpt lat="47.56672" lon="-2.90575">
        <ele>54</ele>
        <time>2018-05-12T06:46:15Z</time>
      </trkpt>
      <trkpt lat="47.5667" lon="-2.9058">
        <ele>54</ele>
        <time>2018-05-12T06:46:16Z</time>
      </trkpt>
      <trkpt lat="47.56662" lon="-2.90595">
        <ele>55</ele>
        <time>2018-05-12T06:46:19Z</time>
      </trkpt>
      <trkpt lat="47.56659" lon="-2.906">
        <ele>55</ele>
        <time>2018-05-12T06:46:20Z</time>
      </trkpt>
      <trkpt lat="47.56657" lon="-2.90604">
        <ele>54</ele>
        <time>2018-05-12T06:46:21Z</time>
      </trkpt>
      <trkpt lat="47.56654" lon="-2.90609">
        <ele>54</ele>
        <time>2018-05-12T06:46:22Z</time>
      </trkpt>
      <trkpt lat="47.56652" lon="-2.90613">
        <ele>54</ele>
        <time>2018-05-12T06:46:23Z</time>
      </trkpt>
      <trkpt lat="47.56649" lon="-2.90617">
        <ele>54</ele>
        <time>2018-05-12T06:46:24Z</time>
      </trkpt>
      <trkpt lat="47.56647" lon="-2.9062">
        <ele>54</ele>
        <time>2018-05-12T06:46:25Z</time>
      </trkpt>
      <trkpt lat="47.56644" lon="-2.90624">
        <ele>54</ele>
        <time>2018-05-12T06:46:26Z</time>
      </trkpt>
      <trkpt lat="47.56641" lon="-2.90628">
        <ele>54</ele>
        <time>2018-05-12T06:46:27Z</time>
      </trkpt>
      <trkpt lat="47.56638" lon="-2.90632">
        <ele>54</ele>
        <time>2018-05-12T06:46:28Z</time>
      </trkpt>
      <trkpt lat="47.56636" lon="-2.90635">
        <ele>54</ele>
        <time>2018-05-12T06:46:29Z</time>
      </trkpt>
      <trkpt lat="47.56633" lon="-2.90639">
        <ele>54</ele>
        <time>2018-05-12T06:46:30Z</time>
      </trkpt>
      <trkpt lat="47.56628" lon="-2.90648">
        <ele>54</ele>
        <time>2018-05-12T06:46:32Z</time>
      </trkpt>
      <trkpt lat="47.56626" lon="-2.90652">
        <ele>54</ele>
        <time>2018-05-12T06:46:33Z</time>
      </trkpt>
      <trkpt lat="47.56623" lon="-2.90656">
        <ele>54</ele>
        <time>2018-05-12T06:46:34Z</time>
      </trkpt>
      <trkpt lat="47.56621" lon="-2.9066">
        <ele>53</ele>
        <time>2018-05-12T06:46:35Z</time>
      </trkpt>
      <trkpt lat="47.56619" lon="-2.90665">
        <ele>53</ele>
        <time>2018-05-12T06:46:36Z</time>
      </trkpt>
      <trkpt lat="47.56616" lon="-2.90669">
        <ele>53</ele>
        <time>2018-05-12T06:46:37Z</time>
      </trkpt>
      <trkpt lat="47.56614" lon="-2.90674">
        <ele>53</ele>
        <time>2018-05-12T06:46:38Z</time>
      </trkpt>
      <trkpt lat="47.56609" lon="-2.90685">
        <ele>53</ele>
        <time>2018-05-12T06:46:40Z</time>
      </trkpt>
      <trkpt lat="47.56603" lon="-2.907">
        <ele>53</ele>
        <time>2018-05-12T06:46:43Z</time>
      </trkpt>
      <trkpt lat="47.566" lon="-2.90705">
        <ele>54</ele>
        <time>2018-05-12T06:46:44Z</time>
      </trkpt>
      <trkpt lat="47.56599" lon="-2.9071">
        <ele>54</ele>
        <time>2018-05-12T06:46:45Z</time>
      </trkpt>
      <trkpt lat="47.56596" lon="-2.90715">
        <ele>54</ele>
        <time>2018-05-12T06:46:46Z</time>
      </trkpt>
      <trkpt lat="47.56595" lon="-2.9072">
        <ele>54</ele>
        <time>2018-05-12T06:46:47Z</time>
      </trkpt>
      <trkpt lat="47.56593" lon="-2.90726">
        <ele>54</ele>
        <time>2018-05-12T06:46:48Z</time>
      </trkpt>
      <trkpt lat="47.56591" lon="-2.90731">
        <ele>54</ele>
        <time>2018-05-12T06:46:49Z</time>
      </trkpt>
      <trkpt lat="47.56589" lon="-2.90736">
        <ele>54</ele>
        <time>2018-05-12T06:46:50Z</time>
      </trkpt>
      <trkpt lat="47.56586" lon="-2.90741">
        <ele>54</ele>
        <time>2018-05-12T06:46:51Z</time>
      </trkpt>
      <trkpt lat="47.56582" lon="-2.90751">
        <ele>54</ele>
        <time>2018-05-12T06:46:53Z</time>
      </trkpt>
      <trkpt lat="47.5658" lon="-2.90755">
        <ele>53</ele>
        <time>2018-05-12T06:46:54Z</time>
      </trkpt>
      <trkpt lat="47.56575" lon="-2.90764">
        <ele>53</ele>
        <time>2018-05-12T06:46:56Z</time>
      </trkpt>
      <trkpt lat="47.56573" lon="-2.90769">
        <ele>53</ele>
        <time>2018-05-12T06:46:57Z</time>
      </trkpt>
      <trkpt lat="47.5657" lon="-2.90774">
        <ele>52</ele>
        <time>2018-05-12T06:46:58Z</time>
      </trkpt>
      <trkpt lat="47.56565" lon="-2.90782">
        <ele>52</ele>
        <time>2018-05-12T06:47:00Z</time>
      </trkpt>
      <trkpt lat="47.56563" lon="-2.90785">
        <ele>52</ele>
        <time>2018-05-12T06:47:01Z</time>
      </trkpt>
      <trkpt lat="47.56559" lon="-2.90795">
        <ele>53</ele>
        <time>2018-05-12T06:47:03Z</time>
      </trkpt>
      <trkpt lat="47.56556" lon="-2.90799">
        <ele>53</ele>
        <time>2018-05-12T06:47:04Z</time>
      </trkpt>
      <trkpt lat="47.56554" lon="-2.90804">
        <ele>52</ele>
        <time>2018-05-12T06:47:05Z</time>
      </trkpt>
      <trkpt lat="47.56552" lon="-2.90809">
        <ele>52</ele>
        <time>2018-05-12T06:47:06Z</time>
      </trkpt>
      <trkpt lat="47.56549" lon="-2.9082">
        <ele>52</ele>
        <time>2018-05-12T06:47:08Z</time>
      </trkpt>
      <trkpt lat="47.56547" lon="-2.90831">
        <ele>52</ele>
        <time>2018-05-12T06:47:10Z</time>
      </trkpt>
      <trkpt lat="47.56545" lon="-2.90837">
        <ele>52</ele>
        <time>2018-05-12T06:47:11Z</time>
      </trkpt>
      <trkpt lat="47.56544" lon="-2.90843">
        <ele>52</ele>
        <time>2018-05-12T06:47:12Z</time>
      </trkpt>
      <trkpt lat="47.56542" lon="-2.90848">
        <ele>52</ele>
        <time>2018-05-12T06:47:13Z</time>
      </trkpt>
      <trkpt lat="47.56541" lon="-2.90853">
        <ele>52</ele>
        <time>2018-05-12T06:47:14Z</time>
      </trkpt>
      <trkpt lat="47.56537" lon="-2.90863">
        <ele>52</ele>
        <time>2018-05-12T06:47:16Z</time>
      </trkpt>
      <trkpt lat="47.56535" lon="-2.90868">
        <ele>52</ele>
        <time>2018-05-12T06:47:17Z</time>
      </trkpt>
      <trkpt lat="47.56533" lon="-2.90873">
        <ele>52</ele>
        <time>2018-05-12T06:47:18Z</time>
      </trkpt>
      <trkpt lat="47.56531" lon="-2.90878">
        <ele>52</ele>
        <time>2018-05-12T06:47:19Z</time>
      </trkpt>
      <trkpt lat="47.5653" lon="-2.90883">
        <ele>52</ele>
        <time>2018-05-12T06:47:20Z</time>
      </trkpt>
      <trkpt lat="47.56528" lon="-2.90888">
        <ele>52</ele>
        <time>2018-05-12T06:47:21Z</time>
      </trkpt>
      <trkpt lat="47.56526" lon="-2.90893">
        <ele>52</ele>
        <time>2018-05-12T06:47:22Z</time>
      </trkpt>
      <trkpt lat="47.56524" lon="-2.90903">
        <ele>51</ele>
        <time>2018-05-12T06:47:24Z</time>
      </trkpt>
      <trkpt lat="47.56522" lon="-2.90908">
        <ele>51</ele>
        <time>2018-05-12T06:47:25Z</time>
      </trkpt>
      <trkpt lat="47.56521" lon="-2.90915">
        <ele>51</ele>
        <time>2018-05-12T06:47:26Z</time>
      </trkpt>
      <trkpt lat="47.56519" lon="-2.9092">
        <ele>51</ele>
        <time>2018-05-12T06:47:27Z</time>
      </trkpt>
      <trkpt lat="47.56518" lon="-2.90931">
        <ele>52</ele>
        <time>2018-05-12T06:47:29Z</time>
      </trkpt>
      <trkpt lat="47.56516" lon="-2.90941">
        <ele>53</ele>
        <time>2018-05-12T06:47:31Z</time>
      </trkpt>
      <trkpt lat="47.56514" lon="-2.90957">
        <ele>53</ele>
        <time>2018-05-12T06:47:34Z</time>
      </trkpt>
      <trkpt lat="47.56512" lon="-2.90968">
        <ele>53</ele>
        <time>2018-05-12T06:47:36Z</time>
      </trkpt>
      <trkpt lat="47.56511" lon="-2.90973">
        <ele>52</ele>
        <time>2018-05-12T06:47:37Z</time>
      </trkpt>
      <trkpt lat="47.5651" lon="-2.90978">
        <ele>52</ele>
        <time>2018-05-12T06:47:38Z</time>
      </trkpt>
      <trkpt lat="47.56508" lon="-2.90984">
        <ele>53</ele>
        <time>2018-05-12T06:47:39Z</time>
      </trkpt>
      <trkpt lat="47.56505" lon="-2.90994">
        <ele>53</ele>
        <time>2018-05-12T06:47:41Z</time>
      </trkpt>
      <trkpt lat="47.56503" lon="-2.90999">
        <ele>53</ele>
        <time>2018-05-12T06:47:42Z</time>
      </trkpt>
      <trkpt lat="47.56502" lon="-2.91004">
        <ele>53</ele>
        <time>2018-05-12T06:47:43Z</time>
      </trkpt>
      <trkpt lat="47.565" lon="-2.91013">
        <ele>52</ele>
        <time>2018-05-12T06:47:45Z</time>
      </trkpt>
      <trkpt lat="47.56498" lon="-2.9102">
        <ele>52</ele>
        <time>2018-05-12T06:47:46Z</time>
      </trkpt>
      <trkpt lat="47.56497" lon="-2.91026">
        <ele>53</ele>
        <time>2018-05-12T06:47:47Z</time>
      </trkpt>
      <trkpt lat="47.56495" lon="-2.91032">
        <ele>53</ele>
        <time>2018-05-12T06:47:48Z</time>
      </trkpt>
      <trkpt lat="47.56494" lon="-2.91039">
        <ele>53</ele>
        <time>2018-05-12T06:47:49Z</time>
      </trkpt>
      <trkpt lat="47.56493" lon="-2.91045">
        <ele>53</ele>
        <time>2018-05-12T06:47:50Z</time>
      </trkpt>
      <trkpt lat="47.56492" lon="-2.9105">
        <ele>53</ele>
        <time>2018-05-12T06:47:51Z</time>
      </trkpt>
      <trkpt lat="47.5649" lon="-2.91058">
        <ele>53</ele>
        <time>2018-05-12T06:47:52Z</time>
      </trkpt>
      <trkpt lat="47.56488" lon="-2.91065">
        <ele>54</ele>
        <time>2018-05-12T06:47:53Z</time>
      </trkpt>
      <trkpt lat="47.56486" lon="-2.91075">
        <ele>54</ele>
        <time>2018-05-12T06:47:55Z</time>
      </trkpt>
      <trkpt lat="47.56485" lon="-2.9108">
        <ele>54</ele>
        <time>2018-05-12T06:47:56Z</time>
      </trkpt>
      <trkpt lat="47.56482" lon="-2.91092">
        <ele>54</ele>
        <time>2018-05-12T06:47:58Z</time>
      </trkpt>
      <trkpt lat="47.56479" lon="-2.91105">
        <ele>53</ele>
        <time>2018-05-12T06:48:01Z</time>
      </trkpt>
      <trkpt lat="47.56477" lon="-2.91115">
        <ele>54</ele>
        <time>2018-05-12T06:48:03Z</time>
      </trkpt>
      <trkpt lat="47.56474" lon="-2.91125">
        <ele>54</ele>
        <time>2018-05-12T06:48:05Z</time>
      </trkpt>
      <trkpt lat="47.56473" lon="-2.91131">
        <ele>55</ele>
        <time>2018-05-12T06:48:06Z</time>
      </trkpt>
      <trkpt lat="47.56471" lon="-2.91138">
        <ele>55</ele>
        <time>2018-05-12T06:48:07Z</time>
      </trkpt>
      <trkpt lat="47.56469" lon="-2.91146">
        <ele>55</ele>
        <time>2018-05-12T06:48:08Z</time>
      </trkpt>
      <trkpt lat="47.56468" lon="-2.91151">
        <ele>55</ele>
        <time>2018-05-12T06:48:09Z</time>
      </trkpt>
      <trkpt lat="47.56466" lon="-2.91162">
        <ele>54</ele>
        <time>2018-05-12T06:48:11Z</time>
      </trkpt>
      <trkpt lat="47.56464" lon="-2.91169">
        <ele>53</ele>
        <time>2018-05-12T06:48:13Z</time>
      </trkpt>
      <trkpt lat="47.56463" lon="-2.91174">
        <ele>54</ele>
        <time>2018-05-12T06:48:14Z</time>
      </trkpt>
      <trkpt lat="47.5646" lon="-2.91185">
        <ele>54</ele>
        <time>2018-05-12T06:48:16Z</time>
      </trkpt>
      <trkpt lat="47.56456" lon="-2.91194">
        <ele>54</ele>
        <time>2018-05-12T06:48:18Z</time>
      </trkpt>
      <trkpt lat="47.56454" lon="-2.91199">
        <ele>54</ele>
        <time>2018-05-12T06:48:19Z</time>
      </trkpt>
      <trkpt lat="47.56451" lon="-2.91203">
        <ele>54</ele>
        <time>2018-05-12T06:48:20Z</time>
      </trkpt>
      <trkpt lat="47.56448" lon="-2.91216">
        <ele>53</ele>
        <time>2018-05-12T06:48:23Z</time>
      </trkpt>
      <trkpt lat="47.56448" lon="-2.91229">
        <ele>53</ele>
        <time>2018-05-12T06:48:25Z</time>
      </trkpt>
      <trkpt lat="47.56446" lon="-2.91238">
        <ele>52</ele>
        <time>2018-05-12T06:48:27Z</time>
      </trkpt>
      <trkpt lat="47.56445" lon="-2.91244">
        <ele>52</ele>
        <time>2018-05-12T06:48:28Z</time>
      </trkpt>
      <trkpt lat="47.56444" lon="-2.91249">
        <ele>51</ele>
        <time>2018-05-12T06:48:29Z</time>
      </trkpt>
      <trkpt lat="47.56443" lon="-2.91257">
        <ele>51</ele>
        <time>2018-05-12T06:48:30Z</time>
      </trkpt>
      <trkpt lat="47.56442" lon="-2.91265">
        <ele>52</ele>
        <time>2018-05-12T06:48:31Z</time>
      </trkpt>
      <trkpt lat="47.56441" lon="-2.91274">
        <ele>51</ele>
        <time>2018-05-12T06:48:32Z</time>
      </trkpt>
      <trkpt lat="47.56439" lon="-2.91286">
        <ele>51</ele>
        <time>2018-05-12T06:48:34Z</time>
      </trkpt>
      <trkpt lat="47.56439" lon="-2.91292">
        <ele>49</ele>
        <time>2018-05-12T06:48:35Z</time>
      </trkpt>
      <trkpt lat="47.56437" lon="-2.91299">
        <ele>49</ele>
        <time>2018-05-12T06:48:36Z</time>
      </trkpt>
      <trkpt lat="47.56436" lon="-2.91305">
        <ele>49</ele>
        <time>2018-05-12T06:48:37Z</time>
      </trkpt>
      <trkpt lat="47.56435" lon="-2.91313">
        <ele>50</ele>
        <time>2018-05-12T06:48:38Z</time>
      </trkpt>
      <trkpt lat="47.56432" lon="-2.91326">
        <ele>52</ele>
        <time>2018-05-12T06:48:40Z</time>
      </trkpt>
      <trkpt lat="47.56431" lon="-2.91332">
        <ele>52</ele>
        <time>2018-05-12T06:48:41Z</time>
      </trkpt>
      <trkpt lat="47.56429" lon="-2.91338">
        <ele>52</ele>
        <time>2018-05-12T06:48:42Z</time>
      </trkpt>
      <trkpt lat="47.5643" lon="-2.91345">
        <ele>52</ele>
        <time>2018-05-12T06:48:43Z</time>
      </trkpt>
      <trkpt lat="47.56427" lon="-2.91357">
        <ele>52</ele>
        <time>2018-05-12T06:48:45Z</time>
      </trkpt>
      <trkpt lat="47.56423" lon="-2.91367">
        <ele>54</ele>
        <time>2018-05-12T06:48:47Z</time>
      </trkpt>
      <trkpt lat="47.56422" lon="-2.91373">
        <ele>54</ele>
        <time>2018-05-12T06:48:48Z</time>
      </trkpt>
      <trkpt lat="47.56419" lon="-2.9138">
        <ele>55</ele>
        <time>2018-05-12T06:48:49Z</time>
      </trkpt>
      <trkpt lat="47.56416" lon="-2.91385">
        <ele>55</ele>
        <time>2018-05-12T06:48:50Z</time>
      </trkpt>
      <trkpt lat="47.56412" lon="-2.9139">
        <ele>55</ele>
        <time>2018-05-12T06:48:52Z</time>
      </trkpt>
      <trkpt lat="47.56405" lon="-2.91402">
        <ele>58</ele>
        <time>2018-05-12T06:48:55Z</time>
      </trkpt>
      <trkpt lat="47.56402" lon="-2.91406">
        <ele>58</ele>
        <time>2018-05-12T06:48:56Z</time>
      </trkpt>
      <trkpt lat="47.56399" lon="-2.91411">
        <ele>57</ele>
        <time>2018-05-12T06:48:57Z</time>
      </trkpt>
      <trkpt lat="47.56392" lon="-2.91423">
        <ele>58</ele>
        <time>2018-05-12T06:48:59Z</time>
      </trkpt>
      <trkpt lat="47.5639" lon="-2.91429">
        <ele>58</ele>
        <time>2018-05-12T06:49:00Z</time>
      </trkpt>
      <trkpt lat="47.56387" lon="-2.91434">
        <ele>58</ele>
        <time>2018-05-12T06:49:01Z</time>
      </trkpt>
      <trkpt lat="47.56383" lon="-2.91441">
        <ele>57</ele>
        <time>2018-05-12T06:49:02Z</time>
      </trkpt>
      <trkpt lat="47.56381" lon="-2.91444">
        <ele>56</ele>
        <time>2018-05-12T06:49:03Z</time>
      </trkpt>
      <trkpt lat="47.56378" lon="-2.91449">
        <ele>56</ele>
        <time>2018-05-12T06:49:04Z</time>
      </trkpt>
      <trkpt lat="47.56374" lon="-2.91457">
        <ele>56</ele>
        <time>2018-05-12T06:49:06Z</time>
      </trkpt>
      <trkpt lat="47.56372" lon="-2.91462">
        <ele>56</ele>
        <time>2018-05-12T06:49:07Z</time>
      </trkpt>
      <trkpt lat="47.56369" lon="-2.91467">
        <ele>56</ele>
        <time>2018-05-12T06:49:08Z</time>
      </trkpt>
      <trkpt lat="47.56362" lon="-2.91482">
        <ele>56</ele>
        <time>2018-05-12T06:49:11Z</time>
      </trkpt>
      <trkpt lat="47.56361" lon="-2.91486">
        <ele>58</ele>
        <time>2018-05-12T06:49:12Z</time>
      </trkpt>
      <trkpt lat="47.56355" lon="-2.91495">
        <ele>56</ele>
        <time>2018-05-12T06:49:14Z</time>
      </trkpt>
      <trkpt lat="47.56351" lon="-2.91505">
        <ele>55</ele>
        <time>2018-05-12T06:49:16Z</time>
      </trkpt>
      <trkpt lat="47.56348" lon="-2.91512">
        <ele>56</ele>
        <time>2018-05-12T06:49:17Z</time>
      </trkpt>
      <trkpt lat="47.56345" lon="-2.91518">
        <ele>56</ele>
        <time>2018-05-12T06:49:18Z</time>
      </trkpt>
      <trkpt lat="47.56342" lon="-2.91523">
        <ele>57</ele>
        <time>2018-05-12T06:49:19Z</time>
      </trkpt>
      <trkpt lat="47.5634" lon="-2.91529">
        <ele>55</ele>
        <time>2018-05-12T06:49:20Z</time>
      </trkpt>
      <trkpt lat="47.56338" lon="-2.91534">
        <ele>55</ele>
        <time>2018-05-12T06:49:21Z</time>
      </trkpt>
      <trkpt lat="47.56332" lon="-2.91545">
        <ele>56</ele>
        <time>2018-05-12T06:49:23Z</time>
      </trkpt>
      <trkpt lat="47.56329" lon="-2.9155">
        <ele>56</ele>
        <time>2018-05-12T06:49:24Z</time>
      </trkpt>
      <trkpt lat="47.56325" lon="-2.91559">
        <ele>56</ele>
        <time>2018-05-12T06:49:26Z</time>
      </trkpt>
      <trkpt lat="47.56318" lon="-2.91573">
        <ele>56</ele>
        <time>2018-05-12T06:49:29Z</time>
      </trkpt>
      <trkpt lat="47.56315" lon="-2.91579">
        <ele>57</ele>
        <time>2018-05-12T06:49:30Z</time>
      </trkpt>
      <trkpt lat="47.56313" lon="-2.91582">
        <ele>57</ele>
        <time>2018-05-12T06:49:31Z</time>
      </trkpt>
      <trkpt lat="47.5631" lon="-2.91586">
        <ele>56</ele>
        <time>2018-05-12T06:49:32Z</time>
      </trkpt>
      <trkpt lat="47.56307" lon="-2.9159">
        <ele>57</ele>
        <time>2018-05-12T06:49:33Z</time>
      </trkpt>
      <trkpt lat="47.563" lon="-2.91605">
        <ele>55</ele>
        <time>2018-05-12T06:49:36Z</time>
      </trkpt>
      <trkpt lat="47.56294" lon="-2.91614">
        <ele>54</ele>
        <time>2018-05-12T06:49:38Z</time>
      </trkpt>
      <trkpt lat="47.56292" lon="-2.91618">
        <ele>55</ele>
        <time>2018-05-12T06:49:39Z</time>
      </trkpt>
      <trkpt lat="47.56288" lon="-2.91625">
        <ele>51</ele>
        <time>2018-05-12T06:49:41Z</time>
      </trkpt>
      <trkpt lat="47.5628" lon="-2.91637">
        <ele>50</ele>
        <time>2018-05-12T06:49:44Z</time>
      </trkpt>
      <trkpt lat="47.56272" lon="-2.91651">
        <ele>52</ele>
        <time>2018-05-12T06:49:47Z</time>
      </trkpt>
      <trkpt lat="47.56265" lon="-2.91659">
        <ele>52</ele>
        <time>2018-05-12T06:49:49Z</time>
      </trkpt>
      <trkpt lat="47.56262" lon="-2.91662">
        <ele>52</ele>
        <time>2018-05-12T06:49:50Z</time>
      </trkpt>
      <trkpt lat="47.56258" lon="-2.91666">
        <ele>51</ele>
        <time>2018-05-12T06:49:51Z</time>
      </trkpt>
      <trkpt lat="47.56256" lon="-2.91669">
        <ele>52</ele>
        <time>2018-05-12T06:49:52Z</time>
      </trkpt>
      <trkpt lat="47.56253" lon="-2.91672">
        <ele>52</ele>
        <time>2018-05-12T06:49:53Z</time>
      </trkpt>
      <trkpt lat="47.5625" lon="-2.91675">
        <ele>52</ele>
        <time>2018-05-12T06:49:54Z</time>
      </trkpt>
      <trkpt lat="47.56243" lon="-2.9169">
        <ele>52</ele>
        <time>2018-05-12T06:49:57Z</time>
      </trkpt>
      <trkpt lat="47.56236" lon="-2.91702">
        <ele>52</ele>
        <time>2018-05-12T06:50:00Z</time>
      </trkpt>
      <trkpt lat="47.56233" lon="-2.91707">
        <ele>53</ele>
        <time>2018-05-12T06:50:01Z</time>
      </trkpt>
      <trkpt lat="47.56231" lon="-2.91713">
        <ele>53</ele>
        <time>2018-05-12T06:50:02Z</time>
      </trkpt>
      <trkpt lat="47.56224" lon="-2.91718">
        <ele>51</ele>
        <time>2018-05-12T06:50:05Z</time>
      </trkpt>
      <trkpt lat="47.56217" lon="-2.91728">
        <ele>51</ele>
        <time>2018-05-12T06:50:08Z</time>
      </trkpt>
      <trkpt lat="47.56213" lon="-2.91734">
        <ele>51</ele>
        <time>2018-05-12T06:50:09Z</time>
      </trkpt>
      <trkpt lat="47.56211" lon="-2.91737">
        <ele>51</ele>
        <time>2018-05-12T06:50:10Z</time>
      </trkpt>
      <trkpt lat="47.56209" lon="-2.9174">
        <ele>50</ele>
        <time>2018-05-12T06:50:11Z</time>
      </trkpt>
      <trkpt lat="47.56202" lon="-2.9175">
        <ele>51</ele>
        <time>2018-05-12T06:50:14Z</time>
      </trkpt>
      <trkpt lat="47.56196" lon="-2.91755">
        <ele>52</ele>
        <time>2018-05-12T06:50:16Z</time>
      </trkpt>
      <trkpt lat="47.5619" lon="-2.91763">
        <ele>52</ele>
        <time>2018-05-12T06:50:18Z</time>
      </trkpt>
      <trkpt lat="47.56188" lon="-2.91766">
        <ele>50</ele>
        <time>2018-05-12T06:50:19Z</time>
      </trkpt>
      <trkpt lat="47.56184" lon="-2.91771">
        <ele>49</ele>
        <time>2018-05-12T06:50:21Z</time>
      </trkpt>
      <trkpt lat="47.56181" lon="-2.91774">
        <ele>48</ele>
        <time>2018-05-12T06:50:22Z</time>
      </trkpt>
      <trkpt lat="47.56176" lon="-2.91779">
        <ele>46</ele>
        <time>2018-05-12T06:50:24Z</time>
      </trkpt>
      <trkpt lat="47.56173" lon="-2.91783">
        <ele>46</ele>
        <time>2018-05-12T06:50:25Z</time>
      </trkpt>
      <trkpt lat="47.56169" lon="-2.91788">
        <ele>46</ele>
        <time>2018-05-12T06:50:26Z</time>
      </trkpt>
      <trkpt lat="47.56167" lon="-2.91791">
        <ele>46</ele>
        <time>2018-05-12T06:50:27Z</time>
      </trkpt>
      <trkpt lat="47.56165" lon="-2.91794">
        <ele>47</ele>
        <time>2018-05-12T06:50:28Z</time>
      </trkpt>
      <trkpt lat="47.56162" lon="-2.91798">
        <ele>48</ele>
        <time>2018-05-12T06:50:29Z</time>
      </trkpt>
      <trkpt lat="47.5615" lon="-2.91813">
        <ele>49</ele>
        <time>2018-05-12T06:50:33Z</time>
      </trkpt>
      <trkpt lat="47.56144" lon="-2.91821">
        <ele>50</ele>
        <time>2018-05-12T06:50:35Z</time>
      </trkpt>
      <trkpt lat="47.56142" lon="-2.91824">
        <ele>50</ele>
        <time>2018-05-12T06:50:36Z</time>
      </trkpt>
      <trkpt lat="47.56134" lon="-2.91835">
        <ele>50</ele>
        <time>2018-05-12T06:50:39Z</time>
      </trkpt>
      <trkpt lat="47.56129" lon="-2.91842">
        <ele>48</ele>
        <time>2018-05-12T06:50:41Z</time>
      </trkpt>
      <trkpt lat="47.56126" lon="-2.91846">
        <ele>48</ele>
        <time>2018-05-12T06:50:42Z</time>
      </trkpt>
      <trkpt lat="47.56121" lon="-2.91853">
        <ele>49</ele>
        <time>2018-05-12T06:50:43Z</time>
      </trkpt>
      <trkpt lat="47.56119" lon="-2.91857">
        <ele>49</ele>
        <time>2018-05-12T06:50:44Z</time>
      </trkpt>
      <trkpt lat="47.56116" lon="-2.91861">
        <ele>49</ele>
        <time>2018-05-12T06:50:45Z</time>
      </trkpt>
      <trkpt lat="47.56113" lon="-2.91865">
        <ele>49</ele>
        <time>2018-05-12T06:50:46Z</time>
      </trkpt>
      <trkpt lat="47.56106" lon="-2.91869">
        <ele>49</ele>
        <time>2018-05-12T06:50:48Z</time>
      </trkpt>
      <trkpt lat="47.56102" lon="-2.91875">
        <ele>51</ele>
        <time>2018-05-12T06:50:50Z</time>
      </trkpt>
      <trkpt lat="47.561" lon="-2.91878">
        <ele>51</ele>
        <time>2018-05-12T06:50:51Z</time>
      </trkpt>
      <trkpt lat="47.56094" lon="-2.91883">
        <ele>51</ele>
        <time>2018-05-12T06:50:53Z</time>
      </trkpt>
      <trkpt lat="47.56088" lon="-2.9189">
        <ele>51</ele>
        <time>2018-05-12T06:50:55Z</time>
      </trkpt>
      <trkpt lat="47.56086" lon="-2.91893">
        <ele>52</ele>
        <time>2018-05-12T06:50:56Z</time>
      </trkpt>
      <trkpt lat="47.56083" lon="-2.91898">
        <ele>50</ele>
        <time>2018-05-12T06:50:58Z</time>
      </trkpt>
      <trkpt lat="47.5608" lon="-2.91902">
        <ele>50</ele>
        <time>2018-05-12T06:50:59Z</time>
      </trkpt>
      <trkpt lat="47.56078" lon="-2.91905">
        <ele>50</ele>
        <time>2018-05-12T06:51:00Z</time>
      </trkpt>
      <trkpt lat="47.56074" lon="-2.9191">
        <ele>50</ele>
        <time>2018-05-12T06:51:01Z</time>
      </trkpt>
      <trkpt lat="47.56067" lon="-2.91917">
        <ele>50</ele>
        <time>2018-05-12T06:51:04Z</time>
      </trkpt>
      <trkpt lat="47.56064" lon="-2.9192">
        <ele>50</ele>
        <time>2018-05-12T06:51:05Z</time>
      </trkpt>
      <trkpt lat="47.56061" lon="-2.91923">
        <ele>51</ele>
        <time>2018-05-12T06:51:06Z</time>
      </trkpt>
      <trkpt lat="47.56058" lon="-2.91925">
        <ele>51</ele>
        <time>2018-05-12T06:51:07Z</time>
      </trkpt>
      <trkpt lat="47.5605" lon="-2.91931">
        <ele>52</ele>
        <time>2018-05-12T06:51:10Z</time>
      </trkpt>
      <trkpt lat="47.56047" lon="-2.91933">
        <ele>52</ele>
        <time>2018-05-12T06:51:11Z</time>
      </trkpt>
      <trkpt lat="47.5604" lon="-2.91934">
        <ele>51</ele>
        <time>2018-05-12T06:51:14Z</time>
      </trkpt>
      <trkpt lat="47.56032" lon="-2.91937">
        <ele>50</ele>
        <time>2018-05-12T06:51:17Z</time>
      </trkpt>
      <trkpt lat="47.5603" lon="-2.91939">
        <ele>50</ele>
        <time>2018-05-12T06:51:18Z</time>
      </trkpt>
      <trkpt lat="47.56028" lon="-2.9194">
        <ele>49</ele>
        <time>2018-05-12T06:51:20Z</time>
      </trkpt>
      <trkpt lat="47.56023" lon="-2.91944">
        <ele>49</ele>
        <time>2018-05-12T06:51:22Z</time>
      </trkpt>
      <trkpt lat="47.56017" lon="-2.91947">
        <ele>49</ele>
        <time>2018-05-12T06:51:25Z</time>
      </trkpt>
      <trkpt lat="47.56012" lon="-2.9195">
        <ele>48</ele>
        <time>2018-05-12T06:51:27Z</time>
      </trkpt>
      <trkpt lat="47.56006" lon="-2.91953">
        <ele>49</ele>
        <time>2018-05-12T06:51:29Z</time>
      </trkpt>
      <trkpt lat="47.56001" lon="-2.91955">
        <ele>49</ele>
        <time>2018-05-12T06:51:31Z</time>
      </trkpt>
      <trkpt lat="47.55994" lon="-2.91958">
        <ele>50</ele>
        <time>2018-05-12T06:51:33Z</time>
      </trkpt>
      <trkpt lat="47.55991" lon="-2.9196">
        <ele>49</ele>
        <time>2018-05-12T06:51:34Z</time>
      </trkpt>
      <trkpt lat="47.55988" lon="-2.91961">
        <ele>49</ele>
        <time>2018-05-12T06:51:35Z</time>
      </trkpt>
      <trkpt lat="47.55985" lon="-2.91962">
        <ele>50</ele>
        <time>2018-05-12T06:51:36Z</time>
      </trkpt>
      <trkpt lat="47.55981" lon="-2.91964">
        <ele>50</ele>
        <time>2018-05-12T06:51:37Z</time>
      </trkpt>
      <trkpt lat="47.55978" lon="-2.91966">
        <ele>50</ele>
        <time>2018-05-12T06:51:38Z</time>
      </trkpt>
      <trkpt lat="47.55967" lon="-2.9197">
        <ele>50</ele>
        <time>2018-05-12T06:51:41Z</time>
      </trkpt>
      <trkpt lat="47.55961" lon="-2.91974">
        <ele>52</ele>
        <time>2018-05-12T06:51:43Z</time>
      </trkpt>
      <trkpt lat="47.55958" lon="-2.91976">
        <ele>52</ele>
        <time>2018-05-12T06:51:44Z</time>
      </trkpt>
      <trkpt lat="47.55952" lon="-2.91979">
        <ele>53</ele>
        <time>2018-05-12T06:51:46Z</time>
      </trkpt>
      <trkpt lat="47.55946" lon="-2.91981">
        <ele>51</ele>
        <time>2018-05-12T06:51:48Z</time>
      </trkpt>
      <trkpt lat="47.5594" lon="-2.91984">
        <ele>52</ele>
        <time>2018-05-12T06:51:50Z</time>
      </trkpt>
      <trkpt lat="47.55932" lon="-2.91987">
        <ele>52</ele>
        <time>2018-05-12T06:51:53Z</time>
      </trkpt>
      <trkpt lat="47.55929" lon="-2.91989">
        <ele>52</ele>
        <time>2018-05-12T06:51:54Z</time>
      </trkpt>
      <trkpt lat="47.55924" lon="-2.91993">
        <ele>51</ele>
        <time>2018-05-12T06:51:55Z</time>
      </trkpt>
      <trkpt lat="47.55918" lon="-2.91996">
        <ele>50</ele>
        <time>2018-05-12T06:51:57Z</time>
      </trkpt>
      <trkpt lat="47.55913" lon="-2.91994">
        <ele>49</ele>
        <time>2018-05-12T06:51:59Z</time>
      </trkpt>
      <trkpt lat="47.55908" lon="-2.91997">
        <ele>49</ele>
        <time>2018-05-12T06:52:01Z</time>
      </trkpt>
      <trkpt lat="47.55901" lon="-2.91999">
        <ele>49</ele>
        <time>2018-05-12T06:52:03Z</time>
      </trkpt>
      <trkpt lat="47.55894" lon="-2.92003">
        <ele>49</ele>
        <time>2018-05-12T06:52:05Z</time>
      </trkpt>
      <trkpt lat="47.55887" lon="-2.92005">
        <ele>48</ele>
        <time>2018-05-12T06:52:07Z</time>
      </trkpt>
      <trkpt lat="47.55884" lon="-2.92006">
        <ele>48</ele>
        <time>2018-05-12T06:52:08Z</time>
      </trkpt>
      <trkpt lat="47.55877" lon="-2.92011">
        <ele>49</ele>
        <time>2018-05-12T06:52:10Z</time>
      </trkpt>
      <trkpt lat="47.55871" lon="-2.92014">
        <ele>49</ele>
        <time>2018-05-12T06:52:12Z</time>
      </trkpt>
      <trkpt lat="47.55864" lon="-2.92018">
        <ele>48</ele>
        <time>2018-05-12T06:52:15Z</time>
      </trkpt>
      <trkpt lat="47.55861" lon="-2.9202">
        <ele>48</ele>
        <time>2018-05-12T06:52:16Z</time>
      </trkpt>
      <trkpt lat="47.55859" lon="-2.92021">
        <ele>48</ele>
        <time>2018-05-12T06:52:17Z</time>
      </trkpt>
      <trkpt lat="47.55852" lon="-2.92023">
        <ele>50</ele>
        <time>2018-05-12T06:52:20Z</time>
      </trkpt>
      <trkpt lat="47.55849" lon="-2.92024">
        <ele>50</ele>
        <time>2018-05-12T06:52:21Z</time>
      </trkpt>
      <trkpt lat="47.5584" lon="-2.92029">
        <ele>51</ele>
        <time>2018-05-12T06:52:24Z</time>
      </trkpt>
      <trkpt lat="47.55835" lon="-2.92033">
        <ele>51</ele>
        <time>2018-05-12T06:52:26Z</time>
      </trkpt>
      <trkpt lat="47.55829" lon="-2.92036">
        <ele>52</ele>
        <time>2018-05-12T06:52:28Z</time>
      </trkpt>
      <trkpt lat="47.55823" lon="-2.9204">
        <ele>53</ele>
        <time>2018-05-12T06:52:30Z</time>
      </trkpt>
      <trkpt lat="47.55818" lon="-2.92046">
        <ele>54</ele>
        <time>2018-05-12T06:52:32Z</time>
      </trkpt>
      <trkpt lat="47.55812" lon="-2.9205">
        <ele>54</ele>
        <time>2018-05-12T06:52:34Z</time>
      </trkpt>
      <trkpt lat="47.55807" lon="-2.92054">
        <ele>54</ele>
        <time>2018-05-12T06:52:36Z</time>
      </trkpt>
      <trkpt lat="47.55801" lon="-2.9206">
        <ele>52</ele>
        <time>2018-05-12T06:52:39Z</time>
      </trkpt>
      <trkpt lat="47.55796" lon="-2.92063">
        <ele>52</ele>
        <time>2018-05-12T06:52:41Z</time>
      </trkpt>
      <trkpt lat="47.55791" lon="-2.92067">
        <ele>53</ele>
        <time>2018-05-12T06:52:44Z</time>
      </trkpt>
      <trkpt lat="47.55785" lon="-2.92069">
        <ele>53</ele>
        <time>2018-05-12T06:52:47Z</time>
      </trkpt>
      <trkpt lat="47.55781" lon="-2.92074">
        <ele>53</ele>
        <time>2018-05-12T06:52:49Z</time>
      </trkpt>
      <trkpt lat="47.55775" lon="-2.92075">
        <ele>52</ele>
        <time>2018-05-12T06:52:52Z</time>
      </trkpt>
      <trkpt lat="47.55765" lon="-2.92081">
        <ele>54</ele>
        <time>2018-05-12T06:52:55Z</time>
      </trkpt>
      <trkpt lat="47.55762" lon="-2.92084">
        <ele>55</ele>
        <time>2018-05-12T06:52:56Z</time>
      </trkpt>
      <trkpt lat="47.55754" lon="-2.92088">
        <ele>54</ele>
        <time>2018-05-12T06:52:59Z</time>
      </trkpt>
      <trkpt lat="47.55749" lon="-2.9209">
        <ele>53</ele>
        <time>2018-05-12T06:53:01Z</time>
      </trkpt>
      <trkpt lat="47.55743" lon="-2.92093">
        <ele>51</ele>
        <time>2018-05-12T06:53:03Z</time>
      </trkpt>
      <trkpt lat="47.55738" lon="-2.92094">
        <ele>51</ele>
        <time>2018-05-12T06:53:05Z</time>
      </trkpt>
      <trkpt lat="47.55733" lon="-2.92095">
        <ele>51</ele>
        <time>2018-05-12T06:53:07Z</time>
      </trkpt>
      <trkpt lat="47.55724" lon="-2.921">
        <ele>53</ele>
        <time>2018-05-12T06:53:10Z</time>
      </trkpt>
      <trkpt lat="47.55722" lon="-2.92102">
        <ele>54</ele>
        <time>2018-05-12T06:53:11Z</time>
      </trkpt>
      <trkpt lat="47.55717" lon="-2.92103">
        <ele>55</ele>
        <time>2018-05-12T06:53:13Z</time>
      </trkpt>
      <trkpt lat="47.55711" lon="-2.92106">
        <ele>54</ele>
        <time>2018-05-12T06:53:15Z</time>
      </trkpt>
      <trkpt lat="47.55709" lon="-2.92107">
        <ele>55</ele>
        <time>2018-05-12T06:53:16Z</time>
      </trkpt>
      <trkpt lat="47.55703" lon="-2.92108">
        <ele>54</ele>
        <time>2018-05-12T06:53:18Z</time>
      </trkpt>
      <trkpt lat="47.557" lon="-2.92109">
        <ele>55</ele>
        <time>2018-05-12T06:53:19Z</time>
      </trkpt>
      <trkpt lat="47.55694" lon="-2.92112">
        <ele>54</ele>
        <time>2018-05-12T06:53:21Z</time>
      </trkpt>
      <trkpt lat="47.55688" lon="-2.92114">
        <ele>53</ele>
        <time>2018-05-12T06:53:24Z</time>
      </trkpt>
      <trkpt lat="47.55682" lon="-2.92117">
        <ele>51</ele>
        <time>2018-05-12T06:53:27Z</time>
      </trkpt>
      <trkpt lat="47.5568" lon="-2.92118">
        <ele>51</ele>
        <time>2018-05-12T06:53:28Z</time>
      </trkpt>
      <trkpt lat="47.55675" lon="-2.9212">
        <ele>52</ele>
        <time>2018-05-12T06:53:30Z</time>
      </trkpt>
      <trkpt lat="47.55668" lon="-2.9212">
        <ele>53</ele>
        <time>2018-05-12T06:53:33Z</time>
      </trkpt>
      <trkpt lat="47.55665" lon="-2.9212">
        <ele>53</ele>
        <time>2018-05-12T06:53:34Z</time>
      </trkpt>
      <trkpt lat="47.55658" lon="-2.92117">
        <ele>53</ele>
        <time>2018-05-12T06:53:37Z</time>
      </trkpt>
      <trkpt lat="47.55653" lon="-2.92119">
        <ele>53</ele>
        <time>2018-05-12T06:53:39Z</time>
      </trkpt>
      <trkpt lat="47.55649" lon="-2.92118">
        <ele>53</ele>
        <time>2018-05-12T06:53:41Z</time>
      </trkpt>
      <trkpt lat="47.55643" lon="-2.9212">
        <ele>54</ele>
        <time>2018-05-12T06:53:43Z</time>
      </trkpt>
      <trkpt lat="47.55636" lon="-2.9212">
        <ele>54</ele>
        <time>2018-05-12T06:53:46Z</time>
      </trkpt>
      <trkpt lat="47.5563" lon="-2.92121">
        <ele>55</ele>
        <time>2018-05-12T06:53:48Z</time>
      </trkpt>
      <trkpt lat="47.55626" lon="-2.9212">
        <ele>53</ele>
        <time>2018-05-12T06:53:50Z</time>
      </trkpt>
      <trkpt lat="47.5562" lon="-2.9212">
        <ele>52</ele>
        <time>2018-05-12T06:53:52Z</time>
      </trkpt>
      <trkpt lat="47.55615" lon="-2.92119">
        <ele>52</ele>
        <time>2018-05-12T06:53:54Z</time>
      </trkpt>
      <trkpt lat="47.55609" lon="-2.92118">
        <ele>51</ele>
        <time>2018-05-12T06:53:56Z</time>
      </trkpt>
      <trkpt lat="47.55603" lon="-2.92118">
        <ele>52</ele>
        <time>2018-05-12T06:53:58Z</time>
      </trkpt>
      <trkpt lat="47.55596" lon="-2.92118">
        <ele>53</ele>
        <time>2018-05-12T06:54:00Z</time>
      </trkpt>
      <trkpt lat="47.55589" lon="-2.92119">
        <ele>54</ele>
        <time>2018-05-12T06:54:02Z</time>
      </trkpt>
      <trkpt lat="47.55582" lon="-2.92122">
        <ele>54</ele>
        <time>2018-05-12T06:54:04Z</time>
      </trkpt>
      <trkpt lat="47.55577" lon="-2.92118">
        <ele>54</ele>
        <time>2018-05-12T06:54:06Z</time>
      </trkpt>
      <trkpt lat="47.55571" lon="-2.92118">
        <ele>54</ele>
        <time>2018-05-12T06:54:08Z</time>
      </trkpt>
      <trkpt lat="47.55566" lon="-2.92119">
        <ele>54</ele>
        <time>2018-05-12T06:54:10Z</time>
      </trkpt>
      <trkpt lat="47.55563" lon="-2.92119">
        <ele>54</ele>
        <time>2018-05-12T06:54:11Z</time>
      </trkpt>
      <trkpt lat="47.5556" lon="-2.92119">
        <ele>54</ele>
        <time>2018-05-12T06:54:12Z</time>
      </trkpt>
      <trkpt lat="47.55556" lon="-2.92119">
        <ele>54</ele>
        <time>2018-05-12T06:54:13Z</time>
      </trkpt>
      <trkpt lat="47.5555" lon="-2.92121">
        <ele>54</ele>
        <time>2018-05-12T06:54:15Z</time>
      </trkpt>
      <trkpt lat="47.55547" lon="-2.92121">
        <ele>55</ele>
        <time>2018-05-12T06:54:16Z</time>
      </trkpt>
      <trkpt lat="47.55544" lon="-2.92122">
        <ele>55</ele>
        <time>2018-05-12T06:54:17Z</time>
      </trkpt>
      <trkpt lat="47.55541" lon="-2.92123">
        <ele>54</ele>
        <time>2018-05-12T06:54:18Z</time>
      </trkpt>
      <trkpt lat="47.55536" lon="-2.92123">
        <ele>53</ele>
        <time>2018-05-12T06:54:20Z</time>
      </trkpt>
      <trkpt lat="47.55533" lon="-2.92124">
        <ele>53</ele>
        <time>2018-05-12T06:54:21Z</time>
      </trkpt>
      <trkpt lat="47.55527" lon="-2.92126">
        <ele>53</ele>
        <time>2018-05-12T06:54:23Z</time>
      </trkpt>
      <trkpt lat="47.55524" lon="-2.92127">
        <ele>54</ele>
        <time>2018-05-12T06:54:24Z</time>
      </trkpt>
      <trkpt lat="47.55518" lon="-2.92127">
        <ele>53</ele>
        <time>2018-05-12T06:54:26Z</time>
      </trkpt>
      <trkpt lat="47.55509" lon="-2.92129">
        <ele>53</ele>
        <time>2018-05-12T06:54:29Z</time>
      </trkpt>
      <trkpt lat="47.55504" lon="-2.92129">
        <ele>54</ele>
        <time>2018-05-12T06:54:31Z</time>
      </trkpt>
      <trkpt lat="47.55498" lon="-2.92129">
        <ele>53</ele>
        <time>2018-05-12T06:54:33Z</time>
      </trkpt>
      <trkpt lat="47.55492" lon="-2.92131">
        <ele>53</ele>
        <time>2018-05-12T06:54:35Z</time>
      </trkpt>
      <trkpt lat="47.5549" lon="-2.92132">
        <ele>53</ele>
        <time>2018-05-12T06:54:36Z</time>
      </trkpt>
      <trkpt lat="47.55484" lon="-2.92131">
        <ele>53</ele>
        <time>2018-05-12T06:54:38Z</time>
      </trkpt>
      <trkpt lat="47.55475" lon="-2.92133">
        <ele>54</ele>
        <time>2018-05-12T06:54:41Z</time>
      </trkpt>
      <trkpt lat="47.55469" lon="-2.92136">
        <ele>54</ele>
        <time>2018-05-12T06:54:43Z</time>
      </trkpt>
      <trkpt lat="47.55467" lon="-2.92137">
        <ele>54</ele>
        <time>2018-05-12T06:54:44Z</time>
      </trkpt>
      <trkpt lat="47.55464" lon="-2.92138">
        <ele>53</ele>
        <time>2018-05-12T06:54:45Z</time>
      </trkpt>
      <trkpt lat="47.55458" lon="-2.9214">
        <ele>54</ele>
        <time>2018-05-12T06:54:47Z</time>
      </trkpt>
      <trkpt lat="47.55452" lon="-2.92143">
        <ele>54</ele>
        <time>2018-05-12T06:54:49Z</time>
      </trkpt>
      <trkpt lat="47.55447" lon="-2.92147">
        <ele>55</ele>
        <time>2018-05-12T06:54:51Z</time>
      </trkpt>
      <trkpt lat="47.55444" lon="-2.92149">
        <ele>55</ele>
        <time>2018-05-12T06:54:52Z</time>
      </trkpt>
      <trkpt lat="47.55441" lon="-2.92151">
        <ele>56</ele>
        <time>2018-05-12T06:54:53Z</time>
      </trkpt>
      <trkpt lat="47.55437" lon="-2.92154">
        <ele>56</ele>
        <time>2018-05-12T06:54:54Z</time>
      </trkpt>
      <trkpt lat="47.55428" lon="-2.92161">
        <ele>57</ele>
        <time>2018-05-12T06:54:57Z</time>
      </trkpt>
      <trkpt lat="47.55422" lon="-2.92165">
        <ele>57</ele>
        <time>2018-05-12T06:54:59Z</time>
      </trkpt>
      <trkpt lat="47.55416" lon="-2.92171">
        <ele>56</ele>
        <time>2018-05-12T06:55:01Z</time>
      </trkpt>
      <trkpt lat="47.55409" lon="-2.92176">
        <ele>55</ele>
        <time>2018-05-12T06:55:03Z</time>
      </trkpt>
      <trkpt lat="47.55402" lon="-2.92181">
        <ele>55</ele>
        <time>2018-05-12T06:55:05Z</time>
      </trkpt>
      <trkpt lat="47.55396" lon="-2.92178">
        <ele>52</ele>
        <time>2018-05-12T06:55:08Z</time>
      </trkpt>
      <trkpt lat="47.55389" lon="-2.92181">
        <ele>53</ele>
        <time>2018-05-12T06:55:10Z</time>
      </trkpt>
      <trkpt lat="47.55382" lon="-2.92185">
        <ele>52</ele>
        <time>2018-05-12T06:55:12Z</time>
      </trkpt>
      <trkpt lat="47.55378" lon="-2.92187">
        <ele>53</ele>
        <time>2018-05-12T06:55:13Z</time>
      </trkpt>
      <trkpt lat="47.55375" lon="-2.92189">
        <ele>53</ele>
        <time>2018-05-12T06:55:14Z</time>
      </trkpt>
      <trkpt lat="47.55368" lon="-2.92194">
        <ele>51</ele>
        <time>2018-05-12T06:55:16Z</time>
      </trkpt>
      <trkpt lat="47.55365" lon="-2.92196">
        <ele>51</ele>
        <time>2018-05-12T06:55:17Z</time>
      </trkpt>
      <trkpt lat="47.55361" lon="-2.92199">
        <ele>51</ele>
        <time>2018-05-12T06:55:18Z</time>
      </trkpt>
      <trkpt lat="47.55358" lon="-2.92203">
        <ele>51</ele>
        <time>2018-05-12T06:55:19Z</time>
      </trkpt>
      <trkpt lat="47.55354" lon="-2.92205">
        <ele>51</ele>
        <time>2018-05-12T06:55:20Z</time>
      </trkpt>
      <trkpt lat="47.55347" lon="-2.92211">
        <ele>51</ele>
        <time>2018-05-12T06:55:22Z</time>
      </trkpt>
      <trkpt lat="47.55342" lon="-2.92216">
        <ele>51</ele>
        <time>2018-05-12T06:55:24Z</time>
      </trkpt>
      <trkpt lat="47.55335" lon="-2.92219">
        <ele>51</ele>
        <time>2018-05-12T06:55:26Z</time>
      </trkpt>
      <trkpt lat="47.55332" lon="-2.92221">
        <ele>51</ele>
        <time>2018-05-12T06:55:27Z</time>
      </trkpt>
      <trkpt lat="47.55329" lon="-2.92223">
        <ele>51</ele>
        <time>2018-05-12T06:55:28Z</time>
      </trkpt>
      <trkpt lat="47.55326" lon="-2.92224">
        <ele>50</ele>
        <time>2018-05-12T06:55:29Z</time>
      </trkpt>
      <trkpt lat="47.55322" lon="-2.92226">
        <ele>51</ele>
        <time>2018-05-12T06:55:30Z</time>
      </trkpt>
      <trkpt lat="47.55319" lon="-2.92228">
        <ele>51</ele>
        <time>2018-05-12T06:55:31Z</time>
      </trkpt>
      <trkpt lat="47.55316" lon="-2.9223">
        <ele>52</ele>
        <time>2018-05-12T06:55:32Z</time>
      </trkpt>
      <trkpt lat="47.55311" lon="-2.9223">
        <ele>50</ele>
        <time>2018-05-12T06:55:34Z</time>
      </trkpt>
      <trkpt lat="47.55305" lon="-2.92233">
        <ele>49</ele>
        <time>2018-05-12T06:55:36Z</time>
      </trkpt>
      <trkpt lat="47.55301" lon="-2.92235">
        <ele>50</ele>
        <time>2018-05-12T06:55:37Z</time>
      </trkpt>
      <trkpt lat="47.55297" lon="-2.92236">
        <ele>50</ele>
        <time>2018-05-12T06:55:38Z</time>
      </trkpt>
      <trkpt lat="47.55292" lon="-2.92235">
        <ele>50</ele>
        <time>2018-05-12T06:55:40Z</time>
      </trkpt>
      <trkpt lat="47.55283" lon="-2.92238">
        <ele>49</ele>
        <time>2018-05-12T06:55:43Z</time>
      </trkpt>
      <trkpt lat="47.55279" lon="-2.92238">
        <ele>50</ele>
        <time>2018-05-12T06:55:44Z</time>
      </trkpt>
      <trkpt lat="47.55274" lon="-2.92238">
        <ele>47</ele>
        <time>2018-05-12T06:55:46Z</time>
      </trkpt>
      <trkpt lat="47.55268" lon="-2.92239">
        <ele>47</ele>
        <time>2018-05-12T06:55:48Z</time>
      </trkpt>
      <trkpt lat="47.55261" lon="-2.9224">
        <ele>48</ele>
        <time>2018-05-12T06:55:50Z</time>
      </trkpt>
      <trkpt lat="47.55254" lon="-2.92241">
        <ele>47</ele>
        <time>2018-05-12T06:55:52Z</time>
      </trkpt>
      <trkpt lat="47.55248" lon="-2.92244">
        <ele>48</ele>
        <time>2018-05-12T06:55:54Z</time>
      </trkpt>
      <trkpt lat="47.5524" lon="-2.92245">
        <ele>48</ele>
        <time>2018-05-12T06:55:56Z</time>
      </trkpt>
      <trkpt lat="47.55233" lon="-2.92247">
        <ele>47</ele>
        <time>2018-05-12T06:55:58Z</time>
      </trkpt>
      <trkpt lat="47.55226" lon="-2.92251">
        <ele>46</ele>
        <time>2018-05-12T06:56:00Z</time>
      </trkpt>
      <trkpt lat="47.5522" lon="-2.92255">
        <ele>44</ele>
        <time>2018-05-12T06:56:02Z</time>
      </trkpt>
      <trkpt lat="47.55213" lon="-2.92259">
        <ele>43</ele>
        <time>2018-05-12T06:56:04Z</time>
      </trkpt>
      <trkpt lat="47.55207" lon="-2.92261">
        <ele>43</ele>
        <time>2018-05-12T06:56:06Z</time>
      </trkpt>
      <trkpt lat="47.552" lon="-2.92261">
        <ele>42</ele>
        <time>2018-05-12T06:56:08Z</time>
      </trkpt>
      <trkpt lat="47.55197" lon="-2.92261">
        <ele>43</ele>
        <time>2018-05-12T06:56:09Z</time>
      </trkpt>
      <trkpt lat="47.55186" lon="-2.92259">
        <ele>45</ele>
        <time>2018-05-12T06:56:12Z</time>
      </trkpt>
      <trkpt lat="47.55182" lon="-2.92258">
        <ele>46</ele>
        <time>2018-05-12T06:56:13Z</time>
      </trkpt>
      <trkpt lat="47.55178" lon="-2.92257">
        <ele>46</ele>
        <time>2018-05-12T06:56:14Z</time>
      </trkpt>
      <trkpt lat="47.55174" lon="-2.92256">
        <ele>46</ele>
        <time>2018-05-12T06:56:15Z</time>
      </trkpt>
      <trkpt lat="47.55167" lon="-2.92256">
        <ele>46</ele>
        <time>2018-05-12T06:56:17Z</time>
      </trkpt>
      <trkpt lat="47.5516" lon="-2.92255">
        <ele>45</ele>
        <time>2018-05-12T06:56:19Z</time>
      </trkpt>
      <trkpt lat="47.55153" lon="-2.92256">
        <ele>44</ele>
        <time>2018-05-12T06:56:21Z</time>
      </trkpt>
      <trkpt lat="47.55145" lon="-2.92256">
        <ele>44</ele>
        <time>2018-05-12T06:56:23Z</time>
      </trkpt>
      <trkpt lat="47.55137" lon="-2.92255">
        <ele>43</ele>
        <time>2018-05-12T06:56:25Z</time>
      </trkpt>
      <trkpt lat="47.5513" lon="-2.92254">
        <ele>42</ele>
        <time>2018-05-12T06:56:27Z</time>
      </trkpt>
      <trkpt lat="47.55123" lon="-2.92254">
        <ele>43</ele>
        <time>2018-05-12T06:56:29Z</time>
      </trkpt>
      <trkpt lat="47.55119" lon="-2.92254">
        <ele>44</ele>
        <time>2018-05-12T06:56:30Z</time>
      </trkpt>
      <trkpt lat="47.55115" lon="-2.92254">
        <ele>43</ele>
        <time>2018-05-12T06:56:31Z</time>
      </trkpt>
      <trkpt lat="47.5511" lon="-2.92253">
        <ele>44</ele>
        <time>2018-05-12T06:56:32Z</time>
      </trkpt>
      <trkpt lat="47.55102" lon="-2.92254">
        <ele>43</ele>
        <time>2018-05-12T06:56:34Z</time>
      </trkpt>
      <trkpt lat="47.55098" lon="-2.92254">
        <ele>44</ele>
        <time>2018-05-12T06:56:35Z</time>
      </trkpt>
      <trkpt lat="47.55093" lon="-2.92253">
        <ele>45</ele>
        <time>2018-05-12T06:56:36Z</time>
      </trkpt>
      <trkpt lat="47.55087" lon="-2.92253">
        <ele>44</ele>
        <time>2018-05-12T06:56:38Z</time>
      </trkpt>
      <trkpt lat="47.55083" lon="-2.92253">
        <ele>43</ele>
        <time>2018-05-12T06:56:39Z</time>
      </trkpt>
      <trkpt lat="47.5508" lon="-2.92254">
        <ele>42</ele>
        <time>2018-05-12T06:56:40Z</time>
      </trkpt>
      <trkpt lat="47.55076" lon="-2.92253">
        <ele>43</ele>
        <time>2018-05-12T06:56:41Z</time>
      </trkpt>
      <trkpt lat="47.55069" lon="-2.92254">
        <ele>43</ele>
        <time>2018-05-12T06:56:43Z</time>
      </trkpt>
      <trkpt lat="47.55063" lon="-2.92259">
        <ele>40</ele>
        <time>2018-05-12T06:56:45Z</time>
      </trkpt>
      <trkpt lat="47.55056" lon="-2.9226">
        <ele>40</ele>
        <time>2018-05-12T06:56:47Z</time>
      </trkpt>
      <trkpt lat="47.55049" lon="-2.9226">
        <ele>39</ele>
        <time>2018-05-12T06:56:49Z</time>
      </trkpt>
      <trkpt lat="47.55046" lon="-2.92259">
        <ele>39</ele>
        <time>2018-05-12T06:56:50Z</time>
      </trkpt>
      <trkpt lat="47.55038" lon="-2.9226">
        <ele>39</ele>
        <time>2018-05-12T06:56:52Z</time>
      </trkpt>
      <trkpt lat="47.5503" lon="-2.92258">
        <ele>39</ele>
        <time>2018-05-12T06:56:54Z</time>
      </trkpt>
      <trkpt lat="47.5502" lon="-2.9226">
        <ele>39</ele>
        <time>2018-05-12T06:56:57Z</time>
      </trkpt>
      <trkpt lat="47.55009" lon="-2.92262">
        <ele>39</ele>
        <time>2018-05-12T06:57:00Z</time>
      </trkpt>
      <trkpt lat="47.55001" lon="-2.92262">
        <ele>41</ele>
        <time>2018-05-12T06:57:02Z</time>
      </trkpt>
      <trkpt lat="47.54993" lon="-2.92262">
        <ele>41</ele>
        <time>2018-05-12T06:57:04Z</time>
      </trkpt>
      <trkpt lat="47.54989" lon="-2.92263">
        <ele>40</ele>
        <time>2018-05-12T06:57:05Z</time>
      </trkpt>
      <trkpt lat="47.54986" lon="-2.92263">
        <ele>40</ele>
        <time>2018-05-12T06:57:06Z</time>
      </trkpt>
      <trkpt lat="47.54982" lon="-2.92263">
        <ele>40</ele>
        <time>2018-05-12T06:57:07Z</time>
      </trkpt>
      <trkpt lat="47.54976" lon="-2.92261">
        <ele>40</ele>
        <time>2018-05-12T06:57:09Z</time>
      </trkpt>
      <trkpt lat="47.54969" lon="-2.92262">
        <ele>40</ele>
        <time>2018-05-12T06:57:11Z</time>
      </trkpt>
      <trkpt lat="47.54961" lon="-2.92261">
        <ele>41</ele>
        <time>2018-05-12T06:57:13Z</time>
      </trkpt>
      <trkpt lat="47.54953" lon="-2.92262">
        <ele>40</ele>
        <time>2018-05-12T06:57:15Z</time>
      </trkpt>
      <trkpt lat="47.54945" lon="-2.92263">
        <ele>40</ele>
        <time>2018-05-12T06:57:17Z</time>
      </trkpt>
      <trkpt lat="47.54941" lon="-2.92262">
        <ele>42</ele>
        <time>2018-05-12T06:57:18Z</time>
      </trkpt>
      <trkpt lat="47.54932" lon="-2.92261">
        <ele>44</ele>
        <time>2018-05-12T06:57:20Z</time>
      </trkpt>
      <trkpt lat="47.54927" lon="-2.92262">
        <ele>44</ele>
        <time>2018-05-12T06:57:21Z</time>
      </trkpt>
      <trkpt lat="47.54923" lon="-2.92262">
        <ele>45</ele>
        <time>2018-05-12T06:57:22Z</time>
      </trkpt>
      <trkpt lat="47.54919" lon="-2.92262">
        <ele>46</ele>
        <time>2018-05-12T06:57:23Z</time>
      </trkpt>
      <trkpt lat="47.54915" lon="-2.92263">
        <ele>46</ele>
        <time>2018-05-12T06:57:24Z</time>
      </trkpt>
      <trkpt lat="47.54908" lon="-2.92265">
        <ele>49</ele>
        <time>2018-05-12T06:57:26Z</time>
      </trkpt>
      <trkpt lat="47.54904" lon="-2.92266">
        <ele>49</ele>
        <time>2018-05-12T06:57:27Z</time>
      </trkpt>
      <trkpt lat="47.549" lon="-2.92268">
        <ele>49</ele>
        <time>2018-05-12T06:57:28Z</time>
      </trkpt>
      <trkpt lat="47.54896" lon="-2.9227">
        <ele>50</ele>
        <time>2018-05-12T06:57:29Z</time>
      </trkpt>
      <trkpt lat="47.54893" lon="-2.92272">
        <ele>50</ele>
        <time>2018-05-12T06:57:30Z</time>
      </trkpt>
      <trkpt lat="47.54889" lon="-2.92274">
        <ele>50</ele>
        <time>2018-05-12T06:57:31Z</time>
      </trkpt>
      <trkpt lat="47.54886" lon="-2.92275">
        <ele>50</ele>
        <time>2018-05-12T06:57:32Z</time>
      </trkpt>
      <trkpt lat="47.5488" lon="-2.92277">
        <ele>52</ele>
        <time>2018-05-12T06:57:34Z</time>
      </trkpt>
      <trkpt lat="47.54872" lon="-2.92281">
        <ele>52</ele>
        <time>2018-05-12T06:57:36Z</time>
      </trkpt>
      <trkpt lat="47.54869" lon="-2.92283">
        <ele>52</ele>
        <time>2018-05-12T06:57:37Z</time>
      </trkpt>
      <trkpt lat="47.54862" lon="-2.92286">
        <ele>53</ele>
        <time>2018-05-12T06:57:39Z</time>
      </trkpt>
      <trkpt lat="47.54859" lon="-2.92288">
        <ele>53</ele>
        <time>2018-05-12T06:57:40Z</time>
      </trkpt>
      <trkpt lat="47.54856" lon="-2.9229">
        <ele>54</ele>
        <time>2018-05-12T06:57:41Z</time>
      </trkpt>
      <trkpt lat="47.54849" lon="-2.92295">
        <ele>54</ele>
        <time>2018-05-12T06:57:43Z</time>
      </trkpt>
      <trkpt lat="47.54845" lon="-2.92298">
        <ele>53</ele>
        <time>2018-05-12T06:57:44Z</time>
      </trkpt>
      <trkpt lat="47.54838" lon="-2.92304">
        <ele>53</ele>
        <time>2018-05-12T06:57:46Z</time>
      </trkpt>
      <trkpt lat="47.54835" lon="-2.92305">
        <ele>54</ele>
        <time>2018-05-12T06:57:47Z</time>
      </trkpt>
      <trkpt lat="47.54831" lon="-2.92308">
        <ele>54</ele>
        <time>2018-05-12T06:57:48Z</time>
      </trkpt>
      <trkpt lat="47.54825" lon="-2.92313">
        <ele>52</ele>
        <time>2018-05-12T06:57:50Z</time>
      </trkpt>
      <trkpt lat="47.54819" lon="-2.92317">
        <ele>52</ele>
        <time>2018-05-12T06:57:51Z</time>
      </trkpt>
      <trkpt lat="47.54816" lon="-2.92319">
        <ele>50</ele>
        <time>2018-05-12T06:57:52Z</time>
      </trkpt>
      <trkpt lat="47.5481" lon="-2.92319">
        <ele>48</ele>
        <time>2018-05-12T06:57:54Z</time>
      </trkpt>
      <trkpt lat="47.548" lon="-2.92326">
        <ele>49</ele>
        <time>2018-05-12T06:57:57Z</time>
      </trkpt>
      <trkpt lat="47.54795" lon="-2.92331">
        <ele>52</ele>
        <time>2018-05-12T06:57:59Z</time>
      </trkpt>
      <trkpt lat="47.54788" lon="-2.92337">
        <ele>54</ele>
        <time>2018-05-12T06:58:01Z</time>
      </trkpt>
      <trkpt lat="47.54785" lon="-2.92339">
        <ele>56</ele>
        <time>2018-05-12T06:58:02Z</time>
      </trkpt>
      <trkpt lat="47.54779" lon="-2.92344">
        <ele>55</ele>
        <time>2018-05-12T06:58:04Z</time>
      </trkpt>
      <trkpt lat="47.54773" lon="-2.92345">
        <ele>53</ele>
        <time>2018-05-12T06:58:06Z</time>
      </trkpt>
      <trkpt lat="47.54767" lon="-2.92347">
        <ele>53</ele>
        <time>2018-05-12T06:58:08Z</time>
      </trkpt>
      <trkpt lat="47.54764" lon="-2.92349">
        <ele>53</ele>
        <time>2018-05-12T06:58:09Z</time>
      </trkpt>
      <trkpt lat="47.54757" lon="-2.92351">
        <ele>52</ele>
        <time>2018-05-12T06:58:11Z</time>
      </trkpt>
      <trkpt lat="47.54751" lon="-2.92352">
        <ele>52</ele>
        <time>2018-05-12T06:58:13Z</time>
      </trkpt>
      <trkpt lat="47.54747" lon="-2.92355">
        <ele>52</ele>
        <time>2018-05-12T06:58:14Z</time>
      </trkpt>
      <trkpt lat="47.54739" lon="-2.92359">
        <ele>53</ele>
        <time>2018-05-12T06:58:16Z</time>
      </trkpt>
      <trkpt lat="47.54729" lon="-2.92367">
        <ele>53</ele>
        <time>2018-05-12T06:58:19Z</time>
      </trkpt>
      <trkpt lat="47.54719" lon="-2.92373">
        <ele>55</ele>
        <time>2018-05-12T06:58:22Z</time>
      </trkpt>
      <trkpt lat="47.54712" lon="-2.92379">
        <ele>52</ele>
        <time>2018-05-12T06:58:24Z</time>
      </trkpt>
      <trkpt lat="47.54705" lon="-2.92381">
        <ele>52</ele>
        <time>2018-05-12T06:58:26Z</time>
      </trkpt>
      <trkpt lat="47.54696" lon="-2.92387">
        <ele>52</ele>
        <time>2018-05-12T06:58:28Z</time>
      </trkpt>
      <trkpt lat="47.54687" lon="-2.92389">
        <ele>53</ele>
        <time>2018-05-12T06:58:31Z</time>
      </trkpt>
      <trkpt lat="47.54682" lon="-2.9239">
        <ele>51</ele>
        <time>2018-05-12T06:58:33Z</time>
      </trkpt>
      <trkpt lat="47.54675" lon="-2.92391">
        <ele>51</ele>
        <time>2018-05-12T06:58:35Z</time>
      </trkpt>
      <trkpt lat="47.54668" lon="-2.92392">
        <ele>52</ele>
        <time>2018-05-12T06:58:37Z</time>
      </trkpt>
      <trkpt lat="47.54661" lon="-2.92392">
        <ele>52</ele>
        <time>2018-05-12T06:58:39Z</time>
      </trkpt>
      <trkpt lat="47.54654" lon="-2.92394">
        <ele>52</ele>
        <time>2018-05-12T06:58:41Z</time>
      </trkpt>
      <trkpt lat="47.54649" lon="-2.92396">
        <ele>51</ele>
        <time>2018-05-12T06:58:43Z</time>
      </trkpt>
      <trkpt lat="47.54645" lon="-2.92397">
        <ele>51</ele>
        <time>2018-05-12T06:58:44Z</time>
      </trkpt>
      <trkpt lat="47.54634" lon="-2.924">
        <ele>52</ele>
        <time>2018-05-12T06:58:47Z</time>
      </trkpt>
      <trkpt lat="47.54631" lon="-2.924">
        <ele>53</ele>
        <time>2018-05-12T06:58:48Z</time>
      </trkpt>
      <trkpt lat="47.54627" lon="-2.92401">
        <ele>52</ele>
        <time>2018-05-12T06:58:49Z</time>
      </trkpt>
      <trkpt lat="47.54624" lon="-2.92401">
        <ele>52</ele>
        <time>2018-05-12T06:58:50Z</time>
      </trkpt>
      <trkpt lat="47.5462" lon="-2.92402">
        <ele>51</ele>
        <time>2018-05-12T06:58:51Z</time>
      </trkpt>
      <trkpt lat="47.54613" lon="-2.92405">
        <ele>51</ele>
        <time>2018-05-12T06:58:53Z</time>
      </trkpt>
      <trkpt lat="47.54603" lon="-2.92406">
        <ele>51</ele>
        <time>2018-05-12T06:58:57Z</time>
      </trkpt>
      <trkpt lat="47.54597" lon="-2.92407">
        <ele>51</ele>
        <time>2018-05-12T06:58:59Z</time>
      </trkpt>
      <trkpt lat="47.5459" lon="-2.92408">
        <ele>51</ele>
        <time>2018-05-12T06:59:01Z</time>
      </trkpt>
      <trkpt lat="47.54583" lon="-2.92408">
        <ele>52</ele>
        <time>2018-05-12T06:59:03Z</time>
      </trkpt>
      <trkpt lat="47.54576" lon="-2.9241">
        <ele>53</ele>
        <time>2018-05-12T06:59:05Z</time>
      </trkpt>
      <trkpt lat="47.54568" lon="-2.92414">
        <ele>55</ele>
        <time>2018-05-12T06:59:07Z</time>
      </trkpt>
      <trkpt lat="47.5456" lon="-2.92416">
        <ele>56</ele>
        <time>2018-05-12T06:59:09Z</time>
      </trkpt>
      <trkpt lat="47.5455" lon="-2.9242">
        <ele>55</ele>
        <time>2018-05-12T06:59:12Z</time>
      </trkpt>
      <trkpt lat="47.54545" lon="-2.92419">
        <ele>52</ele>
        <time>2018-05-12T06:59:14Z</time>
      </trkpt>
      <trkpt lat="47.54538" lon="-2.92421">
        <ele>53</ele>
        <time>2018-05-12T06:59:16Z</time>
      </trkpt>
      <trkpt lat="47.5453" lon="-2.92426">
        <ele>52</ele>
        <time>2018-05-12T06:59:18Z</time>
      </trkpt>
      <trkpt lat="47.54523" lon="-2.92432">
        <ele>53</ele>
        <time>2018-05-12T06:59:20Z</time>
      </trkpt>
      <trkpt lat="47.5452" lon="-2.92435">
        <ele>53</ele>
        <time>2018-05-12T06:59:21Z</time>
      </trkpt>
      <trkpt lat="47.54511" lon="-2.92438">
        <ele>52</ele>
        <time>2018-05-12T06:59:24Z</time>
      </trkpt>
      <trkpt lat="47.54499" lon="-2.9244">
        <ele>53</ele>
        <time>2018-05-12T06:59:28Z</time>
      </trkpt>
      <trkpt lat="47.54493" lon="-2.92444">
        <ele>53</ele>
        <time>2018-05-12T06:59:30Z</time>
      </trkpt>
      <trkpt lat="47.54488" lon="-2.92447">
        <ele>55</ele>
        <time>2018-05-12T06:59:32Z</time>
      </trkpt>
      <trkpt lat="47.54485" lon="-2.9245">
        <ele>55</ele>
        <time>2018-05-12T06:59:33Z</time>
      </trkpt>
      <trkpt lat="47.54482" lon="-2.92452">
        <ele>55</ele>
        <time>2018-05-12T06:59:34Z</time>
      </trkpt>
      <trkpt lat="47.54477" lon="-2.92455">
        <ele>56</ele>
        <time>2018-05-12T06:59:36Z</time>
      </trkpt>
      <trkpt lat="47.54467" lon="-2.92461">
        <ele>55</ele>
        <time>2018-05-12T06:59:39Z</time>
      </trkpt>
      <trkpt lat="47.54464" lon="-2.92462">
        <ele>55</ele>
        <time>2018-05-12T06:59:40Z</time>
      </trkpt>
      <trkpt lat="47.54458" lon="-2.92465">
        <ele>55</ele>
        <time>2018-05-12T06:59:42Z</time>
      </trkpt>
      <trkpt lat="47.54455" lon="-2.92466">
        <ele>55</ele>
        <time>2018-05-12T06:59:43Z</time>
      </trkpt>
      <trkpt lat="47.54452" lon="-2.92467">
        <ele>55</ele>
        <time>2018-05-12T06:59:44Z</time>
      </trkpt>
      <trkpt lat="47.54445" lon="-2.92471">
        <ele>54</ele>
        <time>2018-05-12T06:59:46Z</time>
      </trkpt>
      <trkpt lat="47.54443" lon="-2.92472">
        <ele>54</ele>
        <time>2018-05-12T06:59:47Z</time>
      </trkpt>
      <trkpt lat="47.54439" lon="-2.92473">
        <ele>55</ele>
        <time>2018-05-12T06:59:48Z</time>
      </trkpt>
      <trkpt lat="47.54433" lon="-2.92473">
        <ele>55</ele>
        <time>2018-05-12T06:59:50Z</time>
      </trkpt>
      <trkpt lat="47.5443" lon="-2.92473">
        <ele>54</ele>
        <time>2018-05-12T06:59:51Z</time>
      </trkpt>
      <trkpt lat="47.54424" lon="-2.92476">
        <ele>55</ele>
        <time>2018-05-12T06:59:53Z</time>
      </trkpt>
      <trkpt lat="47.54421" lon="-2.92477">
        <ele>55</ele>
        <time>2018-05-12T06:59:54Z</time>
      </trkpt>
      <trkpt lat="47.54415" lon="-2.92477">
        <ele>54</ele>
        <time>2018-05-12T06:59:57Z</time>
      </trkpt>
      <trkpt lat="47.54412" lon="-2.92477">
        <ele>55</ele>
        <time>2018-05-12T06:59:58Z</time>
      </trkpt>
      <trkpt lat="47.54404" lon="-2.92482">
        <ele>53</ele>
        <time>2018-05-12T07:00:00Z</time>
      </trkpt>
      <trkpt lat="47.54402" lon="-2.92484">
        <ele>52</ele>
        <time>2018-05-12T07:00:01Z</time>
      </trkpt>
      <trkpt lat="47.54396" lon="-2.92482">
        <ele>51</ele>
        <time>2018-05-12T07:00:03Z</time>
      </trkpt>
      <trkpt lat="47.54391" lon="-2.92484">
        <ele>51</ele>
        <time>2018-05-12T07:00:05Z</time>
      </trkpt>
      <trkpt lat="47.54386" lon="-2.92485">
        <ele>50</ele>
        <time>2018-05-12T07:00:06Z</time>
      </trkpt>
      <trkpt lat="47.54381" lon="-2.92484">
        <ele>49</ele>
        <time>2018-05-12T07:00:08Z</time>
      </trkpt>
      <trkpt lat="47.54376" lon="-2.92486">
        <ele>49</ele>
        <time>2018-05-12T07:00:10Z</time>
      </trkpt>
      <trkpt lat="47.54373" lon="-2.92486">
        <ele>49</ele>
        <time>2018-05-12T07:00:11Z</time>
      </trkpt>
      <trkpt lat="47.54368" lon="-2.9249">
        <ele>49</ele>
        <time>2018-05-12T07:00:13Z</time>
      </trkpt>
      <trkpt lat="47.54366" lon="-2.92493">
        <ele>49</ele>
        <time>2018-05-12T07:00:14Z</time>
      </trkpt>
      <trkpt lat="47.54361" lon="-2.92495">
        <ele>50</ele>
        <time>2018-05-12T07:00:16Z</time>
      </trkpt>
      <trkpt lat="47.54358" lon="-2.92496">
        <ele>51</ele>
        <time>2018-05-12T07:00:17Z</time>
      </trkpt>
      <trkpt lat="47.54351" lon="-2.92498">
        <ele>51</ele>
        <time>2018-05-12T07:00:20Z</time>
      </trkpt>
      <trkpt lat="47.54344" lon="-2.925">
        <ele>51</ele>
        <time>2018-05-12T07:00:23Z</time>
      </trkpt>
      <trkpt lat="47.54338" lon="-2.92499">
        <ele>52</ele>
        <time>2018-05-12T07:00:25Z</time>
      </trkpt>
      <trkpt lat="47.54333" lon="-2.92501">
        <ele>53</ele>
        <time>2018-05-12T07:00:27Z</time>
      </trkpt>
      <trkpt lat="47.5433" lon="-2.92502">
        <ele>53</ele>
        <time>2018-05-12T07:00:28Z</time>
      </trkpt>
      <trkpt lat="47.54327" lon="-2.92503">
        <ele>53</ele>
        <time>2018-05-12T07:00:29Z</time>
      </trkpt>
      <trkpt lat="47.5432" lon="-2.92505">
        <ele>54</ele>
        <time>2018-05-12T07:00:31Z</time>
      </trkpt>
      <trkpt lat="47.54314" lon="-2.92507">
        <ele>55</ele>
        <time>2018-05-12T07:00:33Z</time>
      </trkpt>
      <trkpt lat="47.54308" lon="-2.92511">
        <ele>55</ele>
        <time>2018-05-12T07:00:35Z</time>
      </trkpt>
      <trkpt lat="47.54299" lon="-2.92516">
        <ele>55</ele>
        <time>2018-05-12T07:00:38Z</time>
      </trkpt>
      <trkpt lat="47.54294" lon="-2.92517">
        <ele>56</ele>
        <time>2018-05-12T07:00:40Z</time>
      </trkpt>
      <trkpt lat="47.54289" lon="-2.92519">
        <ele>55</ele>
        <time>2018-05-12T07:00:42Z</time>
      </trkpt>
      <trkpt lat="47.54286" lon="-2.9252">
        <ele>55</ele>
        <time>2018-05-12T07:00:43Z</time>
      </trkpt>
      <trkpt lat="47.54281" lon="-2.92522">
        <ele>54</ele>
        <time>2018-05-12T07:00:45Z</time>
      </trkpt>
      <trkpt lat="47.54278" lon="-2.92524">
        <ele>54</ele>
        <time>2018-05-12T07:00:46Z</time>
      </trkpt>
      <trkpt lat="47.54275" lon="-2.92525">
        <ele>54</ele>
        <time>2018-05-12T07:00:47Z</time>
      </trkpt>
      <trkpt lat="47.54269" lon="-2.92527">
        <ele>54</ele>
        <time>2018-05-12T07:00:49Z</time>
      </trkpt>
      <trkpt lat="47.54264" lon="-2.92528">
        <ele>53</ele>
        <time>2018-05-12T07:00:51Z</time>
      </trkpt>
      <trkpt lat="47.54258" lon="-2.92531">
        <ele>55</ele>
        <time>2018-05-12T07:00:53Z</time>
      </trkpt>
      <trkpt lat="47.54256" lon="-2.92532">
        <ele>55</ele>
        <time>2018-05-12T07:00:54Z</time>
      </trkpt>
      <trkpt lat="47.54252" lon="-2.92534">
        <ele>57</ele>
        <time>2018-05-12T07:00:56Z</time>
      </trkpt>
      <trkpt lat="47.54244" lon="-2.9254">
        <ele>57</ele>
        <time>2018-05-12T07:00:59Z</time>
      </trkpt>
      <trkpt lat="47.54242" lon="-2.92542">
        <ele>57</ele>
        <time>2018-05-12T07:01:00Z</time>
      </trkpt>
      <trkpt lat="47.54238" lon="-2.92545">
        <ele>57</ele>
        <time>2018-05-12T07:01:02Z</time>
      </trkpt>
      <trkpt lat="47.54232" lon="-2.92547">
        <ele>59</ele>
        <time>2018-05-12T07:01:04Z</time>
      </trkpt>
      <trkpt lat="47.54227" lon="-2.92549">
        <ele>60</ele>
        <time>2018-05-12T07:01:06Z</time>
      </trkpt>
      <trkpt lat="47.5422" lon="-2.92551">
        <ele>59</ele>
        <time>2018-05-12T07:01:09Z</time>
      </trkpt>
      <trkpt lat="47.54216" lon="-2.92552">
        <ele>56</ele>
        <time>2018-05-12T07:01:11Z</time>
      </trkpt>
      <trkpt lat="47.54213" lon="-2.92554">
        <ele>57</ele>
        <time>2018-05-12T07:01:12Z</time>
      </trkpt>
      <trkpt lat="47.5421" lon="-2.92555">
        <ele>58</ele>
        <time>2018-05-12T07:01:13Z</time>
      </trkpt>
      <trkpt lat="47.54204" lon="-2.92556">
        <ele>58</ele>
        <time>2018-05-12T07:01:15Z</time>
      </trkpt>
      <trkpt lat="47.542" lon="-2.92557">
        <ele>58</ele>
        <time>2018-05-12T07:01:17Z</time>
      </trkpt>
      <trkpt lat="47.54195" lon="-2.92558">
        <ele>58</ele>
        <time>2018-05-12T07:01:19Z</time>
      </trkpt>
      <trkpt lat="47.54191" lon="-2.92562">
        <ele>54</ele>
        <time>2018-05-12T07:01:21Z</time>
      </trkpt>
      <trkpt lat="47.54185" lon="-2.92558">
        <ele>51</ele>
        <time>2018-05-12T07:01:24Z</time>
      </trkpt>
      <trkpt lat="47.54178" lon="-2.92558">
        <ele>50</ele>
        <time>2018-05-12T07:01:27Z</time>
      </trkpt>
      <trkpt lat="47.54172" lon="-2.92559">
        <ele>50</ele>
        <time>2018-05-12T07:01:29Z</time>
      </trkpt>
      <trkpt lat="47.5417" lon="-2.9256">
        <ele>49</ele>
        <time>2018-05-12T07:01:30Z</time>
      </trkpt>
      <trkpt lat="47.54164" lon="-2.92562">
        <ele>48</ele>
        <time>2018-05-12T07:01:32Z</time>
      </trkpt>
      <trkpt lat="47.54158" lon="-2.92562">
        <ele>49</ele>
        <time>2018-05-12T07:01:34Z</time>
      </trkpt>
      <trkpt lat="47.54149" lon="-2.92564">
        <ele>48</ele>
        <time>2018-05-12T07:01:37Z</time>
      </trkpt>
      <trkpt lat="47.54146" lon="-2.92564">
        <ele>48</ele>
        <time>2018-05-12T07:01:38Z</time>
      </trkpt>
      <trkpt lat="47.54141" lon="-2.92565">
        <ele>48</ele>
        <time>2018-05-12T07:01:40Z</time>
      </trkpt>
      <trkpt lat="47.54137" lon="-2.92566">
        <ele>48</ele>
        <time>2018-05-12T07:01:41Z</time>
      </trkpt>
      <trkpt lat="47.54131" lon="-2.92567">
        <ele>49</ele>
        <time>2018-05-12T07:01:43Z</time>
      </trkpt>
      <trkpt lat="47.54128" lon="-2.92568">
        <ele>48</ele>
        <time>2018-05-12T07:01:44Z</time>
      </trkpt>
      <trkpt lat="47.54123" lon="-2.9257">
        <ele>48</ele>
        <time>2018-05-12T07:01:46Z</time>
      </trkpt>
      <trkpt lat="47.5412" lon="-2.92571">
        <ele>49</ele>
        <time>2018-05-12T07:01:48Z</time>
      </trkpt>
      <trkpt lat="47.54112" lon="-2.92573">
        <ele>50</ele>
        <time>2018-05-12T07:01:51Z</time>
      </trkpt>
      <trkpt lat="47.54106" lon="-2.92573">
        <ele>48</ele>
        <time>2018-05-12T07:01:53Z</time>
      </trkpt>
      <trkpt lat="47.54101" lon="-2.92575">
        <ele>49</ele>
        <time>2018-05-12T07:01:55Z</time>
      </trkpt>
      <trkpt lat="47.54096" lon="-2.92577">
        <ele>49</ele>
        <time>2018-05-12T07:01:57Z</time>
      </trkpt>
      <trkpt lat="47.54089" lon="-2.92579">
        <ele>50</ele>
        <time>2018-05-12T07:02:00Z</time>
      </trkpt>
      <trkpt lat="47.54085" lon="-2.92582">
        <ele>50</ele>
        <time>2018-05-12T07:02:02Z</time>
      </trkpt>
      <trkpt lat="47.54079" lon="-2.92584">
        <ele>51</ele>
        <time>2018-05-12T07:02:04Z</time>
      </trkpt>
      <trkpt lat="47.54074" lon="-2.92588">
        <ele>51</ele>
        <time>2018-05-12T07:02:07Z</time>
      </trkpt>
      <trkpt lat="47.54071" lon="-2.9259">
        <ele>52</ele>
        <time>2018-05-12T07:02:08Z</time>
      </trkpt>
      <trkpt lat="47.54065" lon="-2.92592">
        <ele>53</ele>
        <time>2018-05-12T07:02:10Z</time>
      </trkpt>
      <trkpt lat="47.54059" lon="-2.92593">
        <ele>55</ele>
        <time>2018-05-12T07:02:13Z</time>
      </trkpt>
      <trkpt lat="47.54053" lon="-2.92596">
        <ele>56</ele>
        <time>2018-05-12T07:02:15Z</time>
      </trkpt>
      <trkpt lat="47.54051" lon="-2.92597">
        <ele>56</ele>
        <time>2018-05-12T07:02:16Z</time>
      </trkpt>
      <trkpt lat="47.54046" lon="-2.92601">
        <ele>55</ele>
        <time>2018-05-12T07:02:18Z</time>
      </trkpt>
      <trkpt lat="47.5404" lon="-2.92603">
        <ele>57</ele>
        <time>2018-05-12T07:02:20Z</time>
      </trkpt>
      <trkpt lat="47.54036" lon="-2.92603">
        <ele>58</ele>
        <time>2018-05-12T07:02:22Z</time>
      </trkpt>
      <trkpt lat="47.54031" lon="-2.92606">
        <ele>56</ele>
        <time>2018-05-12T07:02:24Z</time>
      </trkpt>
      <trkpt lat="47.54025" lon="-2.92607">
        <ele>58</ele>
        <time>2018-05-12T07:02:26Z</time>
      </trkpt>
      <trkpt lat="47.54019" lon="-2.92608">
        <ele>59</ele>
        <time>2018-05-12T07:02:29Z</time>
      </trkpt>
      <trkpt lat="47.54013" lon="-2.92611">
        <ele>59</ele>
        <time>2018-05-12T07:02:31Z</time>
      </trkpt>
      <trkpt lat="47.54009" lon="-2.92612">
        <ele>57</ele>
        <time>2018-05-12T07:02:33Z</time>
      </trkpt>
      <trkpt lat="47.54007" lon="-2.92613">
        <ele>57</ele>
        <time>2018-05-12T07:02:34Z</time>
      </trkpt>
      <trkpt lat="47.54004" lon="-2.92614">
        <ele>57</ele>
        <time>2018-05-12T07:02:35Z</time>
      </trkpt>
      <trkpt lat="47.54002" lon="-2.92615">
        <ele>59</ele>
        <time>2018-05-12T07:02:36Z</time>
      </trkpt>
      <trkpt lat="47.53998" lon="-2.92618">
        <ele>58</ele>
        <time>2018-05-12T07:02:38Z</time>
      </trkpt>
      <trkpt lat="47.53993" lon="-2.92622">
        <ele>58</ele>
        <time>2018-05-12T07:02:40Z</time>
      </trkpt>
      <trkpt lat="47.5399" lon="-2.92625">
        <ele>58</ele>
        <time>2018-05-12T07:02:41Z</time>
      </trkpt>
      <trkpt lat="47.53983" lon="-2.9263">
        <ele>54</ele>
        <time>2018-05-12T07:02:44Z</time>
      </trkpt>
      <trkpt lat="47.53978" lon="-2.92632">
        <ele>52</ele>
        <time>2018-05-12T07:02:46Z</time>
      </trkpt>
      <trkpt lat="47.53975" lon="-2.92634">
        <ele>52</ele>
        <time>2018-05-12T07:02:47Z</time>
      </trkpt>
      <trkpt lat="47.5397" lon="-2.92637">
        <ele>51</ele>
        <time>2018-05-12T07:02:49Z</time>
      </trkpt>
      <trkpt lat="47.53964" lon="-2.92638">
        <ele>50</ele>
        <time>2018-05-12T07:02:51Z</time>
      </trkpt>
      <trkpt lat="47.53959" lon="-2.9264">
        <ele>50</ele>
        <time>2018-05-12T07:02:53Z</time>
      </trkpt>
      <trkpt lat="47.53952" lon="-2.92638">
        <ele>50</ele>
        <time>2018-05-12T07:02:57Z</time>
      </trkpt>
      <trkpt lat="47.53944" lon="-2.92645">
        <ele>49</ele>
        <time>2018-05-12T07:03:01Z</time>
      </trkpt>
      <trkpt lat="47.53938" lon="-2.92646">
        <ele>49</ele>
        <time>2018-05-12T07:03:04Z</time>
      </trkpt>
      <trkpt lat="47.53933" lon="-2.92649">
        <ele>49</ele>
        <time>2018-05-12T07:03:06Z</time>
      </trkpt>
      <trkpt lat="47.53931" lon="-2.92651">
        <ele>50</ele>
        <time>2018-05-12T07:03:07Z</time>
      </trkpt>
      <trkpt lat="47.53928" lon="-2.92653">
        <ele>51</ele>
        <time>2018-05-12T07:03:08Z</time>
      </trkpt>
      <trkpt lat="47.53922" lon="-2.92659">
        <ele>50</ele>
        <time>2018-05-12T07:03:10Z</time>
      </trkpt>
      <trkpt lat="47.53916" lon="-2.9266">
        <ele>51</ele>
        <time>2018-05-12T07:03:13Z</time>
      </trkpt>
      <trkpt lat="47.5391" lon="-2.92662">
        <ele>50</ele>
        <time>2018-05-12T07:03:16Z</time>
      </trkpt>
      <trkpt lat="47.53906" lon="-2.92662">
        <ele>50</ele>
        <time>2018-05-12T07:03:19Z</time>
      </trkpt>
      <trkpt lat="47.53901" lon="-2.92667">
        <ele>49</ele>
        <time>2018-05-12T07:03:21Z</time>
      </trkpt>
      <trkpt lat="47.53897" lon="-2.92671">
        <ele>49</ele>
        <time>2018-05-12T07:03:23Z</time>
      </trkpt>
      <trkpt lat="47.53893" lon="-2.92672">
        <ele>50</ele>
        <time>2018-05-12T07:03:25Z</time>
      </trkpt>
      <trkpt lat="47.53889" lon="-2.92675">
        <ele>51</ele>
        <time>2018-05-12T07:03:27Z</time>
      </trkpt>
      <trkpt lat="47.53882" lon="-2.92679">
        <ele>52</ele>
        <time>2018-05-12T07:03:30Z</time>
      </trkpt>
      <trkpt lat="47.53877" lon="-2.92682">
        <ele>54</ele>
        <time>2018-05-12T07:03:33Z</time>
      </trkpt>
      <trkpt lat="47.53873" lon="-2.92684">
        <ele>53</ele>
        <time>2018-05-12T07:03:35Z</time>
      </trkpt>
      <trkpt lat="47.53865" lon="-2.9269">
        <ele>53</ele>
        <time>2018-05-12T07:03:38Z</time>
      </trkpt>
      <trkpt lat="47.53859" lon="-2.92691">
        <ele>49</ele>
        <time>2018-05-12T07:03:42Z</time>
      </trkpt>
      <trkpt lat="47.53853" lon="-2.92695">
        <ele>51</ele>
        <time>2018-05-12T07:03:45Z</time>
      </trkpt>
      <trkpt lat="47.5385" lon="-2.92698">
        <ele>51</ele>
        <time>2018-05-12T07:03:47Z</time>
      </trkpt>
      <trkpt lat="47.53845" lon="-2.92701">
        <ele>49</ele>
        <time>2018-05-12T07:03:50Z</time>
      </trkpt>
      <trkpt lat="47.5384" lon="-2.92707">
        <ele>49</ele>
        <time>2018-05-12T07:03:52Z</time>
      </trkpt>
      <trkpt lat="47.53831" lon="-2.92715">
        <ele>51</ele>
        <time>2018-05-12T07:03:56Z</time>
      </trkpt>
      <trkpt lat="47.53825" lon="-2.92721">
        <ele>53</ele>
        <time>2018-05-12T07:03:59Z</time>
      </trkpt>
      <trkpt lat="47.53823" lon="-2.92723">
        <ele>54</ele>
        <time>2018-05-12T07:04:00Z</time>
      </trkpt>
      <trkpt lat="47.53821" lon="-2.92725">
        <ele>54</ele>
        <time>2018-05-12T07:04:01Z</time>
      </trkpt>
      <trkpt lat="47.53812" lon="-2.9273">
        <ele>55</ele>
        <time>2018-05-12T07:04:06Z</time>
      </trkpt>
      <trkpt lat="47.53805" lon="-2.92737">
        <ele>55</ele>
        <time>2018-05-12T07:04:09Z</time>
      </trkpt>
      <trkpt lat="47.53801" lon="-2.92742">
        <ele>54</ele>
        <time>2018-05-12T07:04:11Z</time>
      </trkpt>
      <trkpt lat="47.53798" lon="-2.92744">
        <ele>53</ele>
        <time>2018-05-12T07:04:12Z</time>
      </trkpt>
      <trkpt lat="47.53794" lon="-2.9275">
        <ele>54</ele>
        <time>2018-05-12T07:04:14Z</time>
      </trkpt>
      <trkpt lat="47.53788" lon="-2.92755">
        <ele>54</ele>
        <time>2018-05-12T07:04:17Z</time>
      </trkpt>
      <trkpt lat="47.53784" lon="-2.92761">
        <ele>55</ele>
        <time>2018-05-12T07:04:19Z</time>
      </trkpt>
      <trkpt lat="47.53779" lon="-2.92766">
        <ele>54</ele>
        <time>2018-05-12T07:04:22Z</time>
      </trkpt>
      <trkpt lat="47.53775" lon="-2.92769">
        <ele>54</ele>
        <time>2018-05-12T07:04:24Z</time>
      </trkpt>
      <trkpt lat="47.53769" lon="-2.92772">
        <ele>52</ele>
        <time>2018-05-12T07:04:27Z</time>
      </trkpt>
      <trkpt lat="47.53764" lon="-2.92779">
        <ele>51</ele>
        <time>2018-05-12T07:04:30Z</time>
      </trkpt>
      <trkpt lat="47.53762" lon="-2.92781">
        <ele>51</ele>
        <time>2018-05-12T07:04:31Z</time>
      </trkpt>
      <trkpt lat="47.53757" lon="-2.92784">
        <ele>49</ele>
        <time>2018-05-12T07:04:34Z</time>
      </trkpt>
      <trkpt lat="47.53753" lon="-2.92786">
        <ele>48</ele>
        <time>2018-05-12T07:04:37Z</time>
      </trkpt>
      <trkpt lat="47.53747" lon="-2.9279">
        <ele>50</ele>
        <time>2018-05-12T07:04:41Z</time>
      </trkpt>
      <trkpt lat="47.53741" lon="-2.92796">
        <ele>51</ele>
        <time>2018-05-12T07:04:43Z</time>
      </trkpt>
      <trkpt lat="47.53736" lon="-2.92798">
        <ele>53</ele>
        <time>2018-05-12T07:04:47Z</time>
      </trkpt>
      <trkpt lat="47.53729" lon="-2.92806">
        <ele>54</ele>
        <time>2018-05-12T07:04:50Z</time>
      </trkpt>
      <trkpt lat="47.53725" lon="-2.92809">
        <ele>53</ele>
        <time>2018-05-12T07:04:52Z</time>
      </trkpt>
      <trkpt lat="47.5372" lon="-2.92813">
        <ele>54</ele>
        <time>2018-05-12T07:04:55Z</time>
      </trkpt>
      <trkpt lat="47.53718" lon="-2.92814">
        <ele>54</ele>
        <time>2018-05-12T07:04:56Z</time>
      </trkpt>
      <trkpt lat="47.53713" lon="-2.92816">
        <ele>54</ele>
        <time>2018-05-12T07:04:59Z</time>
      </trkpt>
      <trkpt lat="47.53706" lon="-2.92819">
        <ele>54</ele>
        <time>2018-05-12T07:05:02Z</time>
      </trkpt>
      <trkpt lat="47.53702" lon="-2.92821">
        <ele>53</ele>
        <time>2018-05-12T07:05:03Z</time>
      </trkpt>
      <trkpt lat="47.53698" lon="-2.92825">
        <ele>52</ele>
        <time>2018-05-12T07:05:05Z</time>
      </trkpt>
      <trkpt lat="47.53693" lon="-2.9283">
        <ele>53</ele>
        <time>2018-05-12T07:05:08Z</time>
      </trkpt>
      <trkpt lat="47.53686" lon="-2.92835">
        <ele>51</ele>
        <time>2018-05-12T07:05:12Z</time>
      </trkpt>
      <trkpt lat="47.53681" lon="-2.9284">
        <ele>51</ele>
        <time>2018-05-12T07:05:14Z</time>
      </trkpt>
      <trkpt lat="47.53673" lon="-2.92844">
        <ele>52</ele>
        <time>2018-05-12T07:05:17Z</time>
      </trkpt>
      <trkpt lat="47.53669" lon="-2.92849">
        <ele>52</ele>
        <time>2018-05-12T07:05:19Z</time>
      </trkpt>
      <trkpt lat="47.53665" lon="-2.92853">
        <ele>53</ele>
        <time>2018-05-12T07:05:21Z</time>
      </trkpt>
      <trkpt lat="47.53658" lon="-2.92861">
        <ele>53</ele>
        <time>2018-05-12T07:05:25Z</time>
      </trkpt>
      <trkpt lat="47.53652" lon="-2.9286">
        <ele>52</ele>
        <time>2018-05-12T07:05:29Z</time>
      </trkpt>
      <trkpt lat="47.53646" lon="-2.92864">
        <ele>53</ele>
        <time>2018-05-12T07:05:32Z</time>
      </trkpt>
      <trkpt lat="47.53637" lon="-2.92877">
        <ele>55</ele>
        <time>2018-05-12T07:05:37Z</time>
      </trkpt>
      <trkpt lat="47.53632" lon="-2.92886">
        <ele>56</ele>
        <time>2018-05-12T07:05:41Z</time>
      </trkpt>
      <trkpt lat="47.53628" lon="-2.92889">
        <ele>57</ele>
        <time>2018-05-12T07:05:43Z</time>
      </trkpt>
      <trkpt lat="47.53623" lon="-2.92895">
        <ele>57</ele>
        <time>2018-05-12T07:05:45Z</time>
      </trkpt>
      <trkpt lat="47.53621" lon="-2.92898">
        <ele>56</ele>
        <time>2018-05-12T07:05:47Z</time>
      </trkpt>
      <trkpt lat="47.53617" lon="-2.92902">
        <ele>56</ele>
        <time>2018-05-12T07:05:49Z</time>
      </trkpt>
      <trkpt lat="47.53612" lon="-2.92909">
        <ele>58</ele>
        <time>2018-05-12T07:05:51Z</time>
      </trkpt>
      <trkpt lat="47.53604" lon="-2.92918">
        <ele>59</ele>
        <time>2018-05-12T07:05:55Z</time>
      </trkpt>
      <trkpt lat="47.53598" lon="-2.92922">
        <ele>59</ele>
        <time>2018-05-12T07:05:57Z</time>
      </trkpt>
      <trkpt lat="47.53595" lon="-2.92924">
        <ele>59</ele>
        <time>2018-05-12T07:05:59Z</time>
      </trkpt>
      <trkpt lat="47.53589" lon="-2.92925">
        <ele>55</ele>
        <time>2018-05-12T07:06:05Z</time>
      </trkpt>
      <trkpt lat="47.53584" lon="-2.92929">
        <ele>55</ele>
        <time>2018-05-12T07:06:07Z</time>
      </trkpt>
      <trkpt lat="47.53579" lon="-2.92932">
        <ele>55</ele>
        <time>2018-05-12T07:06:10Z</time>
      </trkpt>
      <trkpt lat="47.53574" lon="-2.92937">
        <ele>54</ele>
        <time>2018-05-12T07:06:13Z</time>
      </trkpt>
      <trkpt lat="47.53571" lon="-2.92941">
        <ele>55</ele>
        <time>2018-05-12T07:06:15Z</time>
      </trkpt>
      <trkpt lat="47.53564" lon="-2.92951">
        <ele>56</ele>
        <time>2018-05-12T07:06:20Z</time>
      </trkpt>
      <trkpt lat="47.53559" lon="-2.92954">
        <ele>53</ele>
        <time>2018-05-12T07:06:24Z</time>
      </trkpt>
      <trkpt lat="47.53553" lon="-2.92961">
        <ele>54</ele>
        <time>2018-05-12T07:06:27Z</time>
      </trkpt>
      <trkpt lat="47.53551" lon="-2.92963">
        <ele>54</ele>
        <time>2018-05-12T07:06:28Z</time>
      </trkpt>
      <trkpt lat="47.53544" lon="-2.92971">
        <ele>53</ele>
        <time>2018-05-12T07:06:33Z</time>
      </trkpt>
      <trkpt lat="47.5354" lon="-2.92975">
        <ele>53</ele>
        <time>2018-05-12T07:06:35Z</time>
      </trkpt>
      <trkpt lat="47.53535" lon="-2.9298">
        <ele>52</ele>
        <time>2018-05-12T07:06:38Z</time>
      </trkpt>
      <trkpt lat="47.5353" lon="-2.92982">
        <ele>52</ele>
        <time>2018-05-12T07:06:41Z</time>
      </trkpt>
      <trkpt lat="47.53526" lon="-2.92989">
        <ele>52</ele>
        <time>2018-05-12T07:06:44Z</time>
      </trkpt>
      <trkpt lat="47.53523" lon="-2.92993">
        <ele>51</ele>
        <time>2018-05-12T07:06:46Z</time>
      </trkpt>
      <trkpt lat="47.53519" lon="-2.92998">
        <ele>50</ele>
        <time>2018-05-12T07:06:48Z</time>
      </trkpt>
      <trkpt lat="47.53513" lon="-2.93009">
        <ele>52</ele>
        <time>2018-05-12T07:06:51Z</time>
      </trkpt>
      <trkpt lat="47.53508" lon="-2.93016">
        <ele>51</ele>
        <time>2018-05-12T07:06:54Z</time>
      </trkpt>
      <trkpt lat="47.53501" lon="-2.93019">
        <ele>50</ele>
        <time>2018-05-12T07:06:57Z</time>
      </trkpt>
      <trkpt lat="47.53497" lon="-2.93022">
        <ele>50</ele>
        <time>2018-05-12T07:07:00Z</time>
      </trkpt>
      <trkpt lat="47.53495" lon="-2.93024">
        <ele>50</ele>
        <time>2018-05-12T07:07:01Z</time>
      </trkpt>
      <trkpt lat="47.53489" lon="-2.93028">
        <ele>51</ele>
        <time>2018-05-12T07:07:05Z</time>
      </trkpt>
      <trkpt lat="47.53487" lon="-2.93029">
        <ele>51</ele>
        <time>2018-05-12T07:07:06Z</time>
      </trkpt>
      <trkpt lat="47.5348" lon="-2.93033">
        <ele>53</ele>
        <time>2018-05-12T07:07:10Z</time>
      </trkpt>
      <trkpt lat="47.53474" lon="-2.93047">
        <ele>55</ele>
        <time>2018-05-12T07:07:13Z</time>
      </trkpt>
      <trkpt lat="47.5347" lon="-2.93052">
        <ele>55</ele>
        <time>2018-05-12T07:07:16Z</time>
      </trkpt>
      <trkpt lat="47.53468" lon="-2.93058">
        <ele>56</ele>
        <time>2018-05-12T07:07:18Z</time>
      </trkpt>
      <trkpt lat="47.53464" lon="-2.93065">
        <ele>56</ele>
        <time>2018-05-12T07:07:21Z</time>
      </trkpt>
      <trkpt lat="47.53461" lon="-2.9307">
        <ele>57</ele>
        <time>2018-05-12T07:07:23Z</time>
      </trkpt>
      <trkpt lat="47.53457" lon="-2.93075">
        <ele>57</ele>
        <time>2018-05-12T07:07:26Z</time>
      </trkpt>
      <trkpt lat="47.53452" lon="-2.93079">
        <ele>55</ele>
        <time>2018-05-12T07:07:29Z</time>
      </trkpt>
      <trkpt lat="47.5345" lon="-2.93081">
        <ele>55</ele>
        <time>2018-05-12T07:07:31Z</time>
      </trkpt>
      <trkpt lat="47.53446" lon="-2.93085">
        <ele>56</ele>
        <time>2018-05-12T07:07:33Z</time>
      </trkpt>
      <trkpt lat="47.53444" lon="-2.93087">
        <ele>56</ele>
        <time>2018-05-12T07:07:35Z</time>
      </trkpt>
      <trkpt lat="47.53439" lon="-2.93095">
        <ele>56</ele>
        <time>2018-05-12T07:07:38Z</time>
      </trkpt>
      <trkpt lat="47.53438" lon="-2.93098">
        <ele>56</ele>
        <time>2018-05-12T07:07:39Z</time>
      </trkpt>
      <trkpt lat="47.53436" lon="-2.93101">
        <ele>57</ele>
        <time>2018-05-12T07:07:40Z</time>
      </trkpt>
      <trkpt lat="47.53433" lon="-2.93107">
        <ele>56</ele>
        <time>2018-05-12T07:07:42Z</time>
      </trkpt>
      <trkpt lat="47.53428" lon="-2.93114">
        <ele>57</ele>
        <time>2018-05-12T07:07:45Z</time>
      </trkpt>
      <trkpt lat="47.53427" lon="-2.93117">
        <ele>56</ele>
        <time>2018-05-12T07:07:46Z</time>
      </trkpt>
      <trkpt lat="47.53425" lon="-2.9312">
        <ele>55</ele>
        <time>2018-05-12T07:07:48Z</time>
      </trkpt>
      <trkpt lat="47.53423" lon="-2.93123">
        <ele>55</ele>
        <time>2018-05-12T07:07:49Z</time>
      </trkpt>
      <trkpt lat="47.5342" lon="-2.93128">
        <ele>55</ele>
        <time>2018-05-12T07:07:52Z</time>
      </trkpt>
      <trkpt lat="47.53415" lon="-2.93133">
        <ele>55</ele>
        <time>2018-05-12T07:07:55Z</time>
      </trkpt>
      <trkpt lat="47.53412" lon="-2.93138">
        <ele>54</ele>
        <time>2018-05-12T07:07:58Z</time>
      </trkpt>
      <trkpt lat="47.53409" lon="-2.93142">
        <ele>54</ele>
        <time>2018-05-12T07:08:00Z</time>
      </trkpt>
      <trkpt lat="47.53407" lon="-2.93145">
        <ele>56</ele>
        <time>2018-05-12T07:08:02Z</time>
      </trkpt>
      <trkpt lat="47.53405" lon="-2.93148">
        <ele>55</ele>
        <time>2018-05-12T07:08:03Z</time>
      </trkpt>
      <trkpt lat="47.53401" lon="-2.93155">
        <ele>57</ele>
        <time>2018-05-12T07:08:05Z</time>
      </trkpt>
      <trkpt lat="47.53398" lon="-2.9316">
        <ele>57</ele>
        <time>2018-05-12T07:08:07Z</time>
      </trkpt>
      <trkpt lat="47.53395" lon="-2.93165">
        <ele>58</ele>
        <time>2018-05-12T07:08:09Z</time>
      </trkpt>
      <trkpt lat="47.53392" lon="-2.93169">
        <ele>57</ele>
        <time>2018-05-12T07:08:11Z</time>
      </trkpt>
      <trkpt lat="47.53389" lon="-2.93173">
        <ele>56</ele>
        <time>2018-05-12T07:08:13Z</time>
      </trkpt>
      <trkpt lat="47.53384" lon="-2.93176">
        <ele>49</ele>
        <time>2018-05-12T07:08:19Z</time>
      </trkpt>
      <trkpt lat="47.53382" lon="-2.93184">
        <ele>47</ele>
        <time>2018-05-12T07:08:22Z</time>
      </trkpt>
      <trkpt lat="47.53379" lon="-2.93191">
        <ele>45</ele>
        <time>2018-05-12T07:08:25Z</time>
      </trkpt>
      <trkpt lat="47.53375" lon="-2.93197">
        <ele>45</ele>
        <time>2018-05-12T07:08:28Z</time>
      </trkpt>
      <trkpt lat="47.53371" lon="-2.93205">
        <ele>46</ele>
        <time>2018-05-12T07:08:31Z</time>
      </trkpt>
      <trkpt lat="47.53369" lon="-2.93209">
        <ele>46</ele>
        <time>2018-05-12T07:08:33Z</time>
      </trkpt>
      <trkpt lat="47.53366" lon="-2.93215">
        <ele>47</ele>
        <time>2018-05-12T07:08:35Z</time>
      </trkpt>
      <trkpt lat="47.53364" lon="-2.93222">
        <ele>46</ele>
        <time>2018-05-12T07:08:38Z</time>
      </trkpt>
      <trkpt lat="47.53362" lon="-2.93228">
        <ele>47</ele>
        <time>2018-05-12T07:08:40Z</time>
      </trkpt>
      <trkpt lat="47.53358" lon="-2.93234">
        <ele>48</ele>
        <time>2018-05-12T07:08:44Z</time>
      </trkpt>
      <trkpt lat="47.53354" lon="-2.93243">
        <ele>46</ele>
        <time>2018-05-12T07:08:47Z</time>
      </trkpt>
      <trkpt lat="47.53351" lon="-2.93249">
        <ele>46</ele>
        <time>2018-05-12T07:08:49Z</time>
      </trkpt>
      <trkpt lat="47.5335" lon="-2.93252">
        <ele>46</ele>
        <time>2018-05-12T07:08:50Z</time>
      </trkpt>
      <trkpt lat="47.53348" lon="-2.93256">
        <ele>48</ele>
        <time>2018-05-12T07:08:52Z</time>
      </trkpt>
      <trkpt lat="47.53346" lon="-2.93259">
        <ele>49</ele>
        <time>2018-05-12T07:08:54Z</time>
      </trkpt>
      <trkpt lat="47.53343" lon="-2.93266">
        <ele>48</ele>
        <time>2018-05-12T07:08:58Z</time>
      </trkpt>
      <trkpt lat="47.53339" lon="-2.93277">
        <ele>49</ele>
        <time>2018-05-12T07:09:01Z</time>
      </trkpt>
      <trkpt lat="47.53337" lon="-2.93281">
        <ele>49</ele>
        <time>2018-05-12T07:09:04Z</time>
      </trkpt>
      <trkpt lat="47.53335" lon="-2.93285">
        <ele>51</ele>
        <time>2018-05-12T07:09:06Z</time>
      </trkpt>
      <trkpt lat="47.53331" lon="-2.93296">
        <ele>49</ele>
        <time>2018-05-12T07:09:11Z</time>
      </trkpt>
      <trkpt lat="47.53327" lon="-2.93301">
        <ele>49</ele>
        <time>2018-05-12T07:09:14Z</time>
      </trkpt>
      <trkpt lat="47.53325" lon="-2.93311">
        <ele>51</ele>
        <time>2018-05-12T07:09:21Z</time>
      </trkpt>
      <trkpt lat="47.53321" lon="-2.93321">
        <ele>50</ele>
        <time>2018-05-12T07:09:25Z</time>
      </trkpt>
      <trkpt lat="47.53319" lon="-2.93327">
        <ele>49</ele>
        <time>2018-05-12T07:09:28Z</time>
      </trkpt>
      <trkpt lat="47.53317" lon="-2.93334">
        <ele>49</ele>
        <time>2018-05-12T07:09:31Z</time>
      </trkpt>
      <trkpt lat="47.53314" lon="-2.93341">
        <ele>48</ele>
        <time>2018-05-12T07:09:34Z</time>
      </trkpt>
      <trkpt lat="47.53312" lon="-2.93345">
        <ele>50</ele>
        <time>2018-05-12T07:09:35Z</time>
      </trkpt>
      <trkpt lat="47.53311" lon="-2.93348">
        <ele>50</ele>
        <time>2018-05-12T07:09:37Z</time>
      </trkpt>
      <trkpt lat="47.53309" lon="-2.93356">
        <ele>48</ele>
        <time>2018-05-12T07:09:41Z</time>
      </trkpt>
      <trkpt lat="47.53306" lon="-2.93363">
        <ele>48</ele>
        <time>2018-05-12T07:09:44Z</time>
      </trkpt>
      <trkpt lat="47.53304" lon="-2.9337">
        <ele>49</ele>
        <time>2018-05-12T07:09:47Z</time>
      </trkpt>
      <trkpt lat="47.53301" lon="-2.93377">
        <ele>49</ele>
        <time>2018-05-12T07:09:51Z</time>
      </trkpt>
      <trkpt lat="47.53299" lon="-2.93387">
        <ele>45</ele>
        <time>2018-05-12T07:09:57Z</time>
      </trkpt>
      <trkpt lat="47.53296" lon="-2.93395">
        <ele>46</ele>
        <time>2018-05-12T07:10:00Z</time>
      </trkpt>
      <trkpt lat="47.53294" lon="-2.93402">
        <ele>46</ele>
        <time>2018-05-12T07:10:03Z</time>
      </trkpt>
      <trkpt lat="47.53292" lon="-2.93408">
        <ele>46</ele>
        <time>2018-05-12T07:10:05Z</time>
      </trkpt>
      <trkpt lat="47.5329" lon="-2.93415">
        <ele>47</ele>
        <time>2018-05-12T07:10:08Z</time>
      </trkpt>
      <trkpt lat="47.53287" lon="-2.93423">
        <ele>49</ele>
        <time>2018-05-12T07:10:10Z</time>
      </trkpt>
      <trkpt lat="47.53284" lon="-2.93431">
        <ele>52</ele>
        <time>2018-05-12T07:10:13Z</time>
      </trkpt>
      <trkpt lat="47.53282" lon="-2.93434">
        <ele>53</ele>
        <time>2018-05-12T07:10:14Z</time>
      </trkpt>
      <trkpt lat="47.53279" lon="-2.93443">
        <ele>53</ele>
        <time>2018-05-12T07:10:17Z</time>
      </trkpt>
      <trkpt lat="47.53278" lon="-2.93449">
        <ele>51</ele>
        <time>2018-05-12T07:10:20Z</time>
      </trkpt>
      <trkpt lat="47.53275" lon="-2.93456">
        <ele>49</ele>
        <time>2018-05-12T07:10:23Z</time>
      </trkpt>
      <trkpt lat="47.53273" lon="-2.93461">
        <ele>48</ele>
        <time>2018-05-12T07:10:26Z</time>
      </trkpt>
      <trkpt lat="47.53269" lon="-2.93469">
        <ele>47</ele>
        <time>2018-05-12T07:10:30Z</time>
      </trkpt>
      <trkpt lat="47.53265" lon="-2.93478">
        <ele>48</ele>
        <time>2018-05-12T07:10:33Z</time>
      </trkpt>
      <trkpt lat="47.53263" lon="-2.93485">
        <ele>47</ele>
        <time>2018-05-12T07:10:37Z</time>
      </trkpt>
      <trkpt lat="47.5326" lon="-2.9349">
        <ele>47</ele>
        <time>2018-05-12T07:10:40Z</time>
      </trkpt>
      <trkpt lat="47.53258" lon="-2.93494">
        <ele>50</ele>
        <time>2018-05-12T07:10:42Z</time>
      </trkpt>
      <trkpt lat="47.53255" lon="-2.93502">
        <ele>48</ele>
        <time>2018-05-12T07:10:46Z</time>
      </trkpt>
      <trkpt lat="47.53253" lon="-2.93506">
        <ele>46</ele>
        <time>2018-05-12T07:10:49Z</time>
      </trkpt>
      <trkpt lat="47.5325" lon="-2.9351">
        <ele>46</ele>
        <time>2018-05-12T07:10:51Z</time>
      </trkpt>
      <trkpt lat="47.53249" lon="-2.93513">
        <ele>47</ele>
        <time>2018-05-12T07:10:53Z</time>
      </trkpt>
      <trkpt lat="47.53245" lon="-2.93517">
        <ele>50</ele>
        <time>2018-05-12T07:10:55Z</time>
      </trkpt>
      <trkpt lat="47.53242" lon="-2.9352">
        <ele>50</ele>
        <time>2018-05-12T07:10:57Z</time>
      </trkpt>
      <trkpt lat="47.53239" lon="-2.93525">
        <ele>51</ele>
        <time>2018-05-12T07:10:59Z</time>
      </trkpt>
      <trkpt lat="47.53235" lon="-2.93532">
        <ele>53</ele>
        <time>2018-05-12T07:11:02Z</time>
      </trkpt>
      <trkpt lat="47.53233" lon="-2.93539">
        <ele>53</ele>
        <time>2018-05-12T07:11:05Z</time>
      </trkpt>
      <trkpt lat="47.5323" lon="-2.93547">
        <ele>54</ele>
        <time>2018-05-12T07:11:09Z</time>
      </trkpt>
      <trkpt lat="47.53228" lon="-2.93553">
        <ele>54</ele>
        <time>2018-05-12T07:11:12Z</time>
      </trkpt>
      <trkpt lat="47.53225" lon="-2.93561">
        <ele>47</ele>
        <time>2018-05-12T07:11:19Z</time>
      </trkpt>
      <trkpt lat="47.53221" lon="-2.93568">
        <ele>48</ele>
        <time>2018-05-12T07:11:22Z</time>
      </trkpt>
      <trkpt lat="47.53216" lon="-2.93574">
        <ele>49</ele>
        <time>2018-05-12T07:11:25Z</time>
      </trkpt>
      <trkpt lat="47.53213" lon="-2.93581">
        <ele>49</ele>
        <time>2018-05-12T07:11:29Z</time>
      </trkpt>
      <trkpt lat="47.5321" lon="-2.93586">
        <ele>49</ele>
        <time>2018-05-12T07:11:32Z</time>
      </trkpt>
      <trkpt lat="47.53207" lon="-2.93591">
        <ele>49</ele>
        <time>2018-05-12T07:11:34Z</time>
      </trkpt>
      <trkpt lat="47.53204" lon="-2.93596">
        <ele>48</ele>
        <time>2018-05-12T07:11:38Z</time>
      </trkpt>
      <trkpt lat="47.53201" lon="-2.93605">
        <ele>47</ele>
        <time>2018-05-12T07:11:42Z</time>
      </trkpt>
      <trkpt lat="47.53196" lon="-2.93611">
        <ele>51</ele>
        <time>2018-05-12T07:11:44Z</time>
      </trkpt>
      <trkpt lat="47.53193" lon="-2.93618">
        <ele>52</ele>
        <time>2018-05-12T07:11:47Z</time>
      </trkpt>
      <trkpt lat="47.53191" lon="-2.93623">
        <ele>52</ele>
        <time>2018-05-12T07:11:50Z</time>
      </trkpt>
      <trkpt lat="47.53188" lon="-2.93628">
        <ele>53</ele>
        <time>2018-05-12T07:11:53Z</time>
      </trkpt>
      <trkpt lat="47.53184" lon="-2.93633">
        <ele>53</ele>
        <time>2018-05-12T07:11:59Z</time>
      </trkpt>
      <trkpt lat="47.5318" lon="-2.93642">
        <ele>52</ele>
        <time>2018-05-12T07:12:03Z</time>
      </trkpt>
      <trkpt lat="47.53177" lon="-2.93647">
        <ele>53</ele>
        <time>2018-05-12T07:12:06Z</time>
      </trkpt>
      <trkpt lat="47.53174" lon="-2.93653">
        <ele>52</ele>
        <time>2018-05-12T07:12:08Z</time>
      </trkpt>
      <trkpt lat="47.53173" lon="-2.93657">
        <ele>51</ele>
        <time>2018-05-12T07:12:10Z</time>
      </trkpt>
      <trkpt lat="47.5317" lon="-2.93662">
        <ele>50</ele>
        <time>2018-05-12T07:12:12Z</time>
      </trkpt>
      <trkpt lat="47.53169" lon="-2.93669">
        <ele>51</ele>
        <time>2018-05-12T07:12:16Z</time>
      </trkpt>
      <trkpt lat="47.53167" lon="-2.93676">
        <ele>51</ele>
        <time>2018-05-12T07:12:19Z</time>
      </trkpt>
      <trkpt lat="47.53166" lon="-2.93681">
        <ele>53</ele>
        <time>2018-05-12T07:12:21Z</time>
      </trkpt>
      <trkpt lat="47.53163" lon="-2.93687">
        <ele>54</ele>
        <time>2018-05-12T07:12:23Z</time>
      </trkpt>
      <trkpt lat="47.53158" lon="-2.93694">
        <ele>54</ele>
        <time>2018-05-12T07:12:27Z</time>
      </trkpt>
      <trkpt lat="47.53155" lon="-2.937">
        <ele>52</ele>
        <time>2018-05-12T07:12:30Z</time>
      </trkpt>
      <trkpt lat="47.53153" lon="-2.93704">
        <ele>52</ele>
        <time>2018-05-12T07:12:32Z</time>
      </trkpt>
      <trkpt lat="47.5315" lon="-2.93711">
        <ele>51</ele>
        <time>2018-05-12T07:12:36Z</time>
      </trkpt>
      <trkpt lat="47.53147" lon="-2.93716">
        <ele>52</ele>
        <time>2018-05-12T07:12:39Z</time>
      </trkpt>
      <trkpt lat="47.53146" lon="-2.9372">
        <ele>52</ele>
        <time>2018-05-12T07:12:41Z</time>
      </trkpt>
      <trkpt lat="47.53142" lon="-2.93725">
        <ele>51</ele>
        <time>2018-05-12T07:12:43Z</time>
      </trkpt>
      <trkpt lat="47.53137" lon="-2.93735">
        <ele>47</ele>
        <time>2018-05-12T07:12:51Z</time>
      </trkpt>
      <trkpt lat="47.53133" lon="-2.93742">
        <ele>46</ele>
        <time>2018-05-12T07:12:53Z</time>
      </trkpt>
      <trkpt lat="47.53131" lon="-2.93746">
        <ele>49</ele>
        <time>2018-05-12T07:12:55Z</time>
      </trkpt>
      <trkpt lat="47.53129" lon="-2.93749">
        <ele>50</ele>
        <time>2018-05-12T07:12:56Z</time>
      </trkpt>
      <trkpt lat="47.53126" lon="-2.93757">
        <ele>51</ele>
        <time>2018-05-12T07:12:59Z</time>
      </trkpt>
      <trkpt lat="47.53124" lon="-2.93763">
        <ele>51</ele>
        <time>2018-05-12T07:13:02Z</time>
      </trkpt>
      <trkpt lat="47.53119" lon="-2.93769">
        <ele>53</ele>
        <time>2018-05-12T07:13:06Z</time>
      </trkpt>
      <trkpt lat="47.53115" lon="-2.93777">
        <ele>52</ele>
        <time>2018-05-12T07:13:10Z</time>
      </trkpt>
      <trkpt lat="47.53112" lon="-2.93784">
        <ele>50</ele>
        <time>2018-05-12T07:13:13Z</time>
      </trkpt>
      <trkpt lat="47.53109" lon="-2.9379">
        <ele>49</ele>
        <time>2018-05-12T07:13:16Z</time>
      </trkpt>
      <trkpt lat="47.53106" lon="-2.93795">
        <ele>49</ele>
        <time>2018-05-12T07:13:19Z</time>
      </trkpt>
      <trkpt lat="47.53104" lon="-2.93799">
        <ele>49</ele>
        <time>2018-05-12T07:13:21Z</time>
      </trkpt>
      <trkpt lat="47.53102" lon="-2.93802">
        <ele>48</ele>
        <time>2018-05-12T07:13:23Z</time>
      </trkpt>
      <trkpt lat="47.531" lon="-2.93806">
        <ele>48</ele>
        <time>2018-05-12T07:13:25Z</time>
      </trkpt>
      <trkpt lat="47.53094" lon="-2.93813">
        <ele>47</ele>
        <time>2018-05-12T07:13:31Z</time>
      </trkpt>
      <trkpt lat="47.53092" lon="-2.93815">
        <ele>47</ele>
        <time>2018-05-12T07:13:33Z</time>
      </trkpt>
      <trkpt lat="47.53089" lon="-2.9382">
        <ele>48</ele>
        <time>2018-05-12T07:13:36Z</time>
      </trkpt>
      <trkpt lat="47.53086" lon="-2.93825">
        <ele>48</ele>
        <time>2018-05-12T07:13:39Z</time>
      </trkpt>
      <trkpt lat="47.53083" lon="-2.93832">
        <ele>46</ele>
        <time>2018-05-12T07:13:43Z</time>
      </trkpt>
      <trkpt lat="47.5308" lon="-2.93837">
        <ele>45</ele>
        <time>2018-05-12T07:13:47Z</time>
      </trkpt>
      <trkpt lat="47.53076" lon="-2.93843">
        <ele>47</ele>
        <time>2018-05-12T07:13:50Z</time>
      </trkpt>
      <trkpt lat="47.53073" lon="-2.93848">
        <ele>48</ele>
        <time>2018-05-12T07:13:53Z</time>
      </trkpt>
      <trkpt lat="47.5307" lon="-2.93852">
        <ele>49</ele>
        <time>2018-05-12T07:13:56Z</time>
      </trkpt>
      <trkpt lat="47.53068" lon="-2.93856">
        <ele>48</ele>
        <time>2018-05-12T07:13:58Z</time>
      </trkpt>
      <trkpt lat="47.53066" lon="-2.9386">
        <ele>48</ele>
        <time>2018-05-12T07:14:00Z</time>
      </trkpt>
      <trkpt lat="47.53063" lon="-2.93864">
        <ele>48</ele>
        <time>2018-05-12T07:14:02Z</time>
      </trkpt>
      <trkpt lat="47.53061" lon="-2.93867">
        <ele>48</ele>
        <time>2018-05-12T07:14:04Z</time>
      </trkpt>
      <trkpt lat="47.53059" lon="-2.93872">
        <ele>48</ele>
        <time>2018-05-12T07:14:06Z</time>
      </trkpt>
      <trkpt lat="47.53055" lon="-2.93877">
        <ele>49</ele>
        <time>2018-05-12T07:14:09Z</time>
      </trkpt>
      <trkpt lat="47.53054" lon="-2.9388">
        <ele>48</ele>
        <time>2018-05-12T07:14:11Z</time>
      </trkpt>
      <trkpt lat="47.5305" lon="-2.93885">
        <ele>48</ele>
        <time>2018-05-12T07:14:14Z</time>
      </trkpt>
      <trkpt lat="47.53048" lon="-2.93889">
        <ele>49</ele>
        <time>2018-05-12T07:14:16Z</time>
      </trkpt>
      <trkpt lat="47.53046" lon="-2.93893">
        <ele>49</ele>
        <time>2018-05-12T07:14:18Z</time>
      </trkpt>
      <trkpt lat="47.53043" lon="-2.93897">
        <ele>49</ele>
        <time>2018-05-12T07:14:21Z</time>
      </trkpt>
      <trkpt lat="47.53041" lon="-2.93904">
        <ele>48</ele>
        <time>2018-05-12T07:14:25Z</time>
      </trkpt>
      <trkpt lat="47.5304" lon="-2.93908">
        <ele>49</ele>
        <time>2018-05-12T07:14:27Z</time>
      </trkpt>
      <trkpt lat="47.53039" lon="-2.93912">
        <ele>49</ele>
        <time>2018-05-12T07:14:28Z</time>
      </trkpt>
      <trkpt lat="47.53037" lon="-2.9392">
        <ele>48</ele>
        <time>2018-05-12T07:14:32Z</time>
      </trkpt>
      <trkpt lat="47.53034" lon="-2.93927">
        <ele>49</ele>
        <time>2018-05-12T07:14:36Z</time>
      </trkpt>
      <trkpt lat="47.53031" lon="-2.93933">
        <ele>49</ele>
        <time>2018-05-12T07:14:39Z</time>
      </trkpt>
      <trkpt lat="47.53029" lon="-2.93938">
        <ele>49</ele>
        <time>2018-05-12T07:14:41Z</time>
      </trkpt>
      <trkpt lat="47.53028" lon="-2.93943">
        <ele>49</ele>
        <time>2018-05-12T07:14:43Z</time>
      </trkpt>
      <trkpt lat="47.53024" lon="-2.93952">
        <ele>50</ele>
        <time>2018-05-12T07:14:46Z</time>
      </trkpt>
      <trkpt lat="47.53022" lon="-2.93958">
        <ele>49</ele>
        <time>2018-05-12T07:14:49Z</time>
      </trkpt>
      <trkpt lat="47.5302" lon="-2.93965">
        <ele>49</ele>
        <time>2018-05-12T07:14:53Z</time>
      </trkpt>
      <trkpt lat="47.53019" lon="-2.93972">
        <ele>47</ele>
        <time>2018-05-12T07:14:58Z</time>
      </trkpt>
      <trkpt lat="47.53017" lon="-2.93979">
        <ele>47</ele>
        <time>2018-05-12T07:15:01Z</time>
      </trkpt>
      <trkpt lat="47.53016" lon="-2.93986">
        <ele>47</ele>
        <time>2018-05-12T07:15:04Z</time>
      </trkpt>
      <trkpt lat="47.53016" lon="-2.93993">
        <ele>47</ele>
        <time>2018-05-12T07:15:08Z</time>
      </trkpt>
      <trkpt lat="47.53015" lon="-2.94001">
        <ele>44</ele>
        <time>2018-05-12T07:15:12Z</time>
      </trkpt>
      <trkpt lat="47.53013" lon="-2.9401">
        <ele>46</ele>
        <time>2018-05-12T07:15:16Z</time>
      </trkpt>
      <trkpt lat="47.5301" lon="-2.94017">
        <ele>46</ele>
        <time>2018-05-12T07:15:19Z</time>
      </trkpt>
      <trkpt lat="47.53008" lon="-2.94023">
        <ele>46</ele>
        <time>2018-05-12T07:15:22Z</time>
      </trkpt>
      <trkpt lat="47.53006" lon="-2.94034">
        <ele>46</ele>
        <time>2018-05-12T07:15:27Z</time>
      </trkpt>
      <trkpt lat="47.53006" lon="-2.94043">
        <ele>44</ele>
        <time>2018-05-12T07:15:31Z</time>
      </trkpt>
      <trkpt lat="47.53003" lon="-2.94051">
        <ele>44</ele>
        <time>2018-05-12T07:15:33Z</time>
      </trkpt>
      <trkpt lat="47.53001" lon="-2.94056">
        <ele>45</ele>
        <time>2018-05-12T07:15:35Z</time>
      </trkpt>
      <trkpt lat="47.52998" lon="-2.94061">
        <ele>47</ele>
        <time>2018-05-12T07:15:37Z</time>
      </trkpt>
      <trkpt lat="47.52997" lon="-2.94069">
        <ele>45</ele>
        <time>2018-05-12T07:15:40Z</time>
      </trkpt>
      <trkpt lat="47.52995" lon="-2.94077">
        <ele>46</ele>
        <time>2018-05-12T07:15:44Z</time>
      </trkpt>
      <trkpt lat="47.52993" lon="-2.94085">
        <ele>44</ele>
        <time>2018-05-12T07:15:50Z</time>
      </trkpt>
      <trkpt lat="47.5299" lon="-2.94092">
        <ele>44</ele>
        <time>2018-05-12T07:15:54Z</time>
      </trkpt>
      <trkpt lat="47.52986" lon="-2.94097">
        <ele>44</ele>
        <time>2018-05-12T07:15:57Z</time>
      </trkpt>
      <trkpt lat="47.52983" lon="-2.94102">
        <ele>47</ele>
        <time>2018-05-12T07:16:02Z</time>
      </trkpt>
      <trkpt lat="47.52979" lon="-2.94109">
        <ele>48</ele>
        <time>2018-05-12T07:16:06Z</time>
      </trkpt>
      <trkpt lat="47.52977" lon="-2.94112">
        <ele>47</ele>
        <time>2018-05-12T07:16:08Z</time>
      </trkpt>
      <trkpt lat="47.52974" lon="-2.94118">
        <ele>46</ele>
        <time>2018-05-12T07:16:11Z</time>
      </trkpt>
      <trkpt lat="47.52972" lon="-2.94123">
        <ele>46</ele>
        <time>2018-05-12T07:16:13Z</time>
      </trkpt>
      <trkpt lat="47.5297" lon="-2.9413">
        <ele>48</ele>
        <time>2018-05-12T07:16:16Z</time>
      </trkpt>
      <trkpt lat="47.52967" lon="-2.94138">
        <ele>47</ele>
        <time>2018-05-12T07:16:20Z</time>
      </trkpt>
      <trkpt lat="47.52966" lon="-2.94141">
        <ele>47</ele>
        <time>2018-05-12T07:16:21Z</time>
      </trkpt>
      <trkpt lat="47.52964" lon="-2.94144">
        <ele>47</ele>
        <time>2018-05-12T07:16:23Z</time>
      </trkpt>
      <trkpt lat="47.5296" lon="-2.94149">
        <ele>49</ele>
        <time>2018-05-12T07:16:26Z</time>
      </trkpt>
      <trkpt lat="47.52957" lon="-2.94153">
        <ele>47</ele>
        <time>2018-05-12T07:16:28Z</time>
      </trkpt>
      <trkpt lat="47.52954" lon="-2.94159">
        <ele>47</ele>
        <time>2018-05-12T07:16:30Z</time>
      </trkpt>
      <trkpt lat="47.52953" lon="-2.94163">
        <ele>48</ele>
        <time>2018-05-12T07:16:31Z</time>
      </trkpt>
      <trkpt lat="47.52951" lon="-2.94169">
        <ele>49</ele>
        <time>2018-05-12T07:16:33Z</time>
      </trkpt>
      <trkpt lat="47.52948" lon="-2.94175">
        <ele>48</ele>
        <time>2018-05-12T07:16:36Z</time>
      </trkpt>
      <trkpt lat="47.52945" lon="-2.94183">
        <ele>47</ele>
        <time>2018-05-12T07:16:39Z</time>
      </trkpt>
      <trkpt lat="47.52941" lon="-2.94189">
        <ele>47</ele>
        <time>2018-05-12T07:16:42Z</time>
      </trkpt>
      <trkpt lat="47.52938" lon="-2.94196">
        <ele>48</ele>
        <time>2018-05-12T07:16:45Z</time>
      </trkpt>
      <trkpt lat="47.52936" lon="-2.94204">
        <ele>47</ele>
        <time>2018-05-12T07:16:48Z</time>
      </trkpt>
      <trkpt lat="47.52934" lon="-2.94209">
        <ele>47</ele>
        <time>2018-05-12T07:16:52Z</time>
      </trkpt>
      <trkpt lat="47.52931" lon="-2.94214">
        <ele>46</ele>
        <time>2018-05-12T07:16:55Z</time>
      </trkpt>
      <trkpt lat="47.52928" lon="-2.9422">
        <ele>46</ele>
        <time>2018-05-12T07:16:58Z</time>
      </trkpt>
      <trkpt lat="47.52925" lon="-2.94225">
        <ele>45</ele>
        <time>2018-05-12T07:17:01Z</time>
      </trkpt>
      <trkpt lat="47.52924" lon="-2.94229">
        <ele>45</ele>
        <time>2018-05-12T07:17:03Z</time>
      </trkpt>
      <trkpt lat="47.52921" lon="-2.94234">
        <ele>46</ele>
        <time>2018-05-12T07:17:06Z</time>
      </trkpt>
      <trkpt lat="47.52918" lon="-2.9424">
        <ele>46</ele>
        <time>2018-05-12T07:17:09Z</time>
      </trkpt>
      <trkpt lat="47.52915" lon="-2.94248">
        <ele>46</ele>
        <time>2018-05-12T07:17:12Z</time>
      </trkpt>
      <trkpt lat="47.52912" lon="-2.94254">
        <ele>46</ele>
        <time>2018-05-12T07:17:15Z</time>
      </trkpt>
      <trkpt lat="47.52911" lon="-2.94258">
        <ele>46</ele>
        <time>2018-05-12T07:17:17Z</time>
      </trkpt>
      <trkpt lat="47.52909" lon="-2.94261">
        <ele>47</ele>
        <time>2018-05-12T07:17:18Z</time>
      </trkpt>
      <trkpt lat="47.52908" lon="-2.94265">
        <ele>46</ele>
        <time>2018-05-12T07:17:20Z</time>
      </trkpt>
      <trkpt lat="47.52904" lon="-2.94273">
        <ele>47</ele>
        <time>2018-05-12T07:17:23Z</time>
      </trkpt>
      <trkpt lat="47.52902" lon="-2.94278">
        <ele>47</ele>
        <time>2018-05-12T07:17:25Z</time>
      </trkpt>
      <trkpt lat="47.529" lon="-2.94282">
        <ele>46</ele>
        <time>2018-05-12T07:17:27Z</time>
      </trkpt>
      <trkpt lat="47.52898" lon="-2.94287">
        <ele>46</ele>
        <time>2018-05-12T07:17:30Z</time>
      </trkpt>
      <trkpt lat="47.52896" lon="-2.9429">
        <ele>46</ele>
        <time>2018-05-12T07:17:31Z</time>
      </trkpt>
      <trkpt lat="47.52894" lon="-2.94295">
        <ele>46</ele>
        <time>2018-05-12T07:17:33Z</time>
      </trkpt>
      <trkpt lat="47.52893" lon="-2.94297">
        <ele>47</ele>
        <time>2018-05-12T07:17:35Z</time>
      </trkpt>
      <trkpt lat="47.52891" lon="-2.943">
        <ele>47</ele>
        <time>2018-05-12T07:17:37Z</time>
      </trkpt>
      <trkpt lat="47.52889" lon="-2.94305">
        <ele>47</ele>
        <time>2018-05-12T07:17:39Z</time>
      </trkpt>
      <trkpt lat="47.52885" lon="-2.94312">
        <ele>48</ele>
        <time>2018-05-12T07:17:42Z</time>
      </trkpt>
      <trkpt lat="47.52883" lon="-2.94317">
        <ele>49</ele>
        <time>2018-05-12T07:17:44Z</time>
      </trkpt>
      <trkpt lat="47.5288" lon="-2.9432">
        <ele>49</ele>
        <time>2018-05-12T07:17:46Z</time>
      </trkpt>
      <trkpt lat="47.52878" lon="-2.94328">
        <ele>49</ele>
        <time>2018-05-12T07:17:53Z</time>
      </trkpt>
      <trkpt lat="47.52874" lon="-2.94335">
        <ele>51</ele>
        <time>2018-05-12T07:17:56Z</time>
      </trkpt>
      <trkpt lat="47.52871" lon="-2.94341">
        <ele>51</ele>
        <time>2018-05-12T07:17:59Z</time>
      </trkpt>
      <trkpt lat="47.52868" lon="-2.94347">
        <ele>49</ele>
        <time>2018-05-12T07:18:02Z</time>
      </trkpt>
      <trkpt lat="47.52864" lon="-2.94352">
        <ele>51</ele>
        <time>2018-05-12T07:18:05Z</time>
      </trkpt>
      <trkpt lat="47.52861" lon="-2.94358">
        <ele>50</ele>
        <time>2018-05-12T07:18:08Z</time>
      </trkpt>
      <trkpt lat="47.52858" lon="-2.94365">
        <ele>50</ele>
        <time>2018-05-12T07:18:11Z</time>
      </trkpt>
      <trkpt lat="47.52854" lon="-2.94369">
        <ele>49</ele>
        <time>2018-05-12T07:18:14Z</time>
      </trkpt>
      <trkpt lat="47.5285" lon="-2.94375">
        <ele>49</ele>
        <time>2018-05-12T07:18:17Z</time>
      </trkpt>
      <trkpt lat="47.52846" lon="-2.94379">
        <ele>47</ele>
        <time>2018-05-12T07:18:21Z</time>
      </trkpt>
      <trkpt lat="47.52841" lon="-2.94385">
        <ele>46</ele>
        <time>2018-05-12T07:18:25Z</time>
      </trkpt>
      <trkpt lat="47.52838" lon="-2.94389">
        <ele>46</ele>
        <time>2018-05-12T07:18:27Z</time>
      </trkpt>
      <trkpt lat="47.52834" lon="-2.94394">
        <ele>46</ele>
        <time>2018-05-12T07:18:30Z</time>
      </trkpt>
      <trkpt lat="47.52831" lon="-2.94397">
        <ele>46</ele>
        <time>2018-05-12T07:18:32Z</time>
      </trkpt>
      <trkpt lat="47.52827" lon="-2.94404">
        <ele>42</ele>
        <time>2018-05-12T07:18:37Z</time>
      </trkpt>
      <trkpt lat="47.52822" lon="-2.94411">
        <ele>40</ele>
        <time>2018-05-12T07:18:42Z</time>
      </trkpt>
      <trkpt lat="47.52818" lon="-2.94415">
        <ele>40</ele>
        <time>2018-05-12T07:18:45Z</time>
      </trkpt>
      <trkpt lat="47.52816" lon="-2.94418">
        <ele>41</ele>
        <time>2018-05-12T07:18:47Z</time>
      </trkpt>
      <trkpt lat="47.52812" lon="-2.94425">
        <ele>39</ele>
        <time>2018-05-12T07:18:50Z</time>
      </trkpt>
      <trkpt lat="47.52807" lon="-2.94429">
        <ele>40</ele>
        <time>2018-05-12T07:18:53Z</time>
      </trkpt>
      <trkpt lat="47.52803" lon="-2.94436">
        <ele>39</ele>
        <time>2018-05-12T07:18:56Z</time>
      </trkpt>
      <trkpt lat="47.52797" lon="-2.94441">
        <ele>43</ele>
        <time>2018-05-12T07:19:00Z</time>
      </trkpt>
      <trkpt lat="47.52795" lon="-2.94443">
        <ele>42</ele>
        <time>2018-05-12T07:19:02Z</time>
      </trkpt>
      <trkpt lat="47.52792" lon="-2.94446">
        <ele>43</ele>
        <time>2018-05-12T07:19:04Z</time>
      </trkpt>
      <trkpt lat="47.52789" lon="-2.94452">
        <ele>41</ele>
        <time>2018-05-12T07:19:08Z</time>
      </trkpt>
      <trkpt lat="47.52784" lon="-2.94457">
        <ele>45</ele>
        <time>2018-05-12T07:19:13Z</time>
      </trkpt>
      <trkpt lat="47.52779" lon="-2.94461">
        <ele>40</ele>
        <time>2018-05-12T07:19:19Z</time>
      </trkpt>
      <trkpt lat="47.52776" lon="-2.94464">
        <ele>38</ele>
        <time>2018-05-12T07:19:21Z</time>
      </trkpt>
      <trkpt lat="47.52773" lon="-2.94467">
        <ele>40</ele>
        <time>2018-05-12T07:19:23Z</time>
      </trkpt>
      <trkpt lat="47.52768" lon="-2.94471">
        <ele>41</ele>
        <time>2018-05-12T07:19:27Z</time>
      </trkpt>
      <trkpt lat="47.52765" lon="-2.94473">
        <ele>42</ele>
        <time>2018-05-12T07:19:29Z</time>
      </trkpt>
      <trkpt lat="47.5276" lon="-2.94476">
        <ele>44</ele>
        <time>2018-05-12T07:19:34Z</time>
      </trkpt>
      <trkpt lat="47.52758" lon="-2.94482">
        <ele>43</ele>
        <time>2018-05-12T07:19:40Z</time>
      </trkpt>
      <trkpt lat="47.52753" lon="-2.94489">
        <ele>43</ele>
        <time>2018-05-12T07:19:43Z</time>
      </trkpt>
      <trkpt lat="47.52748" lon="-2.94493">
        <ele>45</ele>
        <time>2018-05-12T07:19:46Z</time>
      </trkpt>
      <trkpt lat="47.52742" lon="-2.94497">
        <ele>44</ele>
        <time>2018-05-12T07:19:49Z</time>
      </trkpt>
      <trkpt lat="47.52738" lon="-2.94502">
        <ele>45</ele>
        <time>2018-05-12T07:19:53Z</time>
      </trkpt>
      <trkpt lat="47.52737" lon="-2.94504">
        <ele>44</ele>
        <time>2018-05-12T07:19:54Z</time>
      </trkpt>
      <trkpt lat="47.52735" lon="-2.94506">
        <ele>44</ele>
        <time>2018-05-12T07:19:56Z</time>
      </trkpt>
      <trkpt lat="47.52731" lon="-2.94512">
        <ele>43</ele>
        <time>2018-05-12T07:19:59Z</time>
      </trkpt>
      <trkpt lat="47.5273" lon="-2.94515">
        <ele>42</ele>
        <time>2018-05-12T07:20:00Z</time>
      </trkpt>
      <trkpt lat="47.52726" lon="-2.94518">
        <ele>42</ele>
        <time>2018-05-12T07:20:07Z</time>
      </trkpt>
      <trkpt lat="47.52723" lon="-2.94526">
        <ele>43</ele>
        <time>2018-05-12T07:20:10Z</time>
      </trkpt>
      <trkpt lat="47.52718" lon="-2.94532">
        <ele>43</ele>
        <time>2018-05-12T07:20:12Z</time>
      </trkpt>
      <trkpt lat="47.52717" lon="-2.94535">
        <ele>43</ele>
        <time>2018-05-12T07:20:14Z</time>
      </trkpt>
      <trkpt lat="47.52715" lon="-2.94544">
        <ele>42</ele>
        <time>2018-05-12T07:20:17Z</time>
      </trkpt>
      <trkpt lat="47.52714" lon="-2.9455">
        <ele>46</ele>
        <time>2018-05-12T07:20:20Z</time>
      </trkpt>
      <trkpt lat="47.52713" lon="-2.9456">
        <ele>46</ele>
        <time>2018-05-12T07:20:24Z</time>
      </trkpt>
      <trkpt lat="47.52714" lon="-2.94567">
        <ele>47</ele>
        <time>2018-05-12T07:20:26Z</time>
      </trkpt>
      <trkpt lat="47.52714" lon="-2.94575">
        <ele>47</ele>
        <time>2018-05-12T07:20:28Z</time>
      </trkpt>
      <trkpt lat="47.52716" lon="-2.94583">
        <ele>46</ele>
        <time>2018-05-12T07:20:32Z</time>
      </trkpt>
      <trkpt lat="47.52713" lon="-2.94597">
        <ele>46</ele>
        <time>2018-05-12T07:20:36Z</time>
      </trkpt>
      <trkpt lat="47.52711" lon="-2.94604">
        <ele>46</ele>
        <time>2018-05-12T07:20:39Z</time>
      </trkpt>
      <trkpt lat="47.52713" lon="-2.94613">
        <ele>47</ele>
        <time>2018-05-12T07:20:42Z</time>
      </trkpt>
      <trkpt lat="47.52713" lon="-2.94621">
        <ele>50</ele>
        <time>2018-05-12T07:20:44Z</time>
      </trkpt>
      <trkpt lat="47.52715" lon="-2.94628">
        <ele>45</ele>
        <time>2018-05-12T07:20:47Z</time>
      </trkpt>
      <trkpt lat="47.52717" lon="-2.94634">
        <ele>44</ele>
        <time>2018-05-12T07:20:51Z</time>
      </trkpt>
      <trkpt lat="47.52717" lon="-2.94643">
        <ele>44</ele>
        <time>2018-05-12T07:20:56Z</time>
      </trkpt>
      <trkpt lat="47.52716" lon="-2.94649">
        <ele>44</ele>
        <time>2018-05-12T07:20:58Z</time>
      </trkpt>
      <trkpt lat="47.52716" lon="-2.94655">
        <ele>43</ele>
        <time>2018-05-12T07:21:00Z</time>
      </trkpt>
      <trkpt lat="47.52719" lon="-2.94663">
        <ele>45</ele>
        <time>2018-05-12T07:21:03Z</time>
      </trkpt>
      <trkpt lat="47.52716" lon="-2.94673">
        <ele>46</ele>
        <time>2018-05-12T07:21:07Z</time>
      </trkpt>
      <trkpt lat="47.52715" lon="-2.94682">
        <ele>46</ele>
        <time>2018-05-12T07:21:10Z</time>
      </trkpt>
      <trkpt lat="47.52712" lon="-2.94692">
        <ele>47</ele>
        <time>2018-05-12T07:21:15Z</time>
      </trkpt>
      <trkpt lat="47.5271" lon="-2.94697">
        <ele>46</ele>
        <time>2018-05-12T07:21:17Z</time>
      </trkpt>
      <trkpt lat="47.52709" lon="-2.94704">
        <ele>47</ele>
        <time>2018-05-12T07:21:24Z</time>
      </trkpt>
      <trkpt lat="47.52705" lon="-2.94714">
        <ele>47</ele>
        <time>2018-05-12T07:21:29Z</time>
      </trkpt>
      <trkpt lat="47.52704" lon="-2.94718">
        <ele>47</ele>
        <time>2018-05-12T07:21:31Z</time>
      </trkpt>
      <trkpt lat="47.527" lon="-2.94725">
        <ele>48</ele>
        <time>2018-05-12T07:21:36Z</time>
      </trkpt>
      <trkpt lat="47.52699" lon="-2.94732">
        <ele>47</ele>
        <time>2018-05-12T07:21:39Z</time>
      </trkpt>
      <trkpt lat="47.52696" lon="-2.94741">
        <ele>45</ele>
        <time>2018-05-12T07:21:44Z</time>
      </trkpt>
      <trkpt lat="47.52695" lon="-2.94744">
        <ele>45</ele>
        <time>2018-05-12T07:21:45Z</time>
      </trkpt>
      <trkpt lat="47.52693" lon="-2.94752">
        <ele>42</ele>
        <time>2018-05-12T07:21:50Z</time>
      </trkpt>
      <trkpt lat="47.52692" lon="-2.9476">
        <ele>40</ele>
        <time>2018-05-12T07:21:55Z</time>
      </trkpt>
      <trkpt lat="47.52688" lon="-2.9477">
        <ele>42</ele>
        <time>2018-05-12T07:21:58Z</time>
      </trkpt>
      <trkpt lat="47.52687" lon="-2.94774">
        <ele>42</ele>
        <time>2018-05-12T07:21:59Z</time>
      </trkpt>
      <trkpt lat="47.52684" lon="-2.9478">
        <ele>40</ele>
        <time>2018-05-12T07:22:02Z</time>
      </trkpt>
      <trkpt lat="47.52682" lon="-2.94787">
        <ele>40</ele>
        <time>2018-05-12T07:22:05Z</time>
      </trkpt>
      <trkpt lat="47.52679" lon="-2.94794">
        <ele>40</ele>
        <time>2018-05-12T07:22:08Z</time>
      </trkpt>
      <trkpt lat="47.52679" lon="-2.94801">
        <ele>36</ele>
        <time>2018-05-12T07:22:12Z</time>
      </trkpt>
      <trkpt lat="47.52679" lon="-2.94805">
        <ele>38</ele>
        <time>2018-05-12T07:22:13Z</time>
      </trkpt>
      <trkpt lat="47.52681" lon="-2.94814">
        <ele>39</ele>
        <time>2018-05-12T07:22:16Z</time>
      </trkpt>
      <trkpt lat="47.52678" lon="-2.9482">
        <ele>41</ele>
        <time>2018-05-12T07:22:18Z</time>
      </trkpt>
      <trkpt lat="47.52674" lon="-2.94827">
        <ele>42</ele>
        <time>2018-05-12T07:22:21Z</time>
      </trkpt>
      <trkpt lat="47.52673" lon="-2.94836">
        <ele>42</ele>
        <time>2018-05-12T07:22:24Z</time>
      </trkpt>
      <trkpt lat="47.52672" lon="-2.94841">
        <ele>43</ele>
        <time>2018-05-12T07:22:26Z</time>
      </trkpt>
      <trkpt lat="47.52671" lon="-2.94845">
        <ele>44</ele>
        <time>2018-05-12T07:22:27Z</time>
      </trkpt>
      <trkpt lat="47.52671" lon="-2.94852">
        <ele>45</ele>
        <time>2018-05-12T07:22:29Z</time>
      </trkpt>
      <trkpt lat="47.5267" lon="-2.94859">
        <ele>46</ele>
        <time>2018-05-12T07:22:32Z</time>
      </trkpt>
      <trkpt lat="47.5267" lon="-2.94866">
        <ele>48</ele>
        <time>2018-05-12T07:22:36Z</time>
      </trkpt>
      <trkpt lat="47.5267" lon="-2.94871">
        <ele>48</ele>
        <time>2018-05-12T07:22:37Z</time>
      </trkpt>
      <trkpt lat="47.5267" lon="-2.94878">
        <ele>48</ele>
        <time>2018-05-12T07:22:40Z</time>
      </trkpt>
      <trkpt lat="47.52671" lon="-2.94887">
        <ele>49</ele>
        <time>2018-05-12T07:22:44Z</time>
      </trkpt>
      <trkpt lat="47.52673" lon="-2.94896">
        <ele>49</ele>
        <time>2018-05-12T07:22:47Z</time>
      </trkpt>
      <trkpt lat="47.52671" lon="-2.94904">
        <ele>46</ele>
        <time>2018-05-12T07:22:52Z</time>
      </trkpt>
      <trkpt lat="47.5267" lon="-2.94909">
        <ele>47</ele>
        <time>2018-05-12T07:22:55Z</time>
      </trkpt>
      <trkpt lat="47.52671" lon="-2.94916">
        <ele>45</ele>
        <time>2018-05-12T07:22:58Z</time>
      </trkpt>
      <trkpt lat="47.52676" lon="-2.94919">
        <ele>47</ele>
        <time>2018-05-12T07:23:02Z</time>
      </trkpt>
      <trkpt lat="47.52678" lon="-2.94928">
        <ele>46</ele>
        <time>2018-05-12T07:23:05Z</time>
      </trkpt>
      <trkpt lat="47.5268" lon="-2.94937">
        <ele>45</ele>
        <time>2018-05-12T07:23:08Z</time>
      </trkpt>
      <trkpt lat="47.52681" lon="-2.94943">
        <ele>44</ele>
        <time>2018-05-12T07:23:10Z</time>
      </trkpt>
      <trkpt lat="47.52683" lon="-2.94949">
        <ele>43</ele>
        <time>2018-05-12T07:23:12Z</time>
      </trkpt>
      <trkpt lat="47.52686" lon="-2.94957">
        <ele>43</ele>
        <time>2018-05-12T07:23:15Z</time>
      </trkpt>
      <trkpt lat="47.5269" lon="-2.94963">
        <ele>44</ele>
        <time>2018-05-12T07:23:17Z</time>
      </trkpt>
      <trkpt lat="47.52693" lon="-2.94968">
        <ele>46</ele>
        <time>2018-05-12T07:23:19Z</time>
      </trkpt>
      <trkpt lat="47.52696" lon="-2.94972">
        <ele>46</ele>
        <time>2018-05-12T07:23:21Z</time>
      </trkpt>
      <trkpt lat="47.52701" lon="-2.94978">
        <ele>46</ele>
        <time>2018-05-12T07:23:24Z</time>
      </trkpt>
      <trkpt lat="47.52704" lon="-2.94985">
        <ele>45</ele>
        <time>2018-05-12T07:23:27Z</time>
      </trkpt>
      <trkpt lat="47.52707" lon="-2.94991">
        <ele>42</ele>
        <time>2018-05-12T07:23:31Z</time>
      </trkpt>
      <trkpt lat="47.5271" lon="-2.94996">
        <ele>42</ele>
        <time>2018-05-12T07:23:33Z</time>
      </trkpt>
      <trkpt lat="47.52712" lon="-2.95">
        <ele>41</ele>
        <time>2018-05-12T07:23:35Z</time>
      </trkpt>
      <trkpt lat="47.52716" lon="-2.95006">
        <ele>42</ele>
        <time>2018-05-12T07:23:39Z</time>
      </trkpt>
      <trkpt lat="47.52719" lon="-2.9501">
        <ele>43</ele>
        <time>2018-05-12T07:23:42Z</time>
      </trkpt>
      <trkpt lat="47.52722" lon="-2.95015">
        <ele>41</ele>
        <time>2018-05-12T07:23:50Z</time>
      </trkpt>
      <trkpt lat="47.52727" lon="-2.95017">
        <ele>45</ele>
        <time>2018-05-12T07:23:55Z</time>
      </trkpt>
      <trkpt lat="47.52729" lon="-2.95019">
        <ele>45</ele>
        <time>2018-05-12T07:23:57Z</time>
      </trkpt>
      <trkpt lat="47.52732" lon="-2.95021">
        <ele>48</ele>
        <time>2018-05-12T07:24:05Z</time>
      </trkpt>
      <trkpt lat="47.52735" lon="-2.95023">
        <ele>50</ele>
        <time>2018-05-12T07:24:11Z</time>
      </trkpt>
      <trkpt lat="47.5274" lon="-2.95024">
        <ele>50</ele>
        <time>2018-05-12T07:24:19Z</time>
      </trkpt>
      <trkpt lat="47.52746" lon="-2.95024">
        <ele>50</ele>
        <time>2018-05-12T07:24:26Z</time>
      </trkpt>
      <trkpt lat="47.52748" lon="-2.95025">
        <ele>50</ele>
        <time>2018-05-12T07:24:30Z</time>
      </trkpt>
      <trkpt lat="47.52752" lon="-2.95026">
        <ele>51</ele>
        <time>2018-05-12T07:24:33Z</time>
      </trkpt>
      <trkpt lat="47.52755" lon="-2.95026">
        <ele>52</ele>
        <time>2018-05-12T07:24:35Z</time>
      </trkpt>
      <trkpt lat="47.5276" lon="-2.95027">
        <ele>53</ele>
        <time>2018-05-12T07:24:40Z</time>
      </trkpt>
      <trkpt lat="47.52759" lon="-2.95027">
        <ele>50</ele>
        <time>2018-05-12T07:24:48Z</time>
      </trkpt>
      <trkpt lat="47.5278" lon="-2.95022">
        <ele>50</ele>
        <time>2018-05-12T07:25:58Z</time>
      </trkpt>
      <trkpt lat="47.52785" lon="-2.95023">
        <ele>50</ele>
        <time>2018-05-12T07:26:13Z</time>
      </trkpt>
      <trkpt lat="47.52789" lon="-2.9502">
        <ele>48</ele>
        <time>2018-05-12T07:26:18Z</time>
      </trkpt>
      <trkpt lat="47.52792" lon="-2.95018">
        <ele>47</ele>
        <time>2018-05-12T07:26:21Z</time>
      </trkpt>
      <trkpt lat="47.52795" lon="-2.95013">
        <ele>47</ele>
        <time>2018-05-12T07:26:25Z</time>
      </trkpt>
      <trkpt lat="47.52801" lon="-2.9501">
        <ele>46</ele>
        <time>2018-05-12T07:26:29Z</time>
      </trkpt>
      <trkpt lat="47.52806" lon="-2.95008">
        <ele>45</ele>
        <time>2018-05-12T07:26:34Z</time>
      </trkpt>
      <trkpt lat="47.52812" lon="-2.95002">
        <ele>50</ele>
        <time>2018-05-12T07:26:41Z</time>
      </trkpt>
      <trkpt lat="47.52816" lon="-2.95001">
        <ele>51</ele>
        <time>2018-05-12T07:26:49Z</time>
      </trkpt>
      <trkpt lat="47.52821" lon="-2.95001">
        <ele>53</ele>
        <time>2018-05-12T07:26:53Z</time>
      </trkpt>
      <trkpt lat="47.52821" lon="-2.95002">
        <ele>48</ele>
        <time>2018-05-12T07:27:01Z</time>
      </trkpt>
      <trkpt lat="47.52828" lon="-2.95007">
        <ele>43</ele>
        <time>2018-05-12T07:27:09Z</time>
      </trkpt>
      <trkpt lat="47.52828" lon="-2.95015">
        <ele>39</ele>
        <time>2018-05-12T07:27:15Z</time>
      </trkpt>
      <trkpt lat="47.52828" lon="-2.95018">
        <ele>41</ele>
        <time>2018-05-12T07:27:41Z</time>
      </trkpt>
      <trkpt lat="47.52829" lon="-2.95024">
        <ele>42</ele>
        <time>2018-05-12T07:28:12Z</time>
      </trkpt>
      <trkpt lat="47.52831" lon="-2.95031">
        <ele>42</ele>
        <time>2018-05-12T07:28:16Z</time>
      </trkpt>
      <trkpt lat="47.52832" lon="-2.95038">
        <ele>42</ele>
        <time>2018-05-12T07:28:19Z</time>
      </trkpt>
      <trkpt lat="47.52833" lon="-2.95042">
        <ele>42</ele>
        <time>2018-05-12T07:28:21Z</time>
      </trkpt>
      <trkpt lat="47.52833" lon="-2.95051">
        <ele>42</ele>
        <time>2018-05-12T07:28:24Z</time>
      </trkpt>
      <trkpt lat="47.52834" lon="-2.95059">
        <ele>41</ele>
        <time>2018-05-12T07:28:27Z</time>
      </trkpt>
      <trkpt lat="47.52834" lon="-2.95067">
        <ele>42</ele>
        <time>2018-05-12T07:28:29Z</time>
      </trkpt>
      <trkpt lat="47.52834" lon="-2.95077">
        <ele>41</ele>
        <time>2018-05-12T07:28:32Z</time>
      </trkpt>
      <trkpt lat="47.52833" lon="-2.95085">
        <ele>41</ele>
        <time>2018-05-12T07:28:35Z</time>
      </trkpt>
      <trkpt lat="47.52835" lon="-2.95093">
        <ele>41</ele>
        <time>2018-05-12T07:28:38Z</time>
      </trkpt>
      <trkpt lat="47.52835" lon="-2.95101">
        <ele>41</ele>
        <time>2018-05-12T07:28:41Z</time>
      </trkpt>
      <trkpt lat="47.52836" lon="-2.95113">
        <ele>42</ele>
        <time>2018-05-12T07:28:45Z</time>
      </trkpt>
      <trkpt lat="47.52837" lon="-2.95123">
        <ele>42</ele>
        <time>2018-05-12T07:28:48Z</time>
      </trkpt>
      <trkpt lat="47.52836" lon="-2.95127">
        <ele>43</ele>
        <time>2018-05-12T07:28:49Z</time>
      </trkpt>
      <trkpt lat="47.52837" lon="-2.95136">
        <ele>44</ele>
        <time>2018-05-12T07:28:52Z</time>
      </trkpt>
      <trkpt lat="47.52836" lon="-2.95144">
        <ele>44</ele>
        <time>2018-05-12T07:28:54Z</time>
      </trkpt>
      <trkpt lat="47.52837" lon="-2.95152">
        <ele>44</ele>
        <time>2018-05-12T07:28:57Z</time>
      </trkpt>
      <trkpt lat="47.52838" lon="-2.95156">
        <ele>44</ele>
        <time>2018-05-12T07:28:58Z</time>
      </trkpt>
      <trkpt lat="47.52838" lon="-2.95159">
        <ele>44</ele>
        <time>2018-05-12T07:28:59Z</time>
      </trkpt>
      <trkpt lat="47.5284" lon="-2.95166">
        <ele>43</ele>
        <time>2018-05-12T07:29:02Z</time>
      </trkpt>
      <trkpt lat="47.52841" lon="-2.95175">
        <ele>44</ele>
        <time>2018-05-12T07:29:05Z</time>
      </trkpt>
      <trkpt lat="47.52842" lon="-2.95184">
        <ele>44</ele>
        <time>2018-05-12T07:29:08Z</time>
      </trkpt>
      <trkpt lat="47.52844" lon="-2.95192">
        <ele>44</ele>
        <time>2018-05-12T07:29:11Z</time>
      </trkpt>
      <trkpt lat="47.52847" lon="-2.952">
        <ele>45</ele>
        <time>2018-05-12T07:29:14Z</time>
      </trkpt>
      <trkpt lat="47.52849" lon="-2.9521">
        <ele>45</ele>
        <time>2018-05-12T07:29:17Z</time>
      </trkpt>
      <trkpt lat="47.5285" lon="-2.95216">
        <ele>44</ele>
        <time>2018-05-12T07:29:20Z</time>
      </trkpt>
      <trkpt lat="47.5285" lon="-2.95225">
        <ele>43</ele>
        <time>2018-05-12T07:29:23Z</time>
      </trkpt>
      <trkpt lat="47.52851" lon="-2.95233">
        <ele>43</ele>
        <time>2018-05-12T07:29:26Z</time>
      </trkpt>
      <trkpt lat="47.52852" lon="-2.95237">
        <ele>43</ele>
        <time>2018-05-12T07:29:28Z</time>
      </trkpt>
      <trkpt lat="47.52852" lon="-2.95244">
        <ele>43</ele>
        <time>2018-05-12T07:29:30Z</time>
      </trkpt>
      <trkpt lat="47.52853" lon="-2.95252">
        <ele>42</ele>
        <time>2018-05-12T07:29:33Z</time>
      </trkpt>
      <trkpt lat="47.52853" lon="-2.95255">
        <ele>41</ele>
        <time>2018-05-12T07:29:34Z</time>
      </trkpt>
      <trkpt lat="47.52856" lon="-2.95262">
        <ele>39</ele>
        <time>2018-05-12T07:29:37Z</time>
      </trkpt>
      <trkpt lat="47.52857" lon="-2.95269">
        <ele>38</ele>
        <time>2018-05-12T07:29:39Z</time>
      </trkpt>
      <trkpt lat="47.52858" lon="-2.95274">
        <ele>38</ele>
        <time>2018-05-12T07:29:41Z</time>
      </trkpt>
      <trkpt lat="47.5286" lon="-2.95279">
        <ele>38</ele>
        <time>2018-05-12T07:29:43Z</time>
      </trkpt>
      <trkpt lat="47.52861" lon="-2.95288">
        <ele>38</ele>
        <time>2018-05-12T07:29:46Z</time>
      </trkpt>
      <trkpt lat="47.52862" lon="-2.95296">
        <ele>40</ele>
        <time>2018-05-12T07:29:49Z</time>
      </trkpt>
      <trkpt lat="47.52862" lon="-2.95301">
        <ele>42</ele>
        <time>2018-05-12T07:29:51Z</time>
      </trkpt>
      <trkpt lat="47.52863" lon="-2.95313">
        <ele>43</ele>
        <time>2018-05-12T07:29:55Z</time>
      </trkpt>
      <trkpt lat="47.52863" lon="-2.9532">
        <ele>44</ele>
        <time>2018-05-12T07:29:57Z</time>
      </trkpt>
      <trkpt lat="47.52863" lon="-2.95323">
        <ele>44</ele>
        <time>2018-05-12T07:29:58Z</time>
      </trkpt>
      <trkpt lat="47.52862" lon="-2.9533">
        <ele>43</ele>
        <time>2018-05-12T07:30:00Z</time>
      </trkpt>
      <trkpt lat="47.52863" lon="-2.95337">
        <ele>43</ele>
        <time>2018-05-12T07:30:04Z</time>
      </trkpt>
      <trkpt lat="47.52866" lon="-2.95344">
        <ele>40</ele>
        <time>2018-05-12T07:30:09Z</time>
      </trkpt>
      <trkpt lat="47.52866" lon="-2.95352">
        <ele>39</ele>
        <time>2018-05-12T07:30:13Z</time>
      </trkpt>
      <trkpt lat="47.52867" lon="-2.95357">
        <ele>40</ele>
        <time>2018-05-12T07:30:15Z</time>
      </trkpt>
      <trkpt lat="47.52867" lon="-2.95362">
        <ele>41</ele>
        <time>2018-05-12T07:30:17Z</time>
      </trkpt>
      <trkpt lat="47.52868" lon="-2.95369">
        <ele>41</ele>
        <time>2018-05-12T07:30:21Z</time>
      </trkpt>
      <trkpt lat="47.52869" lon="-2.95377">
        <ele>43</ele>
        <time>2018-05-12T07:30:25Z</time>
      </trkpt>
      <trkpt lat="47.52868" lon="-2.95384">
        <ele>42</ele>
        <time>2018-05-12T07:30:29Z</time>
      </trkpt>
      <trkpt lat="47.52867" lon="-2.95392">
        <ele>42</ele>
        <time>2018-05-12T07:30:33Z</time>
      </trkpt>
      <trkpt lat="47.52867" lon="-2.95399">
        <ele>41</ele>
        <time>2018-05-12T07:30:36Z</time>
      </trkpt>
      <trkpt lat="47.52868" lon="-2.95407">
        <ele>42</ele>
        <time>2018-05-12T07:30:39Z</time>
      </trkpt>
      <trkpt lat="47.52869" lon="-2.95413">
        <ele>42</ele>
        <time>2018-05-12T07:30:41Z</time>
      </trkpt>
      <trkpt lat="47.52869" lon="-2.95417">
        <ele>41</ele>
        <time>2018-05-12T07:30:43Z</time>
      </trkpt>
      <trkpt lat="47.52871" lon="-2.95425">
        <ele>40</ele>
        <time>2018-05-12T07:30:46Z</time>
      </trkpt>
      <trkpt lat="47.52871" lon="-2.95434">
        <ele>41</ele>
        <time>2018-05-12T07:30:49Z</time>
      </trkpt>
      <trkpt lat="47.5287" lon="-2.95443">
        <ele>43</ele>
        <time>2018-05-12T07:30:52Z</time>
      </trkpt>
      <trkpt lat="47.52871" lon="-2.95451">
        <ele>43</ele>
        <time>2018-05-12T07:30:56Z</time>
      </trkpt>
      <trkpt lat="47.5287" lon="-2.9546">
        <ele>42</ele>
        <time>2018-05-12T07:30:59Z</time>
      </trkpt>
      <trkpt lat="47.52869" lon="-2.95465">
        <ele>42</ele>
        <time>2018-05-12T07:31:01Z</time>
      </trkpt>
      <trkpt lat="47.52869" lon="-2.95469">
        <ele>41</ele>
        <time>2018-05-12T07:31:03Z</time>
      </trkpt>
      <trkpt lat="47.52869" lon="-2.95476">
        <ele>41</ele>
        <time>2018-05-12T07:31:06Z</time>
      </trkpt>
      <trkpt lat="47.5287" lon="-2.95486">
        <ele>41</ele>
        <time>2018-05-12T07:31:10Z</time>
      </trkpt>
      <trkpt lat="47.5287" lon="-2.9549">
        <ele>42</ele>
        <time>2018-05-12T07:31:12Z</time>
      </trkpt>
      <trkpt lat="47.5287" lon="-2.95495">
        <ele>44</ele>
        <time>2018-05-12T07:31:14Z</time>
      </trkpt>
      <trkpt lat="47.52871" lon="-2.95498">
        <ele>42</ele>
        <time>2018-05-12T07:31:16Z</time>
      </trkpt>
      <trkpt lat="47.52871" lon="-2.95503">
        <ele>43</ele>
        <time>2018-05-12T07:31:18Z</time>
      </trkpt>
      <trkpt lat="47.52871" lon="-2.95507">
        <ele>44</ele>
        <time>2018-05-12T07:31:21Z</time>
      </trkpt>
      <trkpt lat="47.52871" lon="-2.95511">
        <ele>43</ele>
        <time>2018-05-12T07:31:23Z</time>
      </trkpt>
      <trkpt lat="47.52871" lon="-2.95517">
        <ele>42</ele>
        <time>2018-05-12T07:31:25Z</time>
      </trkpt>
      <trkpt lat="47.52871" lon="-2.95525">
        <ele>43</ele>
        <time>2018-05-12T07:31:28Z</time>
      </trkpt>
      <trkpt lat="47.52871" lon="-2.95533">
        <ele>43</ele>
        <time>2018-05-12T07:31:31Z</time>
      </trkpt>
      <trkpt lat="47.52871" lon="-2.9554">
        <ele>45</ele>
        <time>2018-05-12T07:31:34Z</time>
      </trkpt>
      <trkpt lat="47.5287" lon="-2.95545">
        <ele>44</ele>
        <time>2018-05-12T07:31:36Z</time>
      </trkpt>
      <trkpt lat="47.5287" lon="-2.9555">
        <ele>44</ele>
        <time>2018-05-12T07:31:38Z</time>
      </trkpt>
      <trkpt lat="47.52868" lon="-2.95557">
        <ele>45</ele>
        <time>2018-05-12T07:31:41Z</time>
      </trkpt>
      <trkpt lat="47.52869" lon="-2.95564">
        <ele>44</ele>
        <time>2018-05-12T07:31:44Z</time>
      </trkpt>
      <trkpt lat="47.52869" lon="-2.95573">
        <ele>44</ele>
        <time>2018-05-12T07:31:47Z</time>
      </trkpt>
      <trkpt lat="47.5287" lon="-2.95579">
        <ele>44</ele>
        <time>2018-05-12T07:31:50Z</time>
      </trkpt>
      <trkpt lat="47.52868" lon="-2.95586">
        <ele>43</ele>
        <time>2018-05-12T07:31:53Z</time>
      </trkpt>
      <trkpt lat="47.52869" lon="-2.95593">
        <ele>45</ele>
        <time>2018-05-12T07:31:56Z</time>
      </trkpt>
      <trkpt lat="47.52869" lon="-2.95599">
        <ele>45</ele>
        <time>2018-05-12T07:31:58Z</time>
      </trkpt>
      <trkpt lat="47.5287" lon="-2.95606">
        <ele>45</ele>
        <time>2018-05-12T07:32:02Z</time>
      </trkpt>
      <trkpt lat="47.52872" lon="-2.95614">
        <ele>46</ele>
        <time>2018-05-12T07:32:06Z</time>
      </trkpt>
      <trkpt lat="47.52874" lon="-2.95622">
        <ele>47</ele>
        <time>2018-05-12T07:32:11Z</time>
      </trkpt>
      <trkpt lat="47.52877" lon="-2.95627">
        <ele>45</ele>
        <time>2018-05-12T07:32:14Z</time>
      </trkpt>
      <trkpt lat="47.52879" lon="-2.95634">
        <ele>45</ele>
        <time>2018-05-12T07:32:17Z</time>
      </trkpt>
      <trkpt lat="47.5288" lon="-2.95641">
        <ele>45</ele>
        <time>2018-05-12T07:32:20Z</time>
      </trkpt>
      <trkpt lat="47.5288" lon="-2.95644">
        <ele>45</ele>
        <time>2018-05-12T07:32:22Z</time>
      </trkpt>
      <trkpt lat="47.5288" lon="-2.95649">
        <ele>44</ele>
        <time>2018-05-12T07:32:24Z</time>
      </trkpt>
      <trkpt lat="47.52879" lon="-2.95658">
        <ele>43</ele>
        <time>2018-05-12T07:32:27Z</time>
      </trkpt>
      <trkpt lat="47.52878" lon="-2.95663">
        <ele>43</ele>
        <time>2018-05-12T07:32:29Z</time>
      </trkpt>
      <trkpt lat="47.52876" lon="-2.9567">
        <ele>44</ele>
        <time>2018-05-12T07:32:33Z</time>
      </trkpt>
      <trkpt lat="47.52878" lon="-2.95678">
        <ele>45</ele>
        <time>2018-05-12T07:32:37Z</time>
      </trkpt>
      <trkpt lat="47.52876" lon="-2.95686">
        <ele>47</ele>
        <time>2018-05-12T07:32:40Z</time>
      </trkpt>
      <trkpt lat="47.52879" lon="-2.95692">
        <ele>46</ele>
        <time>2018-05-12T07:32:45Z</time>
      </trkpt>
      <trkpt lat="47.52881" lon="-2.95698">
        <ele>45</ele>
        <time>2018-05-12T07:32:48Z</time>
      </trkpt>
      <trkpt lat="47.52883" lon="-2.95706">
        <ele>44</ele>
        <time>2018-05-12T07:32:52Z</time>
      </trkpt>
      <trkpt lat="47.52884" lon="-2.9571">
        <ele>44</ele>
        <time>2018-05-12T07:32:54Z</time>
      </trkpt>
      <trkpt lat="47.52885" lon="-2.95714">
        <ele>43</ele>
        <time>2018-05-12T07:32:56Z</time>
      </trkpt>
      <trkpt lat="47.52887" lon="-2.95719">
        <ele>42</ele>
        <time>2018-05-12T07:32:59Z</time>
      </trkpt>
      <trkpt lat="47.52888" lon="-2.95722">
        <ele>41</ele>
        <time>2018-05-12T07:33:01Z</time>
      </trkpt>
      <trkpt lat="47.52889" lon="-2.95726">
        <ele>41</ele>
        <time>2018-05-12T07:33:03Z</time>
      </trkpt>
      <trkpt lat="47.52894" lon="-2.95731">
        <ele>41</ele>
        <time>2018-05-12T07:33:06Z</time>
      </trkpt>
      <trkpt lat="47.52897" lon="-2.95734">
        <ele>41</ele>
        <time>2018-05-12T07:33:08Z</time>
      </trkpt>
      <trkpt lat="47.52899" lon="-2.95736">
        <ele>41</ele>
        <time>2018-05-12T07:33:10Z</time>
      </trkpt>
      <trkpt lat="47.52904" lon="-2.95743">
        <ele>41</ele>
        <time>2018-05-12T07:33:15Z</time>
      </trkpt>
      <trkpt lat="47.52906" lon="-2.95749">
        <ele>42</ele>
        <time>2018-05-12T07:33:20Z</time>
      </trkpt>
      <trkpt lat="47.52907" lon="-2.95756">
        <ele>41</ele>
        <time>2018-05-12T07:33:25Z</time>
      </trkpt>
      <trkpt lat="47.52908" lon="-2.95759">
        <ele>40</ele>
        <time>2018-05-12T07:33:27Z</time>
      </trkpt>
      <trkpt lat="47.52911" lon="-2.95766">
        <ele>40</ele>
        <time>2018-05-12T07:33:34Z</time>
      </trkpt>
      <trkpt lat="47.52912" lon="-2.95773">
        <ele>39</ele>
        <time>2018-05-12T07:33:39Z</time>
      </trkpt>
      <trkpt lat="47.52912" lon="-2.95782">
        <ele>41</ele>
        <time>2018-05-12T07:33:47Z</time>
      </trkpt>
      <trkpt lat="47.5291" lon="-2.95789">
        <ele>39</ele>
        <time>2018-05-12T07:33:52Z</time>
      </trkpt>
      <trkpt lat="47.52908" lon="-2.95795">
        <ele>42</ele>
        <time>2018-05-12T07:33:56Z</time>
      </trkpt>
      <trkpt lat="47.52908" lon="-2.95795">
        <ele>42</ele>
        <time>2018-05-12T07:34:03Z</time>
      </trkpt>
      <trkpt lat="47.52908" lon="-2.95795">
        <ele>42</ele>
        <time>2018-05-12T07:34:04Z</time>
      </trkpt>
      <trkpt lat="47.52922" lon="-2.95828">
        <ele>35</ele>
        <time>2018-05-12T07:39:11Z</time>
      </trkpt>
      <trkpt lat="47.52921" lon="-2.95835">
        <ele>36</ele>
        <time>2018-05-12T07:39:15Z</time>
      </trkpt>
      <trkpt lat="47.52921" lon="-2.95835">
        <ele>36</ele>
        <time>2018-05-12T07:39:23Z</time>
      </trkpt>
      <trkpt lat="47.52921" lon="-2.95835">
        <ele>36</ele>
        <time>2018-05-12T07:39:24Z</time>
      </trkpt>
      <trkpt lat="47.52921" lon="-2.95824">
        <ele>47</ele>
        <time>2018-05-12T07:44:03Z</time>
      </trkpt>
      <trkpt lat="47.52917" lon="-2.95819">
        <ele>46</ele>
        <time>2018-05-12T07:44:10Z</time>
      </trkpt>
      <trkpt lat="47.52914" lon="-2.95815">
        <ele>45</ele>
        <time>2018-05-12T07:44:14Z</time>
      </trkpt>
      <trkpt lat="47.52911" lon="-2.95811">
        <ele>45</ele>
        <time>2018-05-12T07:44:17Z</time>
      </trkpt>
      <trkpt lat="47.52908" lon="-2.95808">
        <ele>45</ele>
        <time>2018-05-12T07:44:19Z</time>
      </trkpt>
      <trkpt lat="47.52906" lon="-2.95801">
        <ele>45</ele>
        <time>2018-05-12T07:44:23Z</time>
      </trkpt>
      <trkpt lat="47.52905" lon="-2.95792">
        <ele>47</ele>
        <time>2018-05-12T07:44:27Z</time>
      </trkpt>
      <trkpt lat="47.52907" lon="-2.95782">
        <ele>48</ele>
        <time>2018-05-12T07:44:31Z</time>
      </trkpt>
      <trkpt lat="47.52911" lon="-2.95776">
        <ele>48</ele>
        <time>2018-05-12T07:44:35Z</time>
      </trkpt>
      <trkpt lat="47.52913" lon="-2.95768">
        <ele>50</ele>
        <time>2018-05-12T07:44:39Z</time>
      </trkpt>
      <trkpt lat="47.52915" lon="-2.95761">
        <ele>49</ele>
        <time>2018-05-12T07:44:44Z</time>
      </trkpt>
      <trkpt lat="47.52919" lon="-2.95757">
        <ele>51</ele>
        <time>2018-05-12T07:44:49Z</time>
      </trkpt>
      <trkpt lat="47.52924" lon="-2.95755">
        <ele>51</ele>
        <time>2018-05-12T07:44:53Z</time>
      </trkpt>
      <trkpt lat="47.52928" lon="-2.95753">
        <ele>51</ele>
        <time>2018-05-12T07:44:56Z</time>
      </trkpt>
      <trkpt lat="47.52932" lon="-2.95752">
        <ele>51</ele>
        <time>2018-05-12T07:44:58Z</time>
      </trkpt>
      <trkpt lat="47.52935" lon="-2.95752">
        <ele>52</ele>
        <time>2018-05-12T07:44:59Z</time>
      </trkpt>
      <trkpt lat="47.52937" lon="-2.95752">
        <ele>53</ele>
        <time>2018-05-12T07:45:00Z</time>
      </trkpt>
      <trkpt lat="47.52945" lon="-2.95753">
        <ele>54</ele>
        <time>2018-05-12T07:45:04Z</time>
      </trkpt>
      <trkpt lat="47.52951" lon="-2.95752">
        <ele>53</ele>
        <time>2018-05-12T07:45:10Z</time>
      </trkpt>
      <trkpt lat="47.52955" lon="-2.95752">
        <ele>54</ele>
        <time>2018-05-12T07:45:13Z</time>
      </trkpt>
      <trkpt lat="47.5296" lon="-2.95749">
        <ele>55</ele>
        <time>2018-05-12T07:45:17Z</time>
      </trkpt>
      <trkpt lat="47.52966" lon="-2.95745">
        <ele>56</ele>
        <time>2018-05-12T07:45:20Z</time>
      </trkpt>
      <trkpt lat="47.52971" lon="-2.95745">
        <ele>54</ele>
        <time>2018-05-12T07:45:23Z</time>
      </trkpt>
      <trkpt lat="47.52976" lon="-2.95748">
        <ele>54</ele>
        <time>2018-05-12T07:45:27Z</time>
      </trkpt>
      <trkpt lat="47.52981" lon="-2.95751">
        <ele>54</ele>
        <time>2018-05-12T07:45:30Z</time>
      </trkpt>
      <trkpt lat="47.52984" lon="-2.95752">
        <ele>53</ele>
        <time>2018-05-12T07:45:32Z</time>
      </trkpt>
      <trkpt lat="47.52987" lon="-2.95754">
        <ele>52</ele>
        <time>2018-05-12T07:45:35Z</time>
      </trkpt>
      <trkpt lat="47.52991" lon="-2.95754">
        <ele>51</ele>
        <time>2018-05-12T07:45:38Z</time>
      </trkpt>
      <trkpt lat="47.52997" lon="-2.95754">
        <ele>52</ele>
        <time>2018-05-12T07:45:41Z</time>
      </trkpt>
      <trkpt lat="47.53001" lon="-2.95754">
        <ele>53</ele>
        <time>2018-05-12T07:45:44Z</time>
      </trkpt>
      <trkpt lat="47.53004" lon="-2.95754">
        <ele>55</ele>
        <time>2018-05-12T07:45:46Z</time>
      </trkpt>
      <trkpt lat="47.5301" lon="-2.95754">
        <ele>54</ele>
        <time>2018-05-12T07:45:49Z</time>
      </trkpt>
      <trkpt lat="47.53014" lon="-2.95751">
        <ele>53</ele>
        <time>2018-05-12T07:45:54Z</time>
      </trkpt>
      <trkpt lat="47.53017" lon="-2.95749">
        <ele>52</ele>
        <time>2018-05-12T07:45:57Z</time>
      </trkpt>
      <trkpt lat="47.5302" lon="-2.95747">
        <ele>54</ele>
        <time>2018-05-12T07:46:00Z</time>
      </trkpt>
      <trkpt lat="47.53023" lon="-2.95745">
        <ele>54</ele>
        <time>2018-05-12T07:46:02Z</time>
      </trkpt>
      <trkpt lat="47.53027" lon="-2.9574">
        <ele>56</ele>
        <time>2018-05-12T07:46:07Z</time>
      </trkpt>
      <trkpt lat="47.53032" lon="-2.95737">
        <ele>56</ele>
        <time>2018-05-12T07:46:12Z</time>
      </trkpt>
      <trkpt lat="47.53036" lon="-2.95733">
        <ele>55</ele>
        <time>2018-05-12T07:46:16Z</time>
      </trkpt>
      <trkpt lat="47.5304" lon="-2.95731">
        <ele>54</ele>
        <time>2018-05-12T07:46:20Z</time>
      </trkpt>
      <trkpt lat="47.53044" lon="-2.95727">
        <ele>54</ele>
        <time>2018-05-12T07:46:23Z</time>
      </trkpt>
      <trkpt lat="47.53047" lon="-2.95724">
        <ele>54</ele>
        <time>2018-05-12T07:46:25Z</time>
      </trkpt>
      <trkpt lat="47.5305" lon="-2.95717">
        <ele>52</ele>
        <time>2018-05-12T07:46:29Z</time>
      </trkpt>
      <trkpt lat="47.53055" lon="-2.95712">
        <ele>55</ele>
        <time>2018-05-12T07:46:33Z</time>
      </trkpt>
      <trkpt lat="47.53058" lon="-2.9571">
        <ele>54</ele>
        <time>2018-05-12T07:46:35Z</time>
      </trkpt>
      <trkpt lat="47.53062" lon="-2.95704">
        <ele>53</ele>
        <time>2018-05-12T07:46:39Z</time>
      </trkpt>
      <trkpt lat="47.53067" lon="-2.95699">
        <ele>54</ele>
        <time>2018-05-12T07:46:43Z</time>
      </trkpt>
      <trkpt lat="47.53071" lon="-2.95693">
        <ele>55</ele>
        <time>2018-05-12T07:46:47Z</time>
      </trkpt>
      <trkpt lat="47.53076" lon="-2.95688">
        <ele>55</ele>
        <time>2018-05-12T07:46:51Z</time>
      </trkpt>
      <trkpt lat="47.53078" lon="-2.95686">
        <ele>54</ele>
        <time>2018-05-12T07:46:53Z</time>
      </trkpt>
      <trkpt lat="47.53081" lon="-2.95683">
        <ele>53</ele>
        <time>2018-05-12T07:46:55Z</time>
      </trkpt>
      <trkpt lat="47.53086" lon="-2.95679">
        <ele>52</ele>
        <time>2018-05-12T07:46:59Z</time>
      </trkpt>
      <trkpt lat="47.53091" lon="-2.95675">
        <ele>52</ele>
        <time>2018-05-12T07:47:02Z</time>
      </trkpt>
      <trkpt lat="47.53094" lon="-2.95672">
        <ele>52</ele>
        <time>2018-05-12T07:47:04Z</time>
      </trkpt>
      <trkpt lat="47.53097" lon="-2.95669">
        <ele>52</ele>
        <time>2018-05-12T07:47:06Z</time>
      </trkpt>
      <trkpt lat="47.53102" lon="-2.95665">
        <ele>49</ele>
        <time>2018-05-12T07:47:10Z</time>
      </trkpt>
      <trkpt lat="47.53104" lon="-2.95663">
        <ele>48</ele>
        <time>2018-05-12T07:47:12Z</time>
      </trkpt>
      <trkpt lat="47.53107" lon="-2.9566">
        <ele>49</ele>
        <time>2018-05-12T07:47:14Z</time>
      </trkpt>
      <trkpt lat="47.53112" lon="-2.95658">
        <ele>49</ele>
        <time>2018-05-12T07:47:17Z</time>
      </trkpt>
      <trkpt lat="47.53117" lon="-2.95654">
        <ele>50</ele>
        <time>2018-05-12T07:47:20Z</time>
      </trkpt>
      <trkpt lat="47.5312" lon="-2.95652">
        <ele>51</ele>
        <time>2018-05-12T07:47:22Z</time>
      </trkpt>
      <trkpt lat="47.53122" lon="-2.9565">
        <ele>50</ele>
        <time>2018-05-12T07:47:24Z</time>
      </trkpt>
      <trkpt lat="47.53128" lon="-2.95647">
        <ele>50</ele>
        <time>2018-05-12T07:47:28Z</time>
      </trkpt>
      <trkpt lat="47.53133" lon="-2.95642">
        <ele>52</ele>
        <time>2018-05-12T07:47:31Z</time>
      </trkpt>
      <trkpt lat="47.53137" lon="-2.95638">
        <ele>52</ele>
        <time>2018-05-12T07:47:34Z</time>
      </trkpt>
      <trkpt lat="47.5314" lon="-2.95635">
        <ele>52</ele>
        <time>2018-05-12T07:47:36Z</time>
      </trkpt>
      <trkpt lat="47.53144" lon="-2.95632">
        <ele>53</ele>
        <time>2018-05-12T07:47:39Z</time>
      </trkpt>
      <trkpt lat="47.5315" lon="-2.95629">
        <ele>54</ele>
        <time>2018-05-12T07:47:42Z</time>
      </trkpt>
      <trkpt lat="47.53154" lon="-2.95626">
        <ele>54</ele>
        <time>2018-05-12T07:47:45Z</time>
      </trkpt>
      <trkpt lat="47.53158" lon="-2.95622">
        <ele>54</ele>
        <time>2018-05-12T07:47:48Z</time>
      </trkpt>
      <trkpt lat="47.53163" lon="-2.9562">
        <ele>54</ele>
        <time>2018-05-12T07:47:51Z</time>
      </trkpt>
      <trkpt lat="47.53168" lon="-2.95615">
        <ele>54</ele>
        <time>2018-05-12T07:47:54Z</time>
      </trkpt>
      <trkpt lat="47.53174" lon="-2.95611">
        <ele>53</ele>
        <time>2018-05-12T07:47:57Z</time>
      </trkpt>
      <trkpt lat="47.53177" lon="-2.95608">
        <ele>52</ele>
        <time>2018-05-12T07:47:59Z</time>
      </trkpt>
      <trkpt lat="47.53183" lon="-2.95605">
        <ele>53</ele>
        <time>2018-05-12T07:48:02Z</time>
      </trkpt>
      <trkpt lat="47.53188" lon="-2.95601">
        <ele>54</ele>
        <time>2018-05-12T07:48:06Z</time>
      </trkpt>
      <trkpt lat="47.53191" lon="-2.95596">
        <ele>53</ele>
        <time>2018-05-12T07:48:09Z</time>
      </trkpt>
      <trkpt lat="47.53193" lon="-2.95593">
        <ele>53</ele>
        <time>2018-05-12T07:48:11Z</time>
      </trkpt>
      <trkpt lat="47.53199" lon="-2.95589">
        <ele>53</ele>
        <time>2018-05-12T07:48:14Z</time>
      </trkpt>
      <trkpt lat="47.53203" lon="-2.95588">
        <ele>54</ele>
        <time>2018-05-12T07:48:16Z</time>
      </trkpt>
      <trkpt lat="47.53208" lon="-2.95584">
        <ele>54</ele>
        <time>2018-05-12T07:48:19Z</time>
      </trkpt>
      <trkpt lat="47.53212" lon="-2.95581">
        <ele>53</ele>
        <time>2018-05-12T07:48:22Z</time>
      </trkpt>
      <trkpt lat="47.53215" lon="-2.95577">
        <ele>53</ele>
        <time>2018-05-12T07:48:24Z</time>
      </trkpt>
      <trkpt lat="47.53221" lon="-2.95574">
        <ele>56</ele>
        <time>2018-05-12T07:48:27Z</time>
      </trkpt>
      <trkpt lat="47.53226" lon="-2.95571">
        <ele>56</ele>
        <time>2018-05-12T07:48:30Z</time>
      </trkpt>
      <trkpt lat="47.53231" lon="-2.95568">
        <ele>56</ele>
        <time>2018-05-12T07:48:33Z</time>
      </trkpt>
      <trkpt lat="47.53234" lon="-2.95565">
        <ele>56</ele>
        <time>2018-05-12T07:48:35Z</time>
      </trkpt>
      <trkpt lat="47.53239" lon="-2.95563">
        <ele>55</ele>
        <time>2018-05-12T07:48:38Z</time>
      </trkpt>
      <trkpt lat="47.53244" lon="-2.9556">
        <ele>54</ele>
        <time>2018-05-12T07:48:42Z</time>
      </trkpt>
      <trkpt lat="47.5325" lon="-2.95556">
        <ele>55</ele>
        <time>2018-05-12T07:48:45Z</time>
      </trkpt>
      <trkpt lat="47.53254" lon="-2.95552">
        <ele>54</ele>
        <time>2018-05-12T07:48:48Z</time>
      </trkpt>
      <trkpt lat="47.53257" lon="-2.9555">
        <ele>53</ele>
        <time>2018-05-12T07:48:50Z</time>
      </trkpt>
      <trkpt lat="47.5326" lon="-2.95548">
        <ele>50</ele>
        <time>2018-05-12T07:48:53Z</time>
      </trkpt>
      <trkpt lat="47.53264" lon="-2.95545">
        <ele>50</ele>
        <time>2018-05-12T07:48:56Z</time>
      </trkpt>
      <trkpt lat="47.53268" lon="-2.95542">
        <ele>51</ele>
        <time>2018-05-12T07:48:58Z</time>
      </trkpt>
      <trkpt lat="47.53274" lon="-2.95537">
        <ele>52</ele>
        <time>2018-05-12T07:49:01Z</time>
      </trkpt>
      <trkpt lat="47.53277" lon="-2.95534">
        <ele>52</ele>
        <time>2018-05-12T07:49:03Z</time>
      </trkpt>
      <trkpt lat="47.5328" lon="-2.95532">
        <ele>53</ele>
        <time>2018-05-12T07:49:05Z</time>
      </trkpt>
      <trkpt lat="47.53284" lon="-2.95529">
        <ele>53</ele>
        <time>2018-05-12T07:49:07Z</time>
      </trkpt>
      <trkpt lat="47.53286" lon="-2.95527">
        <ele>53</ele>
        <time>2018-05-12T07:49:08Z</time>
      </trkpt>
      <trkpt lat="47.53289" lon="-2.95525">
        <ele>52</ele>
        <time>2018-05-12T07:49:10Z</time>
      </trkpt>
      <trkpt lat="47.53293" lon="-2.9552">
        <ele>53</ele>
        <time>2018-05-12T07:49:13Z</time>
      </trkpt>
      <trkpt lat="47.53297" lon="-2.95517">
        <ele>53</ele>
        <time>2018-05-12T07:49:16Z</time>
      </trkpt>
      <trkpt lat="47.53301" lon="-2.95514">
        <ele>52</ele>
        <time>2018-05-12T07:49:19Z</time>
      </trkpt>
      <trkpt lat="47.53303" lon="-2.95512">
        <ele>52</ele>
        <time>2018-05-12T07:49:21Z</time>
      </trkpt>
      <trkpt lat="47.53308" lon="-2.95509">
        <ele>53</ele>
        <time>2018-05-12T07:49:23Z</time>
      </trkpt>
      <trkpt lat="47.53313" lon="-2.95505">
        <ele>53</ele>
        <time>2018-05-12T07:49:26Z</time>
      </trkpt>
      <trkpt lat="47.53318" lon="-2.95503">
        <ele>53</ele>
        <time>2018-05-12T07:49:29Z</time>
      </trkpt>
      <trkpt lat="47.53322" lon="-2.95499">
        <ele>54</ele>
        <time>2018-05-12T07:49:32Z</time>
      </trkpt>
      <trkpt lat="47.53325" lon="-2.95496">
        <ele>54</ele>
        <time>2018-05-12T07:49:34Z</time>
      </trkpt>
      <trkpt lat="47.53331" lon="-2.95494">
        <ele>53</ele>
        <time>2018-05-12T07:49:37Z</time>
      </trkpt>
      <trkpt lat="47.53335" lon="-2.95491">
        <ele>54</ele>
        <time>2018-05-12T07:49:40Z</time>
      </trkpt>
      <trkpt lat="47.5334" lon="-2.95488">
        <ele>53</ele>
        <time>2018-05-12T07:49:43Z</time>
      </trkpt>
      <trkpt lat="47.53345" lon="-2.95483">
        <ele>53</ele>
        <time>2018-05-12T07:49:46Z</time>
      </trkpt>
      <trkpt lat="47.53349" lon="-2.9548">
        <ele>55</ele>
        <time>2018-05-12T07:49:48Z</time>
      </trkpt>
      <trkpt lat="47.53351" lon="-2.95478">
        <ele>56</ele>
        <time>2018-05-12T07:49:50Z</time>
      </trkpt>
      <trkpt lat="47.53356" lon="-2.95475">
        <ele>57</ele>
        <time>2018-05-12T07:49:53Z</time>
      </trkpt>
      <trkpt lat="47.53362" lon="-2.95471">
        <ele>57</ele>
        <time>2018-05-12T07:49:56Z</time>
      </trkpt>
      <trkpt lat="47.53364" lon="-2.95469">
        <ele>57</ele>
        <time>2018-05-12T07:49:58Z</time>
      </trkpt>
      <trkpt lat="47.53368" lon="-2.95464">
        <ele>57</ele>
        <time>2018-05-12T07:50:02Z</time>
      </trkpt>
      <trkpt lat="47.53371" lon="-2.95461">
        <ele>57</ele>
        <time>2018-05-12T07:50:05Z</time>
      </trkpt>
      <trkpt lat="47.53374" lon="-2.95458">
        <ele>56</ele>
        <time>2018-05-12T07:50:07Z</time>
      </trkpt>
      <trkpt lat="47.53377" lon="-2.95455">
        <ele>58</ele>
        <time>2018-05-12T07:50:09Z</time>
      </trkpt>
      <trkpt lat="47.5338" lon="-2.95451">
        <ele>58</ele>
        <time>2018-05-12T07:50:11Z</time>
      </trkpt>
      <trkpt lat="47.53383" lon="-2.95445">
        <ele>57</ele>
        <time>2018-05-12T07:50:14Z</time>
      </trkpt>
      <trkpt lat="47.53386" lon="-2.9544">
        <ele>57</ele>
        <time>2018-05-12T07:50:16Z</time>
      </trkpt>
      <trkpt lat="47.53391" lon="-2.95434">
        <ele>57</ele>
        <time>2018-05-12T07:50:19Z</time>
      </trkpt>
      <trkpt lat="47.53395" lon="-2.95429">
        <ele>58</ele>
        <time>2018-05-12T07:50:22Z</time>
      </trkpt>
      <trkpt lat="47.53398" lon="-2.95424">
        <ele>56</ele>
        <time>2018-05-12T07:50:25Z</time>
      </trkpt>
      <trkpt lat="47.53403" lon="-2.95419">
        <ele>57</ele>
        <time>2018-05-12T07:50:29Z</time>
      </trkpt>
      <trkpt lat="47.53408" lon="-2.95417">
        <ele>55</ele>
        <time>2018-05-12T07:50:32Z</time>
      </trkpt>
      <trkpt lat="47.53412" lon="-2.95415">
        <ele>53</ele>
        <time>2018-05-12T07:50:38Z</time>
      </trkpt>
      <trkpt lat="47.53416" lon="-2.95412">
        <ele>53</ele>
        <time>2018-05-12T07:50:42Z</time>
      </trkpt>
      <trkpt lat="47.53418" lon="-2.95411">
        <ele>53</ele>
        <time>2018-05-12T07:50:45Z</time>
      </trkpt>
      <trkpt lat="47.53421" lon="-2.95408">
        <ele>56</ele>
        <time>2018-05-12T07:50:54Z</time>
      </trkpt>
      <trkpt lat="47.53424" lon="-2.95405">
        <ele>55</ele>
        <time>2018-05-12T07:51:01Z</time>
      </trkpt>
      <trkpt lat="47.53429" lon="-2.95401">
        <ele>56</ele>
        <time>2018-05-12T07:51:13Z</time>
      </trkpt>
      <trkpt lat="47.53433" lon="-2.95395">
        <ele>57</ele>
        <time>2018-05-12T07:51:17Z</time>
      </trkpt>
      <trkpt lat="47.53439" lon="-2.9539">
        <ele>57</ele>
        <time>2018-05-12T07:51:21Z</time>
      </trkpt>
      <trkpt lat="47.53441" lon="-2.95388">
        <ele>58</ele>
        <time>2018-05-12T07:51:22Z</time>
      </trkpt>
      <trkpt lat="47.53446" lon="-2.95384">
        <ele>58</ele>
        <time>2018-05-12T07:51:25Z</time>
      </trkpt>
      <trkpt lat="47.53452" lon="-2.9538">
        <ele>59</ele>
        <time>2018-05-12T07:51:28Z</time>
      </trkpt>
      <trkpt lat="47.53456" lon="-2.95376">
        <ele>59</ele>
        <time>2018-05-12T07:51:31Z</time>
      </trkpt>
      <trkpt lat="47.53462" lon="-2.95371">
        <ele>59</ele>
        <time>2018-05-12T07:51:34Z</time>
      </trkpt>
      <trkpt lat="47.53465" lon="-2.95369">
        <ele>59</ele>
        <time>2018-05-12T07:51:36Z</time>
      </trkpt>
      <trkpt lat="47.53467" lon="-2.95366">
        <ele>59</ele>
        <time>2018-05-12T07:51:37Z</time>
      </trkpt>
      <trkpt lat="47.5347" lon="-2.95361">
        <ele>58</ele>
        <time>2018-05-12T07:51:40Z</time>
      </trkpt>
      <trkpt lat="47.53473" lon="-2.95354">
        <ele>57</ele>
        <time>2018-05-12T07:51:43Z</time>
      </trkpt>
      <trkpt lat="47.53475" lon="-2.95347">
        <ele>58</ele>
        <time>2018-05-12T07:51:46Z</time>
      </trkpt>
      <trkpt lat="47.53475" lon="-2.95339">
        <ele>56</ele>
        <time>2018-05-12T07:51:51Z</time>
      </trkpt>
      <trkpt lat="47.53476" lon="-2.95332">
        <ele>57</ele>
        <time>2018-05-12T07:51:54Z</time>
      </trkpt>
      <trkpt lat="47.53479" lon="-2.95326">
        <ele>56</ele>
        <time>2018-05-12T07:51:58Z</time>
      </trkpt>
      <trkpt lat="47.53483" lon="-2.95321">
        <ele>55</ele>
        <time>2018-05-12T07:52:01Z</time>
      </trkpt>
      <trkpt lat="47.53488" lon="-2.95317">
        <ele>55</ele>
        <time>2018-05-12T07:52:04Z</time>
      </trkpt>
      <trkpt lat="47.53489" lon="-2.95316">
        <ele>54</ele>
        <time>2018-05-12T07:52:06Z</time>
      </trkpt>
      <trkpt lat="47.53493" lon="-2.95313">
        <ele>54</ele>
        <time>2018-05-12T07:52:08Z</time>
      </trkpt>
      <trkpt lat="47.53496" lon="-2.9531">
        <ele>55</ele>
        <time>2018-05-12T07:52:10Z</time>
      </trkpt>
      <trkpt lat="47.53499" lon="-2.95307">
        <ele>54</ele>
        <time>2018-05-12T07:52:12Z</time>
      </trkpt>
      <trkpt lat="47.53504" lon="-2.95304">
        <ele>53</ele>
        <time>2018-05-12T07:52:15Z</time>
      </trkpt>
      <trkpt lat="47.53507" lon="-2.953">
        <ele>51</ele>
        <time>2018-05-12T07:52:18Z</time>
      </trkpt>
      <trkpt lat="47.53511" lon="-2.95295">
        <ele>51</ele>
        <time>2018-05-12T07:52:22Z</time>
      </trkpt>
      <trkpt lat="47.53516" lon="-2.95291">
        <ele>50</ele>
        <time>2018-05-12T07:52:25Z</time>
      </trkpt>
      <trkpt lat="47.53518" lon="-2.95288">
        <ele>50</ele>
        <time>2018-05-12T07:52:27Z</time>
      </trkpt>
      <trkpt lat="47.53523" lon="-2.95285">
        <ele>50</ele>
        <time>2018-05-12T07:52:30Z</time>
      </trkpt>
      <trkpt lat="47.53529" lon="-2.95281">
        <ele>50</ele>
        <time>2018-05-12T07:52:33Z</time>
      </trkpt>
      <trkpt lat="47.53532" lon="-2.95276">
        <ele>52</ele>
        <time>2018-05-12T07:52:35Z</time>
      </trkpt>
      <trkpt lat="47.53537" lon="-2.95272">
        <ele>53</ele>
        <time>2018-05-12T07:52:38Z</time>
      </trkpt>
      <trkpt lat="47.53543" lon="-2.95266">
        <ele>55</ele>
        <time>2018-05-12T07:52:41Z</time>
      </trkpt>
      <trkpt lat="47.53548" lon="-2.9526">
        <ele>54</ele>
        <time>2018-05-12T07:52:45Z</time>
      </trkpt>
      <trkpt lat="47.5355" lon="-2.95256">
        <ele>54</ele>
        <time>2018-05-12T07:52:47Z</time>
      </trkpt>
      <trkpt lat="47.53554" lon="-2.9525">
        <ele>53</ele>
        <time>2018-05-12T07:52:51Z</time>
      </trkpt>
      <trkpt lat="47.53556" lon="-2.95246">
        <ele>53</ele>
        <time>2018-05-12T07:52:53Z</time>
      </trkpt>
      <trkpt lat="47.53558" lon="-2.95244">
        <ele>53</ele>
        <time>2018-05-12T07:52:54Z</time>
      </trkpt>
      <trkpt lat="47.53562" lon="-2.9524">
        <ele>56</ele>
        <time>2018-05-12T07:52:56Z</time>
      </trkpt>
      <trkpt lat="47.53566" lon="-2.95235">
        <ele>57</ele>
        <time>2018-05-12T07:52:59Z</time>
      </trkpt>
      <trkpt lat="47.53569" lon="-2.95232">
        <ele>57</ele>
        <time>2018-05-12T07:53:01Z</time>
      </trkpt>
      <trkpt lat="47.53573" lon="-2.95227">
        <ele>58</ele>
        <time>2018-05-12T07:53:04Z</time>
      </trkpt>
      <trkpt lat="47.53577" lon="-2.95222">
        <ele>58</ele>
        <time>2018-05-12T07:53:07Z</time>
      </trkpt>
      <trkpt lat="47.5358" lon="-2.95218">
        <ele>57</ele>
        <time>2018-05-12T07:53:09Z</time>
      </trkpt>
      <trkpt lat="47.53584" lon="-2.95213">
        <ele>58</ele>
        <time>2018-05-12T07:53:12Z</time>
      </trkpt>
      <trkpt lat="47.53589" lon="-2.95209">
        <ele>58</ele>
        <time>2018-05-12T07:53:15Z</time>
      </trkpt>
      <trkpt lat="47.53593" lon="-2.95205">
        <ele>56</ele>
        <time>2018-05-12T07:53:18Z</time>
      </trkpt>
      <trkpt lat="47.53596" lon="-2.95199">
        <ele>55</ele>
        <time>2018-05-12T07:53:21Z</time>
      </trkpt>
      <trkpt lat="47.53601" lon="-2.95192">
        <ele>55</ele>
        <time>2018-05-12T07:53:25Z</time>
      </trkpt>
      <trkpt lat="47.53604" lon="-2.95188">
        <ele>54</ele>
        <time>2018-05-12T07:53:27Z</time>
      </trkpt>
      <trkpt lat="47.53607" lon="-2.95185">
        <ele>55</ele>
        <time>2018-05-12T07:53:29Z</time>
      </trkpt>
      <trkpt lat="47.53611" lon="-2.95181">
        <ele>55</ele>
        <time>2018-05-12T07:53:31Z</time>
      </trkpt>
      <trkpt lat="47.53615" lon="-2.95177">
        <ele>55</ele>
        <time>2018-05-12T07:53:34Z</time>
      </trkpt>
      <trkpt lat="47.53619" lon="-2.95174">
        <ele>55</ele>
        <time>2018-05-12T07:53:36Z</time>
      </trkpt>
      <trkpt lat="47.53621" lon="-2.95172">
        <ele>56</ele>
        <time>2018-05-12T07:53:38Z</time>
      </trkpt>
      <trkpt lat="47.53624" lon="-2.9517">
        <ele>57</ele>
        <time>2018-05-12T07:53:40Z</time>
      </trkpt>
      <trkpt lat="47.53629" lon="-2.95165">
        <ele>57</ele>
        <time>2018-05-12T07:53:43Z</time>
      </trkpt>
      <trkpt lat="47.53631" lon="-2.95161">
        <ele>56</ele>
        <time>2018-05-12T07:53:45Z</time>
      </trkpt>
      <trkpt lat="47.53636" lon="-2.95157">
        <ele>57</ele>
        <time>2018-05-12T07:53:48Z</time>
      </trkpt>
      <trkpt lat="47.53639" lon="-2.95154">
        <ele>56</ele>
        <time>2018-05-12T07:53:50Z</time>
      </trkpt>
      <trkpt lat="47.53642" lon="-2.95151">
        <ele>56</ele>
        <time>2018-05-12T07:53:52Z</time>
      </trkpt>
      <trkpt lat="47.53644" lon="-2.95149">
        <ele>56</ele>
        <time>2018-05-12T07:53:54Z</time>
      </trkpt>
      <trkpt lat="47.53646" lon="-2.95146">
        <ele>57</ele>
        <time>2018-05-12T07:53:56Z</time>
      </trkpt>
      <trkpt lat="47.53649" lon="-2.95143">
        <ele>57</ele>
        <time>2018-05-12T07:53:58Z</time>
      </trkpt>
      <trkpt lat="47.53653" lon="-2.9514">
        <ele>58</ele>
        <time>2018-05-12T07:54:01Z</time>
      </trkpt>
      <trkpt lat="47.53655" lon="-2.95135">
        <ele>57</ele>
        <time>2018-05-12T07:54:04Z</time>
      </trkpt>
      <trkpt lat="47.53659" lon="-2.9513">
        <ele>58</ele>
        <time>2018-05-12T07:54:07Z</time>
      </trkpt>
      <trkpt lat="47.53664" lon="-2.95124">
        <ele>58</ele>
        <time>2018-05-12T07:54:11Z</time>
      </trkpt>
      <trkpt lat="47.53668" lon="-2.95118">
        <ele>59</ele>
        <time>2018-05-12T07:54:14Z</time>
      </trkpt>
      <trkpt lat="47.53671" lon="-2.95115">
        <ele>58</ele>
        <time>2018-05-12T07:54:16Z</time>
      </trkpt>
      <trkpt lat="47.53676" lon="-2.95111">
        <ele>56</ele>
        <time>2018-05-12T07:54:20Z</time>
      </trkpt>
      <trkpt lat="47.53681" lon="-2.95106">
        <ele>55</ele>
        <time>2018-05-12T07:54:24Z</time>
      </trkpt>
      <trkpt lat="47.53684" lon="-2.951">
        <ele>56</ele>
        <time>2018-05-12T07:54:27Z</time>
      </trkpt>
      <trkpt lat="47.53687" lon="-2.95095">
        <ele>54</ele>
        <time>2018-05-12T07:54:31Z</time>
      </trkpt>
      <trkpt lat="47.53692" lon="-2.95091">
        <ele>55</ele>
        <time>2018-05-12T07:54:35Z</time>
      </trkpt>
      <trkpt lat="47.53696" lon="-2.95088">
        <ele>56</ele>
        <time>2018-05-12T07:54:38Z</time>
      </trkpt>
      <trkpt lat="47.53699" lon="-2.95083">
        <ele>56</ele>
        <time>2018-05-12T07:54:41Z</time>
      </trkpt>
      <trkpt lat="47.53702" lon="-2.9508">
        <ele>55</ele>
        <time>2018-05-12T07:54:43Z</time>
      </trkpt>
      <trkpt lat="47.53704" lon="-2.95076">
        <ele>55</ele>
        <time>2018-05-12T07:54:45Z</time>
      </trkpt>
      <trkpt lat="47.53709" lon="-2.95072">
        <ele>56</ele>
        <time>2018-05-12T07:54:48Z</time>
      </trkpt>
      <trkpt lat="47.53712" lon="-2.95069">
        <ele>55</ele>
        <time>2018-05-12T07:54:50Z</time>
      </trkpt>
      <trkpt lat="47.53715" lon="-2.95067">
        <ele>54</ele>
        <time>2018-05-12T07:54:53Z</time>
      </trkpt>
      <trkpt lat="47.53717" lon="-2.95064">
        <ele>53</ele>
        <time>2018-05-12T07:54:55Z</time>
      </trkpt>
      <trkpt lat="47.53723" lon="-2.95059">
        <ele>56</ele>
        <time>2018-05-12T07:54:58Z</time>
      </trkpt>
      <trkpt lat="47.53726" lon="-2.95056">
        <ele>55</ele>
        <time>2018-05-12T07:55:00Z</time>
      </trkpt>
      <trkpt lat="47.5373" lon="-2.95052">
        <ele>57</ele>
        <time>2018-05-12T07:55:03Z</time>
      </trkpt>
      <trkpt lat="47.53732" lon="-2.95049">
        <ele>56</ele>
        <time>2018-05-12T07:55:05Z</time>
      </trkpt>
      <trkpt lat="47.53737" lon="-2.95044">
        <ele>56</ele>
        <time>2018-05-12T07:55:08Z</time>
      </trkpt>
      <trkpt lat="47.53739" lon="-2.95042">
        <ele>55</ele>
        <time>2018-05-12T07:55:10Z</time>
      </trkpt>
      <trkpt lat="47.53745" lon="-2.95038">
        <ele>57</ele>
        <time>2018-05-12T07:55:13Z</time>
      </trkpt>
      <trkpt lat="47.53747" lon="-2.95037">
        <ele>56</ele>
        <time>2018-05-12T07:55:15Z</time>
      </trkpt>
      <trkpt lat="47.53751" lon="-2.95032">
        <ele>56</ele>
        <time>2018-05-12T07:55:18Z</time>
      </trkpt>
      <trkpt lat="47.53753" lon="-2.95029">
        <ele>56</ele>
        <time>2018-05-12T07:55:19Z</time>
      </trkpt>
      <trkpt lat="47.53757" lon="-2.95024">
        <ele>57</ele>
        <time>2018-05-12T07:55:22Z</time>
      </trkpt>
      <trkpt lat="47.53761" lon="-2.9502">
        <ele>56</ele>
        <time>2018-05-12T07:55:26Z</time>
      </trkpt>
      <trkpt lat="47.53765" lon="-2.95017">
        <ele>56</ele>
        <time>2018-05-12T07:55:28Z</time>
      </trkpt>
      <trkpt lat="47.53768" lon="-2.95014">
        <ele>57</ele>
        <time>2018-05-12T07:55:30Z</time>
      </trkpt>
      <trkpt lat="47.53773" lon="-2.9501">
        <ele>53</ele>
        <time>2018-05-12T07:55:34Z</time>
      </trkpt>
      <trkpt lat="47.53775" lon="-2.95007">
        <ele>54</ele>
        <time>2018-05-12T07:55:36Z</time>
      </trkpt>
      <trkpt lat="47.53778" lon="-2.95003">
        <ele>54</ele>
        <time>2018-05-12T07:55:38Z</time>
      </trkpt>
      <trkpt lat="47.5378" lon="-2.95">
        <ele>55</ele>
        <time>2018-05-12T07:55:40Z</time>
      </trkpt>
      <trkpt lat="47.53785" lon="-2.94994">
        <ele>55</ele>
        <time>2018-05-12T07:55:43Z</time>
      </trkpt>
      <trkpt lat="47.53788" lon="-2.94991">
        <ele>55</ele>
        <time>2018-05-12T07:55:45Z</time>
      </trkpt>
      <trkpt lat="47.5379" lon="-2.94987">
        <ele>54</ele>
        <time>2018-05-12T07:55:47Z</time>
      </trkpt>
      <trkpt lat="47.53794" lon="-2.94983">
        <ele>55</ele>
        <time>2018-05-12T07:55:50Z</time>
      </trkpt>
      <trkpt lat="47.53797" lon="-2.94981">
        <ele>56</ele>
        <time>2018-05-12T07:55:52Z</time>
      </trkpt>
      <trkpt lat="47.538" lon="-2.94978">
        <ele>56</ele>
        <time>2018-05-12T07:55:54Z</time>
      </trkpt>
      <trkpt lat="47.53804" lon="-2.94972">
        <ele>57</ele>
        <time>2018-05-12T07:55:57Z</time>
      </trkpt>
      <trkpt lat="47.53808" lon="-2.94967">
        <ele>58</ele>
        <time>2018-05-12T07:56:00Z</time>
      </trkpt>
      <trkpt lat="47.53813" lon="-2.94964">
        <ele>58</ele>
        <time>2018-05-12T07:56:03Z</time>
      </trkpt>
      <trkpt lat="47.53817" lon="-2.94957">
        <ele>57</ele>
        <time>2018-05-12T07:56:07Z</time>
      </trkpt>
      <trkpt lat="47.53819" lon="-2.94953">
        <ele>56</ele>
        <time>2018-05-12T07:56:09Z</time>
      </trkpt>
      <trkpt lat="47.53824" lon="-2.94949">
        <ele>56</ele>
        <time>2018-05-12T07:56:13Z</time>
      </trkpt>
      <trkpt lat="47.53829" lon="-2.94944">
        <ele>56</ele>
        <time>2018-05-12T07:56:16Z</time>
      </trkpt>
      <trkpt lat="47.53831" lon="-2.94942">
        <ele>56</ele>
        <time>2018-05-12T07:56:17Z</time>
      </trkpt>
      <trkpt lat="47.53834" lon="-2.94939">
        <ele>55</ele>
        <time>2018-05-12T07:56:19Z</time>
      </trkpt>
      <trkpt lat="47.53837" lon="-2.94937">
        <ele>55</ele>
        <time>2018-05-12T07:56:21Z</time>
      </trkpt>
      <trkpt lat="47.53841" lon="-2.94931">
        <ele>56</ele>
        <time>2018-05-12T07:56:24Z</time>
      </trkpt>
      <trkpt lat="47.53843" lon="-2.94929">
        <ele>56</ele>
        <time>2018-05-12T07:56:26Z</time>
      </trkpt>
      <trkpt lat="47.53845" lon="-2.94925">
        <ele>57</ele>
        <time>2018-05-12T07:56:28Z</time>
      </trkpt>
      <trkpt lat="47.53847" lon="-2.94923">
        <ele>58</ele>
        <time>2018-05-12T07:56:29Z</time>
      </trkpt>
      <trkpt lat="47.5385" lon="-2.9492">
        <ele>58</ele>
        <time>2018-05-12T07:56:31Z</time>
      </trkpt>
      <trkpt lat="47.53852" lon="-2.94917">
        <ele>58</ele>
        <time>2018-05-12T07:56:33Z</time>
      </trkpt>
      <trkpt lat="47.53854" lon="-2.94914">
        <ele>57</ele>
        <time>2018-05-12T07:56:35Z</time>
      </trkpt>
      <trkpt lat="47.53859" lon="-2.94908">
        <ele>57</ele>
        <time>2018-05-12T07:56:38Z</time>
      </trkpt>
      <trkpt lat="47.53862" lon="-2.94905">
        <ele>58</ele>
        <time>2018-05-12T07:56:40Z</time>
      </trkpt>
      <trkpt lat="47.53865" lon="-2.94902">
        <ele>59</ele>
        <time>2018-05-12T07:56:42Z</time>
      </trkpt>
      <trkpt lat="47.5387" lon="-2.94898">
        <ele>60</ele>
        <time>2018-05-12T07:56:45Z</time>
      </trkpt>
      <trkpt lat="47.53874" lon="-2.94893">
        <ele>60</ele>
        <time>2018-05-12T07:56:48Z</time>
      </trkpt>
      <trkpt lat="47.53877" lon="-2.9489">
        <ele>60</ele>
        <time>2018-05-12T07:56:50Z</time>
      </trkpt>
      <trkpt lat="47.53882" lon="-2.94887">
        <ele>59</ele>
        <time>2018-05-12T07:56:53Z</time>
      </trkpt>
      <trkpt lat="47.53886" lon="-2.94883">
        <ele>58</ele>
        <time>2018-05-12T07:56:56Z</time>
      </trkpt>
      <trkpt lat="47.5389" lon="-2.94877">
        <ele>58</ele>
        <time>2018-05-12T07:57:00Z</time>
      </trkpt>
      <trkpt lat="47.53893" lon="-2.94872">
        <ele>58</ele>
        <time>2018-05-12T07:57:02Z</time>
      </trkpt>
      <trkpt lat="47.53898" lon="-2.94868">
        <ele>61</ele>
        <time>2018-05-12T07:57:05Z</time>
      </trkpt>
      <trkpt lat="47.53902" lon="-2.94862">
        <ele>60</ele>
        <time>2018-05-12T07:57:08Z</time>
      </trkpt>
      <trkpt lat="47.53905" lon="-2.94857">
        <ele>61</ele>
        <time>2018-05-12T07:57:10Z</time>
      </trkpt>
      <trkpt lat="47.5391" lon="-2.94852">
        <ele>63</ele>
        <time>2018-05-12T07:57:13Z</time>
      </trkpt>
      <trkpt lat="47.53913" lon="-2.94848">
        <ele>63</ele>
        <time>2018-05-12T07:57:15Z</time>
      </trkpt>
      <trkpt lat="47.53916" lon="-2.94844">
        <ele>62</ele>
        <time>2018-05-12T07:57:17Z</time>
      </trkpt>
      <trkpt lat="47.53919" lon="-2.94841">
        <ele>62</ele>
        <time>2018-05-12T07:57:19Z</time>
      </trkpt>
      <trkpt lat="47.53922" lon="-2.94838">
        <ele>61</ele>
        <time>2018-05-12T07:57:21Z</time>
      </trkpt>
      <trkpt lat="47.53924" lon="-2.94835">
        <ele>61</ele>
        <time>2018-05-12T07:57:23Z</time>
      </trkpt>
      <trkpt lat="47.53927" lon="-2.94832">
        <ele>61</ele>
        <time>2018-05-12T07:57:25Z</time>
      </trkpt>
      <trkpt lat="47.5393" lon="-2.94828">
        <ele>61</ele>
        <time>2018-05-12T07:57:27Z</time>
      </trkpt>
      <trkpt lat="47.53933" lon="-2.94823">
        <ele>58</ele>
        <time>2018-05-12T07:57:31Z</time>
      </trkpt>
      <trkpt lat="47.53935" lon="-2.94819">
        <ele>58</ele>
        <time>2018-05-12T07:57:33Z</time>
      </trkpt>
      <trkpt lat="47.53938" lon="-2.94812">
        <ele>57</ele>
        <time>2018-05-12T07:57:37Z</time>
      </trkpt>
      <trkpt lat="47.53942" lon="-2.94806">
        <ele>58</ele>
        <time>2018-05-12T07:57:40Z</time>
      </trkpt>
      <trkpt lat="47.53947" lon="-2.94802">
        <ele>58</ele>
        <time>2018-05-12T07:57:43Z</time>
      </trkpt>
      <trkpt lat="47.53952" lon="-2.94796">
        <ele>59</ele>
        <time>2018-05-12T07:57:46Z</time>
      </trkpt>
      <trkpt lat="47.53956" lon="-2.94791">
        <ele>60</ele>
        <time>2018-05-12T07:57:49Z</time>
      </trkpt>
      <trkpt lat="47.5396" lon="-2.94787">
        <ele>60</ele>
        <time>2018-05-12T07:57:52Z</time>
      </trkpt>
      <trkpt lat="47.53964" lon="-2.9478">
        <ele>58</ele>
        <time>2018-05-12T07:57:56Z</time>
      </trkpt>
      <trkpt lat="47.53969" lon="-2.94777">
        <ele>58</ele>
        <time>2018-05-12T07:57:59Z</time>
      </trkpt>
      <trkpt lat="47.53973" lon="-2.94771">
        <ele>60</ele>
        <time>2018-05-12T07:58:02Z</time>
      </trkpt>
      <trkpt lat="47.53978" lon="-2.94766">
        <ele>62</ele>
        <time>2018-05-12T07:58:05Z</time>
      </trkpt>
      <trkpt lat="47.53981" lon="-2.94763">
        <ele>63</ele>
        <time>2018-05-12T07:58:07Z</time>
      </trkpt>
      <trkpt lat="47.53984" lon="-2.94761">
        <ele>62</ele>
        <time>2018-05-12T07:58:09Z</time>
      </trkpt>
      <trkpt lat="47.53988" lon="-2.94755">
        <ele>62</ele>
        <time>2018-05-12T07:58:12Z</time>
      </trkpt>
      <trkpt lat="47.53992" lon="-2.9475">
        <ele>62</ele>
        <time>2018-05-12T07:58:15Z</time>
      </trkpt>
      <trkpt lat="47.53996" lon="-2.94745">
        <ele>60</ele>
        <time>2018-05-12T07:58:19Z</time>
      </trkpt>
      <trkpt lat="47.54" lon="-2.94738">
        <ele>60</ele>
        <time>2018-05-12T07:58:23Z</time>
      </trkpt>
      <trkpt lat="47.54002" lon="-2.94735">
        <ele>60</ele>
        <time>2018-05-12T07:58:24Z</time>
      </trkpt>
      <trkpt lat="47.54006" lon="-2.9473">
        <ele>60</ele>
        <time>2018-05-12T07:58:27Z</time>
      </trkpt>
      <trkpt lat="47.54011" lon="-2.94725">
        <ele>60</ele>
        <time>2018-05-12T07:58:30Z</time>
      </trkpt>
      <trkpt lat="47.54013" lon="-2.94722">
        <ele>61</ele>
        <time>2018-05-12T07:58:32Z</time>
      </trkpt>
      <trkpt lat="47.54015" lon="-2.94719">
        <ele>61</ele>
        <time>2018-05-12T07:58:34Z</time>
      </trkpt>
      <trkpt lat="47.54018" lon="-2.94716">
        <ele>60</ele>
        <time>2018-05-12T07:58:36Z</time>
      </trkpt>
      <trkpt lat="47.54021" lon="-2.94713">
        <ele>61</ele>
        <time>2018-05-12T07:58:38Z</time>
      </trkpt>
      <trkpt lat="47.54023" lon="-2.9471">
        <ele>59</ele>
        <time>2018-05-12T07:58:40Z</time>
      </trkpt>
      <trkpt lat="47.54027" lon="-2.94704">
        <ele>57</ele>
        <time>2018-05-12T07:58:44Z</time>
      </trkpt>
      <trkpt lat="47.54032" lon="-2.94698">
        <ele>57</ele>
        <time>2018-05-12T07:58:47Z</time>
      </trkpt>
      <trkpt lat="47.54034" lon="-2.94695">
        <ele>56</ele>
        <time>2018-05-12T07:58:49Z</time>
      </trkpt>
      <trkpt lat="47.54038" lon="-2.94691">
        <ele>57</ele>
        <time>2018-05-12T07:58:51Z</time>
      </trkpt>
      <trkpt lat="47.5404" lon="-2.94688">
        <ele>57</ele>
        <time>2018-05-12T07:58:53Z</time>
      </trkpt>
      <trkpt lat="47.54044" lon="-2.94684">
        <ele>56</ele>
        <time>2018-05-12T07:58:57Z</time>
      </trkpt>
      <trkpt lat="47.54045" lon="-2.94681">
        <ele>55</ele>
        <time>2018-05-12T07:58:59Z</time>
      </trkpt>
      <trkpt lat="47.54048" lon="-2.94678">
        <ele>55</ele>
        <time>2018-05-12T07:59:01Z</time>
      </trkpt>
      <trkpt lat="47.54052" lon="-2.94674">
        <ele>55</ele>
        <time>2018-05-12T07:59:03Z</time>
      </trkpt>
      <trkpt lat="47.54056" lon="-2.9467">
        <ele>53</ele>
        <time>2018-05-12T07:59:06Z</time>
      </trkpt>
      <trkpt lat="47.54058" lon="-2.94667">
        <ele>52</ele>
        <time>2018-05-12T07:59:08Z</time>
      </trkpt>
      <trkpt lat="47.54062" lon="-2.9466">
        <ele>56</ele>
        <time>2018-05-12T07:59:11Z</time>
      </trkpt>
      <trkpt lat="47.54067" lon="-2.94655">
        <ele>57</ele>
        <time>2018-05-12T07:59:14Z</time>
      </trkpt>
      <trkpt lat="47.5407" lon="-2.94648">
        <ele>56</ele>
        <time>2018-05-12T07:59:18Z</time>
      </trkpt>
      <trkpt lat="47.54074" lon="-2.94643">
        <ele>54</ele>
        <time>2018-05-12T07:59:21Z</time>
      </trkpt>
      <trkpt lat="47.54078" lon="-2.94639">
        <ele>54</ele>
        <time>2018-05-12T07:59:25Z</time>
      </trkpt>
      <trkpt lat="47.5408" lon="-2.94637">
        <ele>54</ele>
        <time>2018-05-12T07:59:27Z</time>
      </trkpt>
      <trkpt lat="47.54083" lon="-2.94632">
        <ele>54</ele>
        <time>2018-05-12T07:59:30Z</time>
      </trkpt>
      <trkpt lat="47.54085" lon="-2.94626">
        <ele>54</ele>
        <time>2018-05-12T07:59:33Z</time>
      </trkpt>
      <trkpt lat="47.54091" lon="-2.94621">
        <ele>55</ele>
        <time>2018-05-12T07:59:37Z</time>
      </trkpt>
      <trkpt lat="47.54095" lon="-2.94614">
        <ele>56</ele>
        <time>2018-05-12T07:59:41Z</time>
      </trkpt>
      <trkpt lat="47.54097" lon="-2.9461">
        <ele>54</ele>
        <time>2018-05-12T07:59:44Z</time>
      </trkpt>
      <trkpt lat="47.54102" lon="-2.94606">
        <ele>53</ele>
        <time>2018-05-12T07:59:48Z</time>
      </trkpt>
      <trkpt lat="47.54105" lon="-2.94603">
        <ele>54</ele>
        <time>2018-05-12T07:59:50Z</time>
      </trkpt>
      <trkpt lat="47.54109" lon="-2.94597">
        <ele>55</ele>
        <time>2018-05-12T07:59:54Z</time>
      </trkpt>
      <trkpt lat="47.54112" lon="-2.9459">
        <ele>56</ele>
        <time>2018-05-12T07:59:58Z</time>
      </trkpt>
      <trkpt lat="47.54117" lon="-2.94582">
        <ele>57</ele>
        <time>2018-05-12T08:00:02Z</time>
      </trkpt>
      <trkpt lat="47.5412" lon="-2.94577">
        <ele>56</ele>
        <time>2018-05-12T08:00:05Z</time>
      </trkpt>
      <trkpt lat="47.54124" lon="-2.94572">
        <ele>56</ele>
        <time>2018-05-12T08:00:08Z</time>
      </trkpt>
      <trkpt lat="47.54128" lon="-2.94567">
        <ele>57</ele>
        <time>2018-05-12T08:00:11Z</time>
      </trkpt>
      <trkpt lat="47.5413" lon="-2.94563">
        <ele>57</ele>
        <time>2018-05-12T08:00:13Z</time>
      </trkpt>
      <trkpt lat="47.54135" lon="-2.94559">
        <ele>56</ele>
        <time>2018-05-12T08:00:16Z</time>
      </trkpt>
      <trkpt lat="47.54138" lon="-2.94554">
        <ele>57</ele>
        <time>2018-05-12T08:00:19Z</time>
      </trkpt>
      <trkpt lat="47.54142" lon="-2.94547">
        <ele>56</ele>
        <time>2018-05-12T08:00:24Z</time>
      </trkpt>
      <trkpt lat="47.54146" lon="-2.94542">
        <ele>55</ele>
        <time>2018-05-12T08:00:27Z</time>
      </trkpt>
      <trkpt lat="47.5415" lon="-2.94534">
        <ele>56</ele>
        <time>2018-05-12T08:00:30Z</time>
      </trkpt>
      <trkpt lat="47.54155" lon="-2.94528">
        <ele>58</ele>
        <time>2018-05-12T08:00:33Z</time>
      </trkpt>
      <trkpt lat="47.5416" lon="-2.94523">
        <ele>57</ele>
        <time>2018-05-12T08:00:37Z</time>
      </trkpt>
      <trkpt lat="47.54164" lon="-2.94517">
        <ele>57</ele>
        <time>2018-05-12T08:00:40Z</time>
      </trkpt>
      <trkpt lat="47.54169" lon="-2.94514">
        <ele>56</ele>
        <time>2018-05-12T08:00:43Z</time>
      </trkpt>
      <trkpt lat="47.54173" lon="-2.94507">
        <ele>57</ele>
        <time>2018-05-12T08:00:46Z</time>
      </trkpt>
      <trkpt lat="47.54174" lon="-2.94504">
        <ele>57</ele>
        <time>2018-05-12T08:00:47Z</time>
      </trkpt>
      <trkpt lat="47.54178" lon="-2.94499">
        <ele>59</ele>
        <time>2018-05-12T08:00:49Z</time>
      </trkpt>
      <trkpt lat="47.54182" lon="-2.94494">
        <ele>57</ele>
        <time>2018-05-12T08:00:54Z</time>
      </trkpt>
      <trkpt lat="47.54185" lon="-2.94491">
        <ele>57</ele>
        <time>2018-05-12T08:00:56Z</time>
      </trkpt>
      <trkpt lat="47.54188" lon="-2.94488">
        <ele>56</ele>
        <time>2018-05-12T08:00:58Z</time>
      </trkpt>
      <trkpt lat="47.54192" lon="-2.94482">
        <ele>57</ele>
        <time>2018-05-12T08:01:01Z</time>
      </trkpt>
      <trkpt lat="47.54194" lon="-2.94479">
        <ele>59</ele>
        <time>2018-05-12T08:01:03Z</time>
      </trkpt>
      <trkpt lat="47.54196" lon="-2.94473">
        <ele>61</ele>
        <time>2018-05-12T08:01:06Z</time>
      </trkpt>
      <trkpt lat="47.542" lon="-2.94468">
        <ele>60</ele>
        <time>2018-05-12T08:01:10Z</time>
      </trkpt>
      <trkpt lat="47.54205" lon="-2.94465">
        <ele>60</ele>
        <time>2018-05-12T08:01:15Z</time>
      </trkpt>
      <trkpt lat="47.54207" lon="-2.94462">
        <ele>59</ele>
        <time>2018-05-12T08:01:17Z</time>
      </trkpt>
      <trkpt lat="47.5421" lon="-2.9446">
        <ele>59</ele>
        <time>2018-05-12T08:01:19Z</time>
      </trkpt>
      <trkpt lat="47.54214" lon="-2.94455">
        <ele>60</ele>
        <time>2018-05-12T08:01:23Z</time>
      </trkpt>
      <trkpt lat="47.54218" lon="-2.94449">
        <ele>60</ele>
        <time>2018-05-12T08:01:26Z</time>
      </trkpt>
      <trkpt lat="47.54224" lon="-2.94445">
        <ele>58</ele>
        <time>2018-05-12T08:01:29Z</time>
      </trkpt>
      <trkpt lat="47.54228" lon="-2.94441">
        <ele>57</ele>
        <time>2018-05-12T08:01:32Z</time>
      </trkpt>
      <trkpt lat="47.54232" lon="-2.94436">
        <ele>58</ele>
        <time>2018-05-12T08:01:35Z</time>
      </trkpt>
      <trkpt lat="47.54236" lon="-2.94431">
        <ele>59</ele>
        <time>2018-05-12T08:01:38Z</time>
      </trkpt>
      <trkpt lat="47.54241" lon="-2.94426">
        <ele>60</ele>
        <time>2018-05-12T08:01:41Z</time>
      </trkpt>
      <trkpt lat="47.54245" lon="-2.94421">
        <ele>60</ele>
        <time>2018-05-12T08:01:44Z</time>
      </trkpt>
      <trkpt lat="47.54251" lon="-2.94416">
        <ele>60</ele>
        <time>2018-05-12T08:01:47Z</time>
      </trkpt>
      <trkpt lat="47.54254" lon="-2.94413">
        <ele>60</ele>
        <time>2018-05-12T08:01:49Z</time>
      </trkpt>
      <trkpt lat="47.54257" lon="-2.94409">
        <ele>58</ele>
        <time>2018-05-12T08:01:52Z</time>
      </trkpt>
      <trkpt lat="47.5426" lon="-2.94406">
        <ele>59</ele>
        <time>2018-05-12T08:01:54Z</time>
      </trkpt>
      <trkpt lat="47.54263" lon="-2.94403">
        <ele>60</ele>
        <time>2018-05-12T08:01:56Z</time>
      </trkpt>
      <trkpt lat="47.54266" lon="-2.944">
        <ele>60</ele>
        <time>2018-05-12T08:01:58Z</time>
      </trkpt>
      <trkpt lat="47.54269" lon="-2.94397">
        <ele>60</ele>
        <time>2018-05-12T08:02:00Z</time>
      </trkpt>
      <trkpt lat="47.54274" lon="-2.94392">
        <ele>60</ele>
        <time>2018-05-12T08:02:03Z</time>
      </trkpt>
      <trkpt lat="47.54279" lon="-2.94389">
        <ele>60</ele>
        <time>2018-05-12T08:02:06Z</time>
      </trkpt>
      <trkpt lat="47.54284" lon="-2.94384">
        <ele>60</ele>
        <time>2018-05-12T08:02:09Z</time>
      </trkpt>
      <trkpt lat="47.54288" lon="-2.94381">
        <ele>60</ele>
        <time>2018-05-12T08:02:11Z</time>
      </trkpt>
      <trkpt lat="47.54291" lon="-2.94377">
        <ele>61</ele>
        <time>2018-05-12T08:02:13Z</time>
      </trkpt>
      <trkpt lat="47.54293" lon="-2.94374">
        <ele>60</ele>
        <time>2018-05-12T08:02:15Z</time>
      </trkpt>
      <trkpt lat="47.54297" lon="-2.94369">
        <ele>61</ele>
        <time>2018-05-12T08:02:18Z</time>
      </trkpt>
      <trkpt lat="47.54301" lon="-2.94363">
        <ele>62</ele>
        <time>2018-05-12T08:02:21Z</time>
      </trkpt>
      <trkpt lat="47.54306" lon="-2.94358">
        <ele>63</ele>
        <time>2018-05-12T08:02:24Z</time>
      </trkpt>
      <trkpt lat="47.54311" lon="-2.94354">
        <ele>64</ele>
        <time>2018-05-12T08:02:27Z</time>
      </trkpt>
      <trkpt lat="47.54316" lon="-2.9435">
        <ele>63</ele>
        <time>2018-05-12T08:02:30Z</time>
      </trkpt>
      <trkpt lat="47.54318" lon="-2.94348">
        <ele>62</ele>
        <time>2018-05-12T08:02:32Z</time>
      </trkpt>
      <trkpt lat="47.54322" lon="-2.94345">
        <ele>61</ele>
        <time>2018-05-12T08:02:34Z</time>
      </trkpt>
      <trkpt lat="47.54326" lon="-2.94341">
        <ele>59</ele>
        <time>2018-05-12T08:02:37Z</time>
      </trkpt>
      <trkpt lat="47.5433" lon="-2.94335">
        <ele>59</ele>
        <time>2018-05-12T08:02:40Z</time>
      </trkpt>
      <trkpt lat="47.54333" lon="-2.94331">
        <ele>59</ele>
        <time>2018-05-12T08:02:42Z</time>
      </trkpt>
      <trkpt lat="47.54336" lon="-2.94328">
        <ele>59</ele>
        <time>2018-05-12T08:02:44Z</time>
      </trkpt>
      <trkpt lat="47.54339" lon="-2.94325">
        <ele>58</ele>
        <time>2018-05-12T08:02:46Z</time>
      </trkpt>
      <trkpt lat="47.54343" lon="-2.9432">
        <ele>59</ele>
        <time>2018-05-12T08:02:49Z</time>
      </trkpt>
      <trkpt lat="47.54348" lon="-2.94316">
        <ele>58</ele>
        <time>2018-05-12T08:02:52Z</time>
      </trkpt>
      <trkpt lat="47.54352" lon="-2.9431">
        <ele>60</ele>
        <time>2018-05-12T08:02:55Z</time>
      </trkpt>
      <trkpt lat="47.54356" lon="-2.94306">
        <ele>60</ele>
        <time>2018-05-12T08:02:58Z</time>
      </trkpt>
      <trkpt lat="47.54362" lon="-2.94302">
        <ele>63</ele>
        <time>2018-05-12T08:03:01Z</time>
      </trkpt>
      <trkpt lat="47.54365" lon="-2.94299">
        <ele>64</ele>
        <time>2018-05-12T08:03:03Z</time>
      </trkpt>
      <trkpt lat="47.54367" lon="-2.94296">
        <ele>65</ele>
        <time>2018-05-12T08:03:05Z</time>
      </trkpt>
      <trkpt lat="47.5437" lon="-2.94292">
        <ele>63</ele>
        <time>2018-05-12T08:03:08Z</time>
      </trkpt>
      <trkpt lat="47.54373" lon="-2.94289">
        <ele>64</ele>
        <time>2018-05-12T08:03:10Z</time>
      </trkpt>
      <trkpt lat="47.54378" lon="-2.94285">
        <ele>64</ele>
        <time>2018-05-12T08:03:14Z</time>
      </trkpt>
      <trkpt lat="47.54383" lon="-2.94282">
        <ele>62</ele>
        <time>2018-05-12T08:03:17Z</time>
      </trkpt>
      <trkpt lat="47.54388" lon="-2.94276">
        <ele>62</ele>
        <time>2018-05-12T08:03:20Z</time>
      </trkpt>
      <trkpt lat="47.54392" lon="-2.94272">
        <ele>62</ele>
        <time>2018-05-12T08:03:23Z</time>
      </trkpt>
      <trkpt lat="47.54396" lon="-2.94268">
        <ele>62</ele>
        <time>2018-05-12T08:03:26Z</time>
      </trkpt>
      <trkpt lat="47.54401" lon="-2.94262">
        <ele>62</ele>
        <time>2018-05-12T08:03:30Z</time>
      </trkpt>
      <trkpt lat="47.54405" lon="-2.94258">
        <ele>62</ele>
        <time>2018-05-12T08:03:33Z</time>
      </trkpt>
      <trkpt lat="47.5441" lon="-2.94254">
        <ele>60</ele>
        <time>2018-05-12T08:03:36Z</time>
      </trkpt>
      <trkpt lat="47.54414" lon="-2.94248">
        <ele>60</ele>
        <time>2018-05-12T08:03:39Z</time>
      </trkpt>
      <trkpt lat="47.54417" lon="-2.94243">
        <ele>60</ele>
        <time>2018-05-12T08:03:42Z</time>
      </trkpt>
      <trkpt lat="47.54421" lon="-2.94239">
        <ele>61</ele>
        <time>2018-05-12T08:03:44Z</time>
      </trkpt>
      <trkpt lat="47.54423" lon="-2.94236">
        <ele>61</ele>
        <time>2018-05-12T08:03:46Z</time>
      </trkpt>
      <trkpt lat="47.54427" lon="-2.94232">
        <ele>59</ele>
        <time>2018-05-12T08:03:49Z</time>
      </trkpt>
      <trkpt lat="47.5443" lon="-2.94227">
        <ele>63</ele>
        <time>2018-05-12T08:03:52Z</time>
      </trkpt>
      <trkpt lat="47.54434" lon="-2.94221">
        <ele>64</ele>
        <time>2018-05-12T08:03:55Z</time>
      </trkpt>
      <trkpt lat="47.54438" lon="-2.94217">
        <ele>63</ele>
        <time>2018-05-12T08:03:58Z</time>
      </trkpt>
      <trkpt lat="47.5444" lon="-2.94215">
        <ele>63</ele>
        <time>2018-05-12T08:04:00Z</time>
      </trkpt>
      <trkpt lat="47.54444" lon="-2.9421">
        <ele>64</ele>
        <time>2018-05-12T08:04:03Z</time>
      </trkpt>
      <trkpt lat="47.54447" lon="-2.94207">
        <ele>65</ele>
        <time>2018-05-12T08:04:05Z</time>
      </trkpt>
      <trkpt lat="47.54449" lon="-2.94204">
        <ele>64</ele>
        <time>2018-05-12T08:04:07Z</time>
      </trkpt>
      <trkpt lat="47.54454" lon="-2.94199">
        <ele>64</ele>
        <time>2018-05-12T08:04:10Z</time>
      </trkpt>
      <trkpt lat="47.54458" lon="-2.94194">
        <ele>63</ele>
        <time>2018-05-12T08:04:13Z</time>
      </trkpt>
      <trkpt lat="47.54461" lon="-2.94191">
        <ele>63</ele>
        <time>2018-05-12T08:04:15Z</time>
      </trkpt>
      <trkpt lat="47.54466" lon="-2.94186">
        <ele>63</ele>
        <time>2018-05-12T08:04:18Z</time>
      </trkpt>
      <trkpt lat="47.54471" lon="-2.94181">
        <ele>62</ele>
        <time>2018-05-12T08:04:21Z</time>
      </trkpt>
      <trkpt lat="47.54474" lon="-2.94177">
        <ele>62</ele>
        <time>2018-05-12T08:04:23Z</time>
      </trkpt>
      <trkpt lat="47.54477" lon="-2.94174">
        <ele>62</ele>
        <time>2018-05-12T08:04:25Z</time>
      </trkpt>
      <trkpt lat="47.54479" lon="-2.94171">
        <ele>62</ele>
        <time>2018-05-12T08:04:27Z</time>
      </trkpt>
      <trkpt lat="47.54482" lon="-2.94169">
        <ele>61</ele>
        <time>2018-05-12T08:04:29Z</time>
      </trkpt>
      <trkpt lat="47.54485" lon="-2.94165">
        <ele>61</ele>
        <time>2018-05-12T08:04:31Z</time>
      </trkpt>
      <trkpt lat="47.54487" lon="-2.94162">
        <ele>61</ele>
        <time>2018-05-12T08:04:33Z</time>
      </trkpt>
      <trkpt lat="47.54491" lon="-2.94157">
        <ele>61</ele>
        <time>2018-05-12T08:04:36Z</time>
      </trkpt>
      <trkpt lat="47.54494" lon="-2.94154">
        <ele>61</ele>
        <time>2018-05-12T08:04:38Z</time>
      </trkpt>
      <trkpt lat="47.54497" lon="-2.94151">
        <ele>61</ele>
        <time>2018-05-12T08:04:40Z</time>
      </trkpt>
      <trkpt lat="47.545" lon="-2.94147">
        <ele>60</ele>
        <time>2018-05-12T08:04:42Z</time>
      </trkpt>
      <trkpt lat="47.54502" lon="-2.94143">
        <ele>60</ele>
        <time>2018-05-12T08:04:44Z</time>
      </trkpt>
      <trkpt lat="47.54505" lon="-2.9414">
        <ele>60</ele>
        <time>2018-05-12T08:04:46Z</time>
      </trkpt>
      <trkpt lat="47.54507" lon="-2.94137">
        <ele>59</ele>
        <time>2018-05-12T08:04:48Z</time>
      </trkpt>
      <trkpt lat="47.5451" lon="-2.94133">
        <ele>58</ele>
        <time>2018-05-12T08:04:50Z</time>
      </trkpt>
      <trkpt lat="47.54513" lon="-2.94129">
        <ele>58</ele>
        <time>2018-05-12T08:04:52Z</time>
      </trkpt>
      <trkpt lat="47.54516" lon="-2.94126">
        <ele>58</ele>
        <time>2018-05-12T08:04:54Z</time>
      </trkpt>
      <trkpt lat="47.54519" lon="-2.94122">
        <ele>58</ele>
        <time>2018-05-12T08:04:56Z</time>
      </trkpt>
      <trkpt lat="47.54523" lon="-2.94117">
        <ele>58</ele>
        <time>2018-05-12T08:04:59Z</time>
      </trkpt>
      <trkpt lat="47.54526" lon="-2.94113">
        <ele>57</ele>
        <time>2018-05-12T08:05:01Z</time>
      </trkpt>
      <trkpt lat="47.54529" lon="-2.94108">
        <ele>57</ele>
        <time>2018-05-12T08:05:03Z</time>
      </trkpt>
      <trkpt lat="47.54533" lon="-2.94103">
        <ele>56</ele>
        <time>2018-05-12T08:05:06Z</time>
      </trkpt>
      <trkpt lat="47.54536" lon="-2.941">
        <ele>56</ele>
        <time>2018-05-12T08:05:08Z</time>
      </trkpt>
      <trkpt lat="47.54538" lon="-2.94097">
        <ele>55</ele>
        <time>2018-05-12T08:05:10Z</time>
      </trkpt>
      <trkpt lat="47.54541" lon="-2.94094">
        <ele>55</ele>
        <time>2018-05-12T08:05:12Z</time>
      </trkpt>
      <trkpt lat="47.54544" lon="-2.94091">
        <ele>55</ele>
        <time>2018-05-12T08:05:14Z</time>
      </trkpt>
      <trkpt lat="47.54548" lon="-2.94086">
        <ele>54</ele>
        <time>2018-05-12T08:05:17Z</time>
      </trkpt>
      <trkpt lat="47.5455" lon="-2.94082">
        <ele>55</ele>
        <time>2018-05-12T08:05:19Z</time>
      </trkpt>
      <trkpt lat="47.54554" lon="-2.94077">
        <ele>54</ele>
        <time>2018-05-12T08:05:22Z</time>
      </trkpt>
      <trkpt lat="47.54556" lon="-2.94073">
        <ele>54</ele>
        <time>2018-05-12T08:05:24Z</time>
      </trkpt>
      <trkpt lat="47.5456" lon="-2.94068">
        <ele>54</ele>
        <time>2018-05-12T08:05:27Z</time>
      </trkpt>
      <trkpt lat="47.54563" lon="-2.94065">
        <ele>54</ele>
        <time>2018-05-12T08:05:29Z</time>
      </trkpt>
      <trkpt lat="47.54566" lon="-2.94061">
        <ele>55</ele>
        <time>2018-05-12T08:05:31Z</time>
      </trkpt>
      <trkpt lat="47.54569" lon="-2.94058">
        <ele>55</ele>
        <time>2018-05-12T08:05:33Z</time>
      </trkpt>
      <trkpt lat="47.54572" lon="-2.94055">
        <ele>55</ele>
        <time>2018-05-12T08:05:35Z</time>
      </trkpt>
      <trkpt lat="47.54575" lon="-2.94051">
        <ele>56</ele>
        <time>2018-05-12T08:05:37Z</time>
      </trkpt>
      <trkpt lat="47.54578" lon="-2.94048">
        <ele>55</ele>
        <time>2018-05-12T08:05:39Z</time>
      </trkpt>
      <trkpt lat="47.54581" lon="-2.94046">
        <ele>55</ele>
        <time>2018-05-12T08:05:41Z</time>
      </trkpt>
      <trkpt lat="47.54584" lon="-2.94043">
        <ele>55</ele>
        <time>2018-05-12T08:05:43Z</time>
      </trkpt>
      <trkpt lat="47.54587" lon="-2.9404">
        <ele>56</ele>
        <time>2018-05-12T08:05:45Z</time>
      </trkpt>
      <trkpt lat="47.5459" lon="-2.94036">
        <ele>56</ele>
        <time>2018-05-12T08:05:47Z</time>
      </trkpt>
      <trkpt lat="47.54593" lon="-2.94032">
        <ele>56</ele>
        <time>2018-05-12T08:05:49Z</time>
      </trkpt>
      <trkpt lat="47.54596" lon="-2.94029">
        <ele>56</ele>
        <time>2018-05-12T08:05:51Z</time>
      </trkpt>
      <trkpt lat="47.54599" lon="-2.94025">
        <ele>56</ele>
        <time>2018-05-12T08:05:53Z</time>
      </trkpt>
      <trkpt lat="47.54602" lon="-2.94022">
        <ele>55</ele>
        <time>2018-05-12T08:05:55Z</time>
      </trkpt>
      <trkpt lat="47.54604" lon="-2.94019">
        <ele>54</ele>
        <time>2018-05-12T08:05:57Z</time>
      </trkpt>
      <trkpt lat="47.54607" lon="-2.94016">
        <ele>54</ele>
        <time>2018-05-12T08:05:59Z</time>
      </trkpt>
      <trkpt lat="47.5461" lon="-2.94013">
        <ele>54</ele>
        <time>2018-05-12T08:06:01Z</time>
      </trkpt>
      <trkpt lat="47.54612" lon="-2.9401">
        <ele>54</ele>
        <time>2018-05-12T08:06:03Z</time>
      </trkpt>
      <trkpt lat="47.54617" lon="-2.94004">
        <ele>54</ele>
        <time>2018-05-12T08:06:06Z</time>
      </trkpt>
      <trkpt lat="47.54621" lon="-2.93999">
        <ele>54</ele>
        <time>2018-05-12T08:06:09Z</time>
      </trkpt>
      <trkpt lat="47.54624" lon="-2.93996">
        <ele>54</ele>
        <time>2018-05-12T08:06:11Z</time>
      </trkpt>
      <trkpt lat="47.54629" lon="-2.9399">
        <ele>54</ele>
        <time>2018-05-12T08:06:14Z</time>
      </trkpt>
      <trkpt lat="47.54633" lon="-2.93985">
        <ele>52</ele>
        <time>2018-05-12T08:06:17Z</time>
      </trkpt>
      <trkpt lat="47.54638" lon="-2.9398">
        <ele>51</ele>
        <time>2018-05-12T08:06:21Z</time>
      </trkpt>
      <trkpt lat="47.5464" lon="-2.93978">
        <ele>49</ele>
        <time>2018-05-12T08:06:23Z</time>
      </trkpt>
      <trkpt lat="47.54644" lon="-2.93973">
        <ele>49</ele>
        <time>2018-05-12T08:06:26Z</time>
      </trkpt>
      <trkpt lat="47.54647" lon="-2.9397">
        <ele>49</ele>
        <time>2018-05-12T08:06:28Z</time>
      </trkpt>
      <trkpt lat="47.54649" lon="-2.93964">
        <ele>51</ele>
        <time>2018-05-12T08:06:31Z</time>
      </trkpt>
      <trkpt lat="47.54653" lon="-2.93957">
        <ele>52</ele>
        <time>2018-05-12T08:06:34Z</time>
      </trkpt>
      <trkpt lat="47.54656" lon="-2.93953">
        <ele>52</ele>
        <time>2018-05-12T08:06:36Z</time>
      </trkpt>
      <trkpt lat="47.54659" lon="-2.93949">
        <ele>52</ele>
        <time>2018-05-12T08:06:38Z</time>
      </trkpt>
      <trkpt lat="47.54663" lon="-2.93946">
        <ele>51</ele>
        <time>2018-05-12T08:06:41Z</time>
      </trkpt>
      <trkpt lat="47.54667" lon="-2.93942">
        <ele>51</ele>
        <time>2018-05-12T08:06:44Z</time>
      </trkpt>
      <trkpt lat="47.54671" lon="-2.93936">
        <ele>49</ele>
        <time>2018-05-12T08:06:47Z</time>
      </trkpt>
      <trkpt lat="47.54673" lon="-2.93933">
        <ele>50</ele>
        <time>2018-05-12T08:06:49Z</time>
      </trkpt>
      <trkpt lat="47.54678" lon="-2.93928">
        <ele>50</ele>
        <time>2018-05-12T08:06:52Z</time>
      </trkpt>
      <trkpt lat="47.54681" lon="-2.93925">
        <ele>50</ele>
        <time>2018-05-12T08:06:54Z</time>
      </trkpt>
      <trkpt lat="47.54683" lon="-2.93923">
        <ele>51</ele>
        <time>2018-05-12T08:06:55Z</time>
      </trkpt>
      <trkpt lat="47.54685" lon="-2.93919">
        <ele>50</ele>
        <time>2018-05-12T08:06:57Z</time>
      </trkpt>
      <trkpt lat="47.54689" lon="-2.93916">
        <ele>51</ele>
        <time>2018-05-12T08:06:59Z</time>
      </trkpt>
      <trkpt lat="47.54693" lon="-2.93909">
        <ele>51</ele>
        <time>2018-05-12T08:07:02Z</time>
      </trkpt>
      <trkpt lat="47.54696" lon="-2.93906">
        <ele>50</ele>
        <time>2018-05-12T08:07:04Z</time>
      </trkpt>
      <trkpt lat="47.54698" lon="-2.93901">
        <ele>51</ele>
        <time>2018-05-12T08:07:06Z</time>
      </trkpt>
      <trkpt lat="47.54701" lon="-2.93898">
        <ele>50</ele>
        <time>2018-05-12T08:07:08Z</time>
      </trkpt>
      <trkpt lat="47.54703" lon="-2.93894">
        <ele>48</ele>
        <time>2018-05-12T08:07:10Z</time>
      </trkpt>
      <trkpt lat="47.54705" lon="-2.9389">
        <ele>49</ele>
        <time>2018-05-12T08:07:12Z</time>
      </trkpt>
      <trkpt lat="47.54709" lon="-2.93885">
        <ele>49</ele>
        <time>2018-05-12T08:07:15Z</time>
      </trkpt>
      <trkpt lat="47.54712" lon="-2.9388">
        <ele>50</ele>
        <time>2018-05-12T08:07:17Z</time>
      </trkpt>
      <trkpt lat="47.54716" lon="-2.93876">
        <ele>51</ele>
        <time>2018-05-12T08:07:20Z</time>
      </trkpt>
      <trkpt lat="47.54718" lon="-2.93873">
        <ele>49</ele>
        <time>2018-05-12T08:07:22Z</time>
      </trkpt>
      <trkpt lat="47.54721" lon="-2.93867">
        <ele>49</ele>
        <time>2018-05-12T08:07:25Z</time>
      </trkpt>
      <trkpt lat="47.54726" lon="-2.93862">
        <ele>49</ele>
        <time>2018-05-12T08:07:28Z</time>
      </trkpt>
      <trkpt lat="47.5473" lon="-2.93856">
        <ele>49</ele>
        <time>2018-05-12T08:07:31Z</time>
      </trkpt>
      <trkpt lat="47.54734" lon="-2.93854">
        <ele>47</ele>
        <time>2018-05-12T08:07:33Z</time>
      </trkpt>
      <trkpt lat="47.54737" lon="-2.93847">
        <ele>48</ele>
        <time>2018-05-12T08:07:36Z</time>
      </trkpt>
      <trkpt lat="47.54739" lon="-2.93842">
        <ele>49</ele>
        <time>2018-05-12T08:07:38Z</time>
      </trkpt>
      <trkpt lat="47.54741" lon="-2.93838">
        <ele>52</ele>
        <time>2018-05-12T08:07:40Z</time>
      </trkpt>
      <trkpt lat="47.54745" lon="-2.93833">
        <ele>50</ele>
        <time>2018-05-12T08:07:44Z</time>
      </trkpt>
      <trkpt lat="47.54748" lon="-2.93826">
        <ele>52</ele>
        <time>2018-05-12T08:07:48Z</time>
      </trkpt>
      <trkpt lat="47.54753" lon="-2.93821">
        <ele>53</ele>
        <time>2018-05-12T08:07:53Z</time>
      </trkpt>
      <trkpt lat="47.54757" lon="-2.93816">
        <ele>52</ele>
        <time>2018-05-12T08:07:57Z</time>
      </trkpt>
      <trkpt lat="47.54761" lon="-2.93811">
        <ele>52</ele>
        <time>2018-05-12T08:08:01Z</time>
      </trkpt>
      <trkpt lat="47.54762" lon="-2.93809">
        <ele>53</ele>
        <time>2018-05-12T08:08:03Z</time>
      </trkpt>
      <trkpt lat="47.54765" lon="-2.93802">
        <ele>51</ele>
        <time>2018-05-12T08:08:08Z</time>
      </trkpt>
      <trkpt lat="47.5477" lon="-2.93797">
        <ele>51</ele>
        <time>2018-05-12T08:08:12Z</time>
      </trkpt>
      <trkpt lat="47.54773" lon="-2.9379">
        <ele>54</ele>
        <time>2018-05-12T08:08:16Z</time>
      </trkpt>
      <trkpt lat="47.54774" lon="-2.93787">
        <ele>53</ele>
        <time>2018-05-12T08:08:18Z</time>
      </trkpt>
      <trkpt lat="47.54776" lon="-2.93784">
        <ele>52</ele>
        <time>2018-05-12T08:08:21Z</time>
      </trkpt>
      <trkpt lat="47.54781" lon="-2.93779">
        <ele>54</ele>
        <time>2018-05-12T08:08:25Z</time>
      </trkpt>
      <trkpt lat="47.54784" lon="-2.93774">
        <ele>55</ele>
        <time>2018-05-12T08:08:30Z</time>
      </trkpt>
      <trkpt lat="47.54785" lon="-2.93771">
        <ele>55</ele>
        <time>2018-05-12T08:08:33Z</time>
      </trkpt>
      <trkpt lat="47.54788" lon="-2.93768">
        <ele>55</ele>
        <time>2018-05-12T08:08:35Z</time>
      </trkpt>
      <trkpt lat="47.5479" lon="-2.93765">
        <ele>53</ele>
        <time>2018-05-12T08:08:37Z</time>
      </trkpt>
      <trkpt lat="47.54795" lon="-2.93761">
        <ele>52</ele>
        <time>2018-05-12T08:08:41Z</time>
      </trkpt>
      <trkpt lat="47.548" lon="-2.93758">
        <ele>53</ele>
        <time>2018-05-12T08:08:44Z</time>
      </trkpt>
      <trkpt lat="47.54804" lon="-2.93755">
        <ele>54</ele>
        <time>2018-05-12T08:08:46Z</time>
      </trkpt>
      <trkpt lat="47.54806" lon="-2.93753">
        <ele>55</ele>
        <time>2018-05-12T08:08:47Z</time>
      </trkpt>
      <trkpt lat="47.5481" lon="-2.93747">
        <ele>55</ele>
        <time>2018-05-12T08:08:50Z</time>
      </trkpt>
      <trkpt lat="47.54812" lon="-2.93743">
        <ele>55</ele>
        <time>2018-05-12T08:08:52Z</time>
      </trkpt>
      <trkpt lat="47.54814" lon="-2.9374">
        <ele>53</ele>
        <time>2018-05-12T08:08:54Z</time>
      </trkpt>
      <trkpt lat="47.54817" lon="-2.93735">
        <ele>51</ele>
        <time>2018-05-12T08:08:56Z</time>
      </trkpt>
      <trkpt lat="47.5482" lon="-2.9373">
        <ele>53</ele>
        <time>2018-05-12T08:08:59Z</time>
      </trkpt>
      <trkpt lat="47.54824" lon="-2.93725">
        <ele>53</ele>
        <time>2018-05-12T08:09:03Z</time>
      </trkpt>
      <trkpt lat="47.54826" lon="-2.93722">
        <ele>52</ele>
        <time>2018-05-12T08:09:05Z</time>
      </trkpt>
      <trkpt lat="47.54829" lon="-2.93719">
        <ele>53</ele>
        <time>2018-05-12T08:09:07Z</time>
      </trkpt>
      <trkpt lat="47.54834" lon="-2.93714">
        <ele>52</ele>
        <time>2018-05-12T08:09:11Z</time>
      </trkpt>
      <trkpt lat="47.54838" lon="-2.93708">
        <ele>52</ele>
        <time>2018-05-12T08:09:14Z</time>
      </trkpt>
      <trkpt lat="47.54844" lon="-2.93702">
        <ele>51</ele>
        <time>2018-05-12T08:09:18Z</time>
      </trkpt>
      <trkpt lat="47.54848" lon="-2.93697">
        <ele>54</ele>
        <time>2018-05-12T08:09:20Z</time>
      </trkpt>
      <trkpt lat="47.54849" lon="-2.93695">
        <ele>55</ele>
        <time>2018-05-12T08:09:21Z</time>
      </trkpt>
      <trkpt lat="47.54853" lon="-2.9369">
        <ele>54</ele>
        <time>2018-05-12T08:09:24Z</time>
      </trkpt>
      <trkpt lat="47.54855" lon="-2.93688">
        <ele>53</ele>
        <time>2018-05-12T08:09:26Z</time>
      </trkpt>
      <trkpt lat="47.54858" lon="-2.93685">
        <ele>53</ele>
        <time>2018-05-12T08:09:28Z</time>
      </trkpt>
      <trkpt lat="47.54859" lon="-2.93683">
        <ele>51</ele>
        <time>2018-05-12T08:09:30Z</time>
      </trkpt>
      <trkpt lat="47.54862" lon="-2.93678">
        <ele>51</ele>
        <time>2018-05-12T08:09:34Z</time>
      </trkpt>
      <trkpt lat="47.54866" lon="-2.93671">
        <ele>50</ele>
        <time>2018-05-12T08:09:38Z</time>
      </trkpt>
      <trkpt lat="47.54868" lon="-2.93667">
        <ele>48</ele>
        <time>2018-05-12T08:09:41Z</time>
      </trkpt>
      <trkpt lat="47.54871" lon="-2.93661">
        <ele>49</ele>
        <time>2018-05-12T08:09:44Z</time>
      </trkpt>
      <trkpt lat="47.54873" lon="-2.93657">
        <ele>49</ele>
        <time>2018-05-12T08:09:47Z</time>
      </trkpt>
      <trkpt lat="47.54876" lon="-2.93652">
        <ele>50</ele>
        <time>2018-05-12T08:09:50Z</time>
      </trkpt>
      <trkpt lat="47.54878" lon="-2.93648">
        <ele>50</ele>
        <time>2018-05-12T08:09:52Z</time>
      </trkpt>
      <trkpt lat="47.54882" lon="-2.93643">
        <ele>50</ele>
        <time>2018-05-12T08:09:54Z</time>
      </trkpt>
      <trkpt lat="47.54884" lon="-2.93636">
        <ele>51</ele>
        <time>2018-05-12T08:09:57Z</time>
      </trkpt>
      <trkpt lat="47.54888" lon="-2.93631">
        <ele>50</ele>
        <time>2018-05-12T08:10:01Z</time>
      </trkpt>
      <trkpt lat="47.54893" lon="-2.93622">
        <ele>50</ele>
        <time>2018-05-12T08:10:07Z</time>
      </trkpt>
      <trkpt lat="47.54898" lon="-2.93615">
        <ele>49</ele>
        <time>2018-05-12T08:10:11Z</time>
      </trkpt>
      <trkpt lat="47.549" lon="-2.93611">
        <ele>49</ele>
        <time>2018-05-12T08:10:13Z</time>
      </trkpt>
      <trkpt lat="47.54903" lon="-2.93604">
        <ele>48</ele>
        <time>2018-05-12T08:10:16Z</time>
      </trkpt>
      <trkpt lat="47.5491" lon="-2.93597">
        <ele>50</ele>
        <time>2018-05-12T08:10:21Z</time>
      </trkpt>
      <trkpt lat="47.54914" lon="-2.93592">
        <ele>52</ele>
        <time>2018-05-12T08:10:24Z</time>
      </trkpt>
      <trkpt lat="47.54917" lon="-2.93587">
        <ele>51</ele>
        <time>2018-05-12T08:10:27Z</time>
      </trkpt>
      <trkpt lat="47.5492" lon="-2.93584">
        <ele>50</ele>
        <time>2018-05-12T08:10:29Z</time>
      </trkpt>
      <trkpt lat="47.54922" lon="-2.93581">
        <ele>51</ele>
        <time>2018-05-12T08:10:31Z</time>
      </trkpt>
      <trkpt lat="47.54924" lon="-2.93577">
        <ele>51</ele>
        <time>2018-05-12T08:10:33Z</time>
      </trkpt>
      <trkpt lat="47.54928" lon="-2.9357">
        <ele>52</ele>
        <time>2018-05-12T08:10:36Z</time>
      </trkpt>
      <trkpt lat="47.54932" lon="-2.93565">
        <ele>52</ele>
        <time>2018-05-12T08:10:39Z</time>
      </trkpt>
      <trkpt lat="47.54935" lon="-2.93561">
        <ele>52</ele>
        <time>2018-05-12T08:10:42Z</time>
      </trkpt>
      <trkpt lat="47.54939" lon="-2.93555">
        <ele>51</ele>
        <time>2018-05-12T08:10:46Z</time>
      </trkpt>
      <trkpt lat="47.54941" lon="-2.93552">
        <ele>50</ele>
        <time>2018-05-12T08:10:48Z</time>
      </trkpt>
      <trkpt lat="47.54943" lon="-2.93549">
        <ele>50</ele>
        <time>2018-05-12T08:10:50Z</time>
      </trkpt>
      <trkpt lat="47.54945" lon="-2.93543">
        <ele>51</ele>
        <time>2018-05-12T08:10:53Z</time>
      </trkpt>
      <trkpt lat="47.54949" lon="-2.93536">
        <ele>51</ele>
        <time>2018-05-12T08:10:56Z</time>
      </trkpt>
      <trkpt lat="47.54952" lon="-2.9353">
        <ele>49</ele>
        <time>2018-05-12T08:10:59Z</time>
      </trkpt>
      <trkpt lat="47.54955" lon="-2.93527">
        <ele>51</ele>
        <time>2018-05-12T08:11:01Z</time>
      </trkpt>
      <trkpt lat="47.54957" lon="-2.93522">
        <ele>53</ele>
        <time>2018-05-12T08:11:03Z</time>
      </trkpt>
      <trkpt lat="47.54959" lon="-2.93517">
        <ele>55</ele>
        <time>2018-05-12T08:11:05Z</time>
      </trkpt>
      <trkpt lat="47.54963" lon="-2.93512">
        <ele>56</ele>
        <time>2018-05-12T08:11:08Z</time>
      </trkpt>
      <trkpt lat="47.54967" lon="-2.93507">
        <ele>57</ele>
        <time>2018-05-12T08:11:11Z</time>
      </trkpt>
      <trkpt lat="47.54971" lon="-2.93503">
        <ele>56</ele>
        <time>2018-05-12T08:11:15Z</time>
      </trkpt>
      <trkpt lat="47.54974" lon="-2.93497">
        <ele>55</ele>
        <time>2018-05-12T08:11:18Z</time>
      </trkpt>
      <trkpt lat="47.54979" lon="-2.93491">
        <ele>54</ele>
        <time>2018-05-12T08:11:21Z</time>
      </trkpt>
      <trkpt lat="47.54983" lon="-2.93487">
        <ele>52</ele>
        <time>2018-05-12T08:11:25Z</time>
      </trkpt>
      <trkpt lat="47.54986" lon="-2.93484">
        <ele>53</ele>
        <time>2018-05-12T08:11:27Z</time>
      </trkpt>
      <trkpt lat="47.5499" lon="-2.93478">
        <ele>53</ele>
        <time>2018-05-12T08:11:31Z</time>
      </trkpt>
      <trkpt lat="47.54995" lon="-2.93471">
        <ele>55</ele>
        <time>2018-05-12T08:11:35Z</time>
      </trkpt>
      <trkpt lat="47.54998" lon="-2.93467">
        <ele>55</ele>
        <time>2018-05-12T08:11:37Z</time>
      </trkpt>
      <trkpt lat="47.54999" lon="-2.93464">
        <ele>54</ele>
        <time>2018-05-12T08:11:39Z</time>
      </trkpt>
      <trkpt lat="47.55001" lon="-2.93461">
        <ele>52</ele>
        <time>2018-05-12T08:11:41Z</time>
      </trkpt>
      <trkpt lat="47.55004" lon="-2.93456">
        <ele>53</ele>
        <time>2018-05-12T08:11:43Z</time>
      </trkpt>
      <trkpt lat="47.55008" lon="-2.93452">
        <ele>53</ele>
        <time>2018-05-12T08:11:46Z</time>
      </trkpt>
      <trkpt lat="47.55011" lon="-2.93447">
        <ele>52</ele>
        <time>2018-05-12T08:11:51Z</time>
      </trkpt>
      <trkpt lat="47.55014" lon="-2.93442">
        <ele>53</ele>
        <time>2018-05-12T08:11:54Z</time>
      </trkpt>
      <trkpt lat="47.55019" lon="-2.93437">
        <ele>52</ele>
        <time>2018-05-12T08:11:58Z</time>
      </trkpt>
      <trkpt lat="47.55021" lon="-2.93434">
        <ele>51</ele>
        <time>2018-05-12T08:12:00Z</time>
      </trkpt>
      <trkpt lat="47.55024" lon="-2.93428">
        <ele>52</ele>
        <time>2018-05-12T08:12:02Z</time>
      </trkpt>
      <trkpt lat="47.55027" lon="-2.93422">
        <ele>52</ele>
        <time>2018-05-12T08:12:05Z</time>
      </trkpt>
      <trkpt lat="47.55029" lon="-2.93418">
        <ele>50</ele>
        <time>2018-05-12T08:12:07Z</time>
      </trkpt>
      <trkpt lat="47.55031" lon="-2.93416">
        <ele>49</ele>
        <time>2018-05-12T08:12:09Z</time>
      </trkpt>
      <trkpt lat="47.55032" lon="-2.93413">
        <ele>50</ele>
        <time>2018-05-12T08:12:10Z</time>
      </trkpt>
      <trkpt lat="47.55036" lon="-2.93408">
        <ele>49</ele>
        <time>2018-05-12T08:12:13Z</time>
      </trkpt>
      <trkpt lat="47.55038" lon="-2.93404">
        <ele>49</ele>
        <time>2018-05-12T08:12:15Z</time>
      </trkpt>
      <trkpt lat="47.55042" lon="-2.93399">
        <ele>50</ele>
        <time>2018-05-12T08:12:18Z</time>
      </trkpt>
      <trkpt lat="47.55045" lon="-2.93392">
        <ele>50</ele>
        <time>2018-05-12T08:12:21Z</time>
      </trkpt>
      <trkpt lat="47.55048" lon="-2.93387">
        <ele>49</ele>
        <time>2018-05-12T08:12:24Z</time>
      </trkpt>
      <trkpt lat="47.5505" lon="-2.93383">
        <ele>52</ele>
        <time>2018-05-12T08:12:26Z</time>
      </trkpt>
      <trkpt lat="47.55054" lon="-2.93378">
        <ele>53</ele>
        <time>2018-05-12T08:12:29Z</time>
      </trkpt>
      <trkpt lat="47.55056" lon="-2.93374">
        <ele>53</ele>
        <time>2018-05-12T08:12:31Z</time>
      </trkpt>
      <trkpt lat="47.55059" lon="-2.93368">
        <ele>55</ele>
        <time>2018-05-12T08:12:34Z</time>
      </trkpt>
      <trkpt lat="47.55062" lon="-2.93363">
        <ele>54</ele>
        <time>2018-05-12T08:12:37Z</time>
      </trkpt>
      <trkpt lat="47.55065" lon="-2.93358">
        <ele>54</ele>
        <time>2018-05-12T08:12:39Z</time>
      </trkpt>
      <trkpt lat="47.55068" lon="-2.93353">
        <ele>55</ele>
        <time>2018-05-12T08:12:42Z</time>
      </trkpt>
      <trkpt lat="47.55069" lon="-2.93351">
        <ele>55</ele>
        <time>2018-05-12T08:12:44Z</time>
      </trkpt>
      <trkpt lat="47.55072" lon="-2.93344">
        <ele>53</ele>
        <time>2018-05-12T08:12:48Z</time>
      </trkpt>
      <trkpt lat="47.55073" lon="-2.93341">
        <ele>52</ele>
        <time>2018-05-12T08:12:50Z</time>
      </trkpt>
      <trkpt lat="47.55077" lon="-2.93336">
        <ele>54</ele>
        <time>2018-05-12T08:12:52Z</time>
      </trkpt>
      <trkpt lat="47.55079" lon="-2.93333">
        <ele>53</ele>
        <time>2018-05-12T08:12:54Z</time>
      </trkpt>
      <trkpt lat="47.55082" lon="-2.93326">
        <ele>56</ele>
        <time>2018-05-12T08:12:57Z</time>
      </trkpt>
      <trkpt lat="47.55086" lon="-2.93321">
        <ele>55</ele>
        <time>2018-05-12T08:13:00Z</time>
      </trkpt>
      <trkpt lat="47.55088" lon="-2.93319">
        <ele>55</ele>
        <time>2018-05-12T08:13:02Z</time>
      </trkpt>
      <trkpt lat="47.55093" lon="-2.93312">
        <ele>54</ele>
        <time>2018-05-12T08:13:06Z</time>
      </trkpt>
      <trkpt lat="47.55097" lon="-2.93306">
        <ele>53</ele>
        <time>2018-05-12T08:13:09Z</time>
      </trkpt>
      <trkpt lat="47.55102" lon="-2.93299">
        <ele>55</ele>
        <time>2018-05-12T08:13:13Z</time>
      </trkpt>
      <trkpt lat="47.55107" lon="-2.93293">
        <ele>57</ele>
        <time>2018-05-12T08:13:16Z</time>
      </trkpt>
      <trkpt lat="47.5511" lon="-2.93287">
        <ele>57</ele>
        <time>2018-05-12T08:13:19Z</time>
      </trkpt>
      <trkpt lat="47.55111" lon="-2.93284">
        <ele>55</ele>
        <time>2018-05-12T08:13:21Z</time>
      </trkpt>
      <trkpt lat="47.55115" lon="-2.93279">
        <ele>54</ele>
        <time>2018-05-12T08:13:25Z</time>
      </trkpt>
      <trkpt lat="47.55117" lon="-2.93273">
        <ele>54</ele>
        <time>2018-05-12T08:13:28Z</time>
      </trkpt>
      <trkpt lat="47.55119" lon="-2.93267">
        <ele>54</ele>
        <time>2018-05-12T08:13:31Z</time>
      </trkpt>
      <trkpt lat="47.5512" lon="-2.93263">
        <ele>54</ele>
        <time>2018-05-12T08:13:33Z</time>
      </trkpt>
      <trkpt lat="47.55122" lon="-2.93259">
        <ele>54</ele>
        <time>2018-05-12T08:13:35Z</time>
      </trkpt>
      <trkpt lat="47.55127" lon="-2.93252">
        <ele>53</ele>
        <time>2018-05-12T08:13:39Z</time>
      </trkpt>
      <trkpt lat="47.55132" lon="-2.93246">
        <ele>52</ele>
        <time>2018-05-12T08:13:43Z</time>
      </trkpt>
      <trkpt lat="47.55136" lon="-2.93241">
        <ele>53</ele>
        <time>2018-05-12T08:13:46Z</time>
      </trkpt>
      <trkpt lat="47.5514" lon="-2.93234">
        <ele>53</ele>
        <time>2018-05-12T08:13:49Z</time>
      </trkpt>
      <trkpt lat="47.55142" lon="-2.93231">
        <ele>54</ele>
        <time>2018-05-12T08:13:51Z</time>
      </trkpt>
      <trkpt lat="47.55144" lon="-2.93227">
        <ele>53</ele>
        <time>2018-05-12T08:13:53Z</time>
      </trkpt>
      <trkpt lat="47.55145" lon="-2.93224">
        <ele>54</ele>
        <time>2018-05-12T08:13:55Z</time>
      </trkpt>
      <trkpt lat="47.55147" lon="-2.93219">
        <ele>54</ele>
        <time>2018-05-12T08:13:57Z</time>
      </trkpt>
      <trkpt lat="47.55151" lon="-2.93212">
        <ele>54</ele>
        <time>2018-05-12T08:14:01Z</time>
      </trkpt>
      <trkpt lat="47.55154" lon="-2.93207">
        <ele>56</ele>
        <time>2018-05-12T08:14:04Z</time>
      </trkpt>
      <trkpt lat="47.55155" lon="-2.93204">
        <ele>55</ele>
        <time>2018-05-12T08:14:06Z</time>
      </trkpt>
      <trkpt lat="47.55158" lon="-2.93196">
        <ele>55</ele>
        <time>2018-05-12T08:14:09Z</time>
      </trkpt>
      <trkpt lat="47.5516" lon="-2.93192">
        <ele>55</ele>
        <time>2018-05-12T08:14:11Z</time>
      </trkpt>
      <trkpt lat="47.55163" lon="-2.93185">
        <ele>53</ele>
        <time>2018-05-12T08:14:14Z</time>
      </trkpt>
      <trkpt lat="47.55164" lon="-2.93181">
        <ele>53</ele>
        <time>2018-05-12T08:14:16Z</time>
      </trkpt>
      <trkpt lat="47.55166" lon="-2.93177">
        <ele>49</ele>
        <time>2018-05-12T08:14:19Z</time>
      </trkpt>
      <trkpt lat="47.55169" lon="-2.93171">
        <ele>47</ele>
        <time>2018-05-12T08:14:22Z</time>
      </trkpt>
      <trkpt lat="47.55172" lon="-2.93167">
        <ele>48</ele>
        <time>2018-05-12T08:14:24Z</time>
      </trkpt>
      <trkpt lat="47.55175" lon="-2.93162">
        <ele>48</ele>
        <time>2018-05-12T08:14:27Z</time>
      </trkpt>
      <trkpt lat="47.55178" lon="-2.93153">
        <ele>49</ele>
        <time>2018-05-12T08:14:30Z</time>
      </trkpt>
      <trkpt lat="47.55181" lon="-2.93147">
        <ele>47</ele>
        <time>2018-05-12T08:14:34Z</time>
      </trkpt>
      <trkpt lat="47.55183" lon="-2.9314">
        <ele>47</ele>
        <time>2018-05-12T08:14:37Z</time>
      </trkpt>
      <trkpt lat="47.55185" lon="-2.93135">
        <ele>47</ele>
        <time>2018-05-12T08:14:39Z</time>
      </trkpt>
      <trkpt lat="47.55187" lon="-2.9313">
        <ele>48</ele>
        <time>2018-05-12T08:14:41Z</time>
      </trkpt>
      <trkpt lat="47.5519" lon="-2.93122">
        <ele>50</ele>
        <time>2018-05-12T08:14:44Z</time>
      </trkpt>
      <trkpt lat="47.55192" lon="-2.93116">
        <ele>51</ele>
        <time>2018-05-12T08:14:47Z</time>
      </trkpt>
      <trkpt lat="47.55195" lon="-2.93109">
        <ele>48</ele>
        <time>2018-05-12T08:14:51Z</time>
      </trkpt>
      <trkpt lat="47.55198" lon="-2.93103">
        <ele>48</ele>
        <time>2018-05-12T08:14:54Z</time>
      </trkpt>
      <trkpt lat="47.55201" lon="-2.93097">
        <ele>47</ele>
        <time>2018-05-12T08:14:57Z</time>
      </trkpt>
      <trkpt lat="47.55204" lon="-2.93089">
        <ele>49</ele>
        <time>2018-05-12T08:15:00Z</time>
      </trkpt>
      <trkpt lat="47.55207" lon="-2.93083">
        <ele>51</ele>
        <time>2018-05-12T08:15:03Z</time>
      </trkpt>
      <trkpt lat="47.55209" lon="-2.9308">
        <ele>51</ele>
        <time>2018-05-12T08:15:05Z</time>
      </trkpt>
      <trkpt lat="47.55211" lon="-2.93073">
        <ele>51</ele>
        <time>2018-05-12T08:15:09Z</time>
      </trkpt>
      <trkpt lat="47.55213" lon="-2.9307">
        <ele>50</ele>
        <time>2018-05-12T08:15:10Z</time>
      </trkpt>
      <trkpt lat="47.55215" lon="-2.93064">
        <ele>51</ele>
        <time>2018-05-12T08:15:12Z</time>
      </trkpt>
      <trkpt lat="47.55219" lon="-2.93057">
        <ele>53</ele>
        <time>2018-05-12T08:15:15Z</time>
      </trkpt>
      <trkpt lat="47.55221" lon="-2.93049">
        <ele>54</ele>
        <time>2018-05-12T08:15:18Z</time>
      </trkpt>
      <trkpt lat="47.55224" lon="-2.93042">
        <ele>52</ele>
        <time>2018-05-12T08:15:22Z</time>
      </trkpt>
      <trkpt lat="47.55226" lon="-2.93034">
        <ele>53</ele>
        <time>2018-05-12T08:15:25Z</time>
      </trkpt>
      <trkpt lat="47.55227" lon="-2.93031">
        <ele>54</ele>
        <time>2018-05-12T08:15:26Z</time>
      </trkpt>
      <trkpt lat="47.55229" lon="-2.93024">
        <ele>54</ele>
        <time>2018-05-12T08:15:29Z</time>
      </trkpt>
      <trkpt lat="47.55231" lon="-2.93016">
        <ele>54</ele>
        <time>2018-05-12T08:15:33Z</time>
      </trkpt>
      <trkpt lat="47.55235" lon="-2.9301">
        <ele>51</ele>
        <time>2018-05-12T08:15:37Z</time>
      </trkpt>
      <trkpt lat="47.55237" lon="-2.93005">
        <ele>49</ele>
        <time>2018-05-12T08:15:40Z</time>
      </trkpt>
      <trkpt lat="47.55239" lon="-2.92996">
        <ele>51</ele>
        <time>2018-05-12T08:15:44Z</time>
      </trkpt>
      <trkpt lat="47.5524" lon="-2.92991">
        <ele>50</ele>
        <time>2018-05-12T08:15:46Z</time>
      </trkpt>
      <trkpt lat="47.55241" lon="-2.92988">
        <ele>50</ele>
        <time>2018-05-12T08:15:48Z</time>
      </trkpt>
      <trkpt lat="47.55243" lon="-2.92983">
        <ele>53</ele>
        <time>2018-05-12T08:15:50Z</time>
      </trkpt>
      <trkpt lat="47.55245" lon="-2.92977">
        <ele>56</ele>
        <time>2018-05-12T08:15:52Z</time>
      </trkpt>
      <trkpt lat="47.55246" lon="-2.9297">
        <ele>57</ele>
        <time>2018-05-12T08:15:55Z</time>
      </trkpt>
      <trkpt lat="47.55249" lon="-2.92963">
        <ele>56</ele>
        <time>2018-05-12T08:15:59Z</time>
      </trkpt>
      <trkpt lat="47.55251" lon="-2.92957">
        <ele>56</ele>
        <time>2018-05-12T08:16:02Z</time>
      </trkpt>
      <trkpt lat="47.55254" lon="-2.9295">
        <ele>54</ele>
        <time>2018-05-12T08:16:07Z</time>
      </trkpt>
      <trkpt lat="47.55256" lon="-2.92945">
        <ele>53</ele>
        <time>2018-05-12T08:16:10Z</time>
      </trkpt>
      <trkpt lat="47.55259" lon="-2.92939">
        <ele>54</ele>
        <time>2018-05-12T08:16:14Z</time>
      </trkpt>
      <trkpt lat="47.5526" lon="-2.92935">
        <ele>53</ele>
        <time>2018-05-12T08:16:16Z</time>
      </trkpt>
      <trkpt lat="47.55262" lon="-2.92931">
        <ele>50</ele>
        <time>2018-05-12T08:16:20Z</time>
      </trkpt>
      <trkpt lat="47.55263" lon="-2.92923">
        <ele>51</ele>
        <time>2018-05-12T08:16:23Z</time>
      </trkpt>
      <trkpt lat="47.55265" lon="-2.92917">
        <ele>51</ele>
        <time>2018-05-12T08:16:27Z</time>
      </trkpt>
      <trkpt lat="47.55267" lon="-2.92908">
        <ele>51</ele>
        <time>2018-05-12T08:16:30Z</time>
      </trkpt>
      <trkpt lat="47.55267" lon="-2.92902">
        <ele>53</ele>
        <time>2018-05-12T08:16:32Z</time>
      </trkpt>
      <trkpt lat="47.55271" lon="-2.92895">
        <ele>54</ele>
        <time>2018-05-12T08:16:35Z</time>
      </trkpt>
      <trkpt lat="47.55273" lon="-2.92892">
        <ele>54</ele>
        <time>2018-05-12T08:16:38Z</time>
      </trkpt>
      <trkpt lat="47.55276" lon="-2.92886">
        <ele>55</ele>
        <time>2018-05-12T08:16:42Z</time>
      </trkpt>
      <trkpt lat="47.55279" lon="-2.92879">
        <ele>54</ele>
        <time>2018-05-12T08:16:47Z</time>
      </trkpt>
      <trkpt lat="47.55281" lon="-2.92873">
        <ele>55</ele>
        <time>2018-05-12T08:16:50Z</time>
      </trkpt>
      <trkpt lat="47.55285" lon="-2.92866">
        <ele>54</ele>
        <time>2018-05-12T08:16:54Z</time>
      </trkpt>
      <trkpt lat="47.55288" lon="-2.92859">
        <ele>54</ele>
        <time>2018-05-12T08:16:58Z</time>
      </trkpt>
      <trkpt lat="47.55292" lon="-2.92854">
        <ele>50</ele>
        <time>2018-05-12T08:17:04Z</time>
      </trkpt>
      <trkpt lat="47.55295" lon="-2.92849">
        <ele>52</ele>
        <time>2018-05-12T08:17:07Z</time>
      </trkpt>
      <trkpt lat="47.55298" lon="-2.92844">
        <ele>54</ele>
        <time>2018-05-12T08:17:09Z</time>
      </trkpt>
      <trkpt lat="47.55302" lon="-2.92839">
        <ele>50</ele>
        <time>2018-05-12T08:17:13Z</time>
      </trkpt>
      <trkpt lat="47.55304" lon="-2.92833">
        <ele>50</ele>
        <time>2018-05-12T08:17:16Z</time>
      </trkpt>
      <trkpt lat="47.55309" lon="-2.9283">
        <ele>50</ele>
        <time>2018-05-12T08:17:19Z</time>
      </trkpt>
      <trkpt lat="47.55312" lon="-2.92825">
        <ele>52</ele>
        <time>2018-05-12T08:17:22Z</time>
      </trkpt>
      <trkpt lat="47.55315" lon="-2.9282">
        <ele>53</ele>
        <time>2018-05-12T08:17:25Z</time>
      </trkpt>
      <trkpt lat="47.55316" lon="-2.92816">
        <ele>50</ele>
        <time>2018-05-12T08:17:28Z</time>
      </trkpt>
      <trkpt lat="47.55319" lon="-2.92811">
        <ele>51</ele>
        <time>2018-05-12T08:17:30Z</time>
      </trkpt>
      <trkpt lat="47.55323" lon="-2.92807">
        <ele>51</ele>
        <time>2018-05-12T08:17:33Z</time>
      </trkpt>
      <trkpt lat="47.55325" lon="-2.92804">
        <ele>51</ele>
        <time>2018-05-12T08:17:35Z</time>
      </trkpt>
      <trkpt lat="47.55329" lon="-2.92799">
        <ele>52</ele>
        <time>2018-05-12T08:17:39Z</time>
      </trkpt>
      <trkpt lat="47.55334" lon="-2.92796">
        <ele>52</ele>
        <time>2018-05-12T08:17:43Z</time>
      </trkpt>
      <trkpt lat="47.55338" lon="-2.92794">
        <ele>51</ele>
        <time>2018-05-12T08:17:46Z</time>
      </trkpt>
      <trkpt lat="47.55341" lon="-2.92792">
        <ele>49</ele>
        <time>2018-05-12T08:17:48Z</time>
      </trkpt>
      <trkpt lat="47.55345" lon="-2.92786">
        <ele>48</ele>
        <time>2018-05-12T08:17:52Z</time>
      </trkpt>
      <trkpt lat="47.5535" lon="-2.92783">
        <ele>45</ele>
        <time>2018-05-12T08:17:57Z</time>
      </trkpt>
      <trkpt lat="47.55354" lon="-2.92779">
        <ele>45</ele>
        <time>2018-05-12T08:18:01Z</time>
      </trkpt>
      <trkpt lat="47.55358" lon="-2.92774">
        <ele>46</ele>
        <time>2018-05-12T08:18:06Z</time>
      </trkpt>
      <trkpt lat="47.55362" lon="-2.9277">
        <ele>47</ele>
        <time>2018-05-12T08:18:10Z</time>
      </trkpt>
      <trkpt lat="47.55365" lon="-2.92767">
        <ele>47</ele>
        <time>2018-05-12T08:18:12Z</time>
      </trkpt>
      <trkpt lat="47.55368" lon="-2.92761">
        <ele>47</ele>
        <time>2018-05-12T08:18:15Z</time>
      </trkpt>
      <trkpt lat="47.55371" lon="-2.92755">
        <ele>49</ele>
        <time>2018-05-12T08:18:19Z</time>
      </trkpt>
      <trkpt lat="47.55377" lon="-2.92752">
        <ele>48</ele>
        <time>2018-05-12T08:18:23Z</time>
      </trkpt>
      <trkpt lat="47.5538" lon="-2.92748">
        <ele>50</ele>
        <time>2018-05-12T08:18:25Z</time>
      </trkpt>
      <trkpt lat="47.55383" lon="-2.92745">
        <ele>48</ele>
        <time>2018-05-12T08:18:27Z</time>
      </trkpt>
      <trkpt lat="47.55387" lon="-2.92741">
        <ele>50</ele>
        <time>2018-05-12T08:18:30Z</time>
      </trkpt>
      <trkpt lat="47.55393" lon="-2.92735">
        <ele>54</ele>
        <time>2018-05-12T08:18:33Z</time>
      </trkpt>
      <trkpt lat="47.55397" lon="-2.92731">
        <ele>54</ele>
        <time>2018-05-12T08:18:36Z</time>
      </trkpt>
      <trkpt lat="47.554" lon="-2.92729">
        <ele>54</ele>
        <time>2018-05-12T08:18:38Z</time>
      </trkpt>
      <trkpt lat="47.55405" lon="-2.92725">
        <ele>55</ele>
        <time>2018-05-12T08:18:41Z</time>
      </trkpt>
      <trkpt lat="47.55409" lon="-2.92721">
        <ele>55</ele>
        <time>2018-05-12T08:18:44Z</time>
      </trkpt>
      <trkpt lat="47.55415" lon="-2.92717">
        <ele>55</ele>
        <time>2018-05-12T08:18:47Z</time>
      </trkpt>
      <trkpt lat="47.55419" lon="-2.92713">
        <ele>54</ele>
        <time>2018-05-12T08:18:50Z</time>
      </trkpt>
      <trkpt lat="47.55423" lon="-2.9271">
        <ele>54</ele>
        <time>2018-05-12T08:18:53Z</time>
      </trkpt>
      <trkpt lat="47.55427" lon="-2.92705">
        <ele>54</ele>
        <time>2018-05-12T08:18:57Z</time>
      </trkpt>
      <trkpt lat="47.5543" lon="-2.92703">
        <ele>53</ele>
        <time>2018-05-12T08:18:59Z</time>
      </trkpt>
      <trkpt lat="47.55433" lon="-2.92698">
        <ele>51</ele>
        <time>2018-05-12T08:19:02Z</time>
      </trkpt>
      <trkpt lat="47.55438" lon="-2.92693">
        <ele>52</ele>
        <time>2018-05-12T08:19:05Z</time>
      </trkpt>
      <trkpt lat="47.5544" lon="-2.9269">
        <ele>53</ele>
        <time>2018-05-12T08:19:07Z</time>
      </trkpt>
      <trkpt lat="47.55447" lon="-2.92687">
        <ele>53</ele>
        <time>2018-05-12T08:19:11Z</time>
      </trkpt>
      <trkpt lat="47.55449" lon="-2.92685">
        <ele>51</ele>
        <time>2018-05-12T08:19:13Z</time>
      </trkpt>
      <trkpt lat="47.55454" lon="-2.92681">
        <ele>50</ele>
        <time>2018-05-12T08:19:17Z</time>
      </trkpt>
      <trkpt lat="47.55459" lon="-2.92678">
        <ele>49</ele>
        <time>2018-05-12T08:19:21Z</time>
      </trkpt>
      <trkpt lat="47.55463" lon="-2.92674">
        <ele>50</ele>
        <time>2018-05-12T08:19:24Z</time>
      </trkpt>
      <trkpt lat="47.55468" lon="-2.92671">
        <ele>52</ele>
        <time>2018-05-12T08:19:26Z</time>
      </trkpt>
      <trkpt lat="47.55471" lon="-2.9267">
        <ele>52</ele>
        <time>2018-05-12T08:19:28Z</time>
      </trkpt>
      <trkpt lat="47.55476" lon="-2.92667">
        <ele>51</ele>
        <time>2018-05-12T08:19:31Z</time>
      </trkpt>
      <trkpt lat="47.55478" lon="-2.92664">
        <ele>52</ele>
        <time>2018-05-12T08:19:33Z</time>
      </trkpt>
      <trkpt lat="47.55483" lon="-2.92658">
        <ele>54</ele>
        <time>2018-05-12T08:19:37Z</time>
      </trkpt>
      <trkpt lat="47.55488" lon="-2.92654">
        <ele>54</ele>
        <time>2018-05-12T08:19:40Z</time>
      </trkpt>
      <trkpt lat="47.55492" lon="-2.92651">
        <ele>57</ele>
        <time>2018-05-12T08:19:43Z</time>
      </trkpt>
      <trkpt lat="47.55495" lon="-2.92648">
        <ele>58</ele>
        <time>2018-05-12T08:19:45Z</time>
      </trkpt>
      <trkpt lat="47.55498" lon="-2.92646">
        <ele>59</ele>
        <time>2018-05-12T08:19:47Z</time>
      </trkpt>
      <trkpt lat="47.55502" lon="-2.92644">
        <ele>60</ele>
        <time>2018-05-12T08:19:50Z</time>
      </trkpt>
      <trkpt lat="47.55506" lon="-2.9264">
        <ele>59</ele>
        <time>2018-05-12T08:19:53Z</time>
      </trkpt>
      <trkpt lat="47.55509" lon="-2.92637">
        <ele>58</ele>
        <time>2018-05-12T08:19:56Z</time>
      </trkpt>
      <trkpt lat="47.55515" lon="-2.92635">
        <ele>57</ele>
        <time>2018-05-12T08:19:59Z</time>
      </trkpt>
      <trkpt lat="47.55518" lon="-2.92634">
        <ele>56</ele>
        <time>2018-05-12T08:20:01Z</time>
      </trkpt>
      <trkpt lat="47.55523" lon="-2.92628">
        <ele>56</ele>
        <time>2018-05-12T08:20:04Z</time>
      </trkpt>
      <trkpt lat="47.55528" lon="-2.92625">
        <ele>56</ele>
        <time>2018-05-12T08:20:07Z</time>
      </trkpt>
      <trkpt lat="47.55532" lon="-2.92621">
        <ele>57</ele>
        <time>2018-05-12T08:20:11Z</time>
      </trkpt>
      <trkpt lat="47.55538" lon="-2.92618">
        <ele>56</ele>
        <time>2018-05-12T08:20:15Z</time>
      </trkpt>
      <trkpt lat="47.55541" lon="-2.92616">
        <ele>56</ele>
        <time>2018-05-12T08:20:17Z</time>
      </trkpt>
      <trkpt lat="47.55547" lon="-2.92611">
        <ele>56</ele>
        <time>2018-05-12T08:20:21Z</time>
      </trkpt>
      <trkpt lat="47.55551" lon="-2.92608">
        <ele>57</ele>
        <time>2018-05-12T08:20:23Z</time>
      </trkpt>
      <trkpt lat="47.55553" lon="-2.92605">
        <ele>59</ele>
        <time>2018-05-12T08:20:25Z</time>
      </trkpt>
      <trkpt lat="47.55556" lon="-2.92602">
        <ele>57</ele>
        <time>2018-05-12T08:20:28Z</time>
      </trkpt>
      <trkpt lat="47.55561" lon="-2.92598">
        <ele>58</ele>
        <time>2018-05-12T08:20:31Z</time>
      </trkpt>
      <trkpt lat="47.55562" lon="-2.92596">
        <ele>56</ele>
        <time>2018-05-12T08:20:33Z</time>
      </trkpt>
      <trkpt lat="47.55566" lon="-2.92593">
        <ele>54</ele>
        <time>2018-05-12T08:20:36Z</time>
      </trkpt>
      <trkpt lat="47.55571" lon="-2.92587">
        <ele>55</ele>
        <time>2018-05-12T08:20:39Z</time>
      </trkpt>
      <trkpt lat="47.55575" lon="-2.92585">
        <ele>53</ele>
        <time>2018-05-12T08:20:42Z</time>
      </trkpt>
      <trkpt lat="47.55579" lon="-2.92582">
        <ele>54</ele>
        <time>2018-05-12T08:20:45Z</time>
      </trkpt>
      <trkpt lat="47.55582" lon="-2.9258">
        <ele>54</ele>
        <time>2018-05-12T08:20:47Z</time>
      </trkpt>
      <trkpt lat="47.55586" lon="-2.92577">
        <ele>54</ele>
        <time>2018-05-12T08:20:49Z</time>
      </trkpt>
      <trkpt lat="47.5559" lon="-2.92575">
        <ele>55</ele>
        <time>2018-05-12T08:20:52Z</time>
      </trkpt>
      <trkpt lat="47.55596" lon="-2.9257">
        <ele>55</ele>
        <time>2018-05-12T08:20:56Z</time>
      </trkpt>
      <trkpt lat="47.556" lon="-2.92565">
        <ele>55</ele>
        <time>2018-05-12T08:21:00Z</time>
      </trkpt>
      <trkpt lat="47.55604" lon="-2.92561">
        <ele>55</ele>
        <time>2018-05-12T08:21:04Z</time>
      </trkpt>
      <trkpt lat="47.55607" lon="-2.92556">
        <ele>54</ele>
        <time>2018-05-12T08:21:08Z</time>
      </trkpt>
      <trkpt lat="47.55608" lon="-2.92553">
        <ele>54</ele>
        <time>2018-05-12T08:21:10Z</time>
      </trkpt>
      <trkpt lat="47.55611" lon="-2.9255">
        <ele>55</ele>
        <time>2018-05-12T08:21:12Z</time>
      </trkpt>
      <trkpt lat="47.55613" lon="-2.92546">
        <ele>49</ele>
        <time>2018-05-12T08:21:17Z</time>
      </trkpt>
      <trkpt lat="47.55615" lon="-2.92543">
        <ele>50</ele>
        <time>2018-05-12T08:21:18Z</time>
      </trkpt>
      <trkpt lat="47.55621" lon="-2.9254">
        <ele>49</ele>
        <time>2018-05-12T08:21:22Z</time>
      </trkpt>
      <trkpt lat="47.55625" lon="-2.92535">
        <ele>48</ele>
        <time>2018-05-12T08:21:26Z</time>
      </trkpt>
      <trkpt lat="47.55627" lon="-2.92533">
        <ele>47</ele>
        <time>2018-05-12T08:21:28Z</time>
      </trkpt>
      <trkpt lat="47.55633" lon="-2.9253">
        <ele>49</ele>
        <time>2018-05-12T08:21:32Z</time>
      </trkpt>
      <trkpt lat="47.55639" lon="-2.92525">
        <ele>49</ele>
        <time>2018-05-12T08:21:36Z</time>
      </trkpt>
      <trkpt lat="47.55644" lon="-2.92523">
        <ele>49</ele>
        <time>2018-05-12T08:21:39Z</time>
      </trkpt>
      <trkpt lat="47.5565" lon="-2.9252">
        <ele>49</ele>
        <time>2018-05-12T08:21:43Z</time>
      </trkpt>
      <trkpt lat="47.55654" lon="-2.92519">
        <ele>49</ele>
        <time>2018-05-12T08:21:45Z</time>
      </trkpt>
      <trkpt lat="47.55658" lon="-2.92518">
        <ele>48</ele>
        <time>2018-05-12T08:21:48Z</time>
      </trkpt>
      <trkpt lat="47.55663" lon="-2.92515">
        <ele>50</ele>
        <time>2018-05-12T08:21:50Z</time>
      </trkpt>
      <trkpt lat="47.55668" lon="-2.92513">
        <ele>51</ele>
        <time>2018-05-12T08:21:53Z</time>
      </trkpt>
      <trkpt lat="47.55673" lon="-2.92509">
        <ele>47</ele>
        <time>2018-05-12T08:21:58Z</time>
      </trkpt>
      <trkpt lat="47.55678" lon="-2.92504">
        <ele>51</ele>
        <time>2018-05-12T08:22:01Z</time>
      </trkpt>
      <trkpt lat="47.55682" lon="-2.92502">
        <ele>53</ele>
        <time>2018-05-12T08:22:03Z</time>
      </trkpt>
      <trkpt lat="47.55686" lon="-2.925">
        <ele>54</ele>
        <time>2018-05-12T08:22:05Z</time>
      </trkpt>
      <trkpt lat="47.55691" lon="-2.92499">
        <ele>54</ele>
        <time>2018-05-12T08:22:08Z</time>
      </trkpt>
      <trkpt lat="47.55694" lon="-2.92499">
        <ele>54</ele>
        <time>2018-05-12T08:22:09Z</time>
      </trkpt>
      <trkpt lat="47.55697" lon="-2.92498">
        <ele>54</ele>
        <time>2018-05-12T08:22:11Z</time>
      </trkpt>
      <trkpt lat="47.55702" lon="-2.92497">
        <ele>53</ele>
        <time>2018-05-12T08:22:14Z</time>
      </trkpt>
      <trkpt lat="47.55706" lon="-2.92495">
        <ele>53</ele>
        <time>2018-05-12T08:22:16Z</time>
      </trkpt>
      <trkpt lat="47.55708" lon="-2.92494">
        <ele>53</ele>
        <time>2018-05-12T08:22:17Z</time>
      </trkpt>
      <trkpt lat="47.55711" lon="-2.92493">
        <ele>53</ele>
        <time>2018-05-12T08:22:19Z</time>
      </trkpt>
      <trkpt lat="47.55714" lon="-2.92492">
        <ele>55</ele>
        <time>2018-05-12T08:22:20Z</time>
      </trkpt>
      <trkpt lat="47.55719" lon="-2.92489">
        <ele>56</ele>
        <time>2018-05-12T08:22:23Z</time>
      </trkpt>
      <trkpt lat="47.55723" lon="-2.92487">
        <ele>56</ele>
        <time>2018-05-12T08:22:25Z</time>
      </trkpt>
      <trkpt lat="47.55728" lon="-2.92484">
        <ele>56</ele>
        <time>2018-05-12T08:22:28Z</time>
      </trkpt>
      <trkpt lat="47.55731" lon="-2.92483">
        <ele>55</ele>
        <time>2018-05-12T08:22:30Z</time>
      </trkpt>
      <trkpt lat="47.55735" lon="-2.92481">
        <ele>55</ele>
        <time>2018-05-12T08:22:33Z</time>
      </trkpt>
      <trkpt lat="47.55739" lon="-2.92479">
        <ele>56</ele>
        <time>2018-05-12T08:22:35Z</time>
      </trkpt>
      <trkpt lat="47.55742" lon="-2.92477">
        <ele>57</ele>
        <time>2018-05-12T08:22:37Z</time>
      </trkpt>
      <trkpt lat="47.55747" lon="-2.92472">
        <ele>58</ele>
        <time>2018-05-12T08:22:40Z</time>
      </trkpt>
      <trkpt lat="47.55751" lon="-2.92467">
        <ele>59</ele>
        <time>2018-05-12T08:22:44Z</time>
      </trkpt>
      <trkpt lat="47.55755" lon="-2.92464">
        <ele>59</ele>
        <time>2018-05-12T08:22:47Z</time>
      </trkpt>
      <trkpt lat="47.55759" lon="-2.92461">
        <ele>59</ele>
        <time>2018-05-12T08:22:49Z</time>
      </trkpt>
      <trkpt lat="47.55762" lon="-2.92459">
        <ele>59</ele>
        <time>2018-05-12T08:22:51Z</time>
      </trkpt>
      <trkpt lat="47.55766" lon="-2.92455">
        <ele>57</ele>
        <time>2018-05-12T08:22:54Z</time>
      </trkpt>
      <trkpt lat="47.55771" lon="-2.92452">
        <ele>58</ele>
        <time>2018-05-12T08:22:58Z</time>
      </trkpt>
      <trkpt lat="47.55774" lon="-2.9245">
        <ele>58</ele>
        <time>2018-05-12T08:23:00Z</time>
      </trkpt>
      <trkpt lat="47.55778" lon="-2.92446">
        <ele>58</ele>
        <time>2018-05-12T08:23:03Z</time>
      </trkpt>
      <trkpt lat="47.55782" lon="-2.92443">
        <ele>58</ele>
        <time>2018-05-12T08:23:06Z</time>
      </trkpt>
      <trkpt lat="47.55784" lon="-2.92442">
        <ele>58</ele>
        <time>2018-05-12T08:23:07Z</time>
      </trkpt>
      <trkpt lat="47.55788" lon="-2.92439">
        <ele>57</ele>
        <time>2018-05-12T08:23:09Z</time>
      </trkpt>
      <trkpt lat="47.55792" lon="-2.92439">
        <ele>56</ele>
        <time>2018-05-12T08:23:12Z</time>
      </trkpt>
      <trkpt lat="47.55796" lon="-2.92438">
        <ele>56</ele>
        <time>2018-05-12T08:23:14Z</time>
      </trkpt>
      <trkpt lat="47.55799" lon="-2.92437">
        <ele>56</ele>
        <time>2018-05-12T08:23:16Z</time>
      </trkpt>
      <trkpt lat="47.55804" lon="-2.92435">
        <ele>57</ele>
        <time>2018-05-12T08:23:19Z</time>
      </trkpt>
      <trkpt lat="47.55808" lon="-2.92433">
        <ele>59</ele>
        <time>2018-05-12T08:23:21Z</time>
      </trkpt>
      <trkpt lat="47.55813" lon="-2.9243">
        <ele>58</ele>
        <time>2018-05-12T08:23:24Z</time>
      </trkpt>
      <trkpt lat="47.55816" lon="-2.92427">
        <ele>57</ele>
        <time>2018-05-12T08:23:26Z</time>
      </trkpt>
      <trkpt lat="47.55822" lon="-2.92428">
        <ele>53</ele>
        <time>2018-05-12T08:23:31Z</time>
      </trkpt>
      <trkpt lat="47.55827" lon="-2.92428">
        <ele>54</ele>
        <time>2018-05-12T08:23:34Z</time>
      </trkpt>
      <trkpt lat="47.5583" lon="-2.92428">
        <ele>54</ele>
        <time>2018-05-12T08:23:36Z</time>
      </trkpt>
      <trkpt lat="47.55835" lon="-2.9243">
        <ele>53</ele>
        <time>2018-05-12T08:23:40Z</time>
      </trkpt>
      <trkpt lat="47.5584" lon="-2.92428">
        <ele>52</ele>
        <time>2018-05-12T08:23:43Z</time>
      </trkpt>
      <trkpt lat="47.55842" lon="-2.92428">
        <ele>51</ele>
        <time>2018-05-12T08:23:45Z</time>
      </trkpt>
      <trkpt lat="47.55846" lon="-2.92426">
        <ele>51</ele>
        <time>2018-05-12T08:23:47Z</time>
      </trkpt>
      <trkpt lat="47.55851" lon="-2.92422">
        <ele>52</ele>
        <time>2018-05-12T08:23:50Z</time>
      </trkpt>
      <trkpt lat="47.55856" lon="-2.92419">
        <ele>55</ele>
        <time>2018-05-12T08:23:53Z</time>
      </trkpt>
      <trkpt lat="47.55861" lon="-2.92419">
        <ele>55</ele>
        <time>2018-05-12T08:23:56Z</time>
      </trkpt>
      <trkpt lat="47.55865" lon="-2.92419">
        <ele>53</ele>
        <time>2018-05-12T08:24:00Z</time>
      </trkpt>
      <trkpt lat="47.55874" lon="-2.9242">
        <ele>52</ele>
        <time>2018-05-12T08:24:06Z</time>
      </trkpt>
      <trkpt lat="47.55879" lon="-2.92418">
        <ele>52</ele>
        <time>2018-05-12T08:24:10Z</time>
      </trkpt>
      <trkpt lat="47.55881" lon="-2.92417">
        <ele>52</ele>
        <time>2018-05-12T08:24:12Z</time>
      </trkpt>
      <trkpt lat="47.55884" lon="-2.92416">
        <ele>53</ele>
        <time>2018-05-12T08:24:14Z</time>
      </trkpt>
      <trkpt lat="47.55889" lon="-2.92415">
        <ele>51</ele>
        <time>2018-05-12T08:24:19Z</time>
      </trkpt>
      <trkpt lat="47.55892" lon="-2.92415">
        <ele>51</ele>
        <time>2018-05-12T08:24:21Z</time>
      </trkpt>
      <trkpt lat="47.55896" lon="-2.92414">
        <ele>51</ele>
        <time>2018-05-12T08:24:24Z</time>
      </trkpt>
      <trkpt lat="47.55899" lon="-2.92413">
        <ele>51</ele>
        <time>2018-05-12T08:24:26Z</time>
      </trkpt>
      <trkpt lat="47.55903" lon="-2.9241">
        <ele>51</ele>
        <time>2018-05-12T08:24:30Z</time>
      </trkpt>
      <trkpt lat="47.55906" lon="-2.92404">
        <ele>51</ele>
        <time>2018-05-12T08:24:33Z</time>
      </trkpt>
      <trkpt lat="47.55907" lon="-2.92398">
        <ele>50</ele>
        <time>2018-05-12T08:24:36Z</time>
      </trkpt>
      <trkpt lat="47.5591" lon="-2.92391">
        <ele>49</ele>
        <time>2018-05-12T08:24:40Z</time>
      </trkpt>
      <trkpt lat="47.55912" lon="-2.92385">
        <ele>50</ele>
        <time>2018-05-12T08:24:46Z</time>
      </trkpt>
      <trkpt lat="47.55915" lon="-2.92379">
        <ele>53</ele>
        <time>2018-05-12T08:24:51Z</time>
      </trkpt>
      <trkpt lat="47.55918" lon="-2.92376">
        <ele>55</ele>
        <time>2018-05-12T08:24:54Z</time>
      </trkpt>
      <trkpt lat="47.5592" lon="-2.92372">
        <ele>55</ele>
        <time>2018-05-12T08:24:57Z</time>
      </trkpt>
      <trkpt lat="47.55921" lon="-2.92369">
        <ele>54</ele>
        <time>2018-05-12T08:24:59Z</time>
      </trkpt>
      <trkpt lat="47.55924" lon="-2.92363">
        <ele>55</ele>
        <time>2018-05-12T08:25:04Z</time>
      </trkpt>
      <trkpt lat="47.55926" lon="-2.92359">
        <ele>51</ele>
        <time>2018-05-12T08:25:09Z</time>
      </trkpt>
      <trkpt lat="47.55928" lon="-2.92355">
        <ele>53</ele>
        <time>2018-05-12T08:25:12Z</time>
      </trkpt>
      <trkpt lat="47.55933" lon="-2.92349">
        <ele>55</ele>
        <time>2018-05-12T08:25:16Z</time>
      </trkpt>
      <trkpt lat="47.55935" lon="-2.92343">
        <ele>51</ele>
        <time>2018-05-12T08:25:23Z</time>
      </trkpt>
      <trkpt lat="47.55936" lon="-2.92336">
        <ele>52</ele>
        <time>2018-05-12T08:25:31Z</time>
      </trkpt>
      <trkpt lat="47.55939" lon="-2.9233">
        <ele>53</ele>
        <time>2018-05-12T08:25:37Z</time>
      </trkpt>
      <trkpt lat="47.55941" lon="-2.92326">
        <ele>53</ele>
        <time>2018-05-12T08:25:43Z</time>
      </trkpt>
      <trkpt lat="47.55944" lon="-2.92322">
        <ele>53</ele>
        <time>2018-05-12T08:25:52Z</time>
      </trkpt>
      <trkpt lat="47.55947" lon="-2.92318">
        <ele>55</ele>
        <time>2018-05-12T08:25:57Z</time>
      </trkpt>
      <trkpt lat="47.55953" lon="-2.92315">
        <ele>54</ele>
        <time>2018-05-12T08:26:03Z</time>
      </trkpt>
      <trkpt lat="47.55957" lon="-2.9231">
        <ele>53</ele>
        <time>2018-05-12T08:26:08Z</time>
      </trkpt>
      <trkpt lat="47.55961" lon="-2.92306">
        <ele>54</ele>
        <time>2018-05-12T08:26:12Z</time>
      </trkpt>
      <trkpt lat="47.55965" lon="-2.92303">
        <ele>54</ele>
        <time>2018-05-12T08:26:16Z</time>
      </trkpt>
      <trkpt lat="47.55968" lon="-2.92297">
        <ele>52</ele>
        <time>2018-05-12T08:26:24Z</time>
      </trkpt>
      <trkpt lat="47.5597" lon="-2.92294">
        <ele>52</ele>
        <time>2018-05-12T08:26:27Z</time>
      </trkpt>
      <trkpt lat="47.55971" lon="-2.92291">
        <ele>53</ele>
        <time>2018-05-12T08:26:29Z</time>
      </trkpt>
      <trkpt lat="47.55972" lon="-2.92288">
        <ele>55</ele>
        <time>2018-05-12T08:26:32Z</time>
      </trkpt>
      <trkpt lat="47.55973" lon="-2.92282">
        <ele>52</ele>
        <time>2018-05-12T08:26:38Z</time>
      </trkpt>
      <trkpt lat="47.55977" lon="-2.92277">
        <ele>50</ele>
        <time>2018-05-12T08:26:44Z</time>
      </trkpt>
      <trkpt lat="47.55981" lon="-2.92274">
        <ele>50</ele>
        <time>2018-05-12T08:26:52Z</time>
      </trkpt>
      <trkpt lat="47.55985" lon="-2.92269">
        <ele>49</ele>
        <time>2018-05-12T08:27:00Z</time>
      </trkpt>
      <trkpt lat="47.55989" lon="-2.92265">
        <ele>50</ele>
        <time>2018-05-12T08:27:05Z</time>
      </trkpt>
      <trkpt lat="47.55992" lon="-2.92263">
        <ele>50</ele>
        <time>2018-05-12T08:27:10Z</time>
      </trkpt>
      <trkpt lat="47.55994" lon="-2.9226">
        <ele>49</ele>
        <time>2018-05-12T08:27:13Z</time>
      </trkpt>
      <trkpt lat="47.56" lon="-2.92256">
        <ele>50</ele>
        <time>2018-05-12T08:27:21Z</time>
      </trkpt>
      <trkpt lat="47.56002" lon="-2.92254">
        <ele>49</ele>
        <time>2018-05-12T08:27:25Z</time>
      </trkpt>
      <trkpt lat="47.56007" lon="-2.92251">
        <ele>49</ele>
        <time>2018-05-12T08:27:29Z</time>
      </trkpt>
      <trkpt lat="47.5601" lon="-2.92249">
        <ele>48</ele>
        <time>2018-05-12T08:27:33Z</time>
      </trkpt>
      <trkpt lat="47.56012" lon="-2.92248">
        <ele>47</ele>
        <time>2018-05-12T08:27:36Z</time>
      </trkpt>
      <trkpt lat="47.56015" lon="-2.92247">
        <ele>47</ele>
        <time>2018-05-12T08:27:38Z</time>
      </trkpt>
      <trkpt lat="47.56019" lon="-2.92243">
        <ele>47</ele>
        <time>2018-05-12T08:27:42Z</time>
      </trkpt>
      <trkpt lat="47.56021" lon="-2.92242">
        <ele>47</ele>
        <time>2018-05-12T08:27:44Z</time>
      </trkpt>
      <trkpt lat="47.56023" lon="-2.92239">
        <ele>48</ele>
        <time>2018-05-12T08:27:46Z</time>
      </trkpt>
      <trkpt lat="47.56029" lon="-2.92237">
        <ele>49</ele>
        <time>2018-05-12T08:27:50Z</time>
      </trkpt>
      <trkpt lat="47.56031" lon="-2.92235">
        <ele>50</ele>
        <time>2018-05-12T08:27:52Z</time>
      </trkpt>
      <trkpt lat="47.56035" lon="-2.92233">
        <ele>49</ele>
        <time>2018-05-12T08:27:55Z</time>
      </trkpt>
      <trkpt lat="47.56037" lon="-2.92232">
        <ele>49</ele>
        <time>2018-05-12T08:27:57Z</time>
      </trkpt>
      <trkpt lat="47.56041" lon="-2.92229">
        <ele>49</ele>
        <time>2018-05-12T08:28:01Z</time>
      </trkpt>
      <trkpt lat="47.56044" lon="-2.92226">
        <ele>50</ele>
        <time>2018-05-12T08:28:04Z</time>
      </trkpt>
      <trkpt lat="47.56049" lon="-2.92224">
        <ele>51</ele>
        <time>2018-05-12T08:28:07Z</time>
      </trkpt>
      <trkpt lat="47.56053" lon="-2.92222">
        <ele>50</ele>
        <time>2018-05-12T08:28:10Z</time>
      </trkpt>
      <trkpt lat="47.56055" lon="-2.9222">
        <ele>50</ele>
        <time>2018-05-12T08:28:12Z</time>
      </trkpt>
      <trkpt lat="47.56057" lon="-2.92219">
        <ele>51</ele>
        <time>2018-05-12T08:28:13Z</time>
      </trkpt>
      <trkpt lat="47.56062" lon="-2.92218">
        <ele>51</ele>
        <time>2018-05-12T08:28:16Z</time>
      </trkpt>
      <trkpt lat="47.56067" lon="-2.92214">
        <ele>52</ele>
        <time>2018-05-12T08:28:19Z</time>
      </trkpt>
      <trkpt lat="47.56071" lon="-2.92211">
        <ele>52</ele>
        <time>2018-05-12T08:28:21Z</time>
      </trkpt>
      <trkpt lat="47.56074" lon="-2.92209">
        <ele>54</ele>
        <time>2018-05-12T08:28:23Z</time>
      </trkpt>
      <trkpt lat="47.56077" lon="-2.92207">
        <ele>55</ele>
        <time>2018-05-12T08:28:25Z</time>
      </trkpt>
      <trkpt lat="47.56081" lon="-2.92203">
        <ele>54</ele>
        <time>2018-05-12T08:28:28Z</time>
      </trkpt>
      <trkpt lat="47.56086" lon="-2.92202">
        <ele>57</ele>
        <time>2018-05-12T08:28:30Z</time>
      </trkpt>
      <trkpt lat="47.5609" lon="-2.922">
        <ele>57</ele>
        <time>2018-05-12T08:28:32Z</time>
      </trkpt>
      <trkpt lat="47.56093" lon="-2.92199">
        <ele>56</ele>
        <time>2018-05-12T08:28:34Z</time>
      </trkpt>
      <trkpt lat="47.56096" lon="-2.92197">
        <ele>54</ele>
        <time>2018-05-12T08:28:37Z</time>
      </trkpt>
      <trkpt lat="47.56101" lon="-2.92196">
        <ele>53</ele>
        <time>2018-05-12T08:28:40Z</time>
      </trkpt>
      <trkpt lat="47.56105" lon="-2.92193">
        <ele>53</ele>
        <time>2018-05-12T08:28:43Z</time>
      </trkpt>
      <trkpt lat="47.56109" lon="-2.92192">
        <ele>52</ele>
        <time>2018-05-12T08:28:45Z</time>
      </trkpt>
      <trkpt lat="47.56112" lon="-2.92188">
        <ele>52</ele>
        <time>2018-05-12T08:28:48Z</time>
      </trkpt>
      <trkpt lat="47.56118" lon="-2.92185">
        <ele>51</ele>
        <time>2018-05-12T08:28:52Z</time>
      </trkpt>
      <trkpt lat="47.56121" lon="-2.92184">
        <ele>51</ele>
        <time>2018-05-12T08:28:54Z</time>
      </trkpt>
      <trkpt lat="47.56126" lon="-2.9218">
        <ele>50</ele>
        <time>2018-05-12T08:28:58Z</time>
      </trkpt>
      <trkpt lat="47.5613" lon="-2.92176">
        <ele>51</ele>
        <time>2018-05-12T08:29:01Z</time>
      </trkpt>
      <trkpt lat="47.56132" lon="-2.92173">
        <ele>51</ele>
        <time>2018-05-12T08:29:03Z</time>
      </trkpt>
      <trkpt lat="47.56137" lon="-2.92169">
        <ele>51</ele>
        <time>2018-05-12T08:29:07Z</time>
      </trkpt>
      <trkpt lat="47.56142" lon="-2.92166">
        <ele>50</ele>
        <time>2018-05-12T08:29:11Z</time>
      </trkpt>
      <trkpt lat="47.56146" lon="-2.92164">
        <ele>50</ele>
        <time>2018-05-12T08:29:14Z</time>
      </trkpt>
      <trkpt lat="47.5615" lon="-2.92161">
        <ele>52</ele>
        <time>2018-05-12T08:29:16Z</time>
      </trkpt>
      <trkpt lat="47.56153" lon="-2.9216">
        <ele>52</ele>
        <time>2018-05-12T08:29:18Z</time>
      </trkpt>
      <trkpt lat="47.56158" lon="-2.92158">
        <ele>51</ele>
        <time>2018-05-12T08:29:21Z</time>
      </trkpt>
      <trkpt lat="47.56161" lon="-2.92158">
        <ele>53</ele>
        <time>2018-05-12T08:29:23Z</time>
      </trkpt>
      <trkpt lat="47.56166" lon="-2.92155">
        <ele>52</ele>
        <time>2018-05-12T08:29:26Z</time>
      </trkpt>
      <trkpt lat="47.5617" lon="-2.92152">
        <ele>52</ele>
        <time>2018-05-12T08:29:30Z</time>
      </trkpt>
      <trkpt lat="47.56175" lon="-2.9215">
        <ele>52</ele>
        <time>2018-05-12T08:29:33Z</time>
      </trkpt>
      <trkpt lat="47.56179" lon="-2.92148">
        <ele>51</ele>
        <time>2018-05-12T08:29:36Z</time>
      </trkpt>
      <trkpt lat="47.56182" lon="-2.92147">
        <ele>51</ele>
        <time>2018-05-12T08:29:38Z</time>
      </trkpt>
      <trkpt lat="47.56187" lon="-2.92144">
        <ele>51</ele>
        <time>2018-05-12T08:29:42Z</time>
      </trkpt>
      <trkpt lat="47.56193" lon="-2.92141">
        <ele>49</ele>
        <time>2018-05-12T08:29:46Z</time>
      </trkpt>
      <trkpt lat="47.56197" lon="-2.92137">
        <ele>50</ele>
        <time>2018-05-12T08:29:49Z</time>
      </trkpt>
      <trkpt lat="47.56199" lon="-2.92135">
        <ele>49</ele>
        <time>2018-05-12T08:29:51Z</time>
      </trkpt>
      <trkpt lat="47.56202" lon="-2.92132">
        <ele>49</ele>
        <time>2018-05-12T08:29:53Z</time>
      </trkpt>
      <trkpt lat="47.56207" lon="-2.92128">
        <ele>48</ele>
        <time>2018-05-12T08:29:57Z</time>
      </trkpt>
      <trkpt lat="47.56212" lon="-2.92126">
        <ele>48</ele>
        <time>2018-05-12T08:30:00Z</time>
      </trkpt>
      <trkpt lat="47.56216" lon="-2.92123">
        <ele>49</ele>
        <time>2018-05-12T08:30:03Z</time>
      </trkpt>
      <trkpt lat="47.56219" lon="-2.92121">
        <ele>49</ele>
        <time>2018-05-12T08:30:05Z</time>
      </trkpt>
      <trkpt lat="47.56224" lon="-2.92117">
        <ele>49</ele>
        <time>2018-05-12T08:30:09Z</time>
      </trkpt>
      <trkpt lat="47.56227" lon="-2.92115">
        <ele>50</ele>
        <time>2018-05-12T08:30:11Z</time>
      </trkpt>
      <trkpt lat="47.5623" lon="-2.92112">
        <ele>50</ele>
        <time>2018-05-12T08:30:13Z</time>
      </trkpt>
      <trkpt lat="47.56233" lon="-2.9211">
        <ele>49</ele>
        <time>2018-05-12T08:30:16Z</time>
      </trkpt>
      <trkpt lat="47.56237" lon="-2.92107">
        <ele>50</ele>
        <time>2018-05-12T08:30:19Z</time>
      </trkpt>
      <trkpt lat="47.56241" lon="-2.92104">
        <ele>50</ele>
        <time>2018-05-12T08:30:22Z</time>
      </trkpt>
      <trkpt lat="47.56245" lon="-2.92099">
        <ele>50</ele>
        <time>2018-05-12T08:30:25Z</time>
      </trkpt>
      <trkpt lat="47.5625" lon="-2.92095">
        <ele>50</ele>
        <time>2018-05-12T08:30:29Z</time>
      </trkpt>
      <trkpt lat="47.56254" lon="-2.92092">
        <ele>50</ele>
        <time>2018-05-12T08:30:32Z</time>
      </trkpt>
      <trkpt lat="47.5626" lon="-2.92089">
        <ele>51</ele>
        <time>2018-05-12T08:30:35Z</time>
      </trkpt>
      <trkpt lat="47.56264" lon="-2.92084">
        <ele>51</ele>
        <time>2018-05-12T08:30:38Z</time>
      </trkpt>
      <trkpt lat="47.56267" lon="-2.92082">
        <ele>52</ele>
        <time>2018-05-12T08:30:40Z</time>
      </trkpt>
      <trkpt lat="47.5627" lon="-2.92078">
        <ele>52</ele>
        <time>2018-05-12T08:30:42Z</time>
      </trkpt>
      <trkpt lat="47.56274" lon="-2.92074">
        <ele>51</ele>
        <time>2018-05-12T08:30:45Z</time>
      </trkpt>
      <trkpt lat="47.56276" lon="-2.92071">
        <ele>50</ele>
        <time>2018-05-12T08:30:47Z</time>
      </trkpt>
      <trkpt lat="47.56282" lon="-2.92067">
        <ele>50</ele>
        <time>2018-05-12T08:30:50Z</time>
      </trkpt>
      <trkpt lat="47.56285" lon="-2.92065">
        <ele>49</ele>
        <time>2018-05-12T08:30:52Z</time>
      </trkpt>
      <trkpt lat="47.56288" lon="-2.92062">
        <ele>49</ele>
        <time>2018-05-12T08:30:54Z</time>
      </trkpt>
      <trkpt lat="47.56291" lon="-2.9206">
        <ele>48</ele>
        <time>2018-05-12T08:30:56Z</time>
      </trkpt>
      <trkpt lat="47.56296" lon="-2.92056">
        <ele>48</ele>
        <time>2018-05-12T08:30:59Z</time>
      </trkpt>
      <trkpt lat="47.56299" lon="-2.92054">
        <ele>48</ele>
        <time>2018-05-12T08:31:01Z</time>
      </trkpt>
      <trkpt lat="47.56303" lon="-2.92049">
        <ele>48</ele>
        <time>2018-05-12T08:31:04Z</time>
      </trkpt>
      <trkpt lat="47.56307" lon="-2.92043">
        <ele>48</ele>
        <time>2018-05-12T08:31:07Z</time>
      </trkpt>
      <trkpt lat="47.56312" lon="-2.92039">
        <ele>49</ele>
        <time>2018-05-12T08:31:10Z</time>
      </trkpt>
      <trkpt lat="47.56316" lon="-2.92033">
        <ele>47</ele>
        <time>2018-05-12T08:31:13Z</time>
      </trkpt>
      <trkpt lat="47.5632" lon="-2.92029">
        <ele>47</ele>
        <time>2018-05-12T08:31:16Z</time>
      </trkpt>
      <trkpt lat="47.56321" lon="-2.92027">
        <ele>47</ele>
        <time>2018-05-12T08:31:17Z</time>
      </trkpt>
      <trkpt lat="47.56327" lon="-2.92022">
        <ele>48</ele>
        <time>2018-05-12T08:31:20Z</time>
      </trkpt>
      <trkpt lat="47.56331" lon="-2.92016">
        <ele>49</ele>
        <time>2018-05-12T08:31:23Z</time>
      </trkpt>
      <trkpt lat="47.56335" lon="-2.92008">
        <ele>49</ele>
        <time>2018-05-12T08:31:26Z</time>
      </trkpt>
      <trkpt lat="47.5634" lon="-2.92004">
        <ele>49</ele>
        <time>2018-05-12T08:31:29Z</time>
      </trkpt>
      <trkpt lat="47.56343" lon="-2.92">
        <ele>47</ele>
        <time>2018-05-12T08:31:31Z</time>
      </trkpt>
      <trkpt lat="47.56348" lon="-2.91993">
        <ele>50</ele>
        <time>2018-05-12T08:31:34Z</time>
      </trkpt>
      <trkpt lat="47.56353" lon="-2.91991">
        <ele>49</ele>
        <time>2018-05-12T08:31:37Z</time>
      </trkpt>
      <trkpt lat="47.56358" lon="-2.91987">
        <ele>50</ele>
        <time>2018-05-12T08:31:40Z</time>
      </trkpt>
      <trkpt lat="47.56362" lon="-2.91982">
        <ele>51</ele>
        <time>2018-05-12T08:31:43Z</time>
      </trkpt>
      <trkpt lat="47.56367" lon="-2.91978">
        <ele>49</ele>
        <time>2018-05-12T08:31:47Z</time>
      </trkpt>
      <trkpt lat="47.5637" lon="-2.91974">
        <ele>49</ele>
        <time>2018-05-12T08:31:49Z</time>
      </trkpt>
      <trkpt lat="47.56373" lon="-2.91971">
        <ele>49</ele>
        <time>2018-05-12T08:31:51Z</time>
      </trkpt>
      <trkpt lat="47.56375" lon="-2.91969">
        <ele>49</ele>
        <time>2018-05-12T08:31:52Z</time>
      </trkpt>
      <trkpt lat="47.56378" lon="-2.91966">
        <ele>49</ele>
        <time>2018-05-12T08:31:54Z</time>
      </trkpt>
      <trkpt lat="47.56382" lon="-2.91962">
        <ele>48</ele>
        <time>2018-05-12T08:31:58Z</time>
      </trkpt>
      <trkpt lat="47.56385" lon="-2.9196">
        <ele>46</ele>
        <time>2018-05-12T08:32:00Z</time>
      </trkpt>
      <trkpt lat="47.56389" lon="-2.91953">
        <ele>50</ele>
        <time>2018-05-12T08:32:03Z</time>
      </trkpt>
      <trkpt lat="47.56392" lon="-2.9195">
        <ele>50</ele>
        <time>2018-05-12T08:32:05Z</time>
      </trkpt>
      <trkpt lat="47.56397" lon="-2.91945">
        <ele>52</ele>
        <time>2018-05-12T08:32:08Z</time>
      </trkpt>
      <trkpt lat="47.56402" lon="-2.91942">
        <ele>53</ele>
        <time>2018-05-12T08:32:10Z</time>
      </trkpt>
      <trkpt lat="47.56406" lon="-2.91939">
        <ele>53</ele>
        <time>2018-05-12T08:32:12Z</time>
      </trkpt>
      <trkpt lat="47.56411" lon="-2.91934">
        <ele>52</ele>
        <time>2018-05-12T08:32:15Z</time>
      </trkpt>
      <trkpt lat="47.56416" lon="-2.9193">
        <ele>53</ele>
        <time>2018-05-12T08:32:18Z</time>
      </trkpt>
      <trkpt lat="47.56419" lon="-2.91927">
        <ele>54</ele>
        <time>2018-05-12T08:32:20Z</time>
      </trkpt>
      <trkpt lat="47.56423" lon="-2.91921">
        <ele>53</ele>
        <time>2018-05-12T08:32:24Z</time>
      </trkpt>
      <trkpt lat="47.56427" lon="-2.91916">
        <ele>55</ele>
        <time>2018-05-12T08:32:26Z</time>
      </trkpt>
      <trkpt lat="47.5643" lon="-2.91912">
        <ele>53</ele>
        <time>2018-05-12T08:32:29Z</time>
      </trkpt>
      <trkpt lat="47.56435" lon="-2.91908">
        <ele>53</ele>
        <time>2018-05-12T08:32:33Z</time>
      </trkpt>
      <trkpt lat="47.56438" lon="-2.91905">
        <ele>53</ele>
        <time>2018-05-12T08:32:35Z</time>
      </trkpt>
      <trkpt lat="47.56443" lon="-2.91902">
        <ele>52</ele>
        <time>2018-05-12T08:32:38Z</time>
      </trkpt>
      <trkpt lat="47.56447" lon="-2.91897">
        <ele>51</ele>
        <time>2018-05-12T08:32:41Z</time>
      </trkpt>
      <trkpt lat="47.56451" lon="-2.91892">
        <ele>54</ele>
        <time>2018-05-12T08:32:44Z</time>
      </trkpt>
      <trkpt lat="47.56456" lon="-2.91884">
        <ele>52</ele>
        <time>2018-05-12T08:32:48Z</time>
      </trkpt>
      <trkpt lat="47.56459" lon="-2.91879">
        <ele>49</ele>
        <time>2018-05-12T08:32:52Z</time>
      </trkpt>
      <trkpt lat="47.56463" lon="-2.91873">
        <ele>50</ele>
        <time>2018-05-12T08:32:55Z</time>
      </trkpt>
      <trkpt lat="47.56465" lon="-2.91869">
        <ele>50</ele>
        <time>2018-05-12T08:32:57Z</time>
      </trkpt>
      <trkpt lat="47.56466" lon="-2.91866">
        <ele>51</ele>
        <time>2018-05-12T08:32:58Z</time>
      </trkpt>
      <trkpt lat="47.56469" lon="-2.91862">
        <ele>56</ele>
        <time>2018-05-12T08:32:59Z</time>
      </trkpt>
      <trkpt lat="47.56471" lon="-2.91855">
        <ele>56</ele>
        <time>2018-05-12T08:33:02Z</time>
      </trkpt>
      <trkpt lat="47.56474" lon="-2.9185">
        <ele>51</ele>
        <time>2018-05-12T08:33:07Z</time>
      </trkpt>
      <trkpt lat="47.56478" lon="-2.91845">
        <ele>52</ele>
        <time>2018-05-12T08:33:10Z</time>
      </trkpt>
      <trkpt lat="47.56481" lon="-2.91842">
        <ele>53</ele>
        <time>2018-05-12T08:33:12Z</time>
      </trkpt>
      <trkpt lat="47.56484" lon="-2.91837">
        <ele>51</ele>
        <time>2018-05-12T08:33:16Z</time>
      </trkpt>
      <trkpt lat="47.56488" lon="-2.91831">
        <ele>52</ele>
        <time>2018-05-12T08:33:19Z</time>
      </trkpt>
      <trkpt lat="47.56492" lon="-2.91828">
        <ele>51</ele>
        <time>2018-05-12T08:33:22Z</time>
      </trkpt>
      <trkpt lat="47.56494" lon="-2.91826">
        <ele>51</ele>
        <time>2018-05-12T08:33:24Z</time>
      </trkpt>
      <trkpt lat="47.56498" lon="-2.91819">
        <ele>53</ele>
        <time>2018-05-12T08:33:27Z</time>
      </trkpt>
      <trkpt lat="47.56501" lon="-2.91813">
        <ele>54</ele>
        <time>2018-05-12T08:33:30Z</time>
      </trkpt>
      <trkpt lat="47.56504" lon="-2.91809">
        <ele>54</ele>
        <time>2018-05-12T08:33:32Z</time>
      </trkpt>
      <trkpt lat="47.56507" lon="-2.91806">
        <ele>54</ele>
        <time>2018-05-12T08:33:34Z</time>
      </trkpt>
      <trkpt lat="47.56512" lon="-2.91801">
        <ele>55</ele>
        <time>2018-05-12T08:33:38Z</time>
      </trkpt>
      <trkpt lat="47.56516" lon="-2.91796">
        <ele>54</ele>
        <time>2018-05-12T08:33:42Z</time>
      </trkpt>
      <trkpt lat="47.56521" lon="-2.91793">
        <ele>56</ele>
        <time>2018-05-12T08:33:45Z</time>
      </trkpt>
      <trkpt lat="47.56526" lon="-2.91791">
        <ele>54</ele>
        <time>2018-05-12T08:33:49Z</time>
      </trkpt>
      <trkpt lat="47.56529" lon="-2.9179">
        <ele>54</ele>
        <time>2018-05-12T08:33:51Z</time>
      </trkpt>
      <trkpt lat="47.56535" lon="-2.91787">
        <ele>52</ele>
        <time>2018-05-12T08:33:56Z</time>
      </trkpt>
      <trkpt lat="47.56538" lon="-2.91785">
        <ele>52</ele>
        <time>2018-05-12T08:33:58Z</time>
      </trkpt>
      <trkpt lat="47.56542" lon="-2.91781">
        <ele>52</ele>
        <time>2018-05-12T08:34:01Z</time>
      </trkpt>
      <trkpt lat="47.56547" lon="-2.91774">
        <ele>53</ele>
        <time>2018-05-12T08:34:05Z</time>
      </trkpt>
      <trkpt lat="47.56551" lon="-2.9177">
        <ele>55</ele>
        <time>2018-05-12T08:34:07Z</time>
      </trkpt>
      <trkpt lat="47.56555" lon="-2.91765">
        <ele>54</ele>
        <time>2018-05-12T08:34:11Z</time>
      </trkpt>
      <trkpt lat="47.56559" lon="-2.91761">
        <ele>54</ele>
        <time>2018-05-12T08:34:14Z</time>
      </trkpt>
      <trkpt lat="47.56562" lon="-2.91758">
        <ele>52</ele>
        <time>2018-05-12T08:34:17Z</time>
      </trkpt>
      <trkpt lat="47.56566" lon="-2.91755">
        <ele>53</ele>
        <time>2018-05-12T08:34:22Z</time>
      </trkpt>
      <trkpt lat="47.56568" lon="-2.91754">
        <ele>54</ele>
        <time>2018-05-12T08:34:23Z</time>
      </trkpt>
      <trkpt lat="47.5657" lon="-2.91752">
        <ele>54</ele>
        <time>2018-05-12T08:34:28Z</time>
      </trkpt>
      <trkpt lat="47.56574" lon="-2.9175">
        <ele>55</ele>
        <time>2018-05-12T08:34:32Z</time>
      </trkpt>
      <trkpt lat="47.56576" lon="-2.91752">
        <ele>53</ele>
        <time>2018-05-12T08:34:40Z</time>
      </trkpt>
      <trkpt lat="47.56576" lon="-2.91752">
        <time>2018-05-12T08:40:36Z</time>
      </trkpt>
      <trkpt lat="47.56576" lon="-2.91752">
        <time>2018-05-12T08:40:38Z</time>
      </trkpt>
      <trkpt lat="47.56582" lon="-2.91752">
        <ele>45</ele>
        <time>2018-05-12T08:40:41Z</time>
      </trkpt>
      <trkpt lat="47.56578" lon="-2.91761">
        <ele>45</ele>
        <time>2018-05-12T08:54:47Z</time>
      </trkpt>
      <trkpt lat="47.56581" lon="-2.91768">
        <ele>48</ele>
        <time>2018-05-12T08:54:54Z</time>
      </trkpt>
      <trkpt lat="47.56574" lon="-2.91775">
        <ele>46</ele>
        <time>2018-05-12T08:55:08Z</time>
      </trkpt>
      <trkpt lat="47.56569" lon="-2.91773">
        <ele>47</ele>
        <time>2018-05-12T08:55:14Z</time>
      </trkpt>
      <trkpt lat="47.56563" lon="-2.91772">
        <ele>47</ele>
        <time>2018-05-12T08:55:21Z</time>
      </trkpt>
      <trkpt lat="47.56558" lon="-2.9177">
        <ele>46</ele>
        <time>2018-05-12T08:55:24Z</time>
      </trkpt>
      <trkpt lat="47.56555" lon="-2.91769">
        <ele>47</ele>
        <time>2018-05-12T08:55:26Z</time>
      </trkpt>
      <trkpt lat="47.5655" lon="-2.91767">
        <ele>46</ele>
        <time>2018-05-12T08:55:28Z</time>
      </trkpt>
      <trkpt lat="47.56546" lon="-2.91766">
        <ele>46</ele>
        <time>2018-05-12T08:55:30Z</time>
      </trkpt>
      <trkpt lat="47.56541" lon="-2.91764">
        <ele>46</ele>
        <time>2018-05-12T08:55:32Z</time>
      </trkpt>
      <trkpt lat="47.56537" lon="-2.91765">
        <ele>46</ele>
        <time>2018-05-12T08:55:34Z</time>
      </trkpt>
      <trkpt lat="47.56532" lon="-2.91762">
        <ele>45</ele>
        <time>2018-05-12T08:55:37Z</time>
      </trkpt>
      <trkpt lat="47.56525" lon="-2.91757">
        <ele>46</ele>
        <time>2018-05-12T08:55:43Z</time>
      </trkpt>
      <trkpt lat="47.56522" lon="-2.91755">
        <ele>45</ele>
        <time>2018-05-12T08:55:46Z</time>
      </trkpt>
      <trkpt lat="47.56519" lon="-2.91751">
        <ele>46</ele>
        <time>2018-05-12T08:55:48Z</time>
      </trkpt>
      <trkpt lat="47.56516" lon="-2.91745">
        <ele>43</ele>
        <time>2018-05-12T08:55:55Z</time>
      </trkpt>
      <trkpt lat="47.56514" lon="-2.91741">
        <ele>44</ele>
        <time>2018-05-12T08:55:59Z</time>
      </trkpt>
      <trkpt lat="47.56512" lon="-2.91733">
        <ele>45</ele>
        <time>2018-05-12T08:56:03Z</time>
      </trkpt>
      <trkpt lat="47.5651" lon="-2.91727">
        <ele>46</ele>
        <time>2018-05-12T08:56:05Z</time>
      </trkpt>
      <trkpt lat="47.56509" lon="-2.9172">
        <ele>42</ele>
        <time>2018-05-12T08:56:10Z</time>
      </trkpt>
      <trkpt lat="47.56508" lon="-2.91712">
        <ele>43</ele>
        <time>2018-05-12T08:56:14Z</time>
      </trkpt>
      <trkpt lat="47.56507" lon="-2.91705">
        <ele>40</ele>
        <time>2018-05-12T08:56:17Z</time>
      </trkpt>
      <trkpt lat="47.56511" lon="-2.91701">
        <ele>38</ele>
        <time>2018-05-12T08:56:21Z</time>
      </trkpt>
      <trkpt lat="47.56512" lon="-2.91693">
        <ele>41</ele>
        <time>2018-05-12T08:56:25Z</time>
      </trkpt>
      <trkpt lat="47.56514" lon="-2.91682">
        <ele>45</ele>
        <time>2018-05-12T08:56:29Z</time>
      </trkpt>
      <trkpt lat="47.56515" lon="-2.91678">
        <ele>47</ele>
        <time>2018-05-12T08:56:31Z</time>
      </trkpt>
      <trkpt lat="47.56516" lon="-2.91674">
        <ele>48</ele>
        <time>2018-05-12T08:56:33Z</time>
      </trkpt>
      <trkpt lat="47.56517" lon="-2.91671">
        <ele>47</ele>
        <time>2018-05-12T08:56:35Z</time>
      </trkpt>
      <trkpt lat="47.56518" lon="-2.91663">
        <ele>47</ele>
        <time>2018-05-12T08:56:38Z</time>
      </trkpt>
      <trkpt lat="47.56523" lon="-2.91654">
        <ele>48</ele>
        <time>2018-05-12T08:56:42Z</time>
      </trkpt>
      <trkpt lat="47.56527" lon="-2.91649">
        <ele>49</ele>
        <time>2018-05-12T08:56:45Z</time>
      </trkpt>
      <trkpt lat="47.5653" lon="-2.91644">
        <ele>50</ele>
        <time>2018-05-12T08:56:48Z</time>
      </trkpt>
      <trkpt lat="47.56531" lon="-2.91637">
        <ele>53</ele>
        <time>2018-05-12T08:56:51Z</time>
      </trkpt>
      <trkpt lat="47.56532" lon="-2.9163">
        <ele>53</ele>
        <time>2018-05-12T08:56:54Z</time>
      </trkpt>
      <trkpt lat="47.56535" lon="-2.91624">
        <ele>53</ele>
        <time>2018-05-12T08:56:57Z</time>
      </trkpt>
      <trkpt lat="47.56536" lon="-2.91616">
        <ele>55</ele>
        <time>2018-05-12T08:57:00Z</time>
      </trkpt>
      <trkpt lat="47.56537" lon="-2.9161">
        <ele>54</ele>
        <time>2018-05-12T08:57:03Z</time>
      </trkpt>
      <trkpt lat="47.56538" lon="-2.91602">
        <ele>49</ele>
        <time>2018-05-12T08:57:07Z</time>
      </trkpt>
      <trkpt lat="47.56537" lon="-2.91595">
        <ele>45</ele>
        <time>2018-05-12T08:57:11Z</time>
      </trkpt>
      <trkpt lat="47.56536" lon="-2.91589">
        <ele>44</ele>
        <time>2018-05-12T08:57:14Z</time>
      </trkpt>
      <trkpt lat="47.56535" lon="-2.9158">
        <ele>38</ele>
        <time>2018-05-12T08:57:20Z</time>
      </trkpt>
      <trkpt lat="47.56536" lon="-2.91573">
        <ele>35</ele>
        <time>2018-05-12T08:57:24Z</time>
      </trkpt>
      <trkpt lat="47.56535" lon="-2.91566">
        <ele>35</ele>
        <time>2018-05-12T08:57:26Z</time>
      </trkpt>
      <trkpt lat="47.56535" lon="-2.91562">
        <ele>37</ele>
        <time>2018-05-12T08:57:27Z</time>
      </trkpt>
      <trkpt lat="47.56533" lon="-2.91556">
        <ele>38</ele>
        <time>2018-05-12T08:57:30Z</time>
      </trkpt>
      <trkpt lat="47.56532" lon="-2.91551">
        <ele>39</ele>
        <time>2018-05-12T08:57:33Z</time>
      </trkpt>
      <trkpt lat="47.56531" lon="-2.91547">
        <ele>41</ele>
        <time>2018-05-12T08:57:36Z</time>
      </trkpt>
      <trkpt lat="47.56531" lon="-2.91543">
        <ele>40</ele>
        <time>2018-05-12T08:57:38Z</time>
      </trkpt>
      <trkpt lat="47.56528" lon="-2.91533">
        <ele>38</ele>
        <time>2018-05-12T08:57:43Z</time>
      </trkpt>
      <trkpt lat="47.56528" lon="-2.91526">
        <ele>41</ele>
        <time>2018-05-12T08:57:47Z</time>
      </trkpt>
      <trkpt lat="47.56529" lon="-2.91518">
        <ele>36</ele>
        <time>2018-05-12T08:57:52Z</time>
      </trkpt>
      <trkpt lat="47.56529" lon="-2.91513">
        <ele>35</ele>
        <time>2018-05-12T08:57:55Z</time>
      </trkpt>
      <trkpt lat="47.56527" lon="-2.91504">
        <ele>37</ele>
        <time>2018-05-12T08:57:59Z</time>
      </trkpt>
      <trkpt lat="47.56526" lon="-2.91499">
        <ele>38</ele>
        <time>2018-05-12T08:58:01Z</time>
      </trkpt>
      <trkpt lat="47.56526" lon="-2.91491">
        <ele>35</ele>
        <time>2018-05-12T08:58:05Z</time>
      </trkpt>
      <trkpt lat="47.56526" lon="-2.91486">
        <ele>35</ele>
        <time>2018-05-12T08:58:07Z</time>
      </trkpt>
      <trkpt lat="47.56525" lon="-2.91479">
        <ele>36</ele>
        <time>2018-05-12T08:58:11Z</time>
      </trkpt>
      <trkpt lat="47.56525" lon="-2.91474">
        <ele>35</ele>
        <time>2018-05-12T08:58:14Z</time>
      </trkpt>
      <trkpt lat="47.56522" lon="-2.91469">
        <ele>36</ele>
        <time>2018-05-12T08:58:17Z</time>
      </trkpt>
      <trkpt lat="47.56524" lon="-2.91462">
        <ele>34</ele>
        <time>2018-05-12T08:58:21Z</time>
      </trkpt>
      <trkpt lat="47.56523" lon="-2.91455">
        <ele>34</ele>
        <time>2018-05-12T08:58:26Z</time>
      </trkpt>
      <trkpt lat="47.56521" lon="-2.91448">
        <ele>34</ele>
        <time>2018-05-12T08:58:30Z</time>
      </trkpt>
      <trkpt lat="47.56522" lon="-2.9144">
        <ele>34</ele>
        <time>2018-05-12T08:58:35Z</time>
      </trkpt>
      <trkpt lat="47.56525" lon="-2.91433">
        <ele>33</ele>
        <time>2018-05-12T08:58:39Z</time>
      </trkpt>
      <trkpt lat="47.56525" lon="-2.91424">
        <ele>33</ele>
        <time>2018-05-12T08:58:44Z</time>
      </trkpt>
      <trkpt lat="47.56526" lon="-2.91419">
        <ele>34</ele>
        <time>2018-05-12T08:58:47Z</time>
      </trkpt>
      <trkpt lat="47.56525" lon="-2.91411">
        <ele>32</ele>
        <time>2018-05-12T08:58:51Z</time>
      </trkpt>
      <trkpt lat="47.56528" lon="-2.91403">
        <ele>36</ele>
        <time>2018-05-12T08:58:56Z</time>
      </trkpt>
      <trkpt lat="47.56529" lon="-2.91396">
        <ele>35</ele>
        <time>2018-05-12T08:58:59Z</time>
      </trkpt>
      <trkpt lat="47.56528" lon="-2.91385">
        <ele>37</ele>
        <time>2018-05-12T08:59:04Z</time>
      </trkpt>
      <trkpt lat="47.5653" lon="-2.91377">
        <ele>37</ele>
        <time>2018-05-12T08:59:08Z</time>
      </trkpt>
      <trkpt lat="47.56528" lon="-2.9137">
        <ele>36</ele>
        <time>2018-05-12T08:59:11Z</time>
      </trkpt>
      <trkpt lat="47.56529" lon="-2.91361">
        <ele>41</ele>
        <time>2018-05-12T08:59:15Z</time>
      </trkpt>
      <trkpt lat="47.56529" lon="-2.91355">
        <ele>40</ele>
        <time>2018-05-12T08:59:18Z</time>
      </trkpt>
      <trkpt lat="47.56529" lon="-2.91347">
        <ele>38</ele>
        <time>2018-05-12T08:59:22Z</time>
      </trkpt>
      <trkpt lat="47.56526" lon="-2.91338">
        <ele>37</ele>
        <time>2018-05-12T08:59:27Z</time>
      </trkpt>
      <trkpt lat="47.56525" lon="-2.91335">
        <ele>38</ele>
        <time>2018-05-12T08:59:29Z</time>
      </trkpt>
      <trkpt lat="47.56524" lon="-2.9133">
        <ele>39</ele>
        <time>2018-05-12T08:59:31Z</time>
      </trkpt>
      <trkpt lat="47.56523" lon="-2.91327">
        <ele>40</ele>
        <time>2018-05-12T08:59:33Z</time>
      </trkpt>
      <trkpt lat="47.56524" lon="-2.9132">
        <ele>36</ele>
        <time>2018-05-12T08:59:38Z</time>
      </trkpt>
      <trkpt lat="47.56522" lon="-2.91312">
        <ele>38</ele>
        <time>2018-05-12T08:59:42Z</time>
      </trkpt>
      <trkpt lat="47.56522" lon="-2.91307">
        <ele>37</ele>
        <time>2018-05-12T08:59:45Z</time>
      </trkpt>
      <trkpt lat="47.56522" lon="-2.913">
        <ele>36</ele>
        <time>2018-05-12T08:59:50Z</time>
      </trkpt>
      <trkpt lat="47.56523" lon="-2.91292">
        <ele>40</ele>
        <time>2018-05-12T08:59:53Z</time>
      </trkpt>
      <trkpt lat="47.56524" lon="-2.91282">
        <ele>41</ele>
        <time>2018-05-12T08:59:57Z</time>
      </trkpt>
      <trkpt lat="47.56524" lon="-2.91274">
        <ele>38</ele>
        <time>2018-05-12T09:00:02Z</time>
      </trkpt>
      <trkpt lat="47.56526" lon="-2.91267">
        <ele>36</ele>
        <time>2018-05-12T09:00:05Z</time>
      </trkpt>
      <trkpt lat="47.56527" lon="-2.91261">
        <ele>37</ele>
        <time>2018-05-12T09:00:09Z</time>
      </trkpt>
      <trkpt lat="47.56526" lon="-2.91253">
        <ele>40</ele>
        <time>2018-05-12T09:00:12Z</time>
      </trkpt>
      <trkpt lat="47.56527" lon="-2.91245">
        <ele>42</ele>
        <time>2018-05-12T09:00:16Z</time>
      </trkpt>
      <trkpt lat="47.56529" lon="-2.91238">
        <ele>40</ele>
        <time>2018-05-12T09:00:20Z</time>
      </trkpt>
      <trkpt lat="47.5653" lon="-2.91231">
        <ele>40</ele>
        <time>2018-05-12T09:00:23Z</time>
      </trkpt>
      <trkpt lat="47.56532" lon="-2.91222">
        <ele>40</ele>
        <time>2018-05-12T09:00:27Z</time>
      </trkpt>
      <trkpt lat="47.56533" lon="-2.91218">
        <ele>41</ele>
        <time>2018-05-12T09:00:29Z</time>
      </trkpt>
      <trkpt lat="47.56536" lon="-2.91213">
        <ele>40</ele>
        <time>2018-05-12T09:00:32Z</time>
      </trkpt>
      <trkpt lat="47.56537" lon="-2.91209">
        <ele>39</ele>
        <time>2018-05-12T09:00:35Z</time>
      </trkpt>
      <trkpt lat="47.56538" lon="-2.912">
        <ele>41</ele>
        <time>2018-05-12T09:00:38Z</time>
      </trkpt>
      <trkpt lat="47.56539" lon="-2.91192">
        <ele>41</ele>
        <time>2018-05-12T09:00:42Z</time>
      </trkpt>
      <trkpt lat="47.56539" lon="-2.91183">
        <ele>43</ele>
        <time>2018-05-12T09:00:45Z</time>
      </trkpt>
      <trkpt lat="47.56541" lon="-2.91177">
        <ele>43</ele>
        <time>2018-05-12T09:00:47Z</time>
      </trkpt>
      <trkpt lat="47.56543" lon="-2.91172">
        <ele>41</ele>
        <time>2018-05-12T09:00:50Z</time>
      </trkpt>
      <trkpt lat="47.56544" lon="-2.91165">
        <ele>33</ele>
        <time>2018-05-12T09:00:56Z</time>
      </trkpt>
      <trkpt lat="47.56545" lon="-2.9116">
        <ele>33</ele>
        <time>2018-05-12T09:00:58Z</time>
      </trkpt>
      <trkpt lat="47.56544" lon="-2.91152">
        <ele>33</ele>
        <time>2018-05-12T09:01:02Z</time>
      </trkpt>
      <trkpt lat="47.56543" lon="-2.91147">
        <ele>35</ele>
        <time>2018-05-12T09:01:04Z</time>
      </trkpt>
      <trkpt lat="47.56543" lon="-2.91143">
        <ele>34</ele>
        <time>2018-05-12T09:01:06Z</time>
      </trkpt>
      <trkpt lat="47.56543" lon="-2.91134">
        <ele>34</ele>
        <time>2018-05-12T09:01:10Z</time>
      </trkpt>
      <trkpt lat="47.56544" lon="-2.91127">
        <ele>34</ele>
        <time>2018-05-12T09:01:13Z</time>
      </trkpt>
      <trkpt lat="47.56544" lon="-2.91118">
        <ele>36</ele>
        <time>2018-05-12T09:01:16Z</time>
      </trkpt>
      <trkpt lat="47.56545" lon="-2.91108">
        <ele>37</ele>
        <time>2018-05-12T09:01:20Z</time>
      </trkpt>
      <trkpt lat="47.56543" lon="-2.91102">
        <ele>35</ele>
        <time>2018-05-12T09:01:24Z</time>
      </trkpt>
      <trkpt lat="47.56546" lon="-2.91097">
        <ele>33</ele>
        <time>2018-05-12T09:01:29Z</time>
      </trkpt>
      <trkpt lat="47.56548" lon="-2.91094">
        <ele>32</ele>
        <time>2018-05-12T09:01:30Z</time>
      </trkpt>
      <trkpt lat="47.56551" lon="-2.91084">
        <ele>32</ele>
        <time>2018-05-12T09:01:35Z</time>
      </trkpt>
      <trkpt lat="47.56548" lon="-2.91073">
        <ele>40</ele>
        <time>2018-05-12T09:01:39Z</time>
      </trkpt>
      <trkpt lat="47.56548" lon="-2.91069">
        <ele>39</ele>
        <time>2018-05-12T09:01:42Z</time>
      </trkpt>
      <trkpt lat="47.56548" lon="-2.91062">
        <ele>40</ele>
        <time>2018-05-12T09:01:46Z</time>
      </trkpt>
      <trkpt lat="47.56549" lon="-2.91058">
        <ele>39</ele>
        <time>2018-05-12T09:01:48Z</time>
      </trkpt>
      <trkpt lat="47.56549" lon="-2.9105">
        <ele>40</ele>
        <time>2018-05-12T09:01:51Z</time>
      </trkpt>
      <trkpt lat="47.56548" lon="-2.91043">
        <ele>43</ele>
        <time>2018-05-12T09:01:54Z</time>
      </trkpt>
      <trkpt lat="47.56548" lon="-2.91037">
        <ele>42</ele>
        <time>2018-05-12T09:01:57Z</time>
      </trkpt>
      <trkpt lat="47.56547" lon="-2.91029">
        <ele>34</ele>
        <time>2018-05-12T09:02:04Z</time>
      </trkpt>
      <trkpt lat="47.56545" lon="-2.91021">
        <ele>39</ele>
        <time>2018-05-12T09:02:07Z</time>
      </trkpt>
      <trkpt lat="47.56542" lon="-2.91015">
        <ele>38</ele>
        <time>2018-05-12T09:02:09Z</time>
      </trkpt>
      <trkpt lat="47.5654" lon="-2.91012">
        <ele>37</ele>
        <time>2018-05-12T09:02:11Z</time>
      </trkpt>
      <trkpt lat="47.5654" lon="-2.91004">
        <ele>40</ele>
        <time>2018-05-12T09:02:15Z</time>
      </trkpt>
      <trkpt lat="47.56542" lon="-2.90998">
        <ele>39</ele>
        <time>2018-05-12T09:02:19Z</time>
      </trkpt>
      <trkpt lat="47.56544" lon="-2.90991">
        <ele>37</ele>
        <time>2018-05-12T09:02:24Z</time>
      </trkpt>
      <trkpt lat="47.56546" lon="-2.90985">
        <ele>36</ele>
        <time>2018-05-12T09:02:29Z</time>
      </trkpt>
      <trkpt lat="47.56545" lon="-2.90976">
        <ele>37</ele>
        <time>2018-05-12T09:02:34Z</time>
      </trkpt>
      <trkpt lat="47.56543" lon="-2.90971">
        <ele>37</ele>
        <time>2018-05-12T09:02:38Z</time>
      </trkpt>
      <trkpt lat="47.56539" lon="-2.90964">
        <ele>33</ele>
        <time>2018-05-12T09:02:43Z</time>
      </trkpt>
      <trkpt lat="47.56539" lon="-2.90964">
        <ele>33</ele>
        <time>2018-05-12T09:02:50Z</time>
      </trkpt>
      <trkpt lat="47.56537" lon="-2.90956">
        <ele>35</ele>
        <time>2018-05-12T09:02:51Z</time>
      </trkpt>
      <trkpt lat="47.56533" lon="-2.90948">
        <ele>37</ele>
        <time>2018-05-12T09:02:55Z</time>
      </trkpt>
      <trkpt lat="47.56531" lon="-2.90942">
        <ele>36</ele>
        <time>2018-05-12T09:03:01Z</time>
      </trkpt>
      <trkpt lat="47.56529" lon="-2.90935">
        <ele>37</ele>
        <time>2018-05-12T09:03:08Z</time>
      </trkpt>
      <trkpt lat="47.56528" lon="-2.90931">
        <ele>40</ele>
        <time>2018-05-12T09:03:14Z</time>
      </trkpt>
      <trkpt lat="47.56527" lon="-2.90924">
        <ele>37</ele>
        <time>2018-05-12T09:03:20Z</time>
      </trkpt>
      <trkpt lat="47.56527" lon="-2.90919">
        <ele>36</ele>
        <time>2018-05-12T09:03:25Z</time>
      </trkpt>
      <trkpt lat="47.56525" lon="-2.90913">
        <ele>36</ele>
        <time>2018-05-12T09:03:28Z</time>
      </trkpt>
      <trkpt lat="47.56525" lon="-2.90906">
        <ele>38</ele>
        <time>2018-05-12T09:03:34Z</time>
      </trkpt>
      <trkpt lat="47.56527" lon="-2.90899">
        <ele>36</ele>
        <time>2018-05-12T09:03:40Z</time>
      </trkpt>
      <trkpt lat="47.56529" lon="-2.90891">
        <ele>41</ele>
        <time>2018-05-12T09:03:44Z</time>
      </trkpt>
      <trkpt lat="47.56532" lon="-2.90885">
        <ele>43</ele>
        <time>2018-05-12T09:03:49Z</time>
      </trkpt>
      <trkpt lat="47.56535" lon="-2.90882">
        <ele>38</ele>
        <time>2018-05-12T09:03:57Z</time>
      </trkpt>
      <trkpt lat="47.56534" lon="-2.90874">
        <ele>39</ele>
        <time>2018-05-12T09:04:04Z</time>
      </trkpt>
      <trkpt lat="47.56536" lon="-2.90867">
        <ele>38</ele>
        <time>2018-05-12T09:04:09Z</time>
      </trkpt>
      <trkpt lat="47.56538" lon="-2.90862">
        <ele>40</ele>
        <time>2018-05-12T09:04:14Z</time>
      </trkpt>
      <trkpt lat="47.56544" lon="-2.90861">
        <ele>37</ele>
        <time>2018-05-12T09:04:18Z</time>
      </trkpt>
      <trkpt lat="47.56546" lon="-2.9086">
        <ele>39</ele>
        <time>2018-05-12T09:04:20Z</time>
      </trkpt>
      <trkpt lat="47.56548" lon="-2.90853">
        <ele>40</ele>
        <time>2018-05-12T09:04:24Z</time>
      </trkpt>
      <trkpt lat="47.56552" lon="-2.90847">
        <ele>42</ele>
        <time>2018-05-12T09:04:31Z</time>
      </trkpt>
      <trkpt lat="47.56553" lon="-2.9084">
        <ele>41</ele>
        <time>2018-05-12T09:04:35Z</time>
      </trkpt>
      <trkpt lat="47.56555" lon="-2.90833">
        <ele>45</ele>
        <time>2018-05-12T09:04:38Z</time>
      </trkpt>
      <trkpt lat="47.56553" lon="-2.90827">
        <ele>46</ele>
        <time>2018-05-12T09:04:42Z</time>
      </trkpt>
      <trkpt lat="47.56555" lon="-2.9082">
        <ele>44</ele>
        <time>2018-05-12T09:04:46Z</time>
      </trkpt>
      <trkpt lat="47.56558" lon="-2.90815">
        <ele>42</ele>
        <time>2018-05-12T09:04:52Z</time>
      </trkpt>
      <trkpt lat="47.56559" lon="-2.90808">
        <ele>41</ele>
        <time>2018-05-12T09:04:57Z</time>
      </trkpt>
      <trkpt lat="47.56559" lon="-2.90799">
        <ele>42</ele>
        <time>2018-05-12T09:05:02Z</time>
      </trkpt>
      <trkpt lat="47.5656" lon="-2.90789">
        <ele>42</ele>
        <time>2018-05-12T09:05:07Z</time>
      </trkpt>
      <trkpt lat="47.56562" lon="-2.90783">
        <ele>43</ele>
        <time>2018-05-12T09:05:15Z</time>
      </trkpt>
      <trkpt lat="47.56564" lon="-2.90776">
        <ele>43</ele>
        <time>2018-05-12T09:05:20Z</time>
      </trkpt>
      <trkpt lat="47.56564" lon="-2.90768">
        <ele>42</ele>
        <time>2018-05-12T09:05:25Z</time>
      </trkpt>
      <trkpt lat="47.56568" lon="-2.90764">
        <ele>40</ele>
        <time>2018-05-12T09:05:30Z</time>
      </trkpt>
      <trkpt lat="47.56567" lon="-2.90754">
        <ele>44</ele>
        <time>2018-05-12T09:05:35Z</time>
      </trkpt>
      <trkpt lat="47.56567" lon="-2.9075">
        <ele>44</ele>
        <time>2018-05-12T09:05:40Z</time>
      </trkpt>
      <trkpt lat="47.56568" lon="-2.90742">
        <ele>44</ele>
        <time>2018-05-12T09:05:45Z</time>
      </trkpt>
      <trkpt lat="47.56569" lon="-2.90737">
        <ele>46</ele>
        <time>2018-05-12T09:05:48Z</time>
      </trkpt>
      <trkpt lat="47.56573" lon="-2.9073">
        <ele>48</ele>
        <time>2018-05-12T09:05:52Z</time>
      </trkpt>
      <trkpt lat="47.56574" lon="-2.90722">
        <ele>47</ele>
        <time>2018-05-12T09:05:58Z</time>
      </trkpt>
      <trkpt lat="47.56577" lon="-2.90715">
        <ele>47</ele>
        <time>2018-05-12T09:06:03Z</time>
      </trkpt>
      <trkpt lat="47.56579" lon="-2.90711">
        <ele>45</ele>
        <time>2018-05-12T09:06:08Z</time>
      </trkpt>
      <trkpt lat="47.56584" lon="-2.90707">
        <ele>44</ele>
        <time>2018-05-12T09:06:13Z</time>
      </trkpt>
      <trkpt lat="47.56585" lon="-2.907">
        <ele>47</ele>
        <time>2018-05-12T09:06:16Z</time>
      </trkpt>
      <trkpt lat="47.56585" lon="-2.90696">
        <ele>47</ele>
        <time>2018-05-12T09:06:20Z</time>
      </trkpt>
      <trkpt lat="47.56585" lon="-2.9069">
        <ele>47</ele>
        <time>2018-05-12T09:06:24Z</time>
      </trkpt>
      <trkpt lat="47.56586" lon="-2.90682">
        <ele>42</ele>
        <time>2018-05-12T09:06:33Z</time>
      </trkpt>
      <trkpt lat="47.56584" lon="-2.90675">
        <ele>45</ele>
        <time>2018-05-12T09:06:36Z</time>
      </trkpt>
      <trkpt lat="47.56587" lon="-2.90668">
        <ele>43</ele>
        <time>2018-05-12T09:06:42Z</time>
      </trkpt>
      <trkpt lat="47.56588" lon="-2.90661">
        <ele>44</ele>
        <time>2018-05-12T09:06:48Z</time>
      </trkpt>
      <trkpt lat="47.5659" lon="-2.90653">
        <ele>43</ele>
        <time>2018-05-12T09:06:52Z</time>
      </trkpt>
      <trkpt lat="47.56592" lon="-2.90649">
        <ele>44</ele>
        <time>2018-05-12T09:06:54Z</time>
      </trkpt>
      <trkpt lat="47.56593" lon="-2.90642">
        <ele>44</ele>
        <time>2018-05-12T09:06:58Z</time>
      </trkpt>
      <trkpt lat="47.56597" lon="-2.90636">
        <ele>41</ele>
        <time>2018-05-12T09:07:05Z</time>
      </trkpt>
      <trkpt lat="47.56599" lon="-2.90631">
        <ele>39</ele>
        <time>2018-05-12T09:07:10Z</time>
      </trkpt>
      <trkpt lat="47.56598" lon="-2.90625">
        <ele>38</ele>
        <time>2018-05-12T09:07:15Z</time>
      </trkpt>
      <trkpt lat="47.56602" lon="-2.9062">
        <ele>30</ele>
        <time>2018-05-12T09:07:23Z</time>
      </trkpt>
      <trkpt lat="47.56601" lon="-2.90613">
        <ele>34</ele>
        <time>2018-05-12T09:07:27Z</time>
      </trkpt>
      <trkpt lat="47.56602" lon="-2.90605">
        <ele>31</ele>
        <time>2018-05-12T09:07:34Z</time>
      </trkpt>
      <trkpt lat="47.56605" lon="-2.90592">
        <ele>37</ele>
        <time>2018-05-12T09:07:39Z</time>
      </trkpt>
      <trkpt lat="47.56607" lon="-2.90586">
        <ele>35</ele>
        <time>2018-05-12T09:07:44Z</time>
      </trkpt>
      <trkpt lat="47.56606" lon="-2.90578">
        <ele>35</ele>
        <time>2018-05-12T09:07:50Z</time>
      </trkpt>
      <trkpt lat="47.56608" lon="-2.90571">
        <ele>36</ele>
        <time>2018-05-12T09:07:55Z</time>
      </trkpt>
      <trkpt lat="47.56611" lon="-2.90566">
        <ele>35</ele>
        <time>2018-05-12T09:08:00Z</time>
      </trkpt>
      <trkpt lat="47.56612" lon="-2.90563">
        <ele>36</ele>
        <time>2018-05-12T09:08:02Z</time>
      </trkpt>
      <trkpt lat="47.56612" lon="-2.90555">
        <ele>36</ele>
        <time>2018-05-12T09:08:06Z</time>
      </trkpt>
      <trkpt lat="47.56614" lon="-2.90548">
        <ele>38</ele>
        <time>2018-05-12T09:08:10Z</time>
      </trkpt>
      <trkpt lat="47.56612" lon="-2.90541">
        <ele>39</ele>
        <time>2018-05-12T09:08:13Z</time>
      </trkpt>
      <trkpt lat="47.56613" lon="-2.90535">
        <ele>42</ele>
        <time>2018-05-12T09:08:16Z</time>
      </trkpt>
      <trkpt lat="47.56613" lon="-2.90526">
        <ele>44</ele>
        <time>2018-05-12T09:08:21Z</time>
      </trkpt>
      <trkpt lat="47.56613" lon="-2.90522">
        <ele>42</ele>
        <time>2018-05-12T09:08:24Z</time>
      </trkpt>
      <trkpt lat="47.56613" lon="-2.90516">
        <ele>41</ele>
        <time>2018-05-12T09:08:28Z</time>
      </trkpt>
      <trkpt lat="47.56613" lon="-2.90512">
        <ele>41</ele>
        <time>2018-05-12T09:08:30Z</time>
      </trkpt>
      <trkpt lat="47.56613" lon="-2.90509">
        <ele>39</ele>
        <time>2018-05-12T09:08:32Z</time>
      </trkpt>
      <trkpt lat="47.56611" lon="-2.90501">
        <ele>32</ele>
        <time>2018-05-12T09:08:39Z</time>
      </trkpt>
      <trkpt lat="47.56615" lon="-2.90493">
        <ele>35</ele>
        <time>2018-05-12T09:08:42Z</time>
      </trkpt>
      <trkpt lat="47.56617" lon="-2.90487">
        <ele>36</ele>
        <time>2018-05-12T09:08:46Z</time>
      </trkpt>
      <trkpt lat="47.5662" lon="-2.9048">
        <ele>36</ele>
        <time>2018-05-12T09:08:49Z</time>
      </trkpt>
      <trkpt lat="47.56623" lon="-2.90474">
        <ele>36</ele>
        <time>2018-05-12T09:08:53Z</time>
      </trkpt>
      <trkpt lat="47.56624" lon="-2.90469">
        <ele>36</ele>
        <time>2018-05-12T09:08:55Z</time>
      </trkpt>
      <trkpt lat="47.56626" lon="-2.9046">
        <ele>37</ele>
        <time>2018-05-12T09:08:59Z</time>
      </trkpt>
      <trkpt lat="47.56627" lon="-2.90453">
        <ele>44</ele>
        <time>2018-05-12T09:09:03Z</time>
      </trkpt>
      <trkpt lat="47.56629" lon="-2.90445">
        <ele>39</ele>
        <time>2018-05-12T09:09:07Z</time>
      </trkpt>
      <trkpt lat="47.5663" lon="-2.90441">
        <ele>36</ele>
        <time>2018-05-12T09:09:11Z</time>
      </trkpt>
      <trkpt lat="47.56633" lon="-2.90435">
        <ele>36</ele>
        <time>2018-05-12T09:09:14Z</time>
      </trkpt>
      <trkpt lat="47.56635" lon="-2.90431">
        <ele>37</ele>
        <time>2018-05-12T09:09:16Z</time>
      </trkpt>
      <trkpt lat="47.56634" lon="-2.90423">
        <ele>39</ele>
        <time>2018-05-12T09:09:19Z</time>
      </trkpt>
      <trkpt lat="47.56637" lon="-2.90415">
        <ele>35</ele>
        <time>2018-05-12T09:09:25Z</time>
      </trkpt>
      <trkpt lat="47.56642" lon="-2.90406">
        <ele>34</ele>
        <time>2018-05-12T09:09:30Z</time>
      </trkpt>
      <trkpt lat="47.56644" lon="-2.90394">
        <ele>38</ele>
        <time>2018-05-12T09:09:34Z</time>
      </trkpt>
      <trkpt lat="47.56648" lon="-2.90389">
        <ele>37</ele>
        <time>2018-05-12T09:09:38Z</time>
      </trkpt>
      <trkpt lat="47.5665" lon="-2.90379">
        <ele>39</ele>
        <time>2018-05-12T09:09:42Z</time>
      </trkpt>
      <trkpt lat="47.56654" lon="-2.90373">
        <ele>37</ele>
        <time>2018-05-12T09:09:45Z</time>
      </trkpt>
      <trkpt lat="47.56656" lon="-2.90367">
        <ele>37</ele>
        <time>2018-05-12T09:09:47Z</time>
      </trkpt>
      <trkpt lat="47.56657" lon="-2.90359">
        <ele>41</ele>
        <time>2018-05-12T09:09:50Z</time>
      </trkpt>
      <trkpt lat="47.56661" lon="-2.90352">
        <ele>39</ele>
        <time>2018-05-12T09:09:54Z</time>
      </trkpt>
      <trkpt lat="47.56666" lon="-2.90341">
        <ele>36</ele>
        <time>2018-05-12T09:10:02Z</time>
      </trkpt>
      <trkpt lat="47.56668" lon="-2.90335">
        <ele>37</ele>
        <time>2018-05-12T09:10:05Z</time>
      </trkpt>
      <trkpt lat="47.56668" lon="-2.90326">
        <ele>36</ele>
        <time>2018-05-12T09:10:09Z</time>
      </trkpt>
      <trkpt lat="47.56668" lon="-2.90318">
        <ele>34</ele>
        <time>2018-05-12T09:10:12Z</time>
      </trkpt>
      <trkpt lat="47.56669" lon="-2.9031">
        <ele>32</ele>
        <time>2018-05-12T09:10:17Z</time>
      </trkpt>
      <trkpt lat="47.56669" lon="-2.90304">
        <ele>34</ele>
        <time>2018-05-12T09:10:20Z</time>
      </trkpt>
      <trkpt lat="47.56671" lon="-2.90292">
        <ele>37</ele>
        <time>2018-05-12T09:10:25Z</time>
      </trkpt>
      <trkpt lat="47.56671" lon="-2.90287">
        <ele>40</ele>
        <time>2018-05-12T09:10:29Z</time>
      </trkpt>
      <trkpt lat="47.56672" lon="-2.9028">
        <ele>41</ele>
        <time>2018-05-12T09:10:31Z</time>
      </trkpt>
      <trkpt lat="47.56672" lon="-2.90272">
        <ele>41</ele>
        <time>2018-05-12T09:10:34Z</time>
      </trkpt>
      <trkpt lat="47.56673" lon="-2.90264">
        <ele>40</ele>
        <time>2018-05-12T09:10:37Z</time>
      </trkpt>
      <trkpt lat="47.56673" lon="-2.90258">
        <ele>39</ele>
        <time>2018-05-12T09:10:40Z</time>
      </trkpt>
      <trkpt lat="47.56673" lon="-2.90255">
        <ele>42</ele>
        <time>2018-05-12T09:10:41Z</time>
      </trkpt>
      <trkpt lat="47.56675" lon="-2.90248">
        <ele>40</ele>
        <time>2018-05-12T09:10:44Z</time>
      </trkpt>
      <trkpt lat="47.56675" lon="-2.9024">
        <ele>40</ele>
        <time>2018-05-12T09:10:48Z</time>
      </trkpt>
      <trkpt lat="47.56677" lon="-2.90231">
        <ele>40</ele>
        <time>2018-05-12T09:10:52Z</time>
      </trkpt>
      <trkpt lat="47.56677" lon="-2.90225">
        <ele>41</ele>
        <time>2018-05-12T09:10:54Z</time>
      </trkpt>
      <trkpt lat="47.56683" lon="-2.90214">
        <ele>44</ele>
        <time>2018-05-12T09:10:58Z</time>
      </trkpt>
      <trkpt lat="47.56685" lon="-2.90209">
        <ele>43</ele>
        <time>2018-05-12T09:11:00Z</time>
      </trkpt>
      <trkpt lat="47.56685" lon="-2.902">
        <ele>43</ele>
        <time>2018-05-12T09:11:04Z</time>
      </trkpt>
      <trkpt lat="47.56683" lon="-2.90194">
        <ele>45</ele>
        <time>2018-05-12T09:11:05Z</time>
      </trkpt>
      <trkpt lat="47.56687" lon="-2.90187">
        <ele>39</ele>
        <time>2018-05-12T09:11:11Z</time>
      </trkpt>
      <trkpt lat="47.56687" lon="-2.90178">
        <ele>35</ele>
        <time>2018-05-12T09:11:16Z</time>
      </trkpt>
      <trkpt lat="47.56687" lon="-2.9017">
        <ele>35</ele>
        <time>2018-05-12T09:11:19Z</time>
      </trkpt>
      <trkpt lat="47.56688" lon="-2.90161">
        <ele>32</ele>
        <time>2018-05-12T09:11:22Z</time>
      </trkpt>
      <trkpt lat="47.56688" lon="-2.90154">
        <ele>35</ele>
        <time>2018-05-12T09:11:24Z</time>
      </trkpt>
      <trkpt lat="47.56691" lon="-2.90149">
        <ele>35</ele>
        <time>2018-05-12T09:11:26Z</time>
      </trkpt>
      <trkpt lat="47.56694" lon="-2.90143">
        <ele>35</ele>
        <time>2018-05-12T09:11:29Z</time>
      </trkpt>
      <trkpt lat="47.56698" lon="-2.90135">
        <ele>37</ele>
        <time>2018-05-12T09:11:33Z</time>
      </trkpt>
      <trkpt lat="47.56701" lon="-2.9013">
        <ele>34</ele>
        <time>2018-05-12T09:11:37Z</time>
      </trkpt>
      <trkpt lat="47.56702" lon="-2.90122">
        <ele>32</ele>
        <time>2018-05-12T09:11:40Z</time>
      </trkpt>
      <trkpt lat="47.56702" lon="-2.90115">
        <ele>32</ele>
        <time>2018-05-12T09:11:42Z</time>
      </trkpt>
      <trkpt lat="47.56705" lon="-2.90106">
        <ele>35</ele>
        <time>2018-05-12T09:11:45Z</time>
      </trkpt>
      <trkpt lat="47.56706" lon="-2.901">
        <ele>35</ele>
        <time>2018-05-12T09:11:47Z</time>
      </trkpt>
      <trkpt lat="47.56707" lon="-2.90093">
        <ele>36</ele>
        <time>2018-05-12T09:11:50Z</time>
      </trkpt>
      <trkpt lat="47.56708" lon="-2.90086">
        <ele>36</ele>
        <time>2018-05-12T09:11:53Z</time>
      </trkpt>
      <trkpt lat="47.5671" lon="-2.90079">
        <ele>33</ele>
        <time>2018-05-12T09:11:57Z</time>
      </trkpt>
      <trkpt lat="47.56712" lon="-2.90072">
        <ele>32</ele>
        <time>2018-05-12T09:12:02Z</time>
      </trkpt>
      <trkpt lat="47.56714" lon="-2.90064">
        <ele>37</ele>
        <time>2018-05-12T09:12:05Z</time>
      </trkpt>
      <trkpt lat="47.56715" lon="-2.90059">
        <ele>38</ele>
        <time>2018-05-12T09:12:07Z</time>
      </trkpt>
      <trkpt lat="47.56717" lon="-2.90053">
        <ele>36</ele>
        <time>2018-05-12T09:12:10Z</time>
      </trkpt>
      <trkpt lat="47.56718" lon="-2.90045">
        <ele>36</ele>
        <time>2018-05-12T09:12:14Z</time>
      </trkpt>
      <trkpt lat="47.56719" lon="-2.90037">
        <ele>39</ele>
        <time>2018-05-12T09:12:17Z</time>
      </trkpt>
      <trkpt lat="47.5672" lon="-2.90029">
        <ele>43</ele>
        <time>2018-05-12T09:12:21Z</time>
      </trkpt>
      <trkpt lat="47.56721" lon="-2.90023">
        <ele>41</ele>
        <time>2018-05-12T09:12:23Z</time>
      </trkpt>
      <trkpt lat="47.56723" lon="-2.90016">
        <ele>40</ele>
        <time>2018-05-12T09:12:26Z</time>
      </trkpt>
      <trkpt lat="47.56724" lon="-2.90011">
        <ele>37</ele>
        <time>2018-05-12T09:12:28Z</time>
      </trkpt>
      <trkpt lat="47.56726" lon="-2.90004">
        <ele>32</ele>
        <time>2018-05-12T09:12:32Z</time>
      </trkpt>
      <trkpt lat="47.56728" lon="-2.89996">
        <ele>31</ele>
        <time>2018-05-12T09:12:36Z</time>
      </trkpt>
      <trkpt lat="47.5673" lon="-2.89991">
        <ele>31</ele>
        <time>2018-05-12T09:12:38Z</time>
      </trkpt>
      <trkpt lat="47.56732" lon="-2.89984">
        <ele>33</ele>
        <time>2018-05-12T09:12:42Z</time>
      </trkpt>
      <trkpt lat="47.56733" lon="-2.89973">
        <ele>35</ele>
        <time>2018-05-12T09:12:45Z</time>
      </trkpt>
      <trkpt lat="47.56733" lon="-2.89968">
        <ele>38</ele>
        <time>2018-05-12T09:12:47Z</time>
      </trkpt>
      <trkpt lat="47.56736" lon="-2.8996">
        <ele>37</ele>
        <time>2018-05-12T09:12:51Z</time>
      </trkpt>
      <trkpt lat="47.56736" lon="-2.89952">
        <ele>38</ele>
        <time>2018-05-12T09:12:54Z</time>
      </trkpt>
      <trkpt lat="47.56735" lon="-2.89945">
        <ele>39</ele>
        <time>2018-05-12T09:12:56Z</time>
      </trkpt>
      <trkpt lat="47.56735" lon="-2.89941">
        <ele>40</ele>
        <time>2018-05-12T09:12:57Z</time>
      </trkpt>
      <trkpt lat="47.56737" lon="-2.89932">
        <ele>39</ele>
        <time>2018-05-12T09:13:00Z</time>
      </trkpt>
      <trkpt lat="47.56738" lon="-2.89924">
        <ele>43</ele>
        <time>2018-05-12T09:13:04Z</time>
      </trkpt>
      <trkpt lat="47.56739" lon="-2.8992">
        <ele>44</ele>
        <time>2018-05-12T09:13:06Z</time>
      </trkpt>
      <trkpt lat="47.56742" lon="-2.89913">
        <ele>45</ele>
        <time>2018-05-12T09:13:09Z</time>
      </trkpt>
      <trkpt lat="47.56743" lon="-2.8991">
        <ele>42</ele>
        <time>2018-05-12T09:13:17Z</time>
      </trkpt>
      <trkpt lat="47.56743" lon="-2.89903">
        <ele>38</ele>
        <time>2018-05-12T09:13:19Z</time>
      </trkpt>
      <trkpt lat="47.56743" lon="-2.89889">
        <ele>34</ele>
        <time>2018-05-12T09:13:23Z</time>
      </trkpt>
      <trkpt lat="47.56743" lon="-2.89878">
        <ele>39</ele>
        <time>2018-05-12T09:13:26Z</time>
      </trkpt>
      <trkpt lat="47.56742" lon="-2.89874">
        <ele>39</ele>
        <time>2018-05-12T09:13:28Z</time>
      </trkpt>
      <trkpt lat="47.56742" lon="-2.89866">
        <ele>40</ele>
        <time>2018-05-12T09:13:31Z</time>
      </trkpt>
      <trkpt lat="47.56742" lon="-2.89858">
        <ele>37</ele>
        <time>2018-05-12T09:13:35Z</time>
      </trkpt>
      <trkpt lat="47.56742" lon="-2.89854">
        <ele>38</ele>
        <time>2018-05-12T09:13:36Z</time>
      </trkpt>
      <trkpt lat="47.56742" lon="-2.89847">
        <ele>39</ele>
        <time>2018-05-12T09:13:40Z</time>
      </trkpt>
      <trkpt lat="47.56741" lon="-2.89841">
        <ele>36</ele>
        <time>2018-05-12T09:13:44Z</time>
      </trkpt>
      <trkpt lat="47.5674" lon="-2.89837">
        <ele>35</ele>
        <time>2018-05-12T09:13:46Z</time>
      </trkpt>
      <trkpt lat="47.56739" lon="-2.8983">
        <ele>35</ele>
        <time>2018-05-12T09:13:50Z</time>
      </trkpt>
      <trkpt lat="47.56738" lon="-2.89826">
        <ele>36</ele>
        <time>2018-05-12T09:13:51Z</time>
      </trkpt>
      <trkpt lat="47.56737" lon="-2.89822">
        <ele>36</ele>
        <time>2018-05-12T09:13:53Z</time>
      </trkpt>
      <trkpt lat="47.56736" lon="-2.89817">
        <ele>37</ele>
        <time>2018-05-12T09:13:55Z</time>
      </trkpt>
      <trkpt lat="47.56735" lon="-2.89805">
        <ele>39</ele>
        <time>2018-05-12T09:13:59Z</time>
      </trkpt>
      <trkpt lat="47.56734" lon="-2.898">
        <ele>41</ele>
        <time>2018-05-12T09:14:01Z</time>
      </trkpt>
      <trkpt lat="47.56735" lon="-2.89794">
        <ele>38</ele>
        <time>2018-05-12T09:14:05Z</time>
      </trkpt>
      <trkpt lat="47.56733" lon="-2.89787">
        <ele>39</ele>
        <time>2018-05-12T09:14:08Z</time>
      </trkpt>
      <trkpt lat="47.56731" lon="-2.8978">
        <ele>39</ele>
        <time>2018-05-12T09:14:12Z</time>
      </trkpt>
      <trkpt lat="47.56729" lon="-2.89769">
        <ele>41</ele>
        <time>2018-05-12T09:14:15Z</time>
      </trkpt>
      <trkpt lat="47.56729" lon="-2.89763">
        <ele>40</ele>
        <time>2018-05-12T09:14:19Z</time>
      </trkpt>
      <trkpt lat="47.5673" lon="-2.89755">
        <ele>39</ele>
        <time>2018-05-12T09:14:23Z</time>
      </trkpt>
      <trkpt lat="47.56731" lon="-2.89747">
        <ele>40</ele>
        <time>2018-05-12T09:14:26Z</time>
      </trkpt>
      <trkpt lat="47.56731" lon="-2.89747">
        <ele>40</ele>
        <time>2018-05-12T09:14:31Z</time>
      </trkpt>
      <trkpt lat="47.56729" lon="-2.89739">
        <ele>38</ele>
        <time>2018-05-12T09:14:33Z</time>
      </trkpt>
      <trkpt lat="47.56728" lon="-2.8973">
        <ele>37</ele>
        <time>2018-05-12T09:14:37Z</time>
      </trkpt>
      <trkpt lat="47.56727" lon="-2.89723">
        <ele>36</ele>
        <time>2018-05-12T09:14:40Z</time>
      </trkpt>
      <trkpt lat="47.56726" lon="-2.89715">
        <ele>36</ele>
        <time>2018-05-12T09:14:43Z</time>
      </trkpt>
      <trkpt lat="47.56726" lon="-2.89712">
        <ele>36</ele>
        <time>2018-05-12T09:14:45Z</time>
      </trkpt>
      <trkpt lat="47.56725" lon="-2.89707">
        <ele>36</ele>
        <time>2018-05-12T09:14:49Z</time>
      </trkpt>
      <trkpt lat="47.56724" lon="-2.89699">
        <ele>40</ele>
        <time>2018-05-12T09:14:55Z</time>
      </trkpt>
      <trkpt lat="47.56725" lon="-2.89691">
        <ele>44</ele>
        <time>2018-05-12T09:14:58Z</time>
      </trkpt>
      <trkpt lat="47.56726" lon="-2.89686">
        <ele>46</ele>
        <time>2018-05-12T09:15:07Z</time>
      </trkpt>
      <trkpt lat="47.5673" lon="-2.89682">
        <ele>47</ele>
        <time>2018-05-12T09:15:14Z</time>
      </trkpt>
      <trkpt lat="47.56731" lon="-2.89675">
        <ele>47</ele>
        <time>2018-05-12T09:15:27Z</time>
      </trkpt>
      <trkpt lat="47.56735" lon="-2.8967">
        <ele>48</ele>
        <time>2018-05-12T09:15:38Z</time>
      </trkpt>
      <trkpt lat="47.56735" lon="-2.89662">
        <ele>46</ele>
        <time>2018-05-12T09:15:42Z</time>
      </trkpt>
      <trkpt lat="47.56736" lon="-2.89658">
        <ele>48</ele>
        <time>2018-05-12T09:15:44Z</time>
      </trkpt>
      <trkpt lat="47.56736" lon="-2.89651">
        <ele>46</ele>
        <time>2018-05-12T09:15:52Z</time>
      </trkpt>
      <trkpt lat="47.56744" lon="-2.89642">
        <ele>45</ele>
        <time>2018-05-12T09:16:35Z</time>
      </trkpt>
      <trkpt lat="47.56748" lon="-2.89634">
        <ele>42</ele>
        <time>2018-05-12T09:16:54Z</time>
      </trkpt>
      <trkpt lat="47.56751" lon="-2.89628">
        <ele>47</ele>
        <time>2018-05-12T09:16:57Z</time>
      </trkpt>
      <trkpt lat="47.56751" lon="-2.89621">
        <ele>48</ele>
        <time>2018-05-12T09:17:01Z</time>
      </trkpt>
      <trkpt lat="47.56747" lon="-2.89613">
        <ele>46</ele>
        <time>2018-05-12T09:17:06Z</time>
      </trkpt>
      <trkpt lat="47.56745" lon="-2.89605">
        <ele>47</ele>
        <time>2018-05-12T09:17:10Z</time>
      </trkpt>
      <trkpt lat="47.56743" lon="-2.89599">
        <ele>48</ele>
        <time>2018-05-12T09:17:13Z</time>
      </trkpt>
      <trkpt lat="47.56742" lon="-2.89596">
        <ele>50</ele>
        <time>2018-05-12T09:17:14Z</time>
      </trkpt>
      <trkpt lat="47.56741" lon="-2.89592">
        <ele>50</ele>
        <time>2018-05-12T09:17:16Z</time>
      </trkpt>
      <trkpt lat="47.56739" lon="-2.89588">
        <ele>49</ele>
        <time>2018-05-12T09:17:18Z</time>
      </trkpt>
      <trkpt lat="47.56738" lon="-2.89584">
        <ele>42</ele>
        <time>2018-05-12T09:17:22Z</time>
      </trkpt>
      <trkpt lat="47.56736" lon="-2.89577">
        <ele>41</ele>
        <time>2018-05-12T09:17:25Z</time>
      </trkpt>
      <trkpt lat="47.56735" lon="-2.89572">
        <ele>43</ele>
        <time>2018-05-12T09:17:26Z</time>
      </trkpt>
      <trkpt lat="47.56732" lon="-2.89567">
        <ele>42</ele>
        <time>2018-05-12T09:17:32Z</time>
      </trkpt>
      <trkpt lat="47.56729" lon="-2.89559">
        <ele>44</ele>
        <time>2018-05-12T09:17:36Z</time>
      </trkpt>
      <trkpt lat="47.56727" lon="-2.89551">
        <ele>45</ele>
        <time>2018-05-12T09:17:39Z</time>
      </trkpt>
      <trkpt lat="47.56726" lon="-2.89548">
        <ele>42</ele>
        <time>2018-05-12T09:17:41Z</time>
      </trkpt>
      <trkpt lat="47.56722" lon="-2.89542">
        <ele>42</ele>
        <time>2018-05-12T09:17:46Z</time>
      </trkpt>
      <trkpt lat="47.56721" lon="-2.89539">
        <ele>48</ele>
        <time>2018-05-12T09:17:48Z</time>
      </trkpt>
      <trkpt lat="47.56717" lon="-2.89531">
        <ele>44</ele>
        <time>2018-05-12T09:17:52Z</time>
      </trkpt>
      <trkpt lat="47.56714" lon="-2.89524">
        <ele>43</ele>
        <time>2018-05-12T09:17:54Z</time>
      </trkpt>
      <trkpt lat="47.56712" lon="-2.89516">
        <ele>45</ele>
        <time>2018-05-12T09:17:56Z</time>
      </trkpt>
      <trkpt lat="47.56709" lon="-2.8951">
        <ele>46</ele>
        <time>2018-05-12T09:17:59Z</time>
      </trkpt>
      <trkpt lat="47.56707" lon="-2.89503">
        <ele>46</ele>
        <time>2018-05-12T09:18:02Z</time>
      </trkpt>
      <trkpt lat="47.56704" lon="-2.89495">
        <ele>45</ele>
        <time>2018-05-12T09:18:05Z</time>
      </trkpt>
      <trkpt lat="47.56701" lon="-2.89489">
        <ele>45</ele>
        <time>2018-05-12T09:18:07Z</time>
      </trkpt>
      <trkpt lat="47.56698" lon="-2.89484">
        <ele>44</ele>
        <time>2018-05-12T09:18:10Z</time>
      </trkpt>
      <trkpt lat="47.56694" lon="-2.89475">
        <ele>44</ele>
        <time>2018-05-12T09:18:13Z</time>
      </trkpt>
      <trkpt lat="47.56692" lon="-2.89471">
        <ele>44</ele>
        <time>2018-05-12T09:18:15Z</time>
      </trkpt>
      <trkpt lat="47.5669" lon="-2.89466">
        <ele>43</ele>
        <time>2018-05-12T09:18:17Z</time>
      </trkpt>
      <trkpt lat="47.56689" lon="-2.89463">
        <ele>42</ele>
        <time>2018-05-12T09:18:19Z</time>
      </trkpt>
      <trkpt lat="47.56685" lon="-2.89452">
        <ele>45</ele>
        <time>2018-05-12T09:18:22Z</time>
      </trkpt>
      <trkpt lat="47.56684" lon="-2.89449">
        <ele>45</ele>
        <time>2018-05-12T09:18:23Z</time>
      </trkpt>
      <trkpt lat="47.56681" lon="-2.89441">
        <ele>45</ele>
        <time>2018-05-12T09:18:26Z</time>
      </trkpt>
      <trkpt lat="47.56678" lon="-2.89433">
        <ele>44</ele>
        <time>2018-05-12T09:18:30Z</time>
      </trkpt>
      <trkpt lat="47.56674" lon="-2.89425">
        <ele>46</ele>
        <time>2018-05-12T09:18:33Z</time>
      </trkpt>
      <trkpt lat="47.5667" lon="-2.89421">
        <ele>46</ele>
        <time>2018-05-12T09:18:36Z</time>
      </trkpt>
      <trkpt lat="47.56666" lon="-2.8941">
        <ele>47</ele>
        <time>2018-05-12T09:18:40Z</time>
      </trkpt>
      <trkpt lat="47.56664" lon="-2.89401">
        <ele>45</ele>
        <time>2018-05-12T09:18:44Z</time>
      </trkpt>
      <trkpt lat="47.56661" lon="-2.89396">
        <ele>47</ele>
        <time>2018-05-12T09:18:47Z</time>
      </trkpt>
      <trkpt lat="47.56658" lon="-2.89388">
        <ele>46</ele>
        <time>2018-05-12T09:18:51Z</time>
      </trkpt>
      <trkpt lat="47.56655" lon="-2.89382">
        <ele>48</ele>
        <time>2018-05-12T09:18:53Z</time>
      </trkpt>
      <trkpt lat="47.56652" lon="-2.89377">
        <ele>47</ele>
        <time>2018-05-12T09:18:58Z</time>
      </trkpt>
      <trkpt lat="47.56649" lon="-2.89373">
        <ele>46</ele>
        <time>2018-05-12T09:19:00Z</time>
      </trkpt>
      <trkpt lat="47.56648" lon="-2.89366">
        <ele>48</ele>
        <time>2018-05-12T09:19:03Z</time>
      </trkpt>
      <trkpt lat="47.56646" lon="-2.89359">
        <ele>46</ele>
        <time>2018-05-12T09:19:06Z</time>
      </trkpt>
      <trkpt lat="47.56645" lon="-2.89352">
        <ele>44</ele>
        <time>2018-05-12T09:19:09Z</time>
      </trkpt>
      <trkpt lat="47.56644" lon="-2.89346">
        <ele>45</ele>
        <time>2018-05-12T09:19:11Z</time>
      </trkpt>
      <trkpt lat="47.5664" lon="-2.89341">
        <ele>41</ele>
        <time>2018-05-12T09:19:18Z</time>
      </trkpt>
      <trkpt lat="47.56638" lon="-2.89335">
        <ele>40</ele>
        <time>2018-05-12T09:19:22Z</time>
      </trkpt>
      <trkpt lat="47.56637" lon="-2.89327">
        <ele>39</ele>
        <time>2018-05-12T09:19:25Z</time>
      </trkpt>
      <trkpt lat="47.56637" lon="-2.89317">
        <ele>38</ele>
        <time>2018-05-12T09:19:28Z</time>
      </trkpt>
      <trkpt lat="47.56635" lon="-2.8931">
        <ele>35</ele>
        <time>2018-05-12T09:19:31Z</time>
      </trkpt>
      <trkpt lat="47.56634" lon="-2.89301">
        <ele>36</ele>
        <time>2018-05-12T09:19:34Z</time>
      </trkpt>
      <trkpt lat="47.56634" lon="-2.89297">
        <ele>35</ele>
        <time>2018-05-12T09:19:36Z</time>
      </trkpt>
      <trkpt lat="47.56629" lon="-2.89284">
        <ele>37</ele>
        <time>2018-05-12T09:19:41Z</time>
      </trkpt>
      <trkpt lat="47.56628" lon="-2.89281">
        <ele>37</ele>
        <time>2018-05-12T09:19:42Z</time>
      </trkpt>
      <trkpt lat="47.56626" lon="-2.89277">
        <ele>37</ele>
        <time>2018-05-12T09:19:44Z</time>
      </trkpt>
      <trkpt lat="47.56624" lon="-2.89272">
        <ele>36</ele>
        <time>2018-05-12T09:19:48Z</time>
      </trkpt>
      <trkpt lat="47.56622" lon="-2.89267">
        <ele>37</ele>
        <time>2018-05-12T09:19:49Z</time>
      </trkpt>
      <trkpt lat="47.56621" lon="-2.89263">
        <ele>37</ele>
        <time>2018-05-12T09:19:51Z</time>
      </trkpt>
      <trkpt lat="47.56619" lon="-2.89257">
        <ele>40</ele>
        <time>2018-05-12T09:19:53Z</time>
      </trkpt>
      <trkpt lat="47.56618" lon="-2.89248">
        <ele>38</ele>
        <time>2018-05-12T09:19:56Z</time>
      </trkpt>
      <trkpt lat="47.56616" lon="-2.8924">
        <ele>40</ele>
        <time>2018-05-12T09:19:58Z</time>
      </trkpt>
      <trkpt lat="47.56613" lon="-2.89233">
        <ele>40</ele>
        <time>2018-05-12T09:20:01Z</time>
      </trkpt>
      <trkpt lat="47.56612" lon="-2.89225">
        <ele>37</ele>
        <time>2018-05-12T09:20:05Z</time>
      </trkpt>
      <trkpt lat="47.56609" lon="-2.89214">
        <ele>40</ele>
        <time>2018-05-12T09:20:10Z</time>
      </trkpt>
      <trkpt lat="47.56607" lon="-2.8921">
        <ele>41</ele>
        <time>2018-05-12T09:20:12Z</time>
      </trkpt>
      <trkpt lat="47.56606" lon="-2.89204">
        <ele>41</ele>
        <time>2018-05-12T09:20:15Z</time>
      </trkpt>
      <trkpt lat="47.56604" lon="-2.892">
        <ele>41</ele>
        <time>2018-05-12T09:20:17Z</time>
      </trkpt>
      <trkpt lat="47.56603" lon="-2.89194">
        <ele>41</ele>
        <time>2018-05-12T09:20:20Z</time>
      </trkpt>
      <trkpt lat="47.566" lon="-2.89187">
        <ele>41</ele>
        <time>2018-05-12T09:20:23Z</time>
      </trkpt>
      <trkpt lat="47.56599" lon="-2.89184">
        <ele>43</ele>
        <time>2018-05-12T09:20:25Z</time>
      </trkpt>
      <trkpt lat="47.56597" lon="-2.8918">
        <ele>42</ele>
        <time>2018-05-12T09:20:28Z</time>
      </trkpt>
      <trkpt lat="47.56596" lon="-2.89175">
        <ele>41</ele>
        <time>2018-05-12T09:20:31Z</time>
      </trkpt>
      <trkpt lat="47.56594" lon="-2.89169">
        <ele>41</ele>
        <time>2018-05-12T09:20:34Z</time>
      </trkpt>
      <trkpt lat="47.5659" lon="-2.89159">
        <ele>40</ele>
        <time>2018-05-12T09:20:40Z</time>
      </trkpt>
      <trkpt lat="47.56589" lon="-2.89155">
        <ele>39</ele>
        <time>2018-05-12T09:20:42Z</time>
      </trkpt>
      <trkpt lat="47.56588" lon="-2.89152">
        <ele>38</ele>
        <time>2018-05-12T09:20:44Z</time>
      </trkpt>
      <trkpt lat="47.56586" lon="-2.89146">
        <ele>38</ele>
        <time>2018-05-12T09:20:47Z</time>
      </trkpt>
      <trkpt lat="47.56585" lon="-2.89137">
        <ele>40</ele>
        <time>2018-05-12T09:20:51Z</time>
      </trkpt>
      <trkpt lat="47.56582" lon="-2.89127">
        <ele>42</ele>
        <time>2018-05-12T09:20:54Z</time>
      </trkpt>
      <trkpt lat="47.56579" lon="-2.89118">
        <ele>42</ele>
        <time>2018-05-12T09:20:58Z</time>
      </trkpt>
      <trkpt lat="47.56575" lon="-2.8911">
        <ele>42</ele>
        <time>2018-05-12T09:21:02Z</time>
      </trkpt>
      <trkpt lat="47.56573" lon="-2.891">
        <ele>40</ele>
        <time>2018-05-12T09:21:05Z</time>
      </trkpt>
      <trkpt lat="47.56571" lon="-2.89093">
        <ele>44</ele>
        <time>2018-05-12T09:21:07Z</time>
      </trkpt>
      <trkpt lat="47.56567" lon="-2.89087">
        <ele>44</ele>
        <time>2018-05-12T09:21:12Z</time>
      </trkpt>
      <trkpt lat="47.56566" lon="-2.8908">
        <ele>43</ele>
        <time>2018-05-12T09:21:16Z</time>
      </trkpt>
      <trkpt lat="47.56563" lon="-2.89071">
        <ele>44</ele>
        <time>2018-05-12T09:21:19Z</time>
      </trkpt>
      <trkpt lat="47.56561" lon="-2.89066">
        <ele>39</ele>
        <time>2018-05-12T09:21:23Z</time>
      </trkpt>
      <trkpt lat="47.56558" lon="-2.89059">
        <ele>41</ele>
        <time>2018-05-12T09:21:26Z</time>
      </trkpt>
      <trkpt lat="47.56554" lon="-2.89049">
        <ele>43</ele>
        <time>2018-05-12T09:21:31Z</time>
      </trkpt>
      <trkpt lat="47.56552" lon="-2.89043">
        <ele>43</ele>
        <time>2018-05-12T09:21:34Z</time>
      </trkpt>
      <trkpt lat="47.56549" lon="-2.89038">
        <ele>43</ele>
        <time>2018-05-12T09:21:36Z</time>
      </trkpt>
      <trkpt lat="47.56548" lon="-2.89033">
        <ele>46</ele>
        <time>2018-05-12T09:21:38Z</time>
      </trkpt>
      <trkpt lat="47.56544" lon="-2.89028">
        <ele>45</ele>
        <time>2018-05-12T09:21:42Z</time>
      </trkpt>
      <trkpt lat="47.56541" lon="-2.89024">
        <ele>45</ele>
        <time>2018-05-12T09:21:46Z</time>
      </trkpt>
      <trkpt lat="47.56538" lon="-2.89022">
        <ele>44</ele>
        <time>2018-05-12T09:21:49Z</time>
      </trkpt>
      <trkpt lat="47.56534" lon="-2.89016">
        <ele>39</ele>
        <time>2018-05-12T09:21:54Z</time>
      </trkpt>
      <trkpt lat="47.56529" lon="-2.89009">
        <ele>39</ele>
        <time>2018-05-12T09:21:58Z</time>
      </trkpt>
      <trkpt lat="47.56525" lon="-2.89002">
        <ele>40</ele>
        <time>2018-05-12T09:22:01Z</time>
      </trkpt>
      <trkpt lat="47.56522" lon="-2.88997">
        <ele>41</ele>
        <time>2018-05-12T09:22:04Z</time>
      </trkpt>
      <trkpt lat="47.5652" lon="-2.88991">
        <ele>42</ele>
        <time>2018-05-12T09:22:07Z</time>
      </trkpt>
      <trkpt lat="47.56518" lon="-2.88986">
        <ele>44</ele>
        <time>2018-05-12T09:22:10Z</time>
      </trkpt>
      <trkpt lat="47.56515" lon="-2.88979">
        <ele>46</ele>
        <time>2018-05-12T09:22:13Z</time>
      </trkpt>
      <trkpt lat="47.56514" lon="-2.88975">
        <ele>47</ele>
        <time>2018-05-12T09:22:15Z</time>
      </trkpt>
      <trkpt lat="47.56511" lon="-2.88967">
        <ele>47</ele>
        <time>2018-05-12T09:22:18Z</time>
      </trkpt>
      <trkpt lat="47.5651" lon="-2.88961">
        <ele>47</ele>
        <time>2018-05-12T09:22:20Z</time>
      </trkpt>
      <trkpt lat="47.56509" lon="-2.88956">
        <ele>46</ele>
        <time>2018-05-12T09:22:22Z</time>
      </trkpt>
      <trkpt lat="47.56506" lon="-2.8895">
        <ele>47</ele>
        <time>2018-05-12T09:22:25Z</time>
      </trkpt>
      <trkpt lat="47.56504" lon="-2.88942">
        <ele>48</ele>
        <time>2018-05-12T09:22:28Z</time>
      </trkpt>
      <trkpt lat="47.56502" lon="-2.88935">
        <ele>47</ele>
        <time>2018-05-12T09:22:32Z</time>
      </trkpt>
      <trkpt lat="47.565" lon="-2.88928">
        <ele>44</ele>
        <time>2018-05-12T09:22:39Z</time>
      </trkpt>
      <trkpt lat="47.56499" lon="-2.8892">
        <ele>45</ele>
        <time>2018-05-12T09:22:43Z</time>
      </trkpt>
      <trkpt lat="47.56498" lon="-2.88913">
        <ele>44</ele>
        <time>2018-05-12T09:22:48Z</time>
      </trkpt>
      <trkpt lat="47.56497" lon="-2.88905">
        <ele>44</ele>
        <time>2018-05-12T09:22:53Z</time>
      </trkpt>
      <trkpt lat="47.56496" lon="-2.889">
        <ele>44</ele>
        <time>2018-05-12T09:22:56Z</time>
      </trkpt>
      <trkpt lat="47.56495" lon="-2.88896">
        <ele>44</ele>
        <time>2018-05-12T09:22:58Z</time>
      </trkpt>
      <trkpt lat="47.56495" lon="-2.88889">
        <ele>43</ele>
        <time>2018-05-12T09:23:02Z</time>
      </trkpt>
      <trkpt lat="47.56496" lon="-2.88882">
        <ele>42</ele>
        <time>2018-05-12T09:23:06Z</time>
      </trkpt>
      <trkpt lat="47.56496" lon="-2.88877">
        <ele>44</ele>
        <time>2018-05-12T09:23:09Z</time>
      </trkpt>
      <trkpt lat="47.56498" lon="-2.88869">
        <ele>46</ele>
        <time>2018-05-12T09:23:13Z</time>
      </trkpt>
      <trkpt lat="47.565" lon="-2.88862">
        <ele>47</ele>
        <time>2018-05-12T09:23:17Z</time>
      </trkpt>
      <trkpt lat="47.56501" lon="-2.88859">
        <ele>47</ele>
        <time>2018-05-12T09:23:19Z</time>
      </trkpt>
      <trkpt lat="47.56503" lon="-2.88855">
        <ele>47</ele>
        <time>2018-05-12T09:23:22Z</time>
      </trkpt>
      <trkpt lat="47.56504" lon="-2.8885">
        <ele>47</ele>
        <time>2018-05-12T09:23:25Z</time>
      </trkpt>
      <trkpt lat="47.56508" lon="-2.88846">
        <ele>47</ele>
        <time>2018-05-12T09:23:29Z</time>
      </trkpt>
      <trkpt lat="47.5651" lon="-2.8884">
        <ele>45</ele>
        <time>2018-05-12T09:23:33Z</time>
      </trkpt>
      <trkpt lat="47.56513" lon="-2.88835">
        <ele>45</ele>
        <time>2018-05-12T09:23:36Z</time>
      </trkpt>
      <trkpt lat="47.56515" lon="-2.8883">
        <ele>45</ele>
        <time>2018-05-12T09:23:39Z</time>
      </trkpt>
      <trkpt lat="47.56517" lon="-2.88828">
        <ele>45</ele>
        <time>2018-05-12T09:23:41Z</time>
      </trkpt>
      <trkpt lat="47.56521" lon="-2.8882">
        <ele>45</ele>
        <time>2018-05-12T09:23:46Z</time>
      </trkpt>
      <trkpt lat="47.56523" lon="-2.88816">
        <ele>44</ele>
        <time>2018-05-12T09:23:48Z</time>
      </trkpt>
      <trkpt lat="47.56524" lon="-2.88812">
        <ele>44</ele>
        <time>2018-05-12T09:23:50Z</time>
      </trkpt>
      <trkpt lat="47.56528" lon="-2.88805">
        <ele>43</ele>
        <time>2018-05-12T09:23:54Z</time>
      </trkpt>
      <trkpt lat="47.56532" lon="-2.888">
        <ele>45</ele>
        <time>2018-05-12T09:23:57Z</time>
      </trkpt>
      <trkpt lat="47.56535" lon="-2.88793">
        <ele>45</ele>
        <time>2018-05-12T09:24:01Z</time>
      </trkpt>
      <trkpt lat="47.56536" lon="-2.88789">
        <ele>44</ele>
        <time>2018-05-12T09:24:04Z</time>
      </trkpt>
      <trkpt lat="47.5654" lon="-2.88784">
        <ele>43</ele>
        <time>2018-05-12T09:24:07Z</time>
      </trkpt>
      <trkpt lat="47.56543" lon="-2.88781">
        <ele>43</ele>
        <time>2018-05-12T09:24:09Z</time>
      </trkpt>
      <trkpt lat="47.56547" lon="-2.88776">
        <ele>46</ele>
        <time>2018-05-12T09:24:12Z</time>
      </trkpt>
      <trkpt lat="47.5655" lon="-2.88772">
        <ele>48</ele>
        <time>2018-05-12T09:24:15Z</time>
      </trkpt>
      <trkpt lat="47.56552" lon="-2.88765">
        <ele>45</ele>
        <time>2018-05-12T09:24:19Z</time>
      </trkpt>
      <trkpt lat="47.56557" lon="-2.88763">
        <ele>46</ele>
        <time>2018-05-12T09:24:22Z</time>
      </trkpt>
      <trkpt lat="47.56562" lon="-2.8876">
        <ele>45</ele>
        <time>2018-05-12T09:24:28Z</time>
      </trkpt>
      <trkpt lat="47.56566" lon="-2.88757">
        <ele>45</ele>
        <time>2018-05-12T09:24:30Z</time>
      </trkpt>
      <trkpt lat="47.56569" lon="-2.88753">
        <ele>43</ele>
        <time>2018-05-12T09:24:33Z</time>
      </trkpt>
      <trkpt lat="47.56573" lon="-2.88746">
        <ele>44</ele>
        <time>2018-05-12T09:24:37Z</time>
      </trkpt>
      <trkpt lat="47.56577" lon="-2.88742">
        <ele>44</ele>
        <time>2018-05-12T09:24:40Z</time>
      </trkpt>
      <trkpt lat="47.56583" lon="-2.88739">
        <ele>45</ele>
        <time>2018-05-12T09:24:44Z</time>
      </trkpt>
      <trkpt lat="47.56586" lon="-2.88737">
        <ele>44</ele>
        <time>2018-05-12T09:24:46Z</time>
      </trkpt>
      <trkpt lat="47.5659" lon="-2.88732">
        <ele>45</ele>
        <time>2018-05-12T09:24:49Z</time>
      </trkpt>
      <trkpt lat="47.56593" lon="-2.88725">
        <ele>45</ele>
        <time>2018-05-12T09:24:54Z</time>
      </trkpt>
      <trkpt lat="47.566" lon="-2.88721">
        <ele>44</ele>
        <time>2018-05-12T09:24:58Z</time>
      </trkpt>
      <trkpt lat="47.56602" lon="-2.88719">
        <ele>46</ele>
        <time>2018-05-12T09:24:59Z</time>
      </trkpt>
      <trkpt lat="47.56605" lon="-2.88718">
        <ele>45</ele>
        <time>2018-05-12T09:25:01Z</time>
      </trkpt>
      <trkpt lat="47.56609" lon="-2.88712">
        <ele>46</ele>
        <time>2018-05-12T09:25:05Z</time>
      </trkpt>
      <trkpt lat="47.56612" lon="-2.88708">
        <ele>43</ele>
        <time>2018-05-12T09:25:11Z</time>
      </trkpt>
      <trkpt lat="47.56617" lon="-2.88706">
        <ele>45</ele>
        <time>2018-05-12T09:25:20Z</time>
      </trkpt>
      <trkpt lat="47.56622" lon="-2.88706">
        <ele>46</ele>
        <time>2018-05-12T09:25:24Z</time>
      </trkpt>
      <trkpt lat="47.56627" lon="-2.88702">
        <ele>44</ele>
        <time>2018-05-12T09:25:34Z</time>
      </trkpt>
      <trkpt lat="47.56627" lon="-2.88695">
        <ele>45</ele>
        <time>2018-05-12T09:25:39Z</time>
      </trkpt>
      <trkpt lat="47.56631" lon="-2.88689">
        <ele>45</ele>
        <time>2018-05-12T09:25:42Z</time>
      </trkpt>
      <trkpt lat="47.56633" lon="-2.88685">
        <ele>44</ele>
        <time>2018-05-12T09:25:44Z</time>
      </trkpt>
      <trkpt lat="47.56636" lon="-2.88676">
        <ele>45</ele>
        <time>2018-05-12T09:25:47Z</time>
      </trkpt>
      <trkpt lat="47.56639" lon="-2.88669">
        <ele>41</ele>
        <time>2018-05-12T09:25:52Z</time>
      </trkpt>
      <trkpt lat="47.56641" lon="-2.88663">
        <ele>40</ele>
        <time>2018-05-12T09:25:55Z</time>
      </trkpt>
      <trkpt lat="47.56646" lon="-2.88658">
        <ele>42</ele>
        <time>2018-05-12T09:25:58Z</time>
      </trkpt>
      <trkpt lat="47.56648" lon="-2.88655">
        <ele>41</ele>
        <time>2018-05-12T09:26:00Z</time>
      </trkpt>
      <trkpt lat="47.56652" lon="-2.88647">
        <ele>43</ele>
        <time>2018-05-12T09:26:04Z</time>
      </trkpt>
      <trkpt lat="47.56655" lon="-2.88641">
        <ele>43</ele>
        <time>2018-05-12T09:26:06Z</time>
      </trkpt>
      <trkpt lat="47.5666" lon="-2.88633">
        <ele>46</ele>
        <time>2018-05-12T09:26:10Z</time>
      </trkpt>
      <trkpt lat="47.56663" lon="-2.88629">
        <ele>45</ele>
        <time>2018-05-12T09:26:14Z</time>
      </trkpt>
      <trkpt lat="47.56666" lon="-2.88624">
        <ele>44</ele>
        <time>2018-05-12T09:26:20Z</time>
      </trkpt>
      <trkpt lat="47.5667" lon="-2.88621">
        <ele>46</ele>
        <time>2018-05-12T09:26:24Z</time>
      </trkpt>
      <trkpt lat="47.56673" lon="-2.88614">
        <ele>46</ele>
        <time>2018-05-12T09:26:28Z</time>
      </trkpt>
      <trkpt lat="47.56677" lon="-2.88608">
        <ele>47</ele>
        <time>2018-05-12T09:26:32Z</time>
      </trkpt>
      <trkpt lat="47.5668" lon="-2.88603">
        <ele>44</ele>
        <time>2018-05-12T09:26:36Z</time>
      </trkpt>
      <trkpt lat="47.56685" lon="-2.88599">
        <ele>43</ele>
        <time>2018-05-12T09:26:39Z</time>
      </trkpt>
      <trkpt lat="47.56689" lon="-2.88594">
        <ele>45</ele>
        <time>2018-05-12T09:26:43Z</time>
      </trkpt>
      <trkpt lat="47.56691" lon="-2.88591">
        <ele>47</ele>
        <time>2018-05-12T09:26:46Z</time>
      </trkpt>
      <trkpt lat="47.56696" lon="-2.88588">
        <ele>47</ele>
        <time>2018-05-12T09:26:50Z</time>
      </trkpt>
      <trkpt lat="47.56699" lon="-2.88585">
        <ele>46</ele>
        <time>2018-05-12T09:26:53Z</time>
      </trkpt>
      <trkpt lat="47.56704" lon="-2.88581">
        <ele>46</ele>
        <time>2018-05-12T09:26:56Z</time>
      </trkpt>
      <trkpt lat="47.56709" lon="-2.88576">
        <ele>45</ele>
        <time>2018-05-12T09:27:01Z</time>
      </trkpt>
      <trkpt lat="47.56711" lon="-2.88574">
        <ele>43</ele>
        <time>2018-05-12T09:27:03Z</time>
      </trkpt>
      <trkpt lat="47.56717" lon="-2.88571">
        <ele>46</ele>
        <time>2018-05-12T09:27:06Z</time>
      </trkpt>
      <trkpt lat="47.56721" lon="-2.88569">
        <ele>49</ele>
        <time>2018-05-12T09:27:10Z</time>
      </trkpt>
      <trkpt lat="47.56726" lon="-2.88567">
        <ele>49</ele>
        <time>2018-05-12T09:27:14Z</time>
      </trkpt>
      <trkpt lat="47.56731" lon="-2.88568">
        <ele>46</ele>
        <time>2018-05-12T09:27:20Z</time>
      </trkpt>
      <trkpt lat="47.56736" lon="-2.88568">
        <ele>47</ele>
        <time>2018-05-12T09:27:23Z</time>
      </trkpt>
      <trkpt lat="47.56743" lon="-2.88568">
        <ele>48</ele>
        <time>2018-05-12T09:27:26Z</time>
      </trkpt>
      <trkpt lat="47.56747" lon="-2.88568">
        <ele>50</ele>
        <time>2018-05-12T09:27:28Z</time>
      </trkpt>
      <trkpt lat="47.56752" lon="-2.88567">
        <ele>52</ele>
        <time>2018-05-12T09:27:31Z</time>
      </trkpt>
      <trkpt lat="47.56759" lon="-2.88565">
        <ele>50</ele>
        <time>2018-05-12T09:27:36Z</time>
      </trkpt>
      <trkpt lat="47.56763" lon="-2.88564">
        <ele>50</ele>
        <time>2018-05-12T09:27:38Z</time>
      </trkpt>
      <trkpt lat="47.56768" lon="-2.88564">
        <ele>51</ele>
        <time>2018-05-12T09:27:40Z</time>
      </trkpt>
      <trkpt lat="47.56776" lon="-2.88563">
        <ele>50</ele>
        <time>2018-05-12T09:27:43Z</time>
      </trkpt>
      <trkpt lat="47.56778" lon="-2.88563">
        <ele>50</ele>
        <time>2018-05-12T09:27:44Z</time>
      </trkpt>
      <trkpt lat="47.56784" lon="-2.88561">
        <ele>49</ele>
        <time>2018-05-12T09:27:47Z</time>
      </trkpt>
      <trkpt lat="47.5679" lon="-2.88558">
        <ele>46</ele>
        <time>2018-05-12T09:27:51Z</time>
      </trkpt>
      <trkpt lat="47.56796" lon="-2.88558">
        <ele>45</ele>
        <time>2018-05-12T09:27:55Z</time>
      </trkpt>
      <trkpt lat="47.56803" lon="-2.88557">
        <ele>48</ele>
        <time>2018-05-12T09:27:58Z</time>
      </trkpt>
      <trkpt lat="47.5681" lon="-2.88553">
        <ele>47</ele>
        <time>2018-05-12T09:28:02Z</time>
      </trkpt>
      <trkpt lat="47.56815" lon="-2.8855">
        <ele>43</ele>
        <time>2018-05-12T09:28:07Z</time>
      </trkpt>
      <trkpt lat="47.56821" lon="-2.88549">
        <ele>43</ele>
        <time>2018-05-12T09:28:10Z</time>
      </trkpt>
      <trkpt lat="47.56824" lon="-2.88548">
        <ele>42</ele>
        <time>2018-05-12T09:28:12Z</time>
      </trkpt>
      <trkpt lat="47.5683" lon="-2.88547">
        <ele>44</ele>
        <time>2018-05-12T09:28:14Z</time>
      </trkpt>
      <trkpt lat="47.56837" lon="-2.88545">
        <ele>45</ele>
        <time>2018-05-12T09:28:17Z</time>
      </trkpt>
      <trkpt lat="47.5684" lon="-2.88544">
        <ele>45</ele>
        <time>2018-05-12T09:28:18Z</time>
      </trkpt>
      <trkpt lat="47.56843" lon="-2.88543">
        <ele>45</ele>
        <time>2018-05-12T09:28:19Z</time>
      </trkpt>
      <trkpt lat="47.56845" lon="-2.88542">
        <ele>46</ele>
        <time>2018-05-12T09:28:20Z</time>
      </trkpt>
      <trkpt lat="47.56849" lon="-2.8854">
        <ele>45</ele>
        <time>2018-05-12T09:28:22Z</time>
      </trkpt>
      <trkpt lat="47.56854" lon="-2.88538">
        <ele>46</ele>
        <time>2018-05-12T09:28:25Z</time>
      </trkpt>
      <trkpt lat="47.56858" lon="-2.88535">
        <ele>49</ele>
        <time>2018-05-12T09:28:29Z</time>
      </trkpt>
      <trkpt lat="47.56863" lon="-2.88535">
        <ele>49</ele>
        <time>2018-05-12T09:28:32Z</time>
      </trkpt>
      <trkpt lat="47.56867" lon="-2.88536">
        <ele>49</ele>
        <time>2018-05-12T09:28:34Z</time>
      </trkpt>
      <trkpt lat="47.56873" lon="-2.88535">
        <ele>49</ele>
        <time>2018-05-12T09:28:38Z</time>
      </trkpt>
      <trkpt lat="47.56878" lon="-2.88535">
        <ele>49</ele>
        <time>2018-05-12T09:28:41Z</time>
      </trkpt>
      <trkpt lat="47.56883" lon="-2.88535">
        <ele>49</ele>
        <time>2018-05-12T09:28:44Z</time>
      </trkpt>
      <trkpt lat="47.56887" lon="-2.88533">
        <ele>45</ele>
        <time>2018-05-12T09:28:47Z</time>
      </trkpt>
      <trkpt lat="47.56892" lon="-2.88532">
        <ele>46</ele>
        <time>2018-05-12T09:28:50Z</time>
      </trkpt>
      <trkpt lat="47.56895" lon="-2.88532">
        <ele>45</ele>
        <time>2018-05-12T09:28:52Z</time>
      </trkpt>
      <trkpt lat="47.569" lon="-2.88532">
        <ele>46</ele>
        <time>2018-05-12T09:28:55Z</time>
      </trkpt>
      <trkpt lat="47.56902" lon="-2.88531">
        <ele>46</ele>
        <time>2018-05-12T09:28:56Z</time>
      </trkpt>
      <trkpt lat="47.56907" lon="-2.88532">
        <ele>44</ele>
        <time>2018-05-12T09:28:59Z</time>
      </trkpt>
      <trkpt lat="47.56913" lon="-2.88532">
        <ele>44</ele>
        <time>2018-05-12T09:29:03Z</time>
      </trkpt>
      <trkpt lat="47.56918" lon="-2.88535">
        <ele>44</ele>
        <time>2018-05-12T09:29:06Z</time>
      </trkpt>
      <trkpt lat="47.56922" lon="-2.88537">
        <ele>44</ele>
        <time>2018-05-12T09:29:08Z</time>
      </trkpt>
      <trkpt lat="47.56925" lon="-2.88538">
        <ele>44</ele>
        <time>2018-05-12T09:29:10Z</time>
      </trkpt>
      <trkpt lat="47.5693" lon="-2.88538">
        <ele>42</ele>
        <time>2018-05-12T09:29:13Z</time>
      </trkpt>
      <trkpt lat="47.56935" lon="-2.88541">
        <ele>44</ele>
        <time>2018-05-12T09:29:16Z</time>
      </trkpt>
      <trkpt lat="47.56941" lon="-2.88545">
        <ele>40</ele>
        <time>2018-05-12T09:29:20Z</time>
      </trkpt>
      <trkpt lat="47.56947" lon="-2.88546">
        <ele>41</ele>
        <time>2018-05-12T09:29:23Z</time>
      </trkpt>
      <trkpt lat="47.56951" lon="-2.88547">
        <ele>40</ele>
        <time>2018-05-12T09:29:26Z</time>
      </trkpt>
      <trkpt lat="47.56956" lon="-2.8855">
        <ele>39</ele>
        <time>2018-05-12T09:29:29Z</time>
      </trkpt>
      <trkpt lat="47.56966" lon="-2.88552">
        <ele>41</ele>
        <time>2018-05-12T09:29:34Z</time>
      </trkpt>
      <trkpt lat="47.56969" lon="-2.88553">
        <ele>44</ele>
        <time>2018-05-12T09:29:35Z</time>
      </trkpt>
      <trkpt lat="47.56972" lon="-2.88555">
        <ele>42</ele>
        <time>2018-05-12T09:29:38Z</time>
      </trkpt>
      <trkpt lat="47.56977" lon="-2.88555">
        <ele>41</ele>
        <time>2018-05-12T09:29:42Z</time>
      </trkpt>
      <trkpt lat="47.56982" lon="-2.88558">
        <ele>41</ele>
        <time>2018-05-12T09:29:45Z</time>
      </trkpt>
      <trkpt lat="47.56988" lon="-2.88562">
        <ele>40</ele>
        <time>2018-05-12T09:29:50Z</time>
      </trkpt>
      <trkpt lat="47.56993" lon="-2.88564">
        <ele>38</ele>
        <time>2018-05-12T09:29:54Z</time>
      </trkpt>
      <trkpt lat="47.56997" lon="-2.88565">
        <ele>39</ele>
        <time>2018-05-12T09:29:56Z</time>
      </trkpt>
      <trkpt lat="47.57002" lon="-2.88568">
        <ele>39</ele>
        <time>2018-05-12T09:29:59Z</time>
      </trkpt>
      <trkpt lat="47.57009" lon="-2.8857">
        <ele>40</ele>
        <time>2018-05-12T09:30:02Z</time>
      </trkpt>
      <trkpt lat="47.57015" lon="-2.88568">
        <ele>42</ele>
        <time>2018-05-12T09:30:05Z</time>
      </trkpt>
      <trkpt lat="47.57019" lon="-2.88568">
        <ele>43</ele>
        <time>2018-05-12T09:30:07Z</time>
      </trkpt>
      <trkpt lat="47.57024" lon="-2.88567">
        <ele>42</ele>
        <time>2018-05-12T09:30:11Z</time>
      </trkpt>
      <trkpt lat="47.57028" lon="-2.88566">
        <ele>42</ele>
        <time>2018-05-12T09:30:12Z</time>
      </trkpt>
      <trkpt lat="47.57032" lon="-2.88566">
        <ele>43</ele>
        <time>2018-05-12T09:30:14Z</time>
      </trkpt>
      <trkpt lat="47.57039" lon="-2.88565">
        <ele>42</ele>
        <time>2018-05-12T09:30:18Z</time>
      </trkpt>
      <trkpt lat="47.57043" lon="-2.88564">
        <ele>42</ele>
        <time>2018-05-12T09:30:20Z</time>
      </trkpt>
      <trkpt lat="47.57053" lon="-2.88563">
        <ele>45</ele>
        <time>2018-05-12T09:30:23Z</time>
      </trkpt>
      <trkpt lat="47.57058" lon="-2.88562">
        <ele>43</ele>
        <time>2018-05-12T09:30:27Z</time>
      </trkpt>
      <trkpt lat="47.57064" lon="-2.88562">
        <ele>45</ele>
        <time>2018-05-12T09:30:32Z</time>
      </trkpt>
      <trkpt lat="47.57067" lon="-2.88562">
        <ele>44</ele>
        <time>2018-05-12T09:30:35Z</time>
      </trkpt>
      <trkpt lat="47.57072" lon="-2.88563">
        <ele>40</ele>
        <time>2018-05-12T09:30:41Z</time>
      </trkpt>
      <trkpt lat="47.57075" lon="-2.88565">
        <ele>41</ele>
        <time>2018-05-12T09:30:42Z</time>
      </trkpt>
      <trkpt lat="47.57081" lon="-2.88565">
        <ele>45</ele>
        <time>2018-05-12T09:30:46Z</time>
      </trkpt>
      <trkpt lat="47.57084" lon="-2.88565">
        <ele>45</ele>
        <time>2018-05-12T09:30:48Z</time>
      </trkpt>
      <trkpt lat="47.57089" lon="-2.88568">
        <ele>43</ele>
        <time>2018-05-12T09:30:52Z</time>
      </trkpt>
      <trkpt lat="47.57093" lon="-2.8857">
        <ele>43</ele>
        <time>2018-05-12T09:30:54Z</time>
      </trkpt>
      <trkpt lat="47.57096" lon="-2.88571">
        <ele>42</ele>
        <time>2018-05-12T09:30:56Z</time>
      </trkpt>
      <trkpt lat="47.571" lon="-2.88572">
        <ele>43</ele>
        <time>2018-05-12T09:30:58Z</time>
      </trkpt>
      <trkpt lat="47.57105" lon="-2.88571">
        <ele>42</ele>
        <time>2018-05-12T09:31:01Z</time>
      </trkpt>
      <trkpt lat="47.5711" lon="-2.88571">
        <ele>43</ele>
        <time>2018-05-12T09:31:04Z</time>
      </trkpt>
      <trkpt lat="47.57115" lon="-2.88569">
        <ele>42</ele>
        <time>2018-05-12T09:31:07Z</time>
      </trkpt>
      <trkpt lat="47.5712" lon="-2.88569">
        <ele>44</ele>
        <time>2018-05-12T09:31:09Z</time>
      </trkpt>
      <trkpt lat="47.57124" lon="-2.88569">
        <ele>44</ele>
        <time>2018-05-12T09:31:11Z</time>
      </trkpt>
      <trkpt lat="47.57127" lon="-2.88569">
        <ele>43</ele>
        <time>2018-05-12T09:31:13Z</time>
      </trkpt>
      <trkpt lat="47.57132" lon="-2.88571">
        <ele>44</ele>
        <time>2018-05-12T09:31:16Z</time>
      </trkpt>
      <trkpt lat="47.57138" lon="-2.88572">
        <ele>42</ele>
        <time>2018-05-12T09:31:20Z</time>
      </trkpt>
      <trkpt lat="47.57144" lon="-2.88574">
        <ele>42</ele>
        <time>2018-05-12T09:31:23Z</time>
      </trkpt>
      <trkpt lat="47.57147" lon="-2.88575">
        <ele>43</ele>
        <time>2018-05-12T09:31:24Z</time>
      </trkpt>
      <trkpt lat="47.57151" lon="-2.88578">
        <ele>42</ele>
        <time>2018-05-12T09:31:27Z</time>
      </trkpt>
      <trkpt lat="47.57153" lon="-2.8858">
        <ele>43</ele>
        <time>2018-05-12T09:31:28Z</time>
      </trkpt>
      <trkpt lat="47.57158" lon="-2.88583">
        <ele>43</ele>
        <time>2018-05-12T09:31:30Z</time>
      </trkpt>
      <trkpt lat="47.57161" lon="-2.88585">
        <ele>42</ele>
        <time>2018-05-12T09:31:32Z</time>
      </trkpt>
      <trkpt lat="47.57165" lon="-2.88588">
        <ele>42</ele>
        <time>2018-05-12T09:31:34Z</time>
      </trkpt>
      <trkpt lat="47.5717" lon="-2.88593">
        <ele>43</ele>
        <time>2018-05-12T09:31:37Z</time>
      </trkpt>
      <trkpt lat="47.57172" lon="-2.88596">
        <ele>43</ele>
        <time>2018-05-12T09:31:38Z</time>
      </trkpt>
      <trkpt lat="47.57177" lon="-2.88601">
        <ele>44</ele>
        <time>2018-05-12T09:31:41Z</time>
      </trkpt>
      <trkpt lat="47.57181" lon="-2.88605">
        <ele>45</ele>
        <time>2018-05-12T09:31:44Z</time>
      </trkpt>
      <trkpt lat="47.57183" lon="-2.88607">
        <ele>45</ele>
        <time>2018-05-12T09:31:46Z</time>
      </trkpt>
      <trkpt lat="47.57186" lon="-2.88609">
        <ele>45</ele>
        <time>2018-05-12T09:31:48Z</time>
      </trkpt>
      <trkpt lat="47.57188" lon="-2.88611">
        <ele>45</ele>
        <time>2018-05-12T09:31:50Z</time>
      </trkpt>
      <trkpt lat="47.57193" lon="-2.88615">
        <ele>46</ele>
        <time>2018-05-12T09:31:55Z</time>
      </trkpt>
      <trkpt lat="47.57199" lon="-2.88615">
        <ele>44</ele>
        <time>2018-05-12T09:32:00Z</time>
      </trkpt>
      <trkpt lat="47.57204" lon="-2.8862">
        <ele>43</ele>
        <time>2018-05-12T09:32:04Z</time>
      </trkpt>
      <trkpt lat="47.57207" lon="-2.88623">
        <ele>45</ele>
        <time>2018-05-12T09:32:06Z</time>
      </trkpt>
      <trkpt lat="47.57209" lon="-2.88626">
        <ele>44</ele>
        <time>2018-05-12T09:32:08Z</time>
      </trkpt>
      <trkpt lat="47.57213" lon="-2.88631">
        <ele>43</ele>
        <time>2018-05-12T09:32:11Z</time>
      </trkpt>
      <trkpt lat="47.57215" lon="-2.88635">
        <ele>42</ele>
        <time>2018-05-12T09:32:13Z</time>
      </trkpt>
      <trkpt lat="47.57217" lon="-2.88638">
        <ele>42</ele>
        <time>2018-05-12T09:32:15Z</time>
      </trkpt>
      <trkpt lat="47.57219" lon="-2.88641">
        <ele>42</ele>
        <time>2018-05-12T09:32:17Z</time>
      </trkpt>
      <trkpt lat="47.57221" lon="-2.88647">
        <ele>42</ele>
        <time>2018-05-12T09:32:20Z</time>
      </trkpt>
      <trkpt lat="47.57225" lon="-2.88653">
        <ele>40</ele>
        <time>2018-05-12T09:32:24Z</time>
      </trkpt>
      <trkpt lat="47.57226" lon="-2.88656">
        <ele>40</ele>
        <time>2018-05-12T09:32:26Z</time>
      </trkpt>
      <trkpt lat="47.57229" lon="-2.8866">
        <ele>41</ele>
        <time>2018-05-12T09:32:28Z</time>
      </trkpt>
      <trkpt lat="47.57231" lon="-2.88665">
        <ele>41</ele>
        <time>2018-05-12T09:32:30Z</time>
      </trkpt>
      <trkpt lat="47.57236" lon="-2.88671">
        <ele>43</ele>
        <time>2018-05-12T09:32:33Z</time>
      </trkpt>
      <trkpt lat="47.57238" lon="-2.88675">
        <ele>44</ele>
        <time>2018-05-12T09:32:35Z</time>
      </trkpt>
      <trkpt lat="47.57243" lon="-2.88679">
        <ele>44</ele>
        <time>2018-05-12T09:32:38Z</time>
      </trkpt>
      <trkpt lat="47.57249" lon="-2.88682">
        <ele>43</ele>
        <time>2018-05-12T09:32:41Z</time>
      </trkpt>
      <trkpt lat="47.57251" lon="-2.88684">
        <ele>43</ele>
        <time>2018-05-12T09:32:43Z</time>
      </trkpt>
      <trkpt lat="47.57256" lon="-2.88688">
        <ele>44</ele>
        <time>2018-05-12T09:32:46Z</time>
      </trkpt>
      <trkpt lat="47.57259" lon="-2.88691">
        <ele>43</ele>
        <time>2018-05-12T09:32:48Z</time>
      </trkpt>
      <trkpt lat="47.57262" lon="-2.88694">
        <ele>43</ele>
        <time>2018-05-12T09:32:50Z</time>
      </trkpt>
      <trkpt lat="47.57263" lon="-2.88697">
        <ele>44</ele>
        <time>2018-05-12T09:32:51Z</time>
      </trkpt>
      <trkpt lat="47.57266" lon="-2.887">
        <ele>44</ele>
        <time>2018-05-12T09:32:53Z</time>
      </trkpt>
      <trkpt lat="47.57268" lon="-2.88706">
        <ele>45</ele>
        <time>2018-05-12T09:32:56Z</time>
      </trkpt>
      <trkpt lat="47.57273" lon="-2.88711">
        <ele>45</ele>
        <time>2018-05-12T09:32:59Z</time>
      </trkpt>
      <trkpt lat="47.57276" lon="-2.88716">
        <ele>45</ele>
        <time>2018-05-12T09:33:02Z</time>
      </trkpt>
      <trkpt lat="47.57278" lon="-2.8872">
        <ele>46</ele>
        <time>2018-05-12T09:33:04Z</time>
      </trkpt>
      <trkpt lat="47.5728" lon="-2.88727">
        <ele>45</ele>
        <time>2018-05-12T09:33:08Z</time>
      </trkpt>
      <trkpt lat="47.57283" lon="-2.88733">
        <ele>45</ele>
        <time>2018-05-12T09:33:11Z</time>
      </trkpt>
      <trkpt lat="47.57287" lon="-2.88739">
        <ele>45</ele>
        <time>2018-05-12T09:33:15Z</time>
      </trkpt>
      <trkpt lat="47.57289" lon="-2.88742">
        <ele>46</ele>
        <time>2018-05-12T09:33:16Z</time>
      </trkpt>
      <trkpt lat="47.57294" lon="-2.88746">
        <ele>45</ele>
        <time>2018-05-12T09:33:19Z</time>
      </trkpt>
      <trkpt lat="47.57297" lon="-2.88749">
        <ele>45</ele>
        <time>2018-05-12T09:33:21Z</time>
      </trkpt>
      <trkpt lat="47.57301" lon="-2.88752">
        <ele>45</ele>
        <time>2018-05-12T09:33:23Z</time>
      </trkpt>
      <trkpt lat="47.57305" lon="-2.88755">
        <ele>45</ele>
        <time>2018-05-12T09:33:25Z</time>
      </trkpt>
      <trkpt lat="47.57308" lon="-2.88758">
        <ele>46</ele>
        <time>2018-05-12T09:33:27Z</time>
      </trkpt>
      <trkpt lat="47.5731" lon="-2.88759">
        <ele>46</ele>
        <time>2018-05-12T09:33:28Z</time>
      </trkpt>
      <trkpt lat="47.57316" lon="-2.88765">
        <ele>46</ele>
        <time>2018-05-12T09:33:31Z</time>
      </trkpt>
      <trkpt lat="47.57323" lon="-2.8877">
        <ele>45</ele>
        <time>2018-05-12T09:33:34Z</time>
      </trkpt>
      <trkpt lat="47.57325" lon="-2.88772">
        <ele>45</ele>
        <time>2018-05-12T09:33:35Z</time>
      </trkpt>
      <trkpt lat="47.57331" lon="-2.88777">
        <ele>46</ele>
        <time>2018-05-12T09:33:38Z</time>
      </trkpt>
      <trkpt lat="47.57334" lon="-2.8878">
        <ele>44</ele>
        <time>2018-05-12T09:33:40Z</time>
      </trkpt>
      <trkpt lat="47.5734" lon="-2.88786">
        <ele>45</ele>
        <time>2018-05-12T09:33:43Z</time>
      </trkpt>
      <trkpt lat="47.57342" lon="-2.88789">
        <ele>46</ele>
        <time>2018-05-12T09:33:44Z</time>
      </trkpt>
      <trkpt lat="47.57344" lon="-2.88791">
        <ele>46</ele>
        <time>2018-05-12T09:33:45Z</time>
      </trkpt>
      <trkpt lat="47.57347" lon="-2.88796">
        <ele>46</ele>
        <time>2018-05-12T09:33:47Z</time>
      </trkpt>
      <trkpt lat="47.57353" lon="-2.88803">
        <ele>46</ele>
        <time>2018-05-12T09:33:50Z</time>
      </trkpt>
      <trkpt lat="47.57355" lon="-2.88805">
        <ele>46</ele>
        <time>2018-05-12T09:33:51Z</time>
      </trkpt>
      <trkpt lat="47.5736" lon="-2.88812">
        <ele>46</ele>
        <time>2018-05-12T09:33:54Z</time>
      </trkpt>
      <trkpt lat="47.57362" lon="-2.88815">
        <ele>47</ele>
        <time>2018-05-12T09:33:55Z</time>
      </trkpt>
      <trkpt lat="47.57364" lon="-2.88817">
        <ele>47</ele>
        <time>2018-05-12T09:33:56Z</time>
      </trkpt>
      <trkpt lat="47.57365" lon="-2.8882">
        <ele>47</ele>
        <time>2018-05-12T09:33:57Z</time>
      </trkpt>
      <trkpt lat="47.57367" lon="-2.88822">
        <ele>47</ele>
        <time>2018-05-12T09:33:58Z</time>
      </trkpt>
      <trkpt lat="47.57371" lon="-2.88827">
        <ele>48</ele>
        <time>2018-05-12T09:34:00Z</time>
      </trkpt>
      <trkpt lat="47.57374" lon="-2.88833">
        <ele>47</ele>
        <time>2018-05-12T09:34:03Z</time>
      </trkpt>
      <trkpt lat="47.57377" lon="-2.88838">
        <ele>47</ele>
        <time>2018-05-12T09:34:05Z</time>
      </trkpt>
      <trkpt lat="47.57379" lon="-2.88842">
        <ele>46</ele>
        <time>2018-05-12T09:34:07Z</time>
      </trkpt>
      <trkpt lat="47.57382" lon="-2.8885">
        <ele>47</ele>
        <time>2018-05-12T09:34:10Z</time>
      </trkpt>
      <trkpt lat="47.57383" lon="-2.88856">
        <ele>47</ele>
        <time>2018-05-12T09:34:12Z</time>
      </trkpt>
      <trkpt lat="47.57384" lon="-2.88859">
        <ele>48</ele>
        <time>2018-05-12T09:34:13Z</time>
      </trkpt>
      <trkpt lat="47.57385" lon="-2.88865">
        <ele>47</ele>
        <time>2018-05-12T09:34:15Z</time>
      </trkpt>
      <trkpt lat="47.57388" lon="-2.88873">
        <ele>47</ele>
        <time>2018-05-12T09:34:18Z</time>
      </trkpt>
      <trkpt lat="47.57389" lon="-2.88879">
        <ele>47</ele>
        <time>2018-05-12T09:34:21Z</time>
      </trkpt>
      <trkpt lat="47.5739" lon="-2.88887">
        <ele>47</ele>
        <time>2018-05-12T09:34:25Z</time>
      </trkpt>
      <trkpt lat="47.57389" lon="-2.88894">
        <ele>48</ele>
        <time>2018-05-12T09:34:30Z</time>
      </trkpt>
      <trkpt lat="47.57387" lon="-2.88901">
        <ele>48</ele>
        <time>2018-05-12T09:34:35Z</time>
      </trkpt>
      <trkpt lat="47.57384" lon="-2.88907">
        <ele>48</ele>
        <time>2018-05-12T09:34:41Z</time>
      </trkpt>
      <trkpt lat="47.57379" lon="-2.8891">
        <ele>48</ele>
        <time>2018-05-12T09:34:46Z</time>
      </trkpt>
      <trkpt lat="47.57376" lon="-2.88912">
        <ele>49</ele>
        <time>2018-05-12T09:34:54Z</time>
      </trkpt>
      <trkpt lat="47.57372" lon="-2.88915">
        <ele>47</ele>
        <time>2018-05-12T09:35:00Z</time>
      </trkpt>
      <trkpt lat="47.57371" lon="-2.88921">
        <ele>45</ele>
        <time>2018-05-12T09:35:11Z</time>
      </trkpt>
      <trkpt lat="47.5737" lon="-2.88929">
        <ele>46</ele>
        <time>2018-05-12T09:35:14Z</time>
      </trkpt>
      <trkpt lat="47.57371" lon="-2.88937">
        <ele>46</ele>
        <time>2018-05-12T09:35:17Z</time>
      </trkpt>
      <trkpt lat="47.57373" lon="-2.88943">
        <ele>46</ele>
        <time>2018-05-12T09:35:20Z</time>
      </trkpt>
      <trkpt lat="47.57378" lon="-2.88951">
        <ele>45</ele>
        <time>2018-05-12T09:35:26Z</time>
      </trkpt>
      <trkpt lat="47.5738" lon="-2.88954">
        <ele>48</ele>
        <time>2018-05-12T09:35:28Z</time>
      </trkpt>
      <trkpt lat="47.57383" lon="-2.8896">
        <ele>47</ele>
        <time>2018-05-12T09:35:31Z</time>
      </trkpt>
      <trkpt lat="47.57386" lon="-2.88964">
        <ele>47</ele>
        <time>2018-05-12T09:35:33Z</time>
      </trkpt>
      <trkpt lat="47.5739" lon="-2.88969">
        <ele>47</ele>
        <time>2018-05-12T09:35:36Z</time>
      </trkpt>
      <trkpt lat="47.57393" lon="-2.88975">
        <ele>45</ele>
        <time>2018-05-12T09:35:39Z</time>
      </trkpt>
      <trkpt lat="47.57396" lon="-2.88983">
        <ele>44</ele>
        <time>2018-05-12T09:35:42Z</time>
      </trkpt>
      <trkpt lat="47.57401" lon="-2.88985">
        <ele>42</ele>
        <time>2018-05-12T09:35:45Z</time>
      </trkpt>
      <trkpt lat="47.57404" lon="-2.88993">
        <ele>43</ele>
        <time>2018-05-12T09:35:49Z</time>
      </trkpt>
      <trkpt lat="47.57406" lon="-2.88997">
        <ele>42</ele>
        <time>2018-05-12T09:35:53Z</time>
      </trkpt>
      <trkpt lat="47.57408" lon="-2.89005">
        <ele>42</ele>
        <time>2018-05-12T09:35:58Z</time>
      </trkpt>
      <trkpt lat="47.57411" lon="-2.89011">
        <ele>41</ele>
        <time>2018-05-12T09:36:01Z</time>
      </trkpt>
      <trkpt lat="47.57413" lon="-2.89018">
        <ele>42</ele>
        <time>2018-05-12T09:36:04Z</time>
      </trkpt>
      <trkpt lat="47.57413" lon="-2.89026">
        <ele>44</ele>
        <time>2018-05-12T09:36:07Z</time>
      </trkpt>
      <trkpt lat="47.57417" lon="-2.89035">
        <ele>45</ele>
        <time>2018-05-12T09:36:11Z</time>
      </trkpt>
      <trkpt lat="47.57418" lon="-2.89039">
        <ele>42</ele>
        <time>2018-05-12T09:36:14Z</time>
      </trkpt>
      <trkpt lat="47.57421" lon="-2.89045">
        <ele>42</ele>
        <time>2018-05-12T09:36:17Z</time>
      </trkpt>
      <trkpt lat="47.57424" lon="-2.89052">
        <ele>42</ele>
        <time>2018-05-12T09:36:20Z</time>
      </trkpt>
      <trkpt lat="47.57426" lon="-2.89056">
        <ele>42</ele>
        <time>2018-05-12T09:36:22Z</time>
      </trkpt>
      <trkpt lat="47.57428" lon="-2.8906">
        <ele>41</ele>
        <time>2018-05-12T09:36:24Z</time>
      </trkpt>
      <trkpt lat="47.5743" lon="-2.89068">
        <ele>42</ele>
        <time>2018-05-12T09:36:29Z</time>
      </trkpt>
      <trkpt lat="47.57435" lon="-2.89073">
        <ele>42</ele>
        <time>2018-05-12T09:36:34Z</time>
      </trkpt>
      <trkpt lat="47.57438" lon="-2.8908">
        <ele>45</ele>
        <time>2018-05-12T09:36:37Z</time>
      </trkpt>
      <trkpt lat="47.57441" lon="-2.89087">
        <ele>47</ele>
        <time>2018-05-12T09:36:41Z</time>
      </trkpt>
      <trkpt lat="47.57442" lon="-2.89095">
        <ele>50</ele>
        <time>2018-05-12T09:36:45Z</time>
      </trkpt>
      <trkpt lat="47.57444" lon="-2.89102">
        <ele>48</ele>
        <time>2018-05-12T09:36:49Z</time>
      </trkpt>
      <trkpt lat="47.57445" lon="-2.89106">
        <ele>46</ele>
        <time>2018-05-12T09:36:51Z</time>
      </trkpt>
      <trkpt lat="47.57449" lon="-2.89111">
        <ele>47</ele>
        <time>2018-05-12T09:36:55Z</time>
      </trkpt>
      <trkpt lat="47.57453" lon="-2.89118">
        <ele>46</ele>
        <time>2018-05-12T09:36:58Z</time>
      </trkpt>
      <trkpt lat="47.57454" lon="-2.89125">
        <ele>45</ele>
        <time>2018-05-12T09:37:01Z</time>
      </trkpt>
      <trkpt lat="47.57455" lon="-2.89128">
        <ele>47</ele>
        <time>2018-05-12T09:37:02Z</time>
      </trkpt>
      <trkpt lat="47.57456" lon="-2.89133">
        <ele>47</ele>
        <time>2018-05-12T09:37:04Z</time>
      </trkpt>
      <trkpt lat="47.57458" lon="-2.89137">
        <ele>47</ele>
        <time>2018-05-12T09:37:06Z</time>
      </trkpt>
      <trkpt lat="47.57459" lon="-2.89145">
        <ele>48</ele>
        <time>2018-05-12T09:37:09Z</time>
      </trkpt>
      <trkpt lat="47.57462" lon="-2.89151">
        <ele>45</ele>
        <time>2018-05-12T09:37:13Z</time>
      </trkpt>
      <trkpt lat="47.57464" lon="-2.89156">
        <ele>44</ele>
        <time>2018-05-12T09:37:16Z</time>
      </trkpt>
      <trkpt lat="47.57466" lon="-2.89164">
        <ele>43</ele>
        <time>2018-05-12T09:37:19Z</time>
      </trkpt>
      <trkpt lat="47.57469" lon="-2.89173">
        <ele>45</ele>
        <time>2018-05-12T09:37:22Z</time>
      </trkpt>
      <trkpt lat="47.57473" lon="-2.8918">
        <ele>44</ele>
        <time>2018-05-12T09:37:25Z</time>
      </trkpt>
      <trkpt lat="47.57474" lon="-2.89189">
        <ele>44</ele>
        <time>2018-05-12T09:37:29Z</time>
      </trkpt>
      <trkpt lat="47.57475" lon="-2.89193">
        <ele>43</ele>
        <time>2018-05-12T09:37:31Z</time>
      </trkpt>
      <trkpt lat="47.57474" lon="-2.89202">
        <ele>45</ele>
        <time>2018-05-12T09:37:34Z</time>
      </trkpt>
      <trkpt lat="47.57474" lon="-2.8921">
        <ele>45</ele>
        <time>2018-05-12T09:37:37Z</time>
      </trkpt>
      <trkpt lat="47.57477" lon="-2.89218">
        <ele>44</ele>
        <time>2018-05-12T09:37:41Z</time>
      </trkpt>
      <trkpt lat="47.57476" lon="-2.89227">
        <ele>46</ele>
        <time>2018-05-12T09:37:44Z</time>
      </trkpt>
      <trkpt lat="47.57476" lon="-2.89235">
        <ele>45</ele>
        <time>2018-05-12T09:37:47Z</time>
      </trkpt>
      <trkpt lat="47.57474" lon="-2.89244">
        <ele>42</ele>
        <time>2018-05-12T09:37:51Z</time>
      </trkpt>
      <trkpt lat="47.57475" lon="-2.89259">
        <ele>44</ele>
        <time>2018-05-12T09:37:56Z</time>
      </trkpt>
      <trkpt lat="47.57477" lon="-2.89265">
        <ele>46</ele>
        <time>2018-05-12T09:37:58Z</time>
      </trkpt>
      <trkpt lat="47.5748" lon="-2.89271">
        <ele>46</ele>
        <time>2018-05-12T09:38:01Z</time>
      </trkpt>
      <trkpt lat="47.57483" lon="-2.89275">
        <ele>42</ele>
        <time>2018-05-12T09:38:04Z</time>
      </trkpt>
      <trkpt lat="47.57486" lon="-2.89281">
        <ele>43</ele>
        <time>2018-05-12T09:38:08Z</time>
      </trkpt>
      <trkpt lat="47.57488" lon="-2.89288">
        <ele>43</ele>
        <time>2018-05-12T09:38:12Z</time>
      </trkpt>
      <trkpt lat="47.5749" lon="-2.89294">
        <ele>43</ele>
        <time>2018-05-12T09:38:14Z</time>
      </trkpt>
      <trkpt lat="47.57491" lon="-2.89301">
        <ele>42</ele>
        <time>2018-05-12T09:38:18Z</time>
      </trkpt>
      <trkpt lat="47.57493" lon="-2.8931">
        <ele>43</ele>
        <time>2018-05-12T09:38:21Z</time>
      </trkpt>
      <trkpt lat="47.57495" lon="-2.89316">
        <ele>43</ele>
        <time>2018-05-12T09:38:24Z</time>
      </trkpt>
      <trkpt lat="47.575" lon="-2.89323">
        <ele>42</ele>
        <time>2018-05-12T09:38:28Z</time>
      </trkpt>
      <trkpt lat="47.57502" lon="-2.8933">
        <ele>42</ele>
        <time>2018-05-12T09:38:31Z</time>
      </trkpt>
      <trkpt lat="47.57504" lon="-2.89335">
        <ele>43</ele>
        <time>2018-05-12T09:38:33Z</time>
      </trkpt>
      <trkpt lat="47.57508" lon="-2.89342">
        <ele>44</ele>
        <time>2018-05-12T09:38:36Z</time>
      </trkpt>
      <trkpt lat="47.57511" lon="-2.89349">
        <ele>43</ele>
        <time>2018-05-12T09:38:40Z</time>
      </trkpt>
      <trkpt lat="47.57514" lon="-2.89354">
        <ele>44</ele>
        <time>2018-05-12T09:38:42Z</time>
      </trkpt>
      <trkpt lat="47.57518" lon="-2.8936">
        <ele>43</ele>
        <time>2018-05-12T09:38:45Z</time>
      </trkpt>
      <trkpt lat="47.57524" lon="-2.89363">
        <ele>42</ele>
        <time>2018-05-12T09:38:48Z</time>
      </trkpt>
      <trkpt lat="47.57528" lon="-2.89366">
        <ele>42</ele>
        <time>2018-05-12T09:38:51Z</time>
      </trkpt>
      <trkpt lat="47.57533" lon="-2.89372">
        <ele>41</ele>
        <time>2018-05-12T09:38:55Z</time>
      </trkpt>
      <trkpt lat="47.57537" lon="-2.89377">
        <ele>39</ele>
        <time>2018-05-12T09:38:58Z</time>
      </trkpt>
      <trkpt lat="47.57541" lon="-2.89383">
        <ele>40</ele>
        <time>2018-05-12T09:39:01Z</time>
      </trkpt>
      <trkpt lat="47.57544" lon="-2.89387">
        <ele>41</ele>
        <time>2018-05-12T09:39:03Z</time>
      </trkpt>
      <trkpt lat="47.57546" lon="-2.8939">
        <ele>44</ele>
        <time>2018-05-12T09:39:05Z</time>
      </trkpt>
      <trkpt lat="47.57551" lon="-2.89393">
        <ele>43</ele>
        <time>2018-05-12T09:39:08Z</time>
      </trkpt>
      <trkpt lat="47.57554" lon="-2.894">
        <ele>44</ele>
        <time>2018-05-12T09:39:10Z</time>
      </trkpt>
      <trkpt lat="47.57556" lon="-2.89405">
        <ele>46</ele>
        <time>2018-05-12T09:39:12Z</time>
      </trkpt>
      <trkpt lat="47.5756" lon="-2.8941">
        <ele>45</ele>
        <time>2018-05-12T09:39:15Z</time>
      </trkpt>
      <trkpt lat="47.57565" lon="-2.89417">
        <ele>44</ele>
        <time>2018-05-12T09:39:18Z</time>
      </trkpt>
      <trkpt lat="47.57568" lon="-2.89422">
        <ele>43</ele>
        <time>2018-05-12T09:39:20Z</time>
      </trkpt>
      <trkpt lat="47.57572" lon="-2.89425">
        <ele>41</ele>
        <time>2018-05-12T09:39:23Z</time>
      </trkpt>
      <trkpt lat="47.57576" lon="-2.89427">
        <ele>41</ele>
        <time>2018-05-12T09:39:25Z</time>
      </trkpt>
      <trkpt lat="47.57581" lon="-2.89432">
        <ele>41</ele>
        <time>2018-05-12T09:39:28Z</time>
      </trkpt>
      <trkpt lat="47.57584" lon="-2.89437">
        <ele>41</ele>
        <time>2018-05-12T09:39:31Z</time>
      </trkpt>
      <trkpt lat="47.57587" lon="-2.8944">
        <ele>42</ele>
        <time>2018-05-12T09:39:33Z</time>
      </trkpt>
      <trkpt lat="47.5759" lon="-2.89445">
        <ele>40</ele>
        <time>2018-05-12T09:39:36Z</time>
      </trkpt>
      <trkpt lat="47.57593" lon="-2.89449">
        <ele>38</ele>
        <time>2018-05-12T09:39:39Z</time>
      </trkpt>
      <trkpt lat="47.57599" lon="-2.89452">
        <ele>32</ele>
        <time>2018-05-12T09:39:44Z</time>
      </trkpt>
      <trkpt lat="47.57604" lon="-2.89461">
        <ele>33</ele>
        <time>2018-05-12T09:39:47Z</time>
      </trkpt>
      <trkpt lat="47.57606" lon="-2.89465">
        <ele>34</ele>
        <time>2018-05-12T09:39:49Z</time>
      </trkpt>
      <trkpt lat="47.5761" lon="-2.89469">
        <ele>35</ele>
        <time>2018-05-12T09:39:51Z</time>
      </trkpt>
      <trkpt lat="47.57615" lon="-2.89476">
        <ele>35</ele>
        <time>2018-05-12T09:39:54Z</time>
      </trkpt>
      <trkpt lat="47.57621" lon="-2.89481">
        <ele>37</ele>
        <time>2018-05-12T09:39:57Z</time>
      </trkpt>
      <trkpt lat="47.57624" lon="-2.89486">
        <ele>36</ele>
        <time>2018-05-12T09:40:00Z</time>
      </trkpt>
      <trkpt lat="47.57626" lon="-2.89489">
        <ele>37</ele>
        <time>2018-05-12T09:40:02Z</time>
      </trkpt>
      <trkpt lat="47.57628" lon="-2.89493">
        <ele>37</ele>
        <time>2018-05-12T09:40:05Z</time>
      </trkpt>
      <trkpt lat="47.57631" lon="-2.89498">
        <ele>37</ele>
        <time>2018-05-12T09:40:08Z</time>
      </trkpt>
      <trkpt lat="47.57634" lon="-2.89503">
        <ele>40</ele>
        <time>2018-05-12T09:40:11Z</time>
      </trkpt>
      <trkpt lat="47.57635" lon="-2.8951">
        <ele>39</ele>
        <time>2018-05-12T09:40:14Z</time>
      </trkpt>
      <trkpt lat="47.57638" lon="-2.89516">
        <ele>39</ele>
        <time>2018-05-12T09:40:17Z</time>
      </trkpt>
      <trkpt lat="47.57639" lon="-2.8952">
        <ele>42</ele>
        <time>2018-05-12T09:40:19Z</time>
      </trkpt>
      <trkpt lat="47.57643" lon="-2.89524">
        <ele>42</ele>
        <time>2018-05-12T09:40:23Z</time>
      </trkpt>
      <trkpt lat="47.57647" lon="-2.89529">
        <ele>43</ele>
        <time>2018-05-12T09:40:28Z</time>
      </trkpt>
      <trkpt lat="47.5765" lon="-2.89532">
        <ele>44</ele>
        <time>2018-05-12T09:40:31Z</time>
      </trkpt>
      <trkpt lat="47.57653" lon="-2.89535">
        <ele>44</ele>
        <time>2018-05-12T09:40:36Z</time>
      </trkpt>
      <trkpt lat="47.57655" lon="-2.89538">
        <ele>45</ele>
        <time>2018-05-12T09:40:39Z</time>
      </trkpt>
      <trkpt lat="47.57658" lon="-2.89541">
        <ele>47</ele>
        <time>2018-05-12T09:40:43Z</time>
      </trkpt>
      <trkpt lat="47.57664" lon="-2.89542">
        <ele>49</ele>
        <time>2018-05-12T09:40:50Z</time>
      </trkpt>
      <trkpt lat="47.57666" lon="-2.89545">
        <ele>50</ele>
        <time>2018-05-12T09:40:58Z</time>
      </trkpt>
      <trkpt lat="47.57668" lon="-2.89547">
        <ele>49</ele>
        <time>2018-05-12T09:41:04Z</time>
      </trkpt>
      <trkpt lat="47.57673" lon="-2.89547">
        <ele>48</ele>
        <time>2018-05-12T09:41:08Z</time>
      </trkpt>
      <trkpt lat="47.57676" lon="-2.89555">
        <ele>44</ele>
        <time>2018-05-12T09:41:17Z</time>
      </trkpt>
      <trkpt lat="47.57682" lon="-2.89555">
        <ele>41</ele>
        <time>2018-05-12T09:41:24Z</time>
      </trkpt>
      <trkpt lat="47.57686" lon="-2.89559">
        <ele>40</ele>
        <time>2018-05-12T09:41:28Z</time>
      </trkpt>
      <trkpt lat="47.57692" lon="-2.89563">
        <ele>41</ele>
        <time>2018-05-12T09:41:33Z</time>
      </trkpt>
      <trkpt lat="47.57696" lon="-2.89568">
        <ele>41</ele>
        <time>2018-05-12T09:41:37Z</time>
      </trkpt>
      <trkpt lat="47.577" lon="-2.89575">
        <ele>41</ele>
        <time>2018-05-12T09:41:43Z</time>
      </trkpt>
      <trkpt lat="47.57704" lon="-2.89579">
        <ele>41</ele>
        <time>2018-05-12T09:41:46Z</time>
      </trkpt>
      <trkpt lat="47.57708" lon="-2.89581">
        <ele>38</ele>
        <time>2018-05-12T09:41:49Z</time>
      </trkpt>
      <trkpt lat="47.57713" lon="-2.89585">
        <ele>41</ele>
        <time>2018-05-12T09:41:52Z</time>
      </trkpt>
      <trkpt lat="47.57718" lon="-2.89587">
        <ele>42</ele>
        <time>2018-05-12T09:41:58Z</time>
      </trkpt>
      <trkpt lat="47.57722" lon="-2.89593">
        <ele>44</ele>
        <time>2018-05-12T09:42:02Z</time>
      </trkpt>
      <trkpt lat="47.57724" lon="-2.89595">
        <ele>44</ele>
        <time>2018-05-12T09:42:04Z</time>
      </trkpt>
      <trkpt lat="47.57729" lon="-2.89598">
        <ele>45</ele>
        <time>2018-05-12T09:42:06Z</time>
      </trkpt>
      <trkpt lat="47.57732" lon="-2.89604">
        <ele>44</ele>
        <time>2018-05-12T09:42:10Z</time>
      </trkpt>
      <trkpt lat="47.57735" lon="-2.8961">
        <ele>45</ele>
        <time>2018-05-12T09:42:13Z</time>
      </trkpt>
      <trkpt lat="47.5774" lon="-2.89614">
        <ele>43</ele>
        <time>2018-05-12T09:42:17Z</time>
      </trkpt>
      <trkpt lat="47.57746" lon="-2.89621">
        <ele>43</ele>
        <time>2018-05-12T09:42:22Z</time>
      </trkpt>
      <trkpt lat="47.57748" lon="-2.89624">
        <ele>42</ele>
        <time>2018-05-12T09:42:24Z</time>
      </trkpt>
      <trkpt lat="47.57754" lon="-2.89629">
        <ele>38</ele>
        <time>2018-05-12T09:42:28Z</time>
      </trkpt>
      <trkpt lat="47.57758" lon="-2.89638">
        <ele>41</ele>
        <time>2018-05-12T09:42:32Z</time>
      </trkpt>
      <trkpt lat="47.5776" lon="-2.89644">
        <ele>41</ele>
        <time>2018-05-12T09:42:35Z</time>
      </trkpt>
      <trkpt lat="47.57762" lon="-2.89653">
        <ele>40</ele>
        <time>2018-05-12T09:42:39Z</time>
      </trkpt>
      <trkpt lat="47.57766" lon="-2.8966">
        <ele>42</ele>
        <time>2018-05-12T09:42:43Z</time>
      </trkpt>
      <trkpt lat="47.57771" lon="-2.89667">
        <ele>41</ele>
        <time>2018-05-12T09:42:48Z</time>
      </trkpt>
      <trkpt lat="47.57774" lon="-2.89676">
        <ele>43</ele>
        <time>2018-05-12T09:42:52Z</time>
      </trkpt>
      <trkpt lat="47.57777" lon="-2.89682">
        <ele>43</ele>
        <time>2018-05-12T09:42:54Z</time>
      </trkpt>
      <trkpt lat="47.57779" lon="-2.89689">
        <ele>38</ele>
        <time>2018-05-12T09:43:00Z</time>
      </trkpt>
      <trkpt lat="47.57779" lon="-2.89696">
        <ele>37</ele>
        <time>2018-05-12T09:43:03Z</time>
      </trkpt>
      <trkpt lat="47.5778" lon="-2.89702">
        <ele>38</ele>
        <time>2018-05-12T09:43:05Z</time>
      </trkpt>
      <trkpt lat="47.57782" lon="-2.89708">
        <ele>38</ele>
        <time>2018-05-12T09:43:08Z</time>
      </trkpt>
      <trkpt lat="47.57786" lon="-2.89715">
        <ele>40</ele>
        <time>2018-05-12T09:43:11Z</time>
      </trkpt>
      <trkpt lat="47.57789" lon="-2.89719">
        <ele>40</ele>
        <time>2018-05-12T09:43:13Z</time>
      </trkpt>
      <trkpt lat="47.5779" lon="-2.89726">
        <ele>40</ele>
        <time>2018-05-12T09:43:16Z</time>
      </trkpt>
      <trkpt lat="47.57794" lon="-2.89731">
        <ele>40</ele>
        <time>2018-05-12T09:43:18Z</time>
      </trkpt>
      <trkpt lat="47.57796" lon="-2.89737">
        <ele>40</ele>
        <time>2018-05-12T09:43:21Z</time>
      </trkpt>
      <trkpt lat="47.57798" lon="-2.89741">
        <ele>42</ele>
        <time>2018-05-12T09:43:23Z</time>
      </trkpt>
      <trkpt lat="47.57802" lon="-2.89747">
        <ele>40</ele>
        <time>2018-05-12T09:43:26Z</time>
      </trkpt>
      <trkpt lat="47.57805" lon="-2.89753">
        <ele>42</ele>
        <time>2018-05-12T09:43:29Z</time>
      </trkpt>
      <trkpt lat="47.57808" lon="-2.89759">
        <ele>41</ele>
        <time>2018-05-12T09:43:32Z</time>
      </trkpt>
      <trkpt lat="47.57812" lon="-2.89765">
        <ele>41</ele>
        <time>2018-05-12T09:43:35Z</time>
      </trkpt>
      <trkpt lat="47.57817" lon="-2.89767">
        <ele>37</ele>
        <time>2018-05-12T09:43:39Z</time>
      </trkpt>
      <trkpt lat="47.57821" lon="-2.89773">
        <ele>37</ele>
        <time>2018-05-12T09:43:41Z</time>
      </trkpt>
      <trkpt lat="47.57826" lon="-2.89778">
        <ele>37</ele>
        <time>2018-05-12T09:43:44Z</time>
      </trkpt>
      <trkpt lat="47.57832" lon="-2.89782">
        <ele>42</ele>
        <time>2018-05-12T09:43:47Z</time>
      </trkpt>
      <trkpt lat="47.57836" lon="-2.89788">
        <ele>45</ele>
        <time>2018-05-12T09:43:50Z</time>
      </trkpt>
      <trkpt lat="47.57838" lon="-2.89791">
        <ele>46</ele>
        <time>2018-05-12T09:43:52Z</time>
      </trkpt>
      <trkpt lat="47.5784" lon="-2.89793">
        <ele>46</ele>
        <time>2018-05-12T09:43:54Z</time>
      </trkpt>
      <trkpt lat="47.57844" lon="-2.89798">
        <ele>46</ele>
        <time>2018-05-12T09:43:57Z</time>
      </trkpt>
      <trkpt lat="47.57848" lon="-2.898">
        <ele>46</ele>
        <time>2018-05-12T09:44:00Z</time>
      </trkpt>
      <trkpt lat="47.57852" lon="-2.89808">
        <ele>46</ele>
        <time>2018-05-12T09:44:03Z</time>
      </trkpt>
      <trkpt lat="47.57856" lon="-2.89813">
        <ele>46</ele>
        <time>2018-05-12T09:44:07Z</time>
      </trkpt>
      <trkpt lat="47.57859" lon="-2.89819">
        <ele>46</ele>
        <time>2018-05-12T09:44:12Z</time>
      </trkpt>
      <trkpt lat="47.57863" lon="-2.89824">
        <ele>47</ele>
        <time>2018-05-12T09:44:19Z</time>
      </trkpt>
      <trkpt lat="47.57865" lon="-2.8983">
        <ele>46</ele>
        <time>2018-05-12T09:44:24Z</time>
      </trkpt>
      <trkpt lat="47.57869" lon="-2.89834">
        <ele>46</ele>
        <time>2018-05-12T09:44:29Z</time>
      </trkpt>
      <trkpt lat="47.57871" lon="-2.89837">
        <ele>46</ele>
        <time>2018-05-12T09:44:31Z</time>
      </trkpt>
      <trkpt lat="47.57873" lon="-2.89839">
        <ele>45</ele>
        <time>2018-05-12T09:44:33Z</time>
      </trkpt>
      <trkpt lat="47.57876" lon="-2.89845">
        <ele>45</ele>
        <time>2018-05-12T09:44:38Z</time>
      </trkpt>
      <trkpt lat="47.57879" lon="-2.8985">
        <ele>45</ele>
        <time>2018-05-12T09:44:42Z</time>
      </trkpt>
      <trkpt lat="47.5788" lon="-2.89857">
        <ele>45</ele>
        <time>2018-05-12T09:44:45Z</time>
      </trkpt>
      <trkpt lat="47.57884" lon="-2.89863">
        <ele>45</ele>
        <time>2018-05-12T09:44:49Z</time>
      </trkpt>
      <trkpt lat="47.57887" lon="-2.89867">
        <ele>45</ele>
        <time>2018-05-12T09:44:52Z</time>
      </trkpt>
      <trkpt lat="47.57889" lon="-2.8987">
        <ele>45</ele>
        <time>2018-05-12T09:44:55Z</time>
      </trkpt>
      <trkpt lat="47.57893" lon="-2.89875">
        <ele>47</ele>
        <time>2018-05-12T09:45:01Z</time>
      </trkpt>
      <trkpt lat="47.57895" lon="-2.89878">
        <ele>42</ele>
        <time>2018-05-12T09:45:07Z</time>
      </trkpt>
      <trkpt lat="47.57897" lon="-2.89884">
        <ele>42</ele>
        <time>2018-05-12T09:45:12Z</time>
      </trkpt>
      <trkpt lat="47.57901" lon="-2.8989">
        <ele>45</ele>
        <time>2018-05-12T09:45:19Z</time>
      </trkpt>
      <trkpt lat="47.57902" lon="-2.89897">
        <ele>46</ele>
        <time>2018-05-12T09:45:24Z</time>
      </trkpt>
      <trkpt lat="47.57902" lon="-2.89901">
        <ele>47</ele>
        <time>2018-05-12T09:45:26Z</time>
      </trkpt>
      <trkpt lat="47.57904" lon="-2.89907">
        <ele>46</ele>
        <time>2018-05-12T09:45:34Z</time>
      </trkpt>
      <trkpt lat="47.57905" lon="-2.89915">
        <ele>43</ele>
        <time>2018-05-12T09:45:39Z</time>
      </trkpt>
      <trkpt lat="47.57907" lon="-2.89921">
        <ele>46</ele>
        <time>2018-05-12T09:45:44Z</time>
      </trkpt>
      <trkpt lat="47.57907" lon="-2.89921">
        <ele>46</ele>
        <time>2018-05-12T09:45:52Z</time>
      </trkpt>
      <trkpt lat="47.57907" lon="-2.89921">
        <ele>46</ele>
        <time>2018-05-12T09:45:53Z</time>
      </trkpt>
      <trkpt lat="47.5791" lon="-2.89927">
        <ele>45</ele>
        <time>2018-05-12T09:45:55Z</time>
      </trkpt>
      <trkpt lat="47.57914" lon="-2.89928">
        <ele>44</ele>
        <time>2018-05-12T09:46:03Z</time>
      </trkpt>
      <trkpt lat="47.57919" lon="-2.89935">
        <ele>43</ele>
        <time>2018-05-12T09:46:09Z</time>
      </trkpt>
      <trkpt lat="47.57922" lon="-2.89941">
        <ele>43</ele>
        <time>2018-05-12T09:46:13Z</time>
      </trkpt>
      <trkpt lat="47.57925" lon="-2.89946">
        <ele>44</ele>
        <time>2018-05-12T09:46:16Z</time>
      </trkpt>
      <trkpt lat="47.57927" lon="-2.89949">
        <ele>51</ele>
        <time>2018-05-12T09:46:22Z</time>
      </trkpt>
      <trkpt lat="47.57929" lon="-2.89956">
        <ele>50</ele>
        <time>2018-05-12T09:46:30Z</time>
      </trkpt>
      <trkpt lat="47.57931" lon="-2.8996">
        <ele>47</ele>
        <time>2018-05-12T09:46:37Z</time>
      </trkpt>
      <trkpt lat="47.57933" lon="-2.89967">
        <ele>49</ele>
        <time>2018-05-12T09:46:43Z</time>
      </trkpt>
      <trkpt lat="47.57935" lon="-2.89974">
        <ele>49</ele>
        <time>2018-05-12T09:46:46Z</time>
      </trkpt>
      <trkpt lat="47.57936" lon="-2.89978">
        <ele>49</ele>
        <time>2018-05-12T09:46:48Z</time>
      </trkpt>
      <trkpt lat="47.57938" lon="-2.89982">
        <ele>48</ele>
        <time>2018-05-12T09:46:50Z</time>
      </trkpt>
      <trkpt lat="47.57939" lon="-2.89989">
        <ele>47</ele>
        <time>2018-05-12T09:46:54Z</time>
      </trkpt>
      <trkpt lat="47.57939" lon="-2.89994">
        <ele>49</ele>
        <time>2018-05-12T09:46:56Z</time>
      </trkpt>
      <trkpt lat="47.57941" lon="-2.90002">
        <ele>47</ele>
        <time>2018-05-12T09:47:00Z</time>
      </trkpt>
      <trkpt lat="47.57943" lon="-2.90009">
        <ele>46</ele>
        <time>2018-05-12T09:47:03Z</time>
      </trkpt>
      <trkpt lat="47.57944" lon="-2.90012">
        <ele>45</ele>
        <time>2018-05-12T09:47:05Z</time>
      </trkpt>
      <trkpt lat="47.57946" lon="-2.90016">
        <ele>46</ele>
        <time>2018-05-12T09:47:07Z</time>
      </trkpt>
      <trkpt lat="47.57948" lon="-2.90026">
        <ele>46</ele>
        <time>2018-05-12T09:47:12Z</time>
      </trkpt>
      <trkpt lat="47.57949" lon="-2.90031">
        <ele>46</ele>
        <time>2018-05-12T09:47:15Z</time>
      </trkpt>
      <trkpt lat="47.57951" lon="-2.90037">
        <ele>45</ele>
        <time>2018-05-12T09:47:19Z</time>
      </trkpt>
      <trkpt lat="47.57953" lon="-2.90042">
        <ele>42</ele>
        <time>2018-05-12T09:47:23Z</time>
      </trkpt>
      <trkpt lat="47.57956" lon="-2.90047">
        <ele>41</ele>
        <time>2018-05-12T09:47:26Z</time>
      </trkpt>
      <trkpt lat="47.57957" lon="-2.90057">
        <ele>41</ele>
        <time>2018-05-12T09:47:29Z</time>
      </trkpt>
      <trkpt lat="47.57958" lon="-2.90067">
        <ele>44</ele>
        <time>2018-05-12T09:47:33Z</time>
      </trkpt>
      <trkpt lat="47.5796" lon="-2.90075">
        <ele>45</ele>
        <time>2018-05-12T09:47:37Z</time>
      </trkpt>
      <trkpt lat="47.57962" lon="-2.9008">
        <ele>47</ele>
        <time>2018-05-12T09:47:39Z</time>
      </trkpt>
      <trkpt lat="47.57962" lon="-2.90088">
        <ele>47</ele>
        <time>2018-05-12T09:47:42Z</time>
      </trkpt>
      <trkpt lat="47.57965" lon="-2.90093">
        <ele>46</ele>
        <time>2018-05-12T09:47:45Z</time>
      </trkpt>
      <trkpt lat="47.57968" lon="-2.90099">
        <ele>45</ele>
        <time>2018-05-12T09:47:48Z</time>
      </trkpt>
      <trkpt lat="47.57972" lon="-2.90106">
        <ele>43</ele>
        <time>2018-05-12T09:47:53Z</time>
      </trkpt>
      <trkpt lat="47.57976" lon="-2.90113">
        <ele>41</ele>
        <time>2018-05-12T09:47:57Z</time>
      </trkpt>
      <trkpt lat="47.57978" lon="-2.9012">
        <ele>43</ele>
        <time>2018-05-12T09:48:00Z</time>
      </trkpt>
      <trkpt lat="47.57981" lon="-2.90127">
        <ele>41</ele>
        <time>2018-05-12T09:48:03Z</time>
      </trkpt>
      <trkpt lat="47.57985" lon="-2.90133">
        <ele>42</ele>
        <time>2018-05-12T09:48:06Z</time>
      </trkpt>
      <trkpt lat="47.57988" lon="-2.90141">
        <ele>40</ele>
        <time>2018-05-12T09:48:09Z</time>
      </trkpt>
      <trkpt lat="47.57991" lon="-2.90145">
        <ele>41</ele>
        <time>2018-05-12T09:48:11Z</time>
      </trkpt>
      <trkpt lat="47.57994" lon="-2.90154">
        <ele>42</ele>
        <time>2018-05-12T09:48:14Z</time>
      </trkpt>
      <trkpt lat="47.57996" lon="-2.9016">
        <ele>43</ele>
        <time>2018-05-12T09:48:16Z</time>
      </trkpt>
      <trkpt lat="47.58001" lon="-2.90168">
        <ele>43</ele>
        <time>2018-05-12T09:48:19Z</time>
      </trkpt>
      <trkpt lat="47.58004" lon="-2.90176">
        <ele>44</ele>
        <time>2018-05-12T09:48:22Z</time>
      </trkpt>
      <trkpt lat="47.58006" lon="-2.90183">
        <ele>43</ele>
        <time>2018-05-12T09:48:25Z</time>
      </trkpt>
      <trkpt lat="47.5801" lon="-2.90193">
        <ele>42</ele>
        <time>2018-05-12T09:48:29Z</time>
      </trkpt>
      <trkpt lat="47.58011" lon="-2.90196">
        <ele>42</ele>
        <time>2018-05-12T09:48:30Z</time>
      </trkpt>
      <trkpt lat="47.58014" lon="-2.90206">
        <ele>43</ele>
        <time>2018-05-12T09:48:34Z</time>
      </trkpt>
      <trkpt lat="47.58014" lon="-2.90212">
        <ele>43</ele>
        <time>2018-05-12T09:48:37Z</time>
      </trkpt>
      <trkpt lat="47.58018" lon="-2.90217">
        <ele>40</ele>
        <time>2018-05-12T09:48:40Z</time>
      </trkpt>
      <trkpt lat="47.5802" lon="-2.90222">
        <ele>40</ele>
        <time>2018-05-12T09:48:42Z</time>
      </trkpt>
      <trkpt lat="47.58023" lon="-2.90229">
        <ele>40</ele>
        <time>2018-05-12T09:48:44Z</time>
      </trkpt>
      <trkpt lat="47.58029" lon="-2.90234">
        <ele>41</ele>
        <time>2018-05-12T09:48:47Z</time>
      </trkpt>
      <trkpt lat="47.58032" lon="-2.90242">
        <ele>40</ele>
        <time>2018-05-12T09:48:51Z</time>
      </trkpt>
      <trkpt lat="47.58034" lon="-2.90247">
        <ele>39</ele>
        <time>2018-05-12T09:48:53Z</time>
      </trkpt>
      <trkpt lat="47.58037" lon="-2.90255">
        <ele>41</ele>
        <time>2018-05-12T09:48:56Z</time>
      </trkpt>
      <trkpt lat="47.58039" lon="-2.90259">
        <ele>39</ele>
        <time>2018-05-12T09:48:59Z</time>
      </trkpt>
      <trkpt lat="47.58041" lon="-2.90265">
        <ele>41</ele>
        <time>2018-05-12T09:49:01Z</time>
      </trkpt>
      <trkpt lat="47.58045" lon="-2.90274">
        <ele>39</ele>
        <time>2018-05-12T09:49:05Z</time>
      </trkpt>
      <trkpt lat="47.58047" lon="-2.90277">
        <ele>39</ele>
        <time>2018-05-12T09:49:06Z</time>
      </trkpt>
      <trkpt lat="47.5805" lon="-2.90282">
        <ele>40</ele>
        <time>2018-05-12T09:49:09Z</time>
      </trkpt>
      <trkpt lat="47.58055" lon="-2.90288">
        <ele>42</ele>
        <time>2018-05-12T09:49:12Z</time>
      </trkpt>
      <trkpt lat="47.58058" lon="-2.90295">
        <ele>43</ele>
        <time>2018-05-12T09:49:15Z</time>
      </trkpt>
      <trkpt lat="47.5806" lon="-2.90305">
        <ele>44</ele>
        <time>2018-05-12T09:49:18Z</time>
      </trkpt>
      <trkpt lat="47.58061" lon="-2.90309">
        <ele>42</ele>
        <time>2018-05-12T09:49:20Z</time>
      </trkpt>
      <trkpt lat="47.58066" lon="-2.90311">
        <ele>43</ele>
        <time>2018-05-12T09:49:21Z</time>
      </trkpt>
      <trkpt lat="47.58068" lon="-2.90319">
        <ele>45</ele>
        <time>2018-05-12T09:49:25Z</time>
      </trkpt>
      <trkpt lat="47.5807" lon="-2.90329">
        <ele>45</ele>
        <time>2018-05-12T09:49:29Z</time>
      </trkpt>
      <trkpt lat="47.58073" lon="-2.90336">
        <ele>44</ele>
        <time>2018-05-12T09:49:33Z</time>
      </trkpt>
      <trkpt lat="47.58074" lon="-2.90345">
        <ele>42</ele>
        <time>2018-05-12T09:49:36Z</time>
      </trkpt>
      <trkpt lat="47.58077" lon="-2.90351">
        <ele>42</ele>
        <time>2018-05-12T09:49:39Z</time>
      </trkpt>
      <trkpt lat="47.5808" lon="-2.90357">
        <ele>42</ele>
        <time>2018-05-12T09:49:42Z</time>
      </trkpt>
      <trkpt lat="47.58083" lon="-2.90365">
        <ele>43</ele>
        <time>2018-05-12T09:49:45Z</time>
      </trkpt>
      <trkpt lat="47.58086" lon="-2.90371">
        <ele>40</ele>
        <time>2018-05-12T09:49:50Z</time>
      </trkpt>
      <trkpt lat="47.5809" lon="-2.90378">
        <ele>40</ele>
        <time>2018-05-12T09:49:53Z</time>
      </trkpt>
      <trkpt lat="47.58093" lon="-2.90384">
        <ele>40</ele>
        <time>2018-05-12T09:49:56Z</time>
      </trkpt>
      <trkpt lat="47.58096" lon="-2.90394">
        <ele>40</ele>
        <time>2018-05-12T09:50:02Z</time>
      </trkpt>
      <trkpt lat="47.58099" lon="-2.904">
        <ele>40</ele>
        <time>2018-05-12T09:50:05Z</time>
      </trkpt>
      <trkpt lat="47.58101" lon="-2.90408">
        <ele>39</ele>
        <time>2018-05-12T09:50:08Z</time>
      </trkpt>
      <trkpt lat="47.58103" lon="-2.90413">
        <ele>40</ele>
        <time>2018-05-12T09:50:10Z</time>
      </trkpt>
      <trkpt lat="47.58104" lon="-2.9042">
        <ele>41</ele>
        <time>2018-05-12T09:50:14Z</time>
      </trkpt>
      <trkpt lat="47.58107" lon="-2.90426">
        <ele>41</ele>
        <time>2018-05-12T09:50:17Z</time>
      </trkpt>
      <trkpt lat="47.5811" lon="-2.90433">
        <ele>45</ele>
        <time>2018-05-12T09:50:20Z</time>
      </trkpt>
      <trkpt lat="47.58112" lon="-2.9044">
        <ele>44</ele>
        <time>2018-05-12T09:50:24Z</time>
      </trkpt>
      <trkpt lat="47.58116" lon="-2.90447">
        <ele>44</ele>
        <time>2018-05-12T09:50:28Z</time>
      </trkpt>
      <trkpt lat="47.58118" lon="-2.90454">
        <ele>39</ele>
        <time>2018-05-12T09:50:33Z</time>
      </trkpt>
      <trkpt lat="47.58121" lon="-2.9046">
        <ele>38</ele>
        <time>2018-05-12T09:50:35Z</time>
      </trkpt>
      <trkpt lat="47.58123" lon="-2.90464">
        <ele>39</ele>
        <time>2018-05-12T09:50:37Z</time>
      </trkpt>
      <trkpt lat="47.58124" lon="-2.90467">
        <ele>40</ele>
        <time>2018-05-12T09:50:38Z</time>
      </trkpt>
      <trkpt lat="47.58126" lon="-2.90475">
        <ele>40</ele>
        <time>2018-05-12T09:50:41Z</time>
      </trkpt>
      <trkpt lat="47.58127" lon="-2.9048">
        <ele>40</ele>
        <time>2018-05-12T09:50:43Z</time>
      </trkpt>
      <trkpt lat="47.5813" lon="-2.90487">
        <ele>41</ele>
        <time>2018-05-12T09:50:46Z</time>
      </trkpt>
      <trkpt lat="47.58131" lon="-2.90495">
        <ele>39</ele>
        <time>2018-05-12T09:50:50Z</time>
      </trkpt>
      <trkpt lat="47.58132" lon="-2.90505">
        <ele>40</ele>
        <time>2018-05-12T09:50:53Z</time>
      </trkpt>
      <trkpt lat="47.58134" lon="-2.90512">
        <ele>39</ele>
        <time>2018-05-12T09:50:56Z</time>
      </trkpt>
      <trkpt lat="47.58136" lon="-2.90518">
        <ele>40</ele>
        <time>2018-05-12T09:50:58Z</time>
      </trkpt>
      <trkpt lat="47.58136" lon="-2.90525">
        <ele>41</ele>
        <time>2018-05-12T09:51:00Z</time>
      </trkpt>
      <trkpt lat="47.58137" lon="-2.90532">
        <ele>42</ele>
        <time>2018-05-12T09:51:03Z</time>
      </trkpt>
      <trkpt lat="47.58137" lon="-2.90541">
        <ele>42</ele>
        <time>2018-05-12T09:51:06Z</time>
      </trkpt>
      <trkpt lat="47.58138" lon="-2.90549">
        <ele>42</ele>
        <time>2018-05-12T09:51:09Z</time>
      </trkpt>
      <trkpt lat="47.58138" lon="-2.90553">
        <ele>41</ele>
        <time>2018-05-12T09:51:11Z</time>
      </trkpt>
      <trkpt lat="47.58139" lon="-2.90562">
        <ele>41</ele>
        <time>2018-05-12T09:51:15Z</time>
      </trkpt>
      <trkpt lat="47.58139" lon="-2.90567">
        <ele>40</ele>
        <time>2018-05-12T09:51:17Z</time>
      </trkpt>
      <trkpt lat="47.5814" lon="-2.90575">
        <ele>40</ele>
        <time>2018-05-12T09:51:20Z</time>
      </trkpt>
      <trkpt lat="47.58141" lon="-2.90581">
        <ele>40</ele>
        <time>2018-05-12T09:51:23Z</time>
      </trkpt>
      <trkpt lat="47.58141" lon="-2.9059">
        <ele>43</ele>
        <time>2018-05-12T09:51:26Z</time>
      </trkpt>
      <trkpt lat="47.58144" lon="-2.90596">
        <ele>43</ele>
        <time>2018-05-12T09:51:29Z</time>
      </trkpt>
      <trkpt lat="47.58145" lon="-2.90603">
        <ele>45</ele>
        <time>2018-05-12T09:51:32Z</time>
      </trkpt>
      <trkpt lat="47.58149" lon="-2.90609">
        <ele>43</ele>
        <time>2018-05-12T09:51:37Z</time>
      </trkpt>
      <trkpt lat="47.58151" lon="-2.90614">
        <ele>44</ele>
        <time>2018-05-12T09:51:40Z</time>
      </trkpt>
      <trkpt lat="47.58156" lon="-2.90616">
        <ele>43</ele>
        <time>2018-05-12T09:51:44Z</time>
      </trkpt>
      <trkpt lat="47.58161" lon="-2.90619">
        <ele>43</ele>
        <time>2018-05-12T09:51:47Z</time>
      </trkpt>
      <trkpt lat="47.58164" lon="-2.90621">
        <ele>43</ele>
        <time>2018-05-12T09:51:49Z</time>
      </trkpt>
      <trkpt lat="47.58168" lon="-2.90625">
        <ele>42</ele>
        <time>2018-05-12T09:51:53Z</time>
      </trkpt>
      <trkpt lat="47.58174" lon="-2.90629">
        <ele>43</ele>
        <time>2018-05-12T09:51:57Z</time>
      </trkpt>
      <trkpt lat="47.58179" lon="-2.9063">
        <ele>45</ele>
        <time>2018-05-12T09:52:01Z</time>
      </trkpt>
      <trkpt lat="47.58183" lon="-2.90631">
        <ele>46</ele>
        <time>2018-05-12T09:52:03Z</time>
      </trkpt>
      <trkpt lat="47.58188" lon="-2.9063">
        <ele>46</ele>
        <time>2018-05-12T09:52:06Z</time>
      </trkpt>
      <trkpt lat="47.58193" lon="-2.9063">
        <ele>46</ele>
        <time>2018-05-12T09:52:11Z</time>
      </trkpt>
      <trkpt lat="47.58197" lon="-2.9063">
        <ele>43</ele>
        <time>2018-05-12T09:52:15Z</time>
      </trkpt>
      <trkpt lat="47.58202" lon="-2.90629">
        <ele>46</ele>
        <time>2018-05-12T09:52:17Z</time>
      </trkpt>
      <trkpt lat="47.58207" lon="-2.90627">
        <ele>45</ele>
        <time>2018-05-12T09:52:21Z</time>
      </trkpt>
      <trkpt lat="47.58212" lon="-2.90624">
        <ele>45</ele>
        <time>2018-05-12T09:52:25Z</time>
      </trkpt>
      <trkpt lat="47.58215" lon="-2.90621">
        <ele>46</ele>
        <time>2018-05-12T09:52:27Z</time>
      </trkpt>
      <trkpt lat="47.58218" lon="-2.90615">
        <ele>49</ele>
        <time>2018-05-12T09:52:34Z</time>
      </trkpt>
      <trkpt lat="47.58218" lon="-2.90615">
        <ele>1</ele>
        <time>2018-05-12T09:53:30Z</time>
      </trkpt>
      <trkpt lat="47.58218" lon="-2.90615">
        <ele>1</ele>
        <time>2018-05-12T09:53:32Z</time>
      </trkpt>
    </trkseg>
  </trk>
</gpx>